<?xml version="1.0" encoding="UTF-8" standalone="no" ?>
<gpx xmlns="http://www.topografix.com/GPX/1/1" xmlns:xsi="http://www.w3.org/2001/XMLSchema-instance" xsi:schemaLocation="http://www.topografix.com/GPX/1/1 http://www.topografix.com/GPX/1/1/gpx.xsd" version="1.1" creator="VisuGPX - https://www.visugpx.com">
  <metadata>
    <name>Rando VTT Béruges 2023</name>
  </metadata>
  <trk>
    <name><![CDATA[Rando VTT Béruges 2023_1]]></name>
    <trkseg>
      <trkpt lat="46.56895" lon="0.19781">
        <ele>3.2</ele>
        <time>2023-12-03T07:31:04Z</time>
      </trkpt>
      <trkpt lat="46.56899" lon="0.19781">
        <ele>3</ele>
        <time>2023-12-03T07:31:10Z</time>
      </trkpt>
      <trkpt lat="46.569" lon="0.19782">
        <ele>3</ele>
        <time>2023-12-03T07:31:11Z</time>
      </trkpt>
      <trkpt lat="46.56902" lon="0.19782">
        <ele>3</ele>
        <time>2023-12-03T07:31:12Z</time>
      </trkpt>
      <trkpt lat="46.56912" lon="0.19784">
        <ele>3.4</ele>
        <time>2023-12-03T07:31:16Z</time>
      </trkpt>
      <trkpt lat="46.56919" lon="0.1978">
        <ele>3.4</ele>
        <time>2023-12-03T07:31:19Z</time>
      </trkpt>
      <trkpt lat="46.5692" lon="0.19778">
        <ele>3.6</ele>
        <time>2023-12-03T07:31:20Z</time>
      </trkpt>
      <trkpt lat="46.56925" lon="0.19772">
        <ele>3.4</ele>
        <time>2023-12-03T07:31:24Z</time>
      </trkpt>
      <trkpt lat="46.56926" lon="0.19768">
        <ele>3.2</ele>
        <time>2023-12-03T07:31:26Z</time>
      </trkpt>
      <trkpt lat="46.56927" lon="0.1975">
        <ele>3</ele>
        <time>2023-12-03T07:31:32Z</time>
      </trkpt>
      <trkpt lat="46.56927" lon="0.19728">
        <ele>2.8</ele>
        <time>2023-12-03T07:31:39Z</time>
      </trkpt>
      <trkpt lat="46.56927" lon="0.19709">
        <ele>2.6</ele>
        <time>2023-12-03T07:31:46Z</time>
      </trkpt>
      <trkpt lat="46.56927" lon="0.19686">
        <ele>2.2</ele>
        <time>2023-12-03T07:31:54Z</time>
      </trkpt>
      <trkpt lat="46.56926" lon="0.19673">
        <ele>2.2</ele>
        <time>2023-12-03T07:31:57Z</time>
      </trkpt>
      <trkpt lat="46.56926" lon="0.1966">
        <ele>2</ele>
        <time>2023-12-03T07:32:01Z</time>
      </trkpt>
      <trkpt lat="46.5692" lon="0.19626">
        <ele>1.6</ele>
        <time>2023-12-03T07:32:08Z</time>
      </trkpt>
      <trkpt lat="46.56917" lon="0.19596">
        <ele>1.6</ele>
        <time>2023-12-03T07:32:14Z</time>
      </trkpt>
      <trkpt lat="46.56914" lon="0.19562">
        <ele>1.2</ele>
        <time>2023-12-03T07:32:21Z</time>
      </trkpt>
      <trkpt lat="46.56913" lon="0.19547">
        <ele>1.2</ele>
        <time>2023-12-03T07:32:24Z</time>
      </trkpt>
      <trkpt lat="46.56914" lon="0.19537">
        <ele>1</ele>
        <time>2023-12-03T07:32:26Z</time>
      </trkpt>
      <trkpt lat="46.56925" lon="0.19505">
        <ele>0.6</ele>
        <time>2023-12-03T07:32:33Z</time>
      </trkpt>
      <trkpt lat="46.56945" lon="0.19485">
        <ele>0.6</ele>
        <time>2023-12-03T07:32:39Z</time>
      </trkpt>
      <trkpt lat="46.5697" lon="0.1946">
        <ele>0.4</ele>
        <time>2023-12-03T07:32:46Z</time>
      </trkpt>
      <trkpt lat="46.56973" lon="0.19457">
        <ele>0.4</ele>
        <time>2023-12-03T07:32:47Z</time>
      </trkpt>
      <trkpt lat="46.56978" lon="0.19461">
        <ele>0.2</ele>
        <time>2023-12-03T07:32:49Z</time>
      </trkpt>
      <trkpt lat="46.56982" lon="0.1947">
        <ele>134.4</ele>
        <time>2023-12-03T07:32:51Z</time>
      </trkpt>
      <trkpt lat="46.56987" lon="0.19482">
        <ele>-0.8</ele>
        <time>2023-12-03T07:32:53Z</time>
      </trkpt>
      <trkpt lat="46.5699" lon="0.19487">
        <ele>-1.6</ele>
        <time>2023-12-03T07:32:54Z</time>
      </trkpt>
      <trkpt lat="46.56998" lon="0.19503">
        <ele>-3</ele>
        <time>2023-12-03T07:32:57Z</time>
      </trkpt>
      <trkpt lat="46.57002" lon="0.19508">
        <ele>-3.4</ele>
        <time>2023-12-03T07:32:58Z</time>
      </trkpt>
      <trkpt lat="46.57013" lon="0.19518">
        <ele>-4</ele>
        <time>2023-12-03T07:33:00Z</time>
      </trkpt>
      <trkpt lat="46.57019" lon="0.19521">
        <ele>-4.8</ele>
        <time>2023-12-03T07:33:01Z</time>
      </trkpt>
      <trkpt lat="46.57026" lon="0.19522">
        <ele>-5.4</ele>
        <time>2023-12-03T07:33:02Z</time>
      </trkpt>
      <trkpt lat="46.57041" lon="0.19523">
        <ele>-6</ele>
        <time>2023-12-03T07:33:04Z</time>
      </trkpt>
      <trkpt lat="46.57057" lon="0.19525">
        <ele>-7.6</ele>
        <time>2023-12-03T07:33:06Z</time>
      </trkpt>
      <trkpt lat="46.57064" lon="0.19526">
        <ele>-8.8</ele>
        <time>2023-12-03T07:33:07Z</time>
      </trkpt>
      <trkpt lat="46.57072" lon="0.19526">
        <ele>-9.6</ele>
        <time>2023-12-03T07:33:08Z</time>
      </trkpt>
      <trkpt lat="46.57079" lon="0.19525">
        <ele>-10.4</ele>
        <time>2023-12-03T07:33:09Z</time>
      </trkpt>
      <trkpt lat="46.57092" lon="0.19522">
        <ele>-12.4</ele>
        <time>2023-12-03T07:33:11Z</time>
      </trkpt>
      <trkpt lat="46.57098" lon="0.19521">
        <ele>-13.4</ele>
        <time>2023-12-03T07:33:12Z</time>
      </trkpt>
      <trkpt lat="46.57104" lon="0.1952">
        <ele>-14.6</ele>
        <time>2023-12-03T07:33:13Z</time>
      </trkpt>
      <trkpt lat="46.57111" lon="0.19521">
        <ele>-15.4</ele>
        <time>2023-12-03T07:33:14Z</time>
      </trkpt>
      <trkpt lat="46.57118" lon="0.19523">
        <ele>-15.6</ele>
        <time>2023-12-03T07:33:15Z</time>
      </trkpt>
      <trkpt lat="46.57131" lon="0.19525">
        <ele>-18</ele>
        <time>2023-12-03T07:33:17Z</time>
      </trkpt>
      <trkpt lat="46.57137" lon="0.19525">
        <ele>-19.8</ele>
        <time>2023-12-03T07:33:18Z</time>
      </trkpt>
      <trkpt lat="46.5715" lon="0.19526">
        <ele>-21.6</ele>
        <time>2023-12-03T07:33:20Z</time>
      </trkpt>
      <trkpt lat="46.5716" lon="0.19527">
        <ele>-23.4</ele>
        <time>2023-12-03T07:33:22Z</time>
      </trkpt>
      <trkpt lat="46.57165" lon="0.19529">
        <ele>-23.8</ele>
        <time>2023-12-03T07:33:23Z</time>
      </trkpt>
      <trkpt lat="46.57169" lon="0.19533">
        <ele>-24.4</ele>
        <time>2023-12-03T07:33:24Z</time>
      </trkpt>
      <trkpt lat="46.57173" lon="0.19536">
        <ele>-24.8</ele>
        <time>2023-12-03T07:33:25Z</time>
      </trkpt>
      <trkpt lat="46.57176" lon="0.19539">
        <ele>-25.4</ele>
        <time>2023-12-03T07:33:26Z</time>
      </trkpt>
      <trkpt lat="46.5718" lon="0.19541">
        <ele>-25.8</ele>
        <time>2023-12-03T07:33:27Z</time>
      </trkpt>
      <trkpt lat="46.57186" lon="0.19545">
        <ele>-26.8</ele>
        <time>2023-12-03T07:33:29Z</time>
      </trkpt>
      <trkpt lat="46.57188" lon="0.19547">
        <ele>-27.6</ele>
        <time>2023-12-03T07:33:30Z</time>
      </trkpt>
      <trkpt lat="46.57191" lon="0.19549">
        <ele>-28.8</ele>
        <time>2023-12-03T07:33:32Z</time>
      </trkpt>
      <trkpt lat="46.57205" lon="0.19555">
        <ele>-29.8</ele>
        <time>2023-12-03T07:33:35Z</time>
      </trkpt>
      <trkpt lat="46.57218" lon="0.19561">
        <ele>-29.8</ele>
        <time>2023-12-03T07:33:38Z</time>
      </trkpt>
      <trkpt lat="46.57231" lon="0.19573">
        <ele>-29.6</ele>
        <time>2023-12-03T07:33:41Z</time>
      </trkpt>
      <trkpt lat="46.5724" lon="0.19583">
        <ele>-29.6</ele>
        <time>2023-12-03T07:33:43Z</time>
      </trkpt>
      <trkpt lat="46.57247" lon="0.19593">
        <ele>-29.4</ele>
        <time>2023-12-03T07:33:45Z</time>
      </trkpt>
      <trkpt lat="46.5725" lon="0.19599">
        <ele>-29.2</ele>
        <time>2023-12-03T07:33:46Z</time>
      </trkpt>
      <trkpt lat="46.57256" lon="0.19608">
        <ele>-28.8</ele>
        <time>2023-12-03T07:33:48Z</time>
      </trkpt>
      <trkpt lat="46.57272" lon="0.19629">
        <ele>-28.2</ele>
        <time>2023-12-03T07:33:52Z</time>
      </trkpt>
      <trkpt lat="46.5729" lon="0.19661">
        <ele>-28.4</ele>
        <time>2023-12-03T07:33:57Z</time>
      </trkpt>
      <trkpt lat="46.57294" lon="0.19667">
        <ele>-28.6</ele>
        <time>2023-12-03T07:33:58Z</time>
      </trkpt>
      <trkpt lat="46.57308" lon="0.19687">
        <ele>-28.8</ele>
        <time>2023-12-03T07:34:02Z</time>
      </trkpt>
      <trkpt lat="46.57316" lon="0.19705">
        <ele>-29.2</ele>
        <time>2023-12-03T07:34:06Z</time>
      </trkpt>
      <trkpt lat="46.57318" lon="0.19709">
        <ele>-29.4</ele>
        <time>2023-12-03T07:34:07Z</time>
      </trkpt>
      <trkpt lat="46.57324" lon="0.19728">
        <ele>-29.6</ele>
        <time>2023-12-03T07:34:12Z</time>
      </trkpt>
      <trkpt lat="46.57328" lon="0.19741">
        <ele>-29.6</ele>
        <time>2023-12-03T07:34:17Z</time>
      </trkpt>
      <trkpt lat="46.57328" lon="0.19743">
        <ele>-29.6</ele>
        <time>2023-12-03T07:34:18Z</time>
      </trkpt>
      <trkpt lat="46.57327" lon="0.19748">
        <ele>-29.4</ele>
        <time>2023-12-03T07:34:36Z</time>
      </trkpt>
      <trkpt lat="46.57329" lon="0.19757">
        <ele>-29.6</ele>
        <time>2023-12-03T07:34:45Z</time>
      </trkpt>
      <trkpt lat="46.5733" lon="0.19763">
        <ele>-29.6</ele>
        <time>2023-12-03T07:34:47Z</time>
      </trkpt>
      <trkpt lat="46.57333" lon="0.19776">
        <ele>-29.8</ele>
        <time>2023-12-03T07:34:50Z</time>
      </trkpt>
      <trkpt lat="46.57334" lon="0.19782">
        <ele>-29.8</ele>
        <time>2023-12-03T07:34:51Z</time>
      </trkpt>
      <trkpt lat="46.57334" lon="0.19789">
        <ele>-29.8</ele>
        <time>2023-12-03T07:34:52Z</time>
      </trkpt>
      <trkpt lat="46.57337" lon="0.19813">
        <ele>-29.8</ele>
        <time>2023-12-03T07:34:56Z</time>
      </trkpt>
      <trkpt lat="46.57337" lon="0.19826">
        <ele>-29.8</ele>
        <time>2023-12-03T07:34:58Z</time>
      </trkpt>
      <trkpt lat="46.57336" lon="0.19842">
        <ele>-29.8</ele>
        <time>2023-12-03T07:35:00Z</time>
      </trkpt>
      <trkpt lat="46.57338" lon="0.19869">
        <ele>-29.6</ele>
        <time>2023-12-03T07:35:04Z</time>
      </trkpt>
      <trkpt lat="46.5734" lon="0.19882">
        <ele>-29.4</ele>
        <time>2023-12-03T07:35:06Z</time>
      </trkpt>
      <trkpt lat="46.57343" lon="0.19896">
        <ele>-29.2</ele>
        <time>2023-12-03T07:35:08Z</time>
      </trkpt>
      <trkpt lat="46.57346" lon="0.19903">
        <ele>-29</ele>
        <time>2023-12-03T07:35:09Z</time>
      </trkpt>
      <trkpt lat="46.57353" lon="0.1992">
        <ele>-28.6</ele>
        <time>2023-12-03T07:35:12Z</time>
      </trkpt>
      <trkpt lat="46.5736" lon="0.19932">
        <ele>-28.4</ele>
        <time>2023-12-03T07:35:15Z</time>
      </trkpt>
      <trkpt lat="46.57365" lon="0.19941">
        <ele>-28.2</ele>
        <time>2023-12-03T07:35:17Z</time>
      </trkpt>
      <trkpt lat="46.57378" lon="0.19962">
        <ele>-27.6</ele>
        <time>2023-12-03T07:35:22Z</time>
      </trkpt>
      <trkpt lat="46.57393" lon="0.19981">
        <ele>-26.6</ele>
        <time>2023-12-03T07:35:28Z</time>
      </trkpt>
      <trkpt lat="46.57402" lon="0.19987">
        <ele>-25.6</ele>
        <time>2023-12-03T07:35:31Z</time>
      </trkpt>
      <trkpt lat="46.57412" lon="0.19994">
        <ele>-25</ele>
        <time>2023-12-03T07:35:34Z</time>
      </trkpt>
      <trkpt lat="46.57417" lon="0.2">
        <ele>-24.4</ele>
        <time>2023-12-03T07:35:36Z</time>
      </trkpt>
      <trkpt lat="46.57424" lon="0.2001">
        <ele>-24</ele>
        <time>2023-12-03T07:35:39Z</time>
      </trkpt>
      <trkpt lat="46.57431" lon="0.20021">
        <ele>-23.6</ele>
        <time>2023-12-03T07:35:44Z</time>
      </trkpt>
      <trkpt lat="46.57436" lon="0.20029">
        <ele>-23.2</ele>
        <time>2023-12-03T07:35:47Z</time>
      </trkpt>
      <trkpt lat="46.57442" lon="0.20038">
        <ele>-22.2</ele>
        <time>2023-12-03T07:35:50Z</time>
      </trkpt>
      <trkpt lat="46.57446" lon="0.20045">
        <ele>-21.6</ele>
        <time>2023-12-03T07:35:52Z</time>
      </trkpt>
      <trkpt lat="46.57451" lon="0.20054">
        <ele>-21.2</ele>
        <time>2023-12-03T07:35:55Z</time>
      </trkpt>
      <trkpt lat="46.57456" lon="0.20063">
        <ele>-21</ele>
        <time>2023-12-03T07:35:58Z</time>
      </trkpt>
      <trkpt lat="46.57464" lon="0.20077">
        <ele>-19.8</ele>
        <time>2023-12-03T07:36:03Z</time>
      </trkpt>
      <trkpt lat="46.57466" lon="0.20079">
        <ele>-19.6</ele>
        <time>2023-12-03T07:36:04Z</time>
      </trkpt>
      <trkpt lat="46.57475" lon="0.20087">
        <ele>-18.8</ele>
        <time>2023-12-03T07:36:08Z</time>
      </trkpt>
      <trkpt lat="46.57481" lon="0.20095">
        <ele>-18.6</ele>
        <time>2023-12-03T07:36:11Z</time>
      </trkpt>
      <trkpt lat="46.57489" lon="0.20103">
        <ele>-17.8</ele>
        <time>2023-12-03T07:36:16Z</time>
      </trkpt>
      <trkpt lat="46.57491" lon="0.20104">
        <ele>-17.8</ele>
        <time>2023-12-03T07:36:17Z</time>
      </trkpt>
      <trkpt lat="46.57506" lon="0.20107">
        <ele>-16.8</ele>
        <time>2023-12-03T07:36:23Z</time>
      </trkpt>
      <trkpt lat="46.57509" lon="0.20108">
        <ele>-16.6</ele>
        <time>2023-12-03T07:36:24Z</time>
      </trkpt>
      <trkpt lat="46.57526" lon="0.20111">
        <ele>-16.2</ele>
        <time>2023-12-03T07:36:30Z</time>
      </trkpt>
      <trkpt lat="46.57539" lon="0.20115">
        <ele>-15.6</ele>
        <time>2023-12-03T07:36:34Z</time>
      </trkpt>
      <trkpt lat="46.57545" lon="0.20114">
        <ele>-15.4</ele>
        <time>2023-12-03T07:36:36Z</time>
      </trkpt>
      <trkpt lat="46.57559" lon="0.20115">
        <ele>-14.8</ele>
        <time>2023-12-03T07:36:41Z</time>
      </trkpt>
      <trkpt lat="46.57563" lon="0.20117">
        <ele>-14.4</ele>
        <time>2023-12-03T07:36:43Z</time>
      </trkpt>
      <trkpt lat="46.57573" lon="0.2012">
        <ele>-14</ele>
        <time>2023-12-03T07:36:47Z</time>
      </trkpt>
      <trkpt lat="46.57595" lon="0.2012">
        <ele>-13.4</ele>
        <time>2023-12-03T07:36:53Z</time>
      </trkpt>
      <trkpt lat="46.57602" lon="0.20121">
        <ele>-13.4</ele>
        <time>2023-12-03T07:36:55Z</time>
      </trkpt>
      <trkpt lat="46.57612" lon="0.20122">
        <ele>-13.4</ele>
        <time>2023-12-03T07:36:58Z</time>
      </trkpt>
      <trkpt lat="46.57633" lon="0.20119">
        <ele>-12.2</ele>
        <time>2023-12-03T07:37:03Z</time>
      </trkpt>
      <trkpt lat="46.57642" lon="0.20115">
        <ele>-11.8</ele>
        <time>2023-12-03T07:37:05Z</time>
      </trkpt>
      <trkpt lat="46.57661" lon="0.20103">
        <ele>-11</ele>
        <time>2023-12-03T07:37:11Z</time>
      </trkpt>
      <trkpt lat="46.57663" lon="0.201">
        <ele>-10.8</ele>
        <time>2023-12-03T07:37:12Z</time>
      </trkpt>
      <trkpt lat="46.57672" lon="0.20089">
        <ele>-9.8</ele>
        <time>2023-12-03T07:37:16Z</time>
      </trkpt>
      <trkpt lat="46.57674" lon="0.20086">
        <ele>-9.8</ele>
        <time>2023-12-03T07:37:17Z</time>
      </trkpt>
      <trkpt lat="46.57675" lon="0.20082">
        <ele>-9.6</ele>
        <time>2023-12-03T07:37:18Z</time>
      </trkpt>
      <trkpt lat="46.57683" lon="0.20071">
        <ele>-8.8</ele>
        <time>2023-12-03T07:37:22Z</time>
      </trkpt>
      <trkpt lat="46.57687" lon="0.20066">
        <ele>-8.2</ele>
        <time>2023-12-03T07:37:24Z</time>
      </trkpt>
      <trkpt lat="46.57694" lon="0.20059">
        <ele>-7.6</ele>
        <time>2023-12-03T07:37:27Z</time>
      </trkpt>
      <trkpt lat="46.57702" lon="0.2005">
        <ele>-6.8</ele>
        <time>2023-12-03T07:37:31Z</time>
      </trkpt>
      <trkpt lat="46.57708" lon="0.20044">
        <ele>-6.6</ele>
        <time>2023-12-03T07:37:33Z</time>
      </trkpt>
      <trkpt lat="46.57721" lon="0.20037">
        <ele>-6.2</ele>
        <time>2023-12-03T07:37:38Z</time>
      </trkpt>
      <trkpt lat="46.57728" lon="0.20031">
        <ele>-5.4</ele>
        <time>2023-12-03T07:37:41Z</time>
      </trkpt>
      <trkpt lat="46.57735" lon="0.20025">
        <ele>-4.8</ele>
        <time>2023-12-03T07:37:44Z</time>
      </trkpt>
      <trkpt lat="46.57751" lon="0.20013">
        <ele>-4</ele>
        <time>2023-12-03T07:37:50Z</time>
      </trkpt>
      <trkpt lat="46.57752" lon="0.20011">
        <ele>-3.8</ele>
        <time>2023-12-03T07:37:51Z</time>
      </trkpt>
      <trkpt lat="46.57767" lon="0.20004">
        <ele>-3</ele>
        <time>2023-12-03T07:37:57Z</time>
      </trkpt>
      <trkpt lat="46.57772" lon="0.20001">
        <ele>-2.8</ele>
        <time>2023-12-03T07:37:59Z</time>
      </trkpt>
      <trkpt lat="46.57787" lon="0.19994">
        <ele>-2</ele>
        <time>2023-12-03T07:38:04Z</time>
      </trkpt>
      <trkpt lat="46.57789" lon="0.19993">
        <ele>-1.8</ele>
        <time>2023-12-03T07:38:05Z</time>
      </trkpt>
      <trkpt lat="46.578" lon="0.19987">
        <ele>-0.6</ele>
        <time>2023-12-03T07:38:10Z</time>
      </trkpt>
      <trkpt lat="46.57802" lon="0.19986">
        <ele>-0.4</ele>
        <time>2023-12-03T07:38:11Z</time>
      </trkpt>
      <trkpt lat="46.57822" lon="0.1998">
        <ele>0.6</ele>
        <time>2023-12-03T07:38:18Z</time>
      </trkpt>
      <trkpt lat="46.57824" lon="0.19979">
        <ele>0.6</ele>
        <time>2023-12-03T07:38:19Z</time>
      </trkpt>
      <trkpt lat="46.57842" lon="0.19973">
        <ele>1</ele>
        <time>2023-12-03T07:38:25Z</time>
      </trkpt>
      <trkpt lat="46.57859" lon="0.19967">
        <ele>1.6</ele>
        <time>2023-12-03T07:38:29Z</time>
      </trkpt>
      <trkpt lat="46.57862" lon="0.19966">
        <ele>1.8</ele>
        <time>2023-12-03T07:38:30Z</time>
      </trkpt>
      <trkpt lat="46.57881" lon="0.19959">
        <ele>2</ele>
        <time>2023-12-03T07:38:35Z</time>
      </trkpt>
      <trkpt lat="46.57893" lon="0.19954">
        <ele>2.8</ele>
        <time>2023-12-03T07:38:39Z</time>
      </trkpt>
      <trkpt lat="46.57895" lon="0.19953">
        <ele>3</ele>
        <time>2023-12-03T07:38:40Z</time>
      </trkpt>
      <trkpt lat="46.57916" lon="0.19946">
        <ele>3</ele>
        <time>2023-12-03T07:38:46Z</time>
      </trkpt>
      <trkpt lat="46.57937" lon="0.19935">
        <ele>3.2</ele>
        <time>2023-12-03T07:38:51Z</time>
      </trkpt>
      <trkpt lat="46.57955" lon="0.1993">
        <ele>3.6</ele>
        <time>2023-12-03T07:38:56Z</time>
      </trkpt>
      <trkpt lat="46.57959" lon="0.19927">
        <ele>3.8</ele>
        <time>2023-12-03T07:38:57Z</time>
      </trkpt>
      <trkpt lat="46.57966" lon="0.1992">
        <ele>4</ele>
        <time>2023-12-03T07:39:01Z</time>
      </trkpt>
      <trkpt lat="46.57974" lon="0.19897">
        <ele>5</ele>
        <time>2023-12-03T07:39:12Z</time>
      </trkpt>
      <trkpt lat="46.57978" lon="0.19877">
        <ele>5.2</ele>
        <time>2023-12-03T07:39:16Z</time>
      </trkpt>
      <trkpt lat="46.57981" lon="0.19873">
        <ele>5.2</ele>
        <time>2023-12-03T07:39:17Z</time>
      </trkpt>
      <trkpt lat="46.57985" lon="0.1987">
        <ele>5.2</ele>
        <time>2023-12-03T07:39:18Z</time>
      </trkpt>
      <trkpt lat="46.58" lon="0.19865">
        <ele>5</ele>
        <time>2023-12-03T07:39:21Z</time>
      </trkpt>
      <trkpt lat="46.58022" lon="0.19854">
        <ele>5.2</ele>
        <time>2023-12-03T07:39:26Z</time>
      </trkpt>
      <trkpt lat="46.58026" lon="0.19851">
        <ele>5.2</ele>
        <time>2023-12-03T07:39:27Z</time>
      </trkpt>
      <trkpt lat="46.58057" lon="0.19822">
        <ele>5.6</ele>
        <time>2023-12-03T07:39:34Z</time>
      </trkpt>
      <trkpt lat="46.58087" lon="0.19789">
        <ele>5.6</ele>
        <time>2023-12-03T07:39:41Z</time>
      </trkpt>
      <trkpt lat="46.58108" lon="0.19754">
        <ele>6</ele>
        <time>2023-12-03T07:39:47Z</time>
      </trkpt>
      <trkpt lat="46.58115" lon="0.19733">
        <ele>6.2</ele>
        <time>2023-12-03T07:39:50Z</time>
      </trkpt>
      <trkpt lat="46.58118" lon="0.19717">
        <ele>6.2</ele>
        <time>2023-12-03T07:39:52Z</time>
      </trkpt>
      <trkpt lat="46.58132" lon="0.19667">
        <ele>6.6</ele>
        <time>2023-12-03T07:39:59Z</time>
      </trkpt>
      <trkpt lat="46.58143" lon="0.19648">
        <ele>6.6</ele>
        <time>2023-12-03T07:40:02Z</time>
      </trkpt>
      <trkpt lat="46.58153" lon="0.19637">
        <ele>6.4</ele>
        <time>2023-12-03T07:40:04Z</time>
      </trkpt>
      <trkpt lat="46.58188" lon="0.19603">
        <ele>6.4</ele>
        <time>2023-12-03T07:40:11Z</time>
      </trkpt>
      <trkpt lat="46.58197" lon="0.19595">
        <ele>6.2</ele>
        <time>2023-12-03T07:40:13Z</time>
      </trkpt>
      <trkpt lat="46.58207" lon="0.19581">
        <ele>6</ele>
        <time>2023-12-03T07:40:16Z</time>
      </trkpt>
      <trkpt lat="46.5823" lon="0.19551">
        <ele>5.8</ele>
        <time>2023-12-03T07:40:22Z</time>
      </trkpt>
      <trkpt lat="46.58245" lon="0.19533">
        <ele>6</ele>
        <time>2023-12-03T07:40:26Z</time>
      </trkpt>
      <trkpt lat="46.58254" lon="0.19525">
        <ele>5.8</ele>
        <time>2023-12-03T07:40:28Z</time>
      </trkpt>
      <trkpt lat="46.58265" lon="0.19518">
        <ele>5.4</ele>
        <time>2023-12-03T07:40:31Z</time>
      </trkpt>
      <trkpt lat="46.58267" lon="0.19516">
        <ele>5.4</ele>
        <time>2023-12-03T07:40:32Z</time>
      </trkpt>
      <trkpt lat="46.58282" lon="0.19502">
        <ele>5.2</ele>
        <time>2023-12-03T07:40:38Z</time>
      </trkpt>
      <trkpt lat="46.58297" lon="0.1948">
        <ele>5.4</ele>
        <time>2023-12-03T07:40:43Z</time>
      </trkpt>
      <trkpt lat="46.58316" lon="0.19442">
        <ele>5</ele>
        <time>2023-12-03T07:40:50Z</time>
      </trkpt>
      <trkpt lat="46.58329" lon="0.19417">
        <ele>5.2</ele>
        <time>2023-12-03T07:40:54Z</time>
      </trkpt>
      <trkpt lat="46.58334" lon="0.19403">
        <ele>5.2</ele>
        <time>2023-12-03T07:40:56Z</time>
      </trkpt>
      <trkpt lat="46.58344" lon="0.19384">
        <ele>5</ele>
        <time>2023-12-03T07:40:59Z</time>
      </trkpt>
      <trkpt lat="46.5835" lon="0.19369">
        <ele>4.8</ele>
        <time>2023-12-03T07:41:01Z</time>
      </trkpt>
      <trkpt lat="46.58363" lon="0.19331">
        <ele>4.6</ele>
        <time>2023-12-03T07:41:06Z</time>
      </trkpt>
      <trkpt lat="46.5837" lon="0.19318">
        <ele>4.6</ele>
        <time>2023-12-03T07:41:08Z</time>
      </trkpt>
      <trkpt lat="46.58382" lon="0.19292">
        <ele>3.8</ele>
        <time>2023-12-03T07:41:12Z</time>
      </trkpt>
      <trkpt lat="46.58398" lon="0.19255">
        <ele>3.2</ele>
        <time>2023-12-03T07:41:17Z</time>
      </trkpt>
      <trkpt lat="46.58403" lon="0.19249">
        <ele>3</ele>
        <time>2023-12-03T07:41:18Z</time>
      </trkpt>
      <trkpt lat="46.5841" lon="0.19236">
        <ele>2.8</ele>
        <time>2023-12-03T07:41:20Z</time>
      </trkpt>
      <trkpt lat="46.58417" lon="0.19221">
        <ele>2.8</ele>
        <time>2023-12-03T07:41:22Z</time>
      </trkpt>
      <trkpt lat="46.58421" lon="0.19215">
        <ele>2.4</ele>
        <time>2023-12-03T07:41:23Z</time>
      </trkpt>
      <trkpt lat="46.58434" lon="0.1919">
        <ele>2.2</ele>
        <time>2023-12-03T07:41:27Z</time>
      </trkpt>
      <trkpt lat="46.58437" lon="0.19185">
        <ele>2</ele>
        <time>2023-12-03T07:41:28Z</time>
      </trkpt>
      <trkpt lat="46.58442" lon="0.19179">
        <ele>1.8</ele>
        <time>2023-12-03T07:41:30Z</time>
      </trkpt>
      <trkpt lat="46.58449" lon="0.19166">
        <ele>1.2</ele>
        <time>2023-12-03T07:41:34Z</time>
      </trkpt>
      <trkpt lat="46.58454" lon="0.19146">
        <ele>1.2</ele>
        <time>2023-12-03T07:41:39Z</time>
      </trkpt>
      <trkpt lat="46.58454" lon="0.19127">
        <ele>1.4</ele>
        <time>2023-12-03T07:41:43Z</time>
      </trkpt>
      <trkpt lat="46.58456" lon="0.19114">
        <ele>1.6</ele>
        <time>2023-12-03T07:41:45Z</time>
      </trkpt>
      <trkpt lat="46.58459" lon="0.19104">
        <ele>1.8</ele>
        <time>2023-12-03T07:41:47Z</time>
      </trkpt>
      <trkpt lat="46.58462" lon="0.19094">
        <ele>1.8</ele>
        <time>2023-12-03T07:41:49Z</time>
      </trkpt>
      <trkpt lat="46.58461" lon="0.1909">
        <ele>2</ele>
        <time>2023-12-03T07:41:50Z</time>
      </trkpt>
      <trkpt lat="46.58454" lon="0.19076">
        <ele>2.2</ele>
        <time>2023-12-03T07:41:53Z</time>
      </trkpt>
      <trkpt lat="46.58442" lon="0.1906">
        <ele>2.4</ele>
        <time>2023-12-03T07:41:57Z</time>
      </trkpt>
      <trkpt lat="46.58433" lon="0.19048">
        <ele>2.4</ele>
        <time>2023-12-03T07:42:00Z</time>
      </trkpt>
      <trkpt lat="46.58422" lon="0.19036">
        <ele>2.8</ele>
        <time>2023-12-03T07:42:03Z</time>
      </trkpt>
      <trkpt lat="46.58413" lon="0.19022">
        <ele>3</ele>
        <time>2023-12-03T07:42:06Z</time>
      </trkpt>
      <trkpt lat="46.58391" lon="0.18993">
        <ele>3.6</ele>
        <time>2023-12-03T07:42:12Z</time>
      </trkpt>
      <trkpt lat="46.58384" lon="0.18982">
        <ele>3.8</ele>
        <time>2023-12-03T07:42:14Z</time>
      </trkpt>
      <trkpt lat="46.58356" lon="0.18949">
        <ele>4</ele>
        <time>2023-12-03T07:42:21Z</time>
      </trkpt>
      <trkpt lat="46.58326" lon="0.18907">
        <ele>4.2</ele>
        <time>2023-12-03T07:42:28Z</time>
      </trkpt>
      <trkpt lat="46.58314" lon="0.18887">
        <ele>3.8</ele>
        <time>2023-12-03T07:42:31Z</time>
      </trkpt>
      <trkpt lat="46.58307" lon="0.18871">
        <ele>3.4</ele>
        <time>2023-12-03T07:42:33Z</time>
      </trkpt>
      <trkpt lat="46.58304" lon="0.18863">
        <ele>3.2</ele>
        <time>2023-12-03T07:42:34Z</time>
      </trkpt>
      <trkpt lat="46.58301" lon="0.18853">
        <ele>2.8</ele>
        <time>2023-12-03T07:42:35Z</time>
      </trkpt>
      <trkpt lat="46.5829" lon="0.18818">
        <ele>2.6</ele>
        <time>2023-12-03T07:42:39Z</time>
      </trkpt>
      <trkpt lat="46.58288" lon="0.1881">
        <ele>2.6</ele>
        <time>2023-12-03T07:42:40Z</time>
      </trkpt>
      <trkpt lat="46.58287" lon="0.18801">
        <ele>2.2</ele>
        <time>2023-12-03T07:42:41Z</time>
      </trkpt>
      <trkpt lat="46.58286" lon="0.18782">
        <ele>2.2</ele>
        <time>2023-12-03T07:42:43Z</time>
      </trkpt>
      <trkpt lat="46.58287" lon="0.18773">
        <ele>2</ele>
        <time>2023-12-03T07:42:44Z</time>
      </trkpt>
      <trkpt lat="46.58286" lon="0.18765">
        <ele>1.8</ele>
        <time>2023-12-03T07:42:45Z</time>
      </trkpt>
      <trkpt lat="46.58281" lon="0.18755">
        <ele>1.6</ele>
        <time>2023-12-03T07:42:47Z</time>
      </trkpt>
      <trkpt lat="46.58273" lon="0.18755">
        <ele>1.2</ele>
        <time>2023-12-03T07:42:49Z</time>
      </trkpt>
      <trkpt lat="46.5827" lon="0.18758">
        <ele>1</ele>
        <time>2023-12-03T07:42:50Z</time>
      </trkpt>
      <trkpt lat="46.58267" lon="0.18762">
        <ele>0.8</ele>
        <time>2023-12-03T07:42:51Z</time>
      </trkpt>
      <trkpt lat="46.58253" lon="0.18786">
        <ele>0.6</ele>
        <time>2023-12-03T07:42:56Z</time>
      </trkpt>
      <trkpt lat="46.58247" lon="0.18801">
        <ele>1</ele>
        <time>2023-12-03T07:42:59Z</time>
      </trkpt>
      <trkpt lat="46.5824" lon="0.18808">
        <ele>1.2</ele>
        <time>2023-12-03T07:43:01Z</time>
      </trkpt>
      <trkpt lat="46.58216" lon="0.1883">
        <ele>1.6</ele>
        <time>2023-12-03T07:43:07Z</time>
      </trkpt>
      <trkpt lat="46.58197" lon="0.18859">
        <ele>1.6</ele>
        <time>2023-12-03T07:43:14Z</time>
      </trkpt>
      <trkpt lat="46.58188" lon="0.18873">
        <ele>1.8</ele>
        <time>2023-12-03T07:43:17Z</time>
      </trkpt>
      <trkpt lat="46.5818" lon="0.18882">
        <ele>1.8</ele>
        <time>2023-12-03T07:43:19Z</time>
      </trkpt>
      <trkpt lat="46.58162" lon="0.18899">
        <ele>1.8</ele>
        <time>2023-12-03T07:43:23Z</time>
      </trkpt>
      <trkpt lat="46.58148" lon="0.1891">
        <ele>1.8</ele>
        <time>2023-12-03T07:43:26Z</time>
      </trkpt>
      <trkpt lat="46.58126" lon="0.18921">
        <ele>1.8</ele>
        <time>2023-12-03T07:43:31Z</time>
      </trkpt>
      <trkpt lat="46.58122" lon="0.18922">
        <ele>2</ele>
        <time>2023-12-03T07:43:32Z</time>
      </trkpt>
      <trkpt lat="46.581" lon="0.18932">
        <ele>2</ele>
        <time>2023-12-03T07:43:37Z</time>
      </trkpt>
      <trkpt lat="46.58095" lon="0.18935">
        <ele>2</ele>
        <time>2023-12-03T07:43:38Z</time>
      </trkpt>
      <trkpt lat="46.5809" lon="0.18939">
        <ele>1.8</ele>
        <time>2023-12-03T07:43:39Z</time>
      </trkpt>
      <trkpt lat="46.58073" lon="0.1896">
        <ele>1.4</ele>
        <time>2023-12-03T07:43:43Z</time>
      </trkpt>
      <trkpt lat="46.58061" lon="0.18978">
        <ele>1.2</ele>
        <time>2023-12-03T07:43:46Z</time>
      </trkpt>
      <trkpt lat="46.58052" lon="0.18984">
        <ele>0.4</ele>
        <time>2023-12-03T07:43:48Z</time>
      </trkpt>
      <trkpt lat="46.58043" lon="0.18982">
        <ele>0.2</ele>
        <time>2023-12-03T07:43:50Z</time>
      </trkpt>
      <trkpt lat="46.58039" lon="0.1898">
        <ele>135.3</ele>
        <time>2023-12-03T07:43:51Z</time>
      </trkpt>
      <trkpt lat="46.58034" lon="0.18977">
        <ele>135.2</ele>
        <time>2023-12-03T07:43:52Z</time>
      </trkpt>
      <trkpt lat="46.58015" lon="0.18963">
        <ele>-0.2</ele>
        <time>2023-12-03T07:43:56Z</time>
      </trkpt>
      <trkpt lat="46.58011" lon="0.18959">
        <ele>-0.2</ele>
        <time>2023-12-03T07:43:57Z</time>
      </trkpt>
      <trkpt lat="46.57996" lon="0.18945">
        <ele>-0.6</ele>
        <time>2023-12-03T07:44:00Z</time>
      </trkpt>
      <trkpt lat="46.57991" lon="0.1894">
        <ele>-0.8</ele>
        <time>2023-12-03T07:44:01Z</time>
      </trkpt>
      <trkpt lat="46.57962" lon="0.18909">
        <ele>-1.8</ele>
        <time>2023-12-03T07:44:07Z</time>
      </trkpt>
      <trkpt lat="46.57954" lon="0.18891">
        <ele>-2.4</ele>
        <time>2023-12-03T07:44:10Z</time>
      </trkpt>
      <trkpt lat="46.5795" lon="0.18887">
        <ele>-2.4</ele>
        <time>2023-12-03T07:44:11Z</time>
      </trkpt>
      <trkpt lat="46.57947" lon="0.18886">
        <ele>-2.6</ele>
        <time>2023-12-03T07:44:12Z</time>
      </trkpt>
      <trkpt lat="46.57943" lon="0.18886">
        <ele>-3.2</ele>
        <time>2023-12-03T07:44:13Z</time>
      </trkpt>
      <trkpt lat="46.5794" lon="0.18888">
        <ele>-3.6</ele>
        <time>2023-12-03T07:44:14Z</time>
      </trkpt>
      <trkpt lat="46.57935" lon="0.18895">
        <ele>-4</ele>
        <time>2023-12-03T07:44:16Z</time>
      </trkpt>
      <trkpt lat="46.57932" lon="0.18903">
        <ele>-4.2</ele>
        <time>2023-12-03T07:44:18Z</time>
      </trkpt>
      <trkpt lat="46.57924" lon="0.1891">
        <ele>-4.4</ele>
        <time>2023-12-03T07:44:21Z</time>
      </trkpt>
      <trkpt lat="46.5792" lon="0.1891">
        <ele>-4.8</ele>
        <time>2023-12-03T07:44:22Z</time>
      </trkpt>
      <trkpt lat="46.5791" lon="0.18911">
        <ele>-5.8</ele>
        <time>2023-12-03T07:44:24Z</time>
      </trkpt>
      <trkpt lat="46.57901" lon="0.18911">
        <ele>-6.8</ele>
        <time>2023-12-03T07:44:26Z</time>
      </trkpt>
      <trkpt lat="46.57898" lon="0.18911">
        <ele>-7</ele>
        <time>2023-12-03T07:44:27Z</time>
      </trkpt>
      <trkpt lat="46.57895" lon="0.18916">
        <ele>-8.2</ele>
        <time>2023-12-03T07:44:29Z</time>
      </trkpt>
      <trkpt lat="46.57893" lon="0.18917">
        <ele>-8.8</ele>
        <time>2023-12-03T07:44:30Z</time>
      </trkpt>
      <trkpt lat="46.57889" lon="0.18916">
        <ele>-9.4</ele>
        <time>2023-12-03T07:44:32Z</time>
      </trkpt>
      <trkpt lat="46.57887" lon="0.18913">
        <ele>-9.8</ele>
        <time>2023-12-03T07:44:33Z</time>
      </trkpt>
      <trkpt lat="46.57883" lon="0.18902">
        <ele>-10</ele>
        <time>2023-12-03T07:44:36Z</time>
      </trkpt>
      <trkpt lat="46.57877" lon="0.18892">
        <ele>-10.2</ele>
        <time>2023-12-03T07:44:39Z</time>
      </trkpt>
      <trkpt lat="46.57876" lon="0.18885">
        <ele>-10</ele>
        <time>2023-12-03T07:44:41Z</time>
      </trkpt>
      <trkpt lat="46.57875" lon="0.18882">
        <ele>-10.2</ele>
        <time>2023-12-03T07:44:42Z</time>
      </trkpt>
      <trkpt lat="46.57873" lon="0.18881">
        <ele>-10.4</ele>
        <time>2023-12-03T07:44:43Z</time>
      </trkpt>
      <trkpt lat="46.57871" lon="0.1888">
        <ele>-10.6</ele>
        <time>2023-12-03T07:44:44Z</time>
      </trkpt>
      <trkpt lat="46.57868" lon="0.18877">
        <ele>-11.6</ele>
        <time>2023-12-03T07:44:46Z</time>
      </trkpt>
      <trkpt lat="46.57862" lon="0.18873">
        <ele>-11.8</ele>
        <time>2023-12-03T07:44:49Z</time>
      </trkpt>
      <trkpt lat="46.57859" lon="0.18866">
        <ele>-11.2</ele>
        <time>2023-12-03T07:44:52Z</time>
      </trkpt>
      <trkpt lat="46.57856" lon="0.18865">
        <ele>-11</ele>
        <time>2023-12-03T07:44:53Z</time>
      </trkpt>
      <trkpt lat="46.57842" lon="0.18864">
        <ele>-11.2</ele>
        <time>2023-12-03T07:44:56Z</time>
      </trkpt>
      <trkpt lat="46.57837" lon="0.18863">
        <ele>-12</ele>
        <time>2023-12-03T07:44:57Z</time>
      </trkpt>
      <trkpt lat="46.57832" lon="0.18859">
        <ele>-13.6</ele>
        <time>2023-12-03T07:44:59Z</time>
      </trkpt>
      <trkpt lat="46.57831" lon="0.18852">
        <ele>-14.6</ele>
        <time>2023-12-03T07:45:01Z</time>
      </trkpt>
      <trkpt lat="46.57831" lon="0.18848">
        <ele>-15</ele>
        <time>2023-12-03T07:45:02Z</time>
      </trkpt>
      <trkpt lat="46.57831" lon="0.18844">
        <ele>-15.2</ele>
        <time>2023-12-03T07:45:03Z</time>
      </trkpt>
      <trkpt lat="46.57837" lon="0.18835">
        <ele>-14.2</ele>
        <time>2023-12-03T07:45:08Z</time>
      </trkpt>
      <trkpt lat="46.57838" lon="0.18836">
        <ele>-14</ele>
        <time>2023-12-03T07:45:09Z</time>
      </trkpt>
      <trkpt lat="46.57842" lon="0.18837">
        <ele>-14</ele>
        <time>2023-12-03T07:45:11Z</time>
      </trkpt>
      <trkpt lat="46.57844" lon="0.18835">
        <ele>-14.2</ele>
        <time>2023-12-03T07:45:12Z</time>
      </trkpt>
      <trkpt lat="46.57848" lon="0.18819">
        <ele>-14.8</ele>
        <time>2023-12-03T07:45:17Z</time>
      </trkpt>
      <trkpt lat="46.5785" lon="0.18812">
        <ele>-15</ele>
        <time>2023-12-03T07:45:19Z</time>
      </trkpt>
      <trkpt lat="46.57853" lon="0.18798">
        <ele>-14.6</ele>
        <time>2023-12-03T07:45:25Z</time>
      </trkpt>
      <trkpt lat="46.57854" lon="0.18796">
        <ele>-14.8</ele>
        <time>2023-12-03T07:45:26Z</time>
      </trkpt>
      <trkpt lat="46.57857" lon="0.18796">
        <ele>-14.6</ele>
        <time>2023-12-03T07:45:29Z</time>
      </trkpt>
      <trkpt lat="46.5786" lon="0.18798">
        <ele>-14</ele>
        <time>2023-12-03T07:45:31Z</time>
      </trkpt>
      <trkpt lat="46.57861" lon="0.18799">
        <ele>-13.6</ele>
        <time>2023-12-03T07:45:32Z</time>
      </trkpt>
      <trkpt lat="46.57862" lon="0.18804">
        <ele>-13.2</ele>
        <time>2023-12-03T07:45:35Z</time>
      </trkpt>
      <trkpt lat="46.57863" lon="0.18805">
        <ele>-12.8</ele>
        <time>2023-12-03T07:45:36Z</time>
      </trkpt>
      <trkpt lat="46.57864" lon="0.18806">
        <ele>-12.4</ele>
        <time>2023-12-03T07:45:37Z</time>
      </trkpt>
      <trkpt lat="46.57866" lon="0.18805">
        <ele>-12.2</ele>
        <time>2023-12-03T07:45:39Z</time>
      </trkpt>
      <trkpt lat="46.57871" lon="0.18797">
        <ele>-12.2</ele>
        <time>2023-12-03T07:45:44Z</time>
      </trkpt>
      <trkpt lat="46.57877" lon="0.18789">
        <ele>-13.2</ele>
        <time>2023-12-03T07:45:50Z</time>
      </trkpt>
      <trkpt lat="46.57878" lon="0.18791">
        <ele>-13.4</ele>
        <time>2023-12-03T07:45:52Z</time>
      </trkpt>
      <trkpt lat="46.57878" lon="0.18793">
        <ele>-13.4</ele>
        <time>2023-12-03T07:45:54Z</time>
      </trkpt>
      <trkpt lat="46.57878" lon="0.18794">
        <ele>-13.4</ele>
        <time>2023-12-03T07:45:55Z</time>
      </trkpt>
      <trkpt lat="46.57877" lon="0.18798">
        <ele>-13</ele>
        <time>2023-12-03T07:45:58Z</time>
      </trkpt>
      <trkpt lat="46.57874" lon="0.18801">
        <ele>-12.2</ele>
        <time>2023-12-03T07:46:02Z</time>
      </trkpt>
      <trkpt lat="46.57869" lon="0.18804">
        <ele>-12</ele>
        <time>2023-12-03T07:46:05Z</time>
      </trkpt>
      <trkpt lat="46.57864" lon="0.18808">
        <ele>-12.4</ele>
        <time>2023-12-03T07:46:08Z</time>
      </trkpt>
      <trkpt lat="46.57861" lon="0.1882">
        <ele>-12.4</ele>
        <time>2023-12-03T07:46:12Z</time>
      </trkpt>
      <trkpt lat="46.57861" lon="0.18825">
        <ele>-12.2</ele>
        <time>2023-12-03T07:46:14Z</time>
      </trkpt>
      <trkpt lat="46.57863" lon="0.1883">
        <ele>-12.2</ele>
        <time>2023-12-03T07:46:16Z</time>
      </trkpt>
      <trkpt lat="46.57873" lon="0.18851">
        <ele>-11.8</ele>
        <time>2023-12-03T07:46:22Z</time>
      </trkpt>
      <trkpt lat="46.57876" lon="0.18856">
        <ele>-11.6</ele>
        <time>2023-12-03T07:46:24Z</time>
      </trkpt>
      <trkpt lat="46.57878" lon="0.18858">
        <ele>-11.4</ele>
        <time>2023-12-03T07:46:26Z</time>
      </trkpt>
      <trkpt lat="46.5788" lon="0.18858">
        <ele>-11.4</ele>
        <time>2023-12-03T07:46:27Z</time>
      </trkpt>
      <trkpt lat="46.57881" lon="0.18854">
        <ele>-11.2</ele>
        <time>2023-12-03T07:46:30Z</time>
      </trkpt>
      <trkpt lat="46.57882" lon="0.18853">
        <ele>-10.8</ele>
        <time>2023-12-03T07:46:31Z</time>
      </trkpt>
      <trkpt lat="46.57884" lon="0.18854">
        <ele>-10.4</ele>
        <time>2023-12-03T07:46:32Z</time>
      </trkpt>
      <trkpt lat="46.57887" lon="0.18859">
        <ele>-10.2</ele>
        <time>2023-12-03T07:46:34Z</time>
      </trkpt>
      <trkpt lat="46.57894" lon="0.18874">
        <ele>-10.4</ele>
        <time>2023-12-03T07:46:39Z</time>
      </trkpt>
      <trkpt lat="46.57901" lon="0.18881">
        <ele>-10</ele>
        <time>2023-12-03T07:46:44Z</time>
      </trkpt>
      <trkpt lat="46.57905" lon="0.18883">
        <ele>-9.4</ele>
        <time>2023-12-03T07:46:46Z</time>
      </trkpt>
      <trkpt lat="46.57911" lon="0.18887">
        <ele>-8.2</ele>
        <time>2023-12-03T07:46:50Z</time>
      </trkpt>
      <trkpt lat="46.57915" lon="0.18891">
        <ele>-7.6</ele>
        <time>2023-12-03T07:46:53Z</time>
      </trkpt>
      <trkpt lat="46.57917" lon="0.18898">
        <ele>-7</ele>
        <time>2023-12-03T07:46:57Z</time>
      </trkpt>
      <trkpt lat="46.57916" lon="0.189">
        <ele>-7</ele>
        <time>2023-12-03T07:46:58Z</time>
      </trkpt>
      <trkpt lat="46.57902" lon="0.18905">
        <ele>-7.2</ele>
        <time>2023-12-03T07:47:03Z</time>
      </trkpt>
      <trkpt lat="46.57893" lon="0.18908">
        <ele>-8.2</ele>
        <time>2023-12-03T07:47:06Z</time>
      </trkpt>
      <trkpt lat="46.57891" lon="0.1891">
        <ele>-8.6</ele>
        <time>2023-12-03T07:47:07Z</time>
      </trkpt>
      <trkpt lat="46.57889" lon="0.18913">
        <ele>-9.2</ele>
        <time>2023-12-03T07:47:08Z</time>
      </trkpt>
      <trkpt lat="46.57887" lon="0.18914">
        <ele>-9.6</ele>
        <time>2023-12-03T07:47:09Z</time>
      </trkpt>
      <trkpt lat="46.57884" lon="0.18912">
        <ele>-10.4</ele>
        <time>2023-12-03T07:47:11Z</time>
      </trkpt>
      <trkpt lat="46.5788" lon="0.189">
        <ele>-10.8</ele>
        <time>2023-12-03T07:47:15Z</time>
      </trkpt>
      <trkpt lat="46.57878" lon="0.18898">
        <ele>-10.8</ele>
        <time>2023-12-03T07:47:16Z</time>
      </trkpt>
      <trkpt lat="46.57874" lon="0.18892">
        <ele>-10.8</ele>
        <time>2023-12-03T07:47:18Z</time>
      </trkpt>
      <trkpt lat="46.57874" lon="0.18886">
        <ele>-10.8</ele>
        <time>2023-12-03T07:47:20Z</time>
      </trkpt>
      <trkpt lat="46.57874" lon="0.18881">
        <ele>-11</ele>
        <time>2023-12-03T07:47:22Z</time>
      </trkpt>
      <trkpt lat="46.5787" lon="0.18879">
        <ele>-11.2</ele>
        <time>2023-12-03T07:47:24Z</time>
      </trkpt>
      <trkpt lat="46.57867" lon="0.18877">
        <ele>-11.8</ele>
        <time>2023-12-03T07:47:26Z</time>
      </trkpt>
      <trkpt lat="46.57866" lon="0.18876">
        <ele>-11.8</ele>
        <time>2023-12-03T07:47:27Z</time>
      </trkpt>
      <trkpt lat="46.57862" lon="0.18875">
        <ele>-11.8</ele>
        <time>2023-12-03T07:47:29Z</time>
      </trkpt>
      <trkpt lat="46.57858" lon="0.18867">
        <ele>-11</ele>
        <time>2023-12-03T07:47:32Z</time>
      </trkpt>
      <trkpt lat="46.57856" lon="0.18866">
        <ele>-11</ele>
        <time>2023-12-03T07:47:33Z</time>
      </trkpt>
      <trkpt lat="46.57842" lon="0.18866">
        <ele>-11.4</ele>
        <time>2023-12-03T07:47:36Z</time>
      </trkpt>
      <trkpt lat="46.57837" lon="0.18865">
        <ele>-12.4</ele>
        <time>2023-12-03T07:47:37Z</time>
      </trkpt>
      <trkpt lat="46.57833" lon="0.18863">
        <ele>-13</ele>
        <time>2023-12-03T07:47:38Z</time>
      </trkpt>
      <trkpt lat="46.57831" lon="0.1886">
        <ele>-13.6</ele>
        <time>2023-12-03T07:47:39Z</time>
      </trkpt>
      <trkpt lat="46.5783" lon="0.18857">
        <ele>-14</ele>
        <time>2023-12-03T07:47:40Z</time>
      </trkpt>
      <trkpt lat="46.5783" lon="0.18854">
        <ele>-14.4</ele>
        <time>2023-12-03T07:47:41Z</time>
      </trkpt>
      <trkpt lat="46.5783" lon="0.18847">
        <ele>-14.6</ele>
        <time>2023-12-03T07:47:43Z</time>
      </trkpt>
      <trkpt lat="46.57836" lon="0.18837">
        <ele>-13.6</ele>
        <time>2023-12-03T07:47:48Z</time>
      </trkpt>
      <trkpt lat="46.57842" lon="0.18838">
        <ele>-13.2</ele>
        <time>2023-12-03T07:47:52Z</time>
      </trkpt>
      <trkpt lat="46.57845" lon="0.1883">
        <ele>-14</ele>
        <time>2023-12-03T07:47:56Z</time>
      </trkpt>
      <trkpt lat="46.57846" lon="0.18816">
        <ele>-14</ele>
        <time>2023-12-03T07:48:00Z</time>
      </trkpt>
      <trkpt lat="46.57845" lon="0.18813">
        <ele>-14</ele>
        <time>2023-12-03T07:48:01Z</time>
      </trkpt>
      <trkpt lat="46.57844" lon="0.18811">
        <ele>-14</ele>
        <time>2023-12-03T07:48:02Z</time>
      </trkpt>
      <trkpt lat="46.57837" lon="0.18808">
        <ele>-14</ele>
        <time>2023-12-03T07:48:05Z</time>
      </trkpt>
      <trkpt lat="46.57829" lon="0.18798">
        <ele>-15.4</ele>
        <time>2023-12-03T07:48:10Z</time>
      </trkpt>
      <trkpt lat="46.57828" lon="0.18796">
        <ele>-16.2</ele>
        <time>2023-12-03T07:48:11Z</time>
      </trkpt>
      <trkpt lat="46.57828" lon="0.18794">
        <ele>-16.6</ele>
        <time>2023-12-03T07:48:12Z</time>
      </trkpt>
      <trkpt lat="46.5783" lon="0.18792">
        <ele>-17</ele>
        <time>2023-12-03T07:48:13Z</time>
      </trkpt>
      <trkpt lat="46.57831" lon="0.1879">
        <ele>-17.2</ele>
        <time>2023-12-03T07:48:14Z</time>
      </trkpt>
      <trkpt lat="46.57839" lon="0.18783">
        <ele>-17.6</ele>
        <time>2023-12-03T07:48:19Z</time>
      </trkpt>
      <trkpt lat="46.57838" lon="0.18779">
        <ele>-17.6</ele>
        <time>2023-12-03T07:48:21Z</time>
      </trkpt>
      <trkpt lat="46.57835" lon="0.18775">
        <ele>-17.6</ele>
        <time>2023-12-03T07:48:23Z</time>
      </trkpt>
      <trkpt lat="46.57833" lon="0.18773">
        <ele>-17.8</ele>
        <time>2023-12-03T07:48:24Z</time>
      </trkpt>
      <trkpt lat="46.5783" lon="0.18773">
        <ele>-18.6</ele>
        <time>2023-12-03T07:48:28Z</time>
      </trkpt>
      <trkpt lat="46.57829" lon="0.18774">
        <ele>-18.4</ele>
        <time>2023-12-03T07:48:29Z</time>
      </trkpt>
      <trkpt lat="46.57826" lon="0.18775">
        <ele>-18.2</ele>
        <time>2023-12-03T07:48:31Z</time>
      </trkpt>
      <trkpt lat="46.57822" lon="0.18776">
        <ele>-18.2</ele>
        <time>2023-12-03T07:48:33Z</time>
      </trkpt>
      <trkpt lat="46.57817" lon="0.18782">
        <ele>-18.2</ele>
        <time>2023-12-03T07:48:38Z</time>
      </trkpt>
      <trkpt lat="46.57813" lon="0.18789">
        <ele>-18.2</ele>
        <time>2023-12-03T07:48:41Z</time>
      </trkpt>
      <trkpt lat="46.5781" lon="0.18793">
        <ele>-18.6</ele>
        <time>2023-12-03T07:48:44Z</time>
      </trkpt>
      <trkpt lat="46.5781" lon="0.18795">
        <ele>-18.8</ele>
        <time>2023-12-03T07:48:46Z</time>
      </trkpt>
      <trkpt lat="46.57813" lon="0.18804">
        <ele>-18.4</ele>
        <time>2023-12-03T07:48:50Z</time>
      </trkpt>
      <trkpt lat="46.57812" lon="0.18821">
        <ele>-17.8</ele>
        <time>2023-12-03T07:48:54Z</time>
      </trkpt>
      <trkpt lat="46.57811" lon="0.18824">
        <ele>-17.6</ele>
        <time>2023-12-03T07:48:55Z</time>
      </trkpt>
      <trkpt lat="46.57807" lon="0.18834">
        <ele>-17.2</ele>
        <time>2023-12-03T07:48:58Z</time>
      </trkpt>
      <trkpt lat="46.57808" lon="0.18841">
        <ele>-17</ele>
        <time>2023-12-03T07:49:00Z</time>
      </trkpt>
      <trkpt lat="46.5781" lon="0.18843">
        <ele>-17.2</ele>
        <time>2023-12-03T07:49:01Z</time>
      </trkpt>
      <trkpt lat="46.57817" lon="0.18857">
        <ele>-17.6</ele>
        <time>2023-12-03T07:49:06Z</time>
      </trkpt>
      <trkpt lat="46.57817" lon="0.1886">
        <ele>-17.6</ele>
        <time>2023-12-03T07:49:07Z</time>
      </trkpt>
      <trkpt lat="46.57818" lon="0.18862">
        <ele>-16.8</ele>
        <time>2023-12-03T07:49:09Z</time>
      </trkpt>
      <trkpt lat="46.57821" lon="0.18869">
        <ele>-16.8</ele>
        <time>2023-12-03T07:49:12Z</time>
      </trkpt>
      <trkpt lat="46.57826" lon="0.18881">
        <ele>-17.2</ele>
        <time>2023-12-03T07:49:17Z</time>
      </trkpt>
      <trkpt lat="46.57829" lon="0.18884">
        <ele>-17.4</ele>
        <time>2023-12-03T07:49:19Z</time>
      </trkpt>
      <trkpt lat="46.5783" lon="0.18884">
        <ele>-17.2</ele>
        <time>2023-12-03T07:49:21Z</time>
      </trkpt>
      <trkpt lat="46.57831" lon="0.18883">
        <ele>-17.2</ele>
        <time>2023-12-03T07:49:22Z</time>
      </trkpt>
      <trkpt lat="46.57832" lon="0.18883">
        <ele>-17</ele>
        <time>2023-12-03T07:49:23Z</time>
      </trkpt>
      <trkpt lat="46.57832" lon="0.18883">
        <ele>-16.6</ele>
        <time>2023-12-03T07:49:24Z</time>
      </trkpt>
      <trkpt lat="46.57833" lon="0.18884">
        <ele>-16</ele>
        <time>2023-12-03T07:49:25Z</time>
      </trkpt>
      <trkpt lat="46.57835" lon="0.18885">
        <ele>-15.6</ele>
        <time>2023-12-03T07:49:26Z</time>
      </trkpt>
      <trkpt lat="46.57836" lon="0.18887">
        <ele>-15.2</ele>
        <time>2023-12-03T07:49:27Z</time>
      </trkpt>
      <trkpt lat="46.57845" lon="0.18896">
        <ele>-14.2</ele>
        <time>2023-12-03T07:49:31Z</time>
      </trkpt>
      <trkpt lat="46.57848" lon="0.18904">
        <ele>-14</ele>
        <time>2023-12-03T07:49:33Z</time>
      </trkpt>
      <trkpt lat="46.57852" lon="0.18914">
        <ele>-13.8</ele>
        <time>2023-12-03T07:49:36Z</time>
      </trkpt>
      <trkpt lat="46.57863" lon="0.18938">
        <ele>-13.2</ele>
        <time>2023-12-03T07:49:43Z</time>
      </trkpt>
      <trkpt lat="46.57868" lon="0.18948">
        <ele>-13</ele>
        <time>2023-12-03T07:49:46Z</time>
      </trkpt>
      <trkpt lat="46.57874" lon="0.18956">
        <ele>-12.6</ele>
        <time>2023-12-03T07:49:49Z</time>
      </trkpt>
      <trkpt lat="46.57886" lon="0.18974">
        <ele>-12</ele>
        <time>2023-12-03T07:49:55Z</time>
      </trkpt>
      <trkpt lat="46.57899" lon="0.18992">
        <ele>-11.4</ele>
        <time>2023-12-03T07:50:01Z</time>
      </trkpt>
      <trkpt lat="46.57908" lon="0.19006">
        <ele>-10.8</ele>
        <time>2023-12-03T07:50:07Z</time>
      </trkpt>
      <trkpt lat="46.57916" lon="0.19023">
        <ele>-9.8</ele>
        <time>2023-12-03T07:50:13Z</time>
      </trkpt>
      <trkpt lat="46.57917" lon="0.19026">
        <ele>-9.6</ele>
        <time>2023-12-03T07:50:14Z</time>
      </trkpt>
      <trkpt lat="46.57928" lon="0.19043">
        <ele>-9</ele>
        <time>2023-12-03T07:50:19Z</time>
      </trkpt>
      <trkpt lat="46.57944" lon="0.19073">
        <ele>-9</ele>
        <time>2023-12-03T07:50:26Z</time>
      </trkpt>
      <trkpt lat="46.57958" lon="0.19093">
        <ele>-8.6</ele>
        <time>2023-12-03T07:50:31Z</time>
      </trkpt>
      <trkpt lat="46.57962" lon="0.191">
        <ele>-8.4</ele>
        <time>2023-12-03T07:50:33Z</time>
      </trkpt>
      <trkpt lat="46.5797" lon="0.19109">
        <ele>-8.4</ele>
        <time>2023-12-03T07:50:36Z</time>
      </trkpt>
      <trkpt lat="46.57983" lon="0.19134">
        <ele>-7.6</ele>
        <time>2023-12-03T07:50:42Z</time>
      </trkpt>
      <trkpt lat="46.57988" lon="0.19141">
        <ele>-7.4</ele>
        <time>2023-12-03T07:50:44Z</time>
      </trkpt>
      <trkpt lat="46.57998" lon="0.1916">
        <ele>-6.6</ele>
        <time>2023-12-03T07:50:48Z</time>
      </trkpt>
      <trkpt lat="46.58002" lon="0.19171">
        <ele>-6.2</ele>
        <time>2023-12-03T07:50:50Z</time>
      </trkpt>
      <trkpt lat="46.58012" lon="0.19189">
        <ele>-5.4</ele>
        <time>2023-12-03T07:50:54Z</time>
      </trkpt>
      <trkpt lat="46.58017" lon="0.19197">
        <ele>-5.2</ele>
        <time>2023-12-03T07:50:56Z</time>
      </trkpt>
      <trkpt lat="46.58033" lon="0.1921">
        <ele>-4.2</ele>
        <time>2023-12-03T07:51:01Z</time>
      </trkpt>
      <trkpt lat="46.58037" lon="0.19213">
        <ele>-4</ele>
        <time>2023-12-03T07:51:02Z</time>
      </trkpt>
      <trkpt lat="46.58053" lon="0.19228">
        <ele>-3.4</ele>
        <time>2023-12-03T07:51:07Z</time>
      </trkpt>
      <trkpt lat="46.5806" lon="0.19234">
        <ele>-3</ele>
        <time>2023-12-03T07:51:09Z</time>
      </trkpt>
      <trkpt lat="46.58077" lon="0.19246">
        <ele>-2</ele>
        <time>2023-12-03T07:51:14Z</time>
      </trkpt>
      <trkpt lat="46.58081" lon="0.19249">
        <ele>-1.8</ele>
        <time>2023-12-03T07:51:15Z</time>
      </trkpt>
      <trkpt lat="46.58101" lon="0.19264">
        <ele>-0.8</ele>
        <time>2023-12-03T07:51:21Z</time>
      </trkpt>
      <trkpt lat="46.58108" lon="0.1927">
        <ele>-0.2</ele>
        <time>2023-12-03T07:51:23Z</time>
      </trkpt>
      <trkpt lat="46.58114" lon="0.19277">
        <ele>0.2</ele>
        <time>2023-12-03T07:51:25Z</time>
      </trkpt>
      <trkpt lat="46.58122" lon="0.19288">
        <ele>0.6</ele>
        <time>2023-12-03T07:51:28Z</time>
      </trkpt>
      <trkpt lat="46.58132" lon="0.19299">
        <ele>1.4</ele>
        <time>2023-12-03T07:51:31Z</time>
      </trkpt>
      <trkpt lat="46.58142" lon="0.19312">
        <ele>2</ele>
        <time>2023-12-03T07:51:34Z</time>
      </trkpt>
      <trkpt lat="46.58152" lon="0.19323">
        <ele>2.4</ele>
        <time>2023-12-03T07:51:37Z</time>
      </trkpt>
      <trkpt lat="46.58161" lon="0.19333">
        <ele>2.8</ele>
        <time>2023-12-03T07:51:40Z</time>
      </trkpt>
      <trkpt lat="46.58186" lon="0.19367">
        <ele>3.6</ele>
        <time>2023-12-03T07:51:48Z</time>
      </trkpt>
      <trkpt lat="46.58204" lon="0.19398">
        <ele>4.2</ele>
        <time>2023-12-03T07:51:55Z</time>
      </trkpt>
      <trkpt lat="46.58223" lon="0.19425">
        <ele>4.2</ele>
        <time>2023-12-03T07:52:01Z</time>
      </trkpt>
      <trkpt lat="46.58225" lon="0.1943">
        <ele>4.4</ele>
        <time>2023-12-03T07:52:02Z</time>
      </trkpt>
      <trkpt lat="46.58247" lon="0.19459">
        <ele>4.6</ele>
        <time>2023-12-03T07:52:09Z</time>
      </trkpt>
      <trkpt lat="46.5825" lon="0.19463">
        <ele>4.6</ele>
        <time>2023-12-03T07:52:10Z</time>
      </trkpt>
      <trkpt lat="46.5827" lon="0.19486">
        <ele>5</ele>
        <time>2023-12-03T07:52:16Z</time>
      </trkpt>
      <trkpt lat="46.58274" lon="0.19489">
        <ele>5.2</ele>
        <time>2023-12-03T07:52:17Z</time>
      </trkpt>
      <trkpt lat="46.58283" lon="0.19493">
        <ele>5.2</ele>
        <time>2023-12-03T07:52:20Z</time>
      </trkpt>
      <trkpt lat="46.58285" lon="0.19492">
        <ele>5.4</ele>
        <time>2023-12-03T07:52:21Z</time>
      </trkpt>
      <trkpt lat="46.58296" lon="0.19476">
        <ele>5.2</ele>
        <time>2023-12-03T07:52:27Z</time>
      </trkpt>
      <trkpt lat="46.58301" lon="0.19468">
        <ele>5.2</ele>
        <time>2023-12-03T07:52:29Z</time>
      </trkpt>
      <trkpt lat="46.58311" lon="0.19454">
        <ele>5.2</ele>
        <time>2023-12-03T07:52:32Z</time>
      </trkpt>
      <trkpt lat="46.58331" lon="0.19414">
        <ele>5</ele>
        <time>2023-12-03T07:52:39Z</time>
      </trkpt>
      <trkpt lat="46.58343" lon="0.19388">
        <ele>4.6</ele>
        <time>2023-12-03T07:52:43Z</time>
      </trkpt>
      <trkpt lat="46.58346" lon="0.1938">
        <ele>4.6</ele>
        <time>2023-12-03T07:52:44Z</time>
      </trkpt>
      <trkpt lat="46.58367" lon="0.19327">
        <ele>4.2</ele>
        <time>2023-12-03T07:52:51Z</time>
      </trkpt>
      <trkpt lat="46.58369" lon="0.1932">
        <ele>4.2</ele>
        <time>2023-12-03T07:52:52Z</time>
      </trkpt>
      <trkpt lat="46.58382" lon="0.19294">
        <ele>4</ele>
        <time>2023-12-03T07:52:56Z</time>
      </trkpt>
      <trkpt lat="46.58387" lon="0.1928">
        <ele>3.4</ele>
        <time>2023-12-03T07:52:58Z</time>
      </trkpt>
      <trkpt lat="46.584" lon="0.19251">
        <ele>2.6</ele>
        <time>2023-12-03T07:53:02Z</time>
      </trkpt>
      <trkpt lat="46.58404" lon="0.19244">
        <ele>2.6</ele>
        <time>2023-12-03T07:53:03Z</time>
      </trkpt>
      <trkpt lat="46.58408" lon="0.19236">
        <ele>2.6</ele>
        <time>2023-12-03T07:53:04Z</time>
      </trkpt>
      <trkpt lat="46.58422" lon="0.19206">
        <ele>2.6</ele>
        <time>2023-12-03T07:53:08Z</time>
      </trkpt>
      <trkpt lat="46.58425" lon="0.19199">
        <ele>2.6</ele>
        <time>2023-12-03T07:53:09Z</time>
      </trkpt>
      <trkpt lat="46.58429" lon="0.19193">
        <ele>2.2</ele>
        <time>2023-12-03T07:53:10Z</time>
      </trkpt>
      <trkpt lat="46.58435" lon="0.19185">
        <ele>2</ele>
        <time>2023-12-03T07:53:12Z</time>
      </trkpt>
      <trkpt lat="46.58444" lon="0.19174">
        <ele>1.2</ele>
        <time>2023-12-03T07:53:16Z</time>
      </trkpt>
      <trkpt lat="46.58446" lon="0.1917">
        <ele>1.2</ele>
        <time>2023-12-03T07:53:17Z</time>
      </trkpt>
      <trkpt lat="46.58451" lon="0.19147">
        <ele>1.4</ele>
        <time>2023-12-03T07:53:23Z</time>
      </trkpt>
      <trkpt lat="46.58452" lon="0.19133">
        <ele>1.6</ele>
        <time>2023-12-03T07:53:26Z</time>
      </trkpt>
      <trkpt lat="46.58454" lon="0.19123">
        <ele>1.6</ele>
        <time>2023-12-03T07:53:28Z</time>
      </trkpt>
      <trkpt lat="46.58458" lon="0.19102">
        <ele>1.6</ele>
        <time>2023-12-03T07:53:32Z</time>
      </trkpt>
      <trkpt lat="46.58458" lon="0.19097">
        <ele>1.6</ele>
        <time>2023-12-03T07:53:33Z</time>
      </trkpt>
      <trkpt lat="46.58457" lon="0.19093">
        <ele>1.6</ele>
        <time>2023-12-03T07:53:34Z</time>
      </trkpt>
      <trkpt lat="46.58451" lon="0.19081">
        <ele>1.8</ele>
        <time>2023-12-03T07:53:37Z</time>
      </trkpt>
      <trkpt lat="46.58435" lon="0.19057">
        <ele>2</ele>
        <time>2023-12-03T07:53:43Z</time>
      </trkpt>
      <trkpt lat="46.5843" lon="0.1905">
        <ele>2.4</ele>
        <time>2023-12-03T07:53:45Z</time>
      </trkpt>
      <trkpt lat="46.58427" lon="0.19047">
        <ele>2.6</ele>
        <time>2023-12-03T07:53:46Z</time>
      </trkpt>
      <trkpt lat="46.5842" lon="0.19034">
        <ele>3</ele>
        <time>2023-12-03T07:53:49Z</time>
      </trkpt>
      <trkpt lat="46.584" lon="0.19006">
        <ele>3.4</ele>
        <time>2023-12-03T07:53:55Z</time>
      </trkpt>
      <trkpt lat="46.58396" lon="0.19001">
        <ele>3.6</ele>
        <time>2023-12-03T07:53:56Z</time>
      </trkpt>
      <trkpt lat="46.58375" lon="0.18973">
        <ele>3.8</ele>
        <time>2023-12-03T07:54:02Z</time>
      </trkpt>
      <trkpt lat="46.5835" lon="0.18939">
        <ele>3.8</ele>
        <time>2023-12-03T07:54:08Z</time>
      </trkpt>
      <trkpt lat="46.58321" lon="0.18899">
        <ele>3.2</ele>
        <time>2023-12-03T07:54:15Z</time>
      </trkpt>
      <trkpt lat="46.58318" lon="0.18892">
        <ele>3.2</ele>
        <time>2023-12-03T07:54:16Z</time>
      </trkpt>
      <trkpt lat="46.58303" lon="0.18849">
        <ele>3</ele>
        <time>2023-12-03T07:54:21Z</time>
      </trkpt>
      <trkpt lat="46.58296" lon="0.18821">
        <ele>2.4</ele>
        <time>2023-12-03T07:54:24Z</time>
      </trkpt>
      <trkpt lat="46.58293" lon="0.18803">
        <ele>2.2</ele>
        <time>2023-12-03T07:54:26Z</time>
      </trkpt>
      <trkpt lat="46.58293" lon="0.18768">
        <ele>1.8</ele>
        <time>2023-12-03T07:54:30Z</time>
      </trkpt>
      <trkpt lat="46.58291" lon="0.18762">
        <ele>1.4</ele>
        <time>2023-12-03T07:54:31Z</time>
      </trkpt>
      <trkpt lat="46.58288" lon="0.18758">
        <ele>1.2</ele>
        <time>2023-12-03T07:54:32Z</time>
      </trkpt>
      <trkpt lat="46.5828" lon="0.18756">
        <ele>0.8</ele>
        <time>2023-12-03T07:54:34Z</time>
      </trkpt>
      <trkpt lat="46.58268" lon="0.18766">
        <ele>0.8</ele>
        <time>2023-12-03T07:54:38Z</time>
      </trkpt>
      <trkpt lat="46.58262" lon="0.18775">
        <ele>0.8</ele>
        <time>2023-12-03T07:54:40Z</time>
      </trkpt>
      <trkpt lat="46.58254" lon="0.18792">
        <ele>1.2</ele>
        <time>2023-12-03T07:54:43Z</time>
      </trkpt>
      <trkpt lat="46.58251" lon="0.18797">
        <ele>1.4</ele>
        <time>2023-12-03T07:54:44Z</time>
      </trkpt>
      <trkpt lat="46.58238" lon="0.18812">
        <ele>1.4</ele>
        <time>2023-12-03T07:54:47Z</time>
      </trkpt>
      <trkpt lat="46.58209" lon="0.18843">
        <ele>2.2</ele>
        <time>2023-12-03T07:54:53Z</time>
      </trkpt>
      <trkpt lat="46.58192" lon="0.1887">
        <ele>2.2</ele>
        <time>2023-12-03T07:54:58Z</time>
      </trkpt>
      <trkpt lat="46.58188" lon="0.18875">
        <ele>2.2</ele>
        <time>2023-12-03T07:54:59Z</time>
      </trkpt>
      <trkpt lat="46.58158" lon="0.18902">
        <ele>2.6</ele>
        <time>2023-12-03T07:55:05Z</time>
      </trkpt>
      <trkpt lat="46.58128" lon="0.18921">
        <ele>2.6</ele>
        <time>2023-12-03T07:55:11Z</time>
      </trkpt>
      <trkpt lat="46.58123" lon="0.18923">
        <ele>2.4</ele>
        <time>2023-12-03T07:55:12Z</time>
      </trkpt>
      <trkpt lat="46.58107" lon="0.18929">
        <ele>2</ele>
        <time>2023-12-03T07:55:15Z</time>
      </trkpt>
      <trkpt lat="46.5809" lon="0.18942">
        <ele>1.8</ele>
        <time>2023-12-03T07:55:18Z</time>
      </trkpt>
      <trkpt lat="46.58068" lon="0.18972">
        <ele>1.4</ele>
        <time>2023-12-03T07:55:23Z</time>
      </trkpt>
      <trkpt lat="46.58064" lon="0.18978">
        <ele>1.2</ele>
        <time>2023-12-03T07:55:24Z</time>
      </trkpt>
      <trkpt lat="46.5806" lon="0.18982">
        <ele>1.2</ele>
        <time>2023-12-03T07:55:25Z</time>
      </trkpt>
      <trkpt lat="46.58049" lon="0.18986">
        <ele>1</ele>
        <time>2023-12-03T07:55:27Z</time>
      </trkpt>
      <trkpt lat="46.58038" lon="0.18983">
        <ele>0.6</ele>
        <time>2023-12-03T07:55:29Z</time>
      </trkpt>
      <trkpt lat="46.58029" lon="0.18976">
        <ele>0.2</ele>
        <time>2023-12-03T07:55:31Z</time>
      </trkpt>
      <trkpt lat="46.57994" lon="0.1894">
        <ele>-0.6</ele>
        <time>2023-12-03T07:55:38Z</time>
      </trkpt>
      <trkpt lat="46.57978" lon="0.18924">
        <ele>-1</ele>
        <time>2023-12-03T07:55:41Z</time>
      </trkpt>
      <trkpt lat="46.57964" lon="0.18908">
        <ele>-1.4</ele>
        <time>2023-12-03T07:55:44Z</time>
      </trkpt>
      <trkpt lat="46.57961" lon="0.18902">
        <ele>-1.8</ele>
        <time>2023-12-03T07:55:45Z</time>
      </trkpt>
      <trkpt lat="46.57958" lon="0.18896">
        <ele>-2</ele>
        <time>2023-12-03T07:55:46Z</time>
      </trkpt>
      <trkpt lat="46.57956" lon="0.18891">
        <ele>-2.2</ele>
        <time>2023-12-03T07:55:47Z</time>
      </trkpt>
      <trkpt lat="46.57948" lon="0.18887">
        <ele>-2.8</ele>
        <time>2023-12-03T07:55:49Z</time>
      </trkpt>
      <trkpt lat="46.57941" lon="0.18889">
        <ele>-3.2</ele>
        <time>2023-12-03T07:55:51Z</time>
      </trkpt>
      <trkpt lat="46.57939" lon="0.18893">
        <ele>-3.2</ele>
        <time>2023-12-03T07:55:52Z</time>
      </trkpt>
      <trkpt lat="46.57937" lon="0.18897">
        <ele>-3.4</ele>
        <time>2023-12-03T07:55:53Z</time>
      </trkpt>
      <trkpt lat="46.5793" lon="0.18908">
        <ele>-3.8</ele>
        <time>2023-12-03T07:55:56Z</time>
      </trkpt>
      <trkpt lat="46.57925" lon="0.18911">
        <ele>-4.2</ele>
        <time>2023-12-03T07:55:58Z</time>
      </trkpt>
      <trkpt lat="46.57915" lon="0.18914">
        <ele>-5.2</ele>
        <time>2023-12-03T07:56:01Z</time>
      </trkpt>
      <trkpt lat="46.57915" lon="0.18914">
        <ele>-5.8</ele>
        <time>2023-12-03T07:56:02Z</time>
      </trkpt>
      <trkpt lat="46.57899" lon="0.18914">
        <ele>-7</ele>
        <time>2023-12-03T07:56:05Z</time>
      </trkpt>
      <trkpt lat="46.57897" lon="0.18915">
        <ele>-7.4</ele>
        <time>2023-12-03T07:56:06Z</time>
      </trkpt>
      <trkpt lat="46.57893" lon="0.18919">
        <ele>-8.2</ele>
        <time>2023-12-03T07:56:08Z</time>
      </trkpt>
      <trkpt lat="46.57888" lon="0.18918">
        <ele>-8.8</ele>
        <time>2023-12-03T07:56:10Z</time>
      </trkpt>
      <trkpt lat="46.57885" lon="0.18914">
        <ele>-9.2</ele>
        <time>2023-12-03T07:56:12Z</time>
      </trkpt>
      <trkpt lat="46.57883" lon="0.18908">
        <ele>-9.6</ele>
        <time>2023-12-03T07:56:14Z</time>
      </trkpt>
      <trkpt lat="46.57875" lon="0.18897">
        <ele>-9.8</ele>
        <time>2023-12-03T07:56:18Z</time>
      </trkpt>
      <trkpt lat="46.57872" lon="0.18886">
        <ele>-10.2</ele>
        <time>2023-12-03T07:56:22Z</time>
      </trkpt>
      <trkpt lat="46.57871" lon="0.18884">
        <ele>-10.6</ele>
        <time>2023-12-03T07:56:23Z</time>
      </trkpt>
      <trkpt lat="46.57863" lon="0.18879">
        <ele>-11.6</ele>
        <time>2023-12-03T07:56:27Z</time>
      </trkpt>
      <trkpt lat="46.57862" lon="0.18877">
        <ele>-11.6</ele>
        <time>2023-12-03T07:56:28Z</time>
      </trkpt>
      <trkpt lat="46.57859" lon="0.18872">
        <ele>-11.2</ele>
        <time>2023-12-03T07:56:30Z</time>
      </trkpt>
      <trkpt lat="46.57852" lon="0.1887">
        <ele>-11</ele>
        <time>2023-12-03T07:56:32Z</time>
      </trkpt>
      <trkpt lat="46.57847" lon="0.1887">
        <ele>-11.2</ele>
        <time>2023-12-03T07:56:33Z</time>
      </trkpt>
      <trkpt lat="46.57842" lon="0.18869">
        <ele>-11.8</ele>
        <time>2023-12-03T07:56:34Z</time>
      </trkpt>
      <trkpt lat="46.57837" lon="0.18866">
        <ele>-12.8</ele>
        <time>2023-12-03T07:56:35Z</time>
      </trkpt>
      <trkpt lat="46.57834" lon="0.18864">
        <ele>-13.4</ele>
        <time>2023-12-03T07:56:36Z</time>
      </trkpt>
      <trkpt lat="46.57832" lon="0.18858">
        <ele>-14.2</ele>
        <time>2023-12-03T07:56:38Z</time>
      </trkpt>
      <trkpt lat="46.57832" lon="0.18855">
        <ele>-14.4</ele>
        <time>2023-12-03T07:56:39Z</time>
      </trkpt>
      <trkpt lat="46.57835" lon="0.18842">
        <ele>-14.2</ele>
        <time>2023-12-03T07:56:43Z</time>
      </trkpt>
      <trkpt lat="46.57837" lon="0.18841">
        <ele>-13.8</ele>
        <time>2023-12-03T07:56:44Z</time>
      </trkpt>
      <trkpt lat="46.57839" lon="0.18841">
        <ele>-13.2</ele>
        <time>2023-12-03T07:56:46Z</time>
      </trkpt>
      <trkpt lat="46.57843" lon="0.18842">
        <ele>-13.2</ele>
        <time>2023-12-03T07:56:48Z</time>
      </trkpt>
      <trkpt lat="46.57847" lon="0.18834">
        <ele>-14</ele>
        <time>2023-12-03T07:56:52Z</time>
      </trkpt>
      <trkpt lat="46.57849" lon="0.18826">
        <ele>-14.2</ele>
        <time>2023-12-03T07:56:54Z</time>
      </trkpt>
      <trkpt lat="46.57848" lon="0.18818">
        <ele>-14.4</ele>
        <time>2023-12-03T07:56:56Z</time>
      </trkpt>
      <trkpt lat="46.57846" lon="0.18815">
        <ele>-14.4</ele>
        <time>2023-12-03T07:56:57Z</time>
      </trkpt>
      <trkpt lat="46.57844" lon="0.18813">
        <ele>-14.2</ele>
        <time>2023-12-03T07:56:58Z</time>
      </trkpt>
      <trkpt lat="46.57837" lon="0.18809">
        <ele>-14.4</ele>
        <time>2023-12-03T07:57:01Z</time>
      </trkpt>
      <trkpt lat="46.57829" lon="0.188">
        <ele>-15.4</ele>
        <time>2023-12-03T07:57:05Z</time>
      </trkpt>
      <trkpt lat="46.5783" lon="0.18796">
        <ele>-16.8</ele>
        <time>2023-12-03T07:57:07Z</time>
      </trkpt>
      <trkpt lat="46.57831" lon="0.18795">
        <ele>-17.4</ele>
        <time>2023-12-03T07:57:08Z</time>
      </trkpt>
      <trkpt lat="46.57833" lon="0.18793">
        <ele>-17.4</ele>
        <time>2023-12-03T07:57:09Z</time>
      </trkpt>
      <trkpt lat="46.57839" lon="0.18787">
        <ele>-17.6</ele>
        <time>2023-12-03T07:57:14Z</time>
      </trkpt>
      <trkpt lat="46.57839" lon="0.18786">
        <ele>-17.6</ele>
        <time>2023-12-03T07:57:15Z</time>
      </trkpt>
      <trkpt lat="46.57836" lon="0.18781">
        <ele>-17.8</ele>
        <time>2023-12-03T07:57:18Z</time>
      </trkpt>
      <trkpt lat="46.57835" lon="0.18779">
        <ele>-18</ele>
        <time>2023-12-03T07:57:19Z</time>
      </trkpt>
      <trkpt lat="46.57833" lon="0.18778">
        <ele>-18.6</ele>
        <time>2023-12-03T07:57:23Z</time>
      </trkpt>
      <trkpt lat="46.57831" lon="0.18777">
        <ele>-18.6</ele>
        <time>2023-12-03T07:57:25Z</time>
      </trkpt>
      <trkpt lat="46.57827" lon="0.18778">
        <ele>-18.2</ele>
        <time>2023-12-03T07:57:28Z</time>
      </trkpt>
      <trkpt lat="46.57826" lon="0.18778">
        <ele>-18.2</ele>
        <time>2023-12-03T07:57:29Z</time>
      </trkpt>
      <trkpt lat="46.57821" lon="0.18782">
        <ele>-18.2</ele>
        <time>2023-12-03T07:57:33Z</time>
      </trkpt>
      <trkpt lat="46.57818" lon="0.18785">
        <ele>-18.4</ele>
        <time>2023-12-03T07:57:36Z</time>
      </trkpt>
      <trkpt lat="46.57816" lon="0.18787">
        <ele>-18.6</ele>
        <time>2023-12-03T07:57:38Z</time>
      </trkpt>
      <trkpt lat="46.57815" lon="0.18788">
        <ele>-18.8</ele>
        <time>2023-12-03T07:57:39Z</time>
      </trkpt>
      <trkpt lat="46.57815" lon="0.1879">
        <ele>-18.8</ele>
        <time>2023-12-03T07:57:41Z</time>
      </trkpt>
      <trkpt lat="46.57817" lon="0.18792">
        <ele>-18.8</ele>
        <time>2023-12-03T07:57:43Z</time>
      </trkpt>
      <trkpt lat="46.57818" lon="0.18798">
        <ele>-18.6</ele>
        <time>2023-12-03T07:57:45Z</time>
      </trkpt>
      <trkpt lat="46.57818" lon="0.18805">
        <ele>-18.4</ele>
        <time>2023-12-03T07:57:47Z</time>
      </trkpt>
      <trkpt lat="46.57816" lon="0.18817">
        <ele>-17.8</ele>
        <time>2023-12-03T07:57:50Z</time>
      </trkpt>
      <trkpt lat="46.57813" lon="0.18823">
        <ele>-17.8</ele>
        <time>2023-12-03T07:57:52Z</time>
      </trkpt>
      <trkpt lat="46.57814" lon="0.18833">
        <ele>-18.2</ele>
        <time>2023-12-03T07:57:55Z</time>
      </trkpt>
      <trkpt lat="46.57815" lon="0.18836">
        <ele>-18.2</ele>
        <time>2023-12-03T07:57:56Z</time>
      </trkpt>
      <trkpt lat="46.5782" lon="0.18851">
        <ele>-17.4</ele>
        <time>2023-12-03T07:58:01Z</time>
      </trkpt>
      <trkpt lat="46.5782" lon="0.18856">
        <ele>-17</ele>
        <time>2023-12-03T07:58:03Z</time>
      </trkpt>
      <trkpt lat="46.57822" lon="0.1886">
        <ele>-17</ele>
        <time>2023-12-03T07:58:06Z</time>
      </trkpt>
      <trkpt lat="46.57824" lon="0.18868">
        <ele>-17.2</ele>
        <time>2023-12-03T07:58:09Z</time>
      </trkpt>
      <trkpt lat="46.57826" lon="0.1887">
        <ele>-17.4</ele>
        <time>2023-12-03T07:58:10Z</time>
      </trkpt>
      <trkpt lat="46.57831" lon="0.18875">
        <ele>-17.2</ele>
        <time>2023-12-03T07:58:15Z</time>
      </trkpt>
      <trkpt lat="46.57832" lon="0.18874">
        <ele>-17</ele>
        <time>2023-12-03T07:58:16Z</time>
      </trkpt>
      <trkpt lat="46.57834" lon="0.18874">
        <ele>-16.6</ele>
        <time>2023-12-03T07:58:18Z</time>
      </trkpt>
      <trkpt lat="46.57836" lon="0.18876">
        <ele>-15.8</ele>
        <time>2023-12-03T07:58:20Z</time>
      </trkpt>
      <trkpt lat="46.57838" lon="0.18878">
        <ele>-15.4</ele>
        <time>2023-12-03T07:58:21Z</time>
      </trkpt>
      <trkpt lat="46.57845" lon="0.1889">
        <ele>-14.4</ele>
        <time>2023-12-03T07:58:25Z</time>
      </trkpt>
      <trkpt lat="46.57852" lon="0.18909">
        <ele>-14.4</ele>
        <time>2023-12-03T07:58:30Z</time>
      </trkpt>
      <trkpt lat="46.57865" lon="0.1893">
        <ele>-13.6</ele>
        <time>2023-12-03T07:58:37Z</time>
      </trkpt>
      <trkpt lat="46.5787" lon="0.18938">
        <ele>-13.2</ele>
        <time>2023-12-03T07:58:40Z</time>
      </trkpt>
      <trkpt lat="46.57876" lon="0.18948">
        <ele>-12.8</ele>
        <time>2023-12-03T07:58:43Z</time>
      </trkpt>
      <trkpt lat="46.57886" lon="0.18965">
        <ele>-12.4</ele>
        <time>2023-12-03T07:58:49Z</time>
      </trkpt>
      <trkpt lat="46.57889" lon="0.18969">
        <ele>-12.2</ele>
        <time>2023-12-03T07:58:51Z</time>
      </trkpt>
      <trkpt lat="46.57895" lon="0.18979">
        <ele>-12</ele>
        <time>2023-12-03T07:58:55Z</time>
      </trkpt>
      <trkpt lat="46.57907" lon="0.18997">
        <ele>-11</ele>
        <time>2023-12-03T07:59:01Z</time>
      </trkpt>
      <trkpt lat="46.5791" lon="0.19003">
        <ele>-10.8</ele>
        <time>2023-12-03T07:59:03Z</time>
      </trkpt>
      <trkpt lat="46.57914" lon="0.19017">
        <ele>-10.2</ele>
        <time>2023-12-03T07:59:06Z</time>
      </trkpt>
      <trkpt lat="46.57916" lon="0.19021">
        <ele>-9.8</ele>
        <time>2023-12-03T07:59:07Z</time>
      </trkpt>
      <trkpt lat="46.57923" lon="0.19034">
        <ele>-9.2</ele>
        <time>2023-12-03T07:59:10Z</time>
      </trkpt>
      <trkpt lat="46.57935" lon="0.19055">
        <ele>-9.2</ele>
        <time>2023-12-03T07:59:15Z</time>
      </trkpt>
      <trkpt lat="46.57936" lon="0.19059">
        <ele>-9.2</ele>
        <time>2023-12-03T07:59:16Z</time>
      </trkpt>
      <trkpt lat="46.57939" lon="0.19064">
        <ele>-9.2</ele>
        <time>2023-12-03T07:59:17Z</time>
      </trkpt>
      <trkpt lat="46.57952" lon="0.19088">
        <ele>-9</ele>
        <time>2023-12-03T07:59:22Z</time>
      </trkpt>
      <trkpt lat="46.57962" lon="0.19111">
        <ele>-8.8</ele>
        <time>2023-12-03T07:59:27Z</time>
      </trkpt>
      <trkpt lat="46.57965" lon="0.19115">
        <ele>-8.6</ele>
        <time>2023-12-03T07:59:28Z</time>
      </trkpt>
      <trkpt lat="46.57972" lon="0.19128">
        <ele>-8</ele>
        <time>2023-12-03T07:59:31Z</time>
      </trkpt>
      <trkpt lat="46.5798" lon="0.19142">
        <ele>-7.4</ele>
        <time>2023-12-03T07:59:34Z</time>
      </trkpt>
      <trkpt lat="46.57998" lon="0.19164">
        <ele>-6.4</ele>
        <time>2023-12-03T07:59:39Z</time>
      </trkpt>
      <trkpt lat="46.58002" lon="0.19168">
        <ele>-6</ele>
        <time>2023-12-03T07:59:40Z</time>
      </trkpt>
      <trkpt lat="46.58019" lon="0.19192">
        <ele>-5.4</ele>
        <time>2023-12-03T07:59:45Z</time>
      </trkpt>
      <trkpt lat="46.58024" lon="0.19196">
        <ele>-5.2</ele>
        <time>2023-12-03T07:59:46Z</time>
      </trkpt>
      <trkpt lat="46.58036" lon="0.19207">
        <ele>-4.4</ele>
        <time>2023-12-03T07:59:49Z</time>
      </trkpt>
      <trkpt lat="46.58041" lon="0.19211">
        <ele>-4.2</ele>
        <time>2023-12-03T07:59:50Z</time>
      </trkpt>
      <trkpt lat="46.58049" lon="0.19218">
        <ele>-3.4</ele>
        <time>2023-12-03T07:59:52Z</time>
      </trkpt>
      <trkpt lat="46.58053" lon="0.19221">
        <ele>-3.2</ele>
        <time>2023-12-03T07:59:53Z</time>
      </trkpt>
      <trkpt lat="46.58073" lon="0.19237">
        <ele>-2.2</ele>
        <time>2023-12-03T07:59:58Z</time>
      </trkpt>
      <trkpt lat="46.58082" lon="0.19242">
        <ele>-1.6</ele>
        <time>2023-12-03T08:00:00Z</time>
      </trkpt>
      <trkpt lat="46.58099" lon="0.19253">
        <ele>-1</ele>
        <time>2023-12-03T08:00:04Z</time>
      </trkpt>
      <trkpt lat="46.58112" lon="0.19265">
        <ele>-0.4</ele>
        <time>2023-12-03T08:00:07Z</time>
      </trkpt>
      <trkpt lat="46.58119" lon="0.19272">
        <ele>135.6</ele>
        <time>2023-12-03T08:00:09Z</time>
      </trkpt>
      <trkpt lat="46.58133" lon="0.1929">
        <ele>1</ele>
        <time>2023-12-03T08:00:13Z</time>
      </trkpt>
      <trkpt lat="46.58136" lon="0.19294">
        <ele>1.2</ele>
        <time>2023-12-03T08:00:14Z</time>
      </trkpt>
      <trkpt lat="46.58158" lon="0.19319">
        <ele>2</ele>
        <time>2023-12-03T08:00:20Z</time>
      </trkpt>
      <trkpt lat="46.58161" lon="0.19324">
        <ele>2.2</ele>
        <time>2023-12-03T08:00:21Z</time>
      </trkpt>
      <trkpt lat="46.58175" lon="0.19345">
        <ele>2.4</ele>
        <time>2023-12-03T08:00:25Z</time>
      </trkpt>
      <trkpt lat="46.58178" lon="0.1935">
        <ele>2.4</ele>
        <time>2023-12-03T08:00:26Z</time>
      </trkpt>
      <trkpt lat="46.58199" lon="0.19388">
        <ele>3</ele>
        <time>2023-12-03T08:00:33Z</time>
      </trkpt>
      <trkpt lat="46.58206" lon="0.19399">
        <ele>3.2</ele>
        <time>2023-12-03T08:00:35Z</time>
      </trkpt>
      <trkpt lat="46.58223" lon="0.19425">
        <ele>3.6</ele>
        <time>2023-12-03T08:00:40Z</time>
      </trkpt>
      <trkpt lat="46.58245" lon="0.19456">
        <ele>4.2</ele>
        <time>2023-12-03T08:00:46Z</time>
      </trkpt>
      <trkpt lat="46.58255" lon="0.19471">
        <ele>4.6</ele>
        <time>2023-12-03T08:00:49Z</time>
      </trkpt>
      <trkpt lat="46.58276" lon="0.19495">
        <ele>5</ele>
        <time>2023-12-03T08:00:55Z</time>
      </trkpt>
      <trkpt lat="46.58279" lon="0.19498">
        <ele>5</ele>
        <time>2023-12-03T08:00:56Z</time>
      </trkpt>
      <trkpt lat="46.58283" lon="0.19498">
        <ele>5</ele>
        <time>2023-12-03T08:00:57Z</time>
      </trkpt>
      <trkpt lat="46.58288" lon="0.19494">
        <ele>5</ele>
        <time>2023-12-03T08:00:59Z</time>
      </trkpt>
      <trkpt lat="46.58302" lon="0.19472">
        <ele>5</ele>
        <time>2023-12-03T08:01:04Z</time>
      </trkpt>
      <trkpt lat="46.58318" lon="0.19447">
        <ele>5</ele>
        <time>2023-12-03T08:01:09Z</time>
      </trkpt>
      <trkpt lat="46.58325" lon="0.19437">
        <ele>4.8</ele>
        <time>2023-12-03T08:01:11Z</time>
      </trkpt>
      <trkpt lat="46.5833" lon="0.19427">
        <ele>4.8</ele>
        <time>2023-12-03T08:01:13Z</time>
      </trkpt>
      <trkpt lat="46.58342" lon="0.19405">
        <ele>4.8</ele>
        <time>2023-12-03T08:01:17Z</time>
      </trkpt>
      <trkpt lat="46.58353" lon="0.19376">
        <ele>4.4</ele>
        <time>2023-12-03T08:01:21Z</time>
      </trkpt>
      <trkpt lat="46.58358" lon="0.19362">
        <ele>4.2</ele>
        <time>2023-12-03T08:01:23Z</time>
      </trkpt>
      <trkpt lat="46.58379" lon="0.19312">
        <ele>4</ele>
        <time>2023-12-03T08:01:30Z</time>
      </trkpt>
      <trkpt lat="46.58397" lon="0.19277">
        <ele>3.2</ele>
        <time>2023-12-03T08:01:35Z</time>
      </trkpt>
      <trkpt lat="46.58404" lon="0.19265">
        <ele>3.2</ele>
        <time>2023-12-03T08:01:37Z</time>
      </trkpt>
      <trkpt lat="46.58423" lon="0.19225">
        <ele>2.4</ele>
        <time>2023-12-03T08:01:43Z</time>
      </trkpt>
      <trkpt lat="46.58432" lon="0.19204">
        <ele>2</ele>
        <time>2023-12-03T08:01:46Z</time>
      </trkpt>
      <trkpt lat="46.58441" lon="0.19191">
        <ele>1.6</ele>
        <time>2023-12-03T08:01:49Z</time>
      </trkpt>
      <trkpt lat="46.58447" lon="0.19181">
        <ele>1</ele>
        <time>2023-12-03T08:01:53Z</time>
      </trkpt>
      <trkpt lat="46.58448" lon="0.19179">
        <ele>1</ele>
        <time>2023-12-03T08:01:54Z</time>
      </trkpt>
      <trkpt lat="46.58453" lon="0.19171">
        <ele>0.6</ele>
        <time>2023-12-03T08:02:06Z</time>
      </trkpt>
      <trkpt lat="46.58455" lon="0.19167">
        <ele>0.4</ele>
        <time>2023-12-03T08:02:24Z</time>
      </trkpt>
      <trkpt lat="46.58456" lon="0.19161">
        <ele>0.8</ele>
        <time>2023-12-03T08:02:32Z</time>
      </trkpt>
      <trkpt lat="46.58457" lon="0.19143">
        <ele>0.8</ele>
        <time>2023-12-03T08:02:38Z</time>
      </trkpt>
      <trkpt lat="46.58459" lon="0.19122">
        <ele>1.2</ele>
        <time>2023-12-03T08:02:44Z</time>
      </trkpt>
      <trkpt lat="46.58469" lon="0.19105">
        <ele>1.8</ele>
        <time>2023-12-03T08:02:49Z</time>
      </trkpt>
      <trkpt lat="46.58487" lon="0.19083">
        <ele>1.8</ele>
        <time>2023-12-03T08:02:54Z</time>
      </trkpt>
      <trkpt lat="46.58491" lon="0.19079">
        <ele>1.8</ele>
        <time>2023-12-03T08:02:55Z</time>
      </trkpt>
      <trkpt lat="46.58509" lon="0.1906">
        <ele>1.6</ele>
        <time>2023-12-03T08:02:59Z</time>
      </trkpt>
      <trkpt lat="46.58535" lon="0.19035">
        <ele>1.8</ele>
        <time>2023-12-03T08:03:04Z</time>
      </trkpt>
      <trkpt lat="46.58541" lon="0.19031">
        <ele>2</ele>
        <time>2023-12-03T08:03:05Z</time>
      </trkpt>
      <trkpt lat="46.58557" lon="0.1902">
        <ele>2</ele>
        <time>2023-12-03T08:03:08Z</time>
      </trkpt>
      <trkpt lat="46.58563" lon="0.19017">
        <ele>2.2</ele>
        <time>2023-12-03T08:03:09Z</time>
      </trkpt>
      <trkpt lat="46.58574" lon="0.19014">
        <ele>2</ele>
        <time>2023-12-03T08:03:11Z</time>
      </trkpt>
      <trkpt lat="46.58579" lon="0.19012">
        <ele>2</ele>
        <time>2023-12-03T08:03:12Z</time>
      </trkpt>
      <trkpt lat="46.58594" lon="0.19009">
        <ele>2</ele>
        <time>2023-12-03T08:03:15Z</time>
      </trkpt>
      <trkpt lat="46.58599" lon="0.19009">
        <ele>1.8</ele>
        <time>2023-12-03T08:03:16Z</time>
      </trkpt>
      <trkpt lat="46.58621" lon="0.19002">
        <ele>1.6</ele>
        <time>2023-12-03T08:03:20Z</time>
      </trkpt>
      <trkpt lat="46.58627" lon="0.18999">
        <ele>1.4</ele>
        <time>2023-12-03T08:03:21Z</time>
      </trkpt>
      <trkpt lat="46.58632" lon="0.18994">
        <ele>1.4</ele>
        <time>2023-12-03T08:03:22Z</time>
      </trkpt>
      <trkpt lat="46.58639" lon="0.1898">
        <ele>1.4</ele>
        <time>2023-12-03T08:03:24Z</time>
      </trkpt>
      <trkpt lat="46.58656" lon="0.18932">
        <ele>1.8</ele>
        <time>2023-12-03T08:03:30Z</time>
      </trkpt>
      <trkpt lat="46.58671" lon="0.18888">
        <ele>2.2</ele>
        <time>2023-12-03T08:03:36Z</time>
      </trkpt>
      <trkpt lat="46.58678" lon="0.18865">
        <ele>2</ele>
        <time>2023-12-03T08:03:39Z</time>
      </trkpt>
      <trkpt lat="46.58686" lon="0.18841">
        <ele>1.8</ele>
        <time>2023-12-03T08:03:42Z</time>
      </trkpt>
      <trkpt lat="46.58697" lon="0.18802">
        <ele>1.8</ele>
        <time>2023-12-03T08:03:47Z</time>
      </trkpt>
      <trkpt lat="46.587" lon="0.18786">
        <ele>1.6</ele>
        <time>2023-12-03T08:03:49Z</time>
      </trkpt>
      <trkpt lat="46.58714" lon="0.18727">
        <ele>2.6</ele>
        <time>2023-12-03T08:03:57Z</time>
      </trkpt>
      <trkpt lat="46.58725" lon="0.18686">
        <ele>2.4</ele>
        <time>2023-12-03T08:04:03Z</time>
      </trkpt>
      <trkpt lat="46.58737" lon="0.18661">
        <ele>2</ele>
        <time>2023-12-03T08:04:07Z</time>
      </trkpt>
      <trkpt lat="46.58745" lon="0.18645">
        <ele>2.2</ele>
        <time>2023-12-03T08:04:10Z</time>
      </trkpt>
      <trkpt lat="46.58764" lon="0.1861">
        <ele>2.6</ele>
        <time>2023-12-03T08:04:16Z</time>
      </trkpt>
      <trkpt lat="46.5877" lon="0.18598">
        <ele>2.8</ele>
        <time>2023-12-03T08:04:18Z</time>
      </trkpt>
      <trkpt lat="46.58778" lon="0.18576">
        <ele>3.2</ele>
        <time>2023-12-03T08:04:22Z</time>
      </trkpt>
      <trkpt lat="46.5878" lon="0.18571">
        <ele>3.4</ele>
        <time>2023-12-03T08:04:23Z</time>
      </trkpt>
      <trkpt lat="46.58782" lon="0.18568">
        <ele>3.4</ele>
        <time>2023-12-03T08:04:24Z</time>
      </trkpt>
      <trkpt lat="46.58785" lon="0.18565">
        <ele>3.6</ele>
        <time>2023-12-03T08:04:27Z</time>
      </trkpt>
      <trkpt lat="46.58786" lon="0.18564">
        <ele>3.6</ele>
        <time>2023-12-03T08:04:28Z</time>
      </trkpt>
      <trkpt lat="46.58787" lon="0.18568">
        <ele>3.8</ele>
        <time>2023-12-03T08:04:32Z</time>
      </trkpt>
      <trkpt lat="46.58788" lon="0.1857">
        <ele>3.8</ele>
        <time>2023-12-03T08:04:33Z</time>
      </trkpt>
      <trkpt lat="46.58794" lon="0.18576">
        <ele>4.2</ele>
        <time>2023-12-03T08:04:37Z</time>
      </trkpt>
      <trkpt lat="46.58798" lon="0.18579">
        <ele>4.6</ele>
        <time>2023-12-03T08:04:39Z</time>
      </trkpt>
      <trkpt lat="46.58813" lon="0.18592">
        <ele>4.8</ele>
        <time>2023-12-03T08:04:45Z</time>
      </trkpt>
      <trkpt lat="46.58822" lon="0.18602">
        <ele>5.4</ele>
        <time>2023-12-03T08:04:48Z</time>
      </trkpt>
      <trkpt lat="46.58823" lon="0.18607">
        <ele>5.6</ele>
        <time>2023-12-03T08:04:49Z</time>
      </trkpt>
      <trkpt lat="46.58825" lon="0.18611">
        <ele>5.8</ele>
        <time>2023-12-03T08:04:50Z</time>
      </trkpt>
      <trkpt lat="46.58828" lon="0.18616">
        <ele>6</ele>
        <time>2023-12-03T08:04:51Z</time>
      </trkpt>
      <trkpt lat="46.58842" lon="0.18631">
        <ele>6</ele>
        <time>2023-12-03T08:04:55Z</time>
      </trkpt>
      <trkpt lat="46.58847" lon="0.18635">
        <ele>6</ele>
        <time>2023-12-03T08:04:56Z</time>
      </trkpt>
      <trkpt lat="46.58855" lon="0.18644">
        <ele>5.8</ele>
        <time>2023-12-03T08:04:58Z</time>
      </trkpt>
      <trkpt lat="46.58865" lon="0.1866">
        <ele>5.8</ele>
        <time>2023-12-03T08:05:01Z</time>
      </trkpt>
      <trkpt lat="46.58868" lon="0.18667">
        <ele>5.6</ele>
        <time>2023-12-03T08:05:02Z</time>
      </trkpt>
      <trkpt lat="46.58876" lon="0.18681">
        <ele>6</ele>
        <time>2023-12-03T08:05:05Z</time>
      </trkpt>
      <trkpt lat="46.58879" lon="0.18684">
        <ele>6</ele>
        <time>2023-12-03T08:05:06Z</time>
      </trkpt>
      <trkpt lat="46.589" lon="0.18724">
        <ele>6</ele>
        <time>2023-12-03T08:05:13Z</time>
      </trkpt>
      <trkpt lat="46.58921" lon="0.18763">
        <ele>5.8</ele>
        <time>2023-12-03T08:05:19Z</time>
      </trkpt>
      <trkpt lat="46.58937" lon="0.18787">
        <ele>5.4</ele>
        <time>2023-12-03T08:05:24Z</time>
      </trkpt>
      <trkpt lat="46.5894" lon="0.18792">
        <ele>5.4</ele>
        <time>2023-12-03T08:05:25Z</time>
      </trkpt>
      <trkpt lat="46.58947" lon="0.18831">
        <ele>5.2</ele>
        <time>2023-12-03T08:05:30Z</time>
      </trkpt>
      <trkpt lat="46.5895" lon="0.18857">
        <ele>4.6</ele>
        <time>2023-12-03T08:05:33Z</time>
      </trkpt>
      <trkpt lat="46.58952" lon="0.18864">
        <ele>4.4</ele>
        <time>2023-12-03T08:05:34Z</time>
      </trkpt>
      <trkpt lat="46.58957" lon="0.18876">
        <ele>4.2</ele>
        <time>2023-12-03T08:05:36Z</time>
      </trkpt>
      <trkpt lat="46.58959" lon="0.18884">
        <ele>4</ele>
        <time>2023-12-03T08:05:37Z</time>
      </trkpt>
      <trkpt lat="46.58969" lon="0.18915">
        <ele>3.6</ele>
        <time>2023-12-03T08:05:41Z</time>
      </trkpt>
      <trkpt lat="46.58973" lon="0.18923">
        <ele>3</ele>
        <time>2023-12-03T08:05:42Z</time>
      </trkpt>
      <trkpt lat="46.58978" lon="0.18939">
        <ele>2.6</ele>
        <time>2023-12-03T08:05:44Z</time>
      </trkpt>
      <trkpt lat="46.5899" lon="0.18959">
        <ele>2.4</ele>
        <time>2023-12-03T08:05:47Z</time>
      </trkpt>
      <trkpt lat="46.59008" lon="0.19016">
        <ele>2</ele>
        <time>2023-12-03T08:05:53Z</time>
      </trkpt>
      <trkpt lat="46.59014" lon="0.19033">
        <ele>1.8</ele>
        <time>2023-12-03T08:05:55Z</time>
      </trkpt>
      <trkpt lat="46.59025" lon="0.19067">
        <ele>1.2</ele>
        <time>2023-12-03T08:05:59Z</time>
      </trkpt>
      <trkpt lat="46.59027" lon="0.19076">
        <ele>1</ele>
        <time>2023-12-03T08:06:00Z</time>
      </trkpt>
      <trkpt lat="46.59033" lon="0.19089">
        <ele>0.6</ele>
        <time>2023-12-03T08:06:02Z</time>
      </trkpt>
      <trkpt lat="46.59036" lon="0.19108">
        <ele>0.4</ele>
        <time>2023-12-03T08:06:04Z</time>
      </trkpt>
      <trkpt lat="46.59039" lon="0.19111">
        <ele>0.4</ele>
        <time>2023-12-03T08:06:05Z</time>
      </trkpt>
      <trkpt lat="46.59043" lon="0.19114">
        <ele>0.4</ele>
        <time>2023-12-03T08:06:07Z</time>
      </trkpt>
      <trkpt lat="46.59048" lon="0.19116">
        <ele>0.4</ele>
        <time>2023-12-03T08:06:09Z</time>
      </trkpt>
      <trkpt lat="46.59059" lon="0.19117">
        <ele>0.2</ele>
        <time>2023-12-03T08:06:12Z</time>
      </trkpt>
      <trkpt lat="46.59063" lon="0.19117">
        <ele>135.6</ele>
        <time>2023-12-03T08:06:13Z</time>
      </trkpt>
      <trkpt lat="46.59069" lon="0.19122">
        <ele>135.3</ele>
        <time>2023-12-03T08:06:15Z</time>
      </trkpt>
      <trkpt lat="46.59072" lon="0.19124">
        <ele>-0.2</ele>
        <time>2023-12-03T08:06:16Z</time>
      </trkpt>
      <trkpt lat="46.59082" lon="0.19141">
        <ele>135</ele>
        <time>2023-12-03T08:06:20Z</time>
      </trkpt>
      <trkpt lat="46.59087" lon="0.19152">
        <ele>134.9</ele>
        <time>2023-12-03T08:06:22Z</time>
      </trkpt>
      <trkpt lat="46.5909" lon="0.19172">
        <ele>0.2</ele>
        <time>2023-12-03T08:06:25Z</time>
      </trkpt>
      <trkpt lat="46.59092" lon="0.19186">
        <ele>0.2</ele>
        <time>2023-12-03T08:06:27Z</time>
      </trkpt>
      <trkpt lat="46.59096" lon="0.1921">
        <ele>0.2</ele>
        <time>2023-12-03T08:06:31Z</time>
      </trkpt>
      <trkpt lat="46.59099" lon="0.19222">
        <ele>0.2</ele>
        <time>2023-12-03T08:06:33Z</time>
      </trkpt>
      <trkpt lat="46.59102" lon="0.19234">
        <ele>0.4</ele>
        <time>2023-12-03T08:06:35Z</time>
      </trkpt>
      <trkpt lat="46.59104" lon="0.19241">
        <ele>0.6</ele>
        <time>2023-12-03T08:06:36Z</time>
      </trkpt>
      <trkpt lat="46.59111" lon="0.19276">
        <ele>0.6</ele>
        <time>2023-12-03T08:06:41Z</time>
      </trkpt>
      <trkpt lat="46.59112" lon="0.19295">
        <ele>0.2</ele>
        <time>2023-12-03T08:06:44Z</time>
      </trkpt>
      <trkpt lat="46.59111" lon="0.19299">
        <ele>134</ele>
        <time>2023-12-03T08:06:45Z</time>
      </trkpt>
      <trkpt lat="46.5911" lon="0.19308">
        <ele>134</ele>
        <time>2023-12-03T08:06:47Z</time>
      </trkpt>
      <trkpt lat="46.59111" lon="0.19315">
        <ele>-0.2</ele>
        <time>2023-12-03T08:06:49Z</time>
      </trkpt>
      <trkpt lat="46.59114" lon="0.19344">
        <ele>-0.2</ele>
        <time>2023-12-03T08:06:54Z</time>
      </trkpt>
      <trkpt lat="46.59115" lon="0.1935">
        <ele>-0.2</ele>
        <time>2023-12-03T08:06:55Z</time>
      </trkpt>
      <trkpt lat="46.59119" lon="0.19366">
        <ele>0.2</ele>
        <time>2023-12-03T08:06:58Z</time>
      </trkpt>
      <trkpt lat="46.5912" lon="0.19383">
        <ele>0.2</ele>
        <time>2023-12-03T08:07:00Z</time>
      </trkpt>
      <trkpt lat="46.59123" lon="0.19399">
        <ele>-0.2</ele>
        <time>2023-12-03T08:07:02Z</time>
      </trkpt>
      <trkpt lat="46.59131" lon="0.19421">
        <ele>-0.2</ele>
        <time>2023-12-03T08:07:05Z</time>
      </trkpt>
      <trkpt lat="46.59147" lon="0.19454">
        <ele>-0.6</ele>
        <time>2023-12-03T08:07:10Z</time>
      </trkpt>
      <trkpt lat="46.59169" lon="0.19496">
        <ele>-1</ele>
        <time>2023-12-03T08:07:16Z</time>
      </trkpt>
      <trkpt lat="46.59195" lon="0.19533">
        <ele>-1.6</ele>
        <time>2023-12-03T08:07:22Z</time>
      </trkpt>
      <trkpt lat="46.59217" lon="0.19559">
        <ele>-2.2</ele>
        <time>2023-12-03T08:07:27Z</time>
      </trkpt>
      <trkpt lat="46.59225" lon="0.19572">
        <ele>-2.4</ele>
        <time>2023-12-03T08:07:29Z</time>
      </trkpt>
      <trkpt lat="46.59233" lon="0.19584">
        <ele>-2.6</ele>
        <time>2023-12-03T08:07:31Z</time>
      </trkpt>
      <trkpt lat="46.59236" lon="0.19589">
        <ele>-2.6</ele>
        <time>2023-12-03T08:07:32Z</time>
      </trkpt>
      <trkpt lat="46.5924" lon="0.19595">
        <ele>-2.6</ele>
        <time>2023-12-03T08:07:33Z</time>
      </trkpt>
      <trkpt lat="46.59244" lon="0.196">
        <ele>-2.8</ele>
        <time>2023-12-03T08:07:34Z</time>
      </trkpt>
      <trkpt lat="46.59267" lon="0.19638">
        <ele>-3.4</ele>
        <time>2023-12-03T08:07:40Z</time>
      </trkpt>
      <trkpt lat="46.59278" lon="0.19656">
        <ele>-3.8</ele>
        <time>2023-12-03T08:07:43Z</time>
      </trkpt>
      <trkpt lat="46.59278" lon="0.19672">
        <ele>-4</ele>
        <time>2023-12-03T08:07:45Z</time>
      </trkpt>
      <trkpt lat="46.59281" lon="0.197">
        <ele>-4.2</ele>
        <time>2023-12-03T08:07:53Z</time>
      </trkpt>
      <trkpt lat="46.59283" lon="0.19718">
        <ele>-4.4</ele>
        <time>2023-12-03T08:08:01Z</time>
      </trkpt>
      <trkpt lat="46.59283" lon="0.19719">
        <ele>-4.4</ele>
        <time>2023-12-03T08:08:02Z</time>
      </trkpt>
      <trkpt lat="46.59282" lon="0.19727">
        <ele>-4.6</ele>
        <time>2023-12-03T08:08:05Z</time>
      </trkpt>
      <trkpt lat="46.59281" lon="0.19736">
        <ele>-4.8</ele>
        <time>2023-12-03T08:08:08Z</time>
      </trkpt>
      <trkpt lat="46.59281" lon="0.19743">
        <ele>-4.8</ele>
        <time>2023-12-03T08:08:10Z</time>
      </trkpt>
      <trkpt lat="46.59281" lon="0.19747">
        <ele>-4.8</ele>
        <time>2023-12-03T08:08:11Z</time>
      </trkpt>
      <trkpt lat="46.59286" lon="0.19767">
        <ele>-4.8</ele>
        <time>2023-12-03T08:08:15Z</time>
      </trkpt>
      <trkpt lat="46.59297" lon="0.19795">
        <ele>-5</ele>
        <time>2023-12-03T08:08:20Z</time>
      </trkpt>
      <trkpt lat="46.59321" lon="0.19843">
        <ele>-5.4</ele>
        <time>2023-12-03T08:08:27Z</time>
      </trkpt>
      <trkpt lat="46.59329" lon="0.19857">
        <ele>-6.2</ele>
        <time>2023-12-03T08:08:29Z</time>
      </trkpt>
      <trkpt lat="46.5934" lon="0.1988">
        <ele>-6.6</ele>
        <time>2023-12-03T08:08:32Z</time>
      </trkpt>
      <trkpt lat="46.59368" lon="0.19934">
        <ele>-6.8</ele>
        <time>2023-12-03T08:08:39Z</time>
      </trkpt>
      <trkpt lat="46.5938" lon="0.19957">
        <ele>-7.2</ele>
        <time>2023-12-03T08:08:42Z</time>
      </trkpt>
      <trkpt lat="46.59392" lon="0.19981">
        <ele>-8.2</ele>
        <time>2023-12-03T08:08:45Z</time>
      </trkpt>
      <trkpt lat="46.59398" lon="0.19989">
        <ele>-8.4</ele>
        <time>2023-12-03T08:08:46Z</time>
      </trkpt>
      <trkpt lat="46.5942" lon="0.20034">
        <ele>-9.4</ele>
        <time>2023-12-03T08:08:51Z</time>
      </trkpt>
      <trkpt lat="46.5943" lon="0.20051">
        <ele>-9.4</ele>
        <time>2023-12-03T08:08:53Z</time>
      </trkpt>
      <trkpt lat="46.5945" lon="0.20081">
        <ele>-10</ele>
        <time>2023-12-03T08:08:57Z</time>
      </trkpt>
      <trkpt lat="46.59467" lon="0.20108">
        <ele>-10.4</ele>
        <time>2023-12-03T08:09:01Z</time>
      </trkpt>
      <trkpt lat="46.59471" lon="0.20114">
        <ele>-10.6</ele>
        <time>2023-12-03T08:09:02Z</time>
      </trkpt>
      <trkpt lat="46.59473" lon="0.20126">
        <ele>-10.8</ele>
        <time>2023-12-03T08:09:03Z</time>
      </trkpt>
      <trkpt lat="46.59484" lon="0.20144">
        <ele>-11.4</ele>
        <time>2023-12-03T08:09:06Z</time>
      </trkpt>
      <trkpt lat="46.59496" lon="0.20172">
        <ele>-11.4</ele>
        <time>2023-12-03T08:09:10Z</time>
      </trkpt>
      <trkpt lat="46.595" lon="0.20179">
        <ele>-11.4</ele>
        <time>2023-12-03T08:09:11Z</time>
      </trkpt>
      <trkpt lat="46.59503" lon="0.20205">
        <ele>-11.4</ele>
        <time>2023-12-03T08:09:14Z</time>
      </trkpt>
      <trkpt lat="46.59508" lon="0.20218">
        <ele>-11.4</ele>
        <time>2023-12-03T08:09:16Z</time>
      </trkpt>
      <trkpt lat="46.5951" lon="0.20231">
        <ele>-11.4</ele>
        <time>2023-12-03T08:09:18Z</time>
      </trkpt>
      <trkpt lat="46.59513" lon="0.20241">
        <ele>-11.4</ele>
        <time>2023-12-03T08:09:20Z</time>
      </trkpt>
      <trkpt lat="46.59531" lon="0.20251">
        <ele>-10.8</ele>
        <time>2023-12-03T08:09:25Z</time>
      </trkpt>
      <trkpt lat="46.59549" lon="0.20257">
        <ele>-11.2</ele>
        <time>2023-12-03T08:09:28Z</time>
      </trkpt>
      <trkpt lat="46.59559" lon="0.20263">
        <ele>-11.6</ele>
        <time>2023-12-03T08:09:30Z</time>
      </trkpt>
      <trkpt lat="46.59559" lon="0.20263">
        <ele>-11.8</ele>
        <time>2023-12-03T08:09:31Z</time>
      </trkpt>
      <trkpt lat="46.5957" lon="0.20267">
        <ele>-11.8</ele>
        <time>2023-12-03T08:09:32Z</time>
      </trkpt>
      <trkpt lat="46.59593" lon="0.2027">
        <ele>-12.4</ele>
        <time>2023-12-03T08:09:36Z</time>
      </trkpt>
      <trkpt lat="46.59604" lon="0.2027">
        <ele>-13</ele>
        <time>2023-12-03T08:09:38Z</time>
      </trkpt>
      <trkpt lat="46.59621" lon="0.20273">
        <ele>-13.2</ele>
        <time>2023-12-03T08:09:41Z</time>
      </trkpt>
      <trkpt lat="46.59635" lon="0.20275">
        <ele>-13.2</ele>
        <time>2023-12-03T08:09:43Z</time>
      </trkpt>
      <trkpt lat="46.59646" lon="0.20279">
        <ele>-13.2</ele>
        <time>2023-12-03T08:09:45Z</time>
      </trkpt>
      <trkpt lat="46.59681" lon="0.20291">
        <ele>-14</ele>
        <time>2023-12-03T08:09:51Z</time>
      </trkpt>
      <trkpt lat="46.59714" lon="0.20299">
        <ele>-14</ele>
        <time>2023-12-03T08:09:57Z</time>
      </trkpt>
      <trkpt lat="46.59753" lon="0.20305">
        <ele>-15.2</ele>
        <time>2023-12-03T08:10:03Z</time>
      </trkpt>
      <trkpt lat="46.59798" lon="0.2031">
        <ele>-15.6</ele>
        <time>2023-12-03T08:10:10Z</time>
      </trkpt>
      <trkpt lat="46.59823" lon="0.20317">
        <ele>-15.8</ele>
        <time>2023-12-03T08:10:15Z</time>
      </trkpt>
      <trkpt lat="46.59846" lon="0.20321">
        <ele>-15.8</ele>
        <time>2023-12-03T08:10:19Z</time>
      </trkpt>
      <trkpt lat="46.59851" lon="0.20322">
        <ele>-15.8</ele>
        <time>2023-12-03T08:10:20Z</time>
      </trkpt>
      <trkpt lat="46.59857" lon="0.20323">
        <ele>-16</ele>
        <time>2023-12-03T08:10:21Z</time>
      </trkpt>
      <trkpt lat="46.5987" lon="0.20323">
        <ele>-16.2</ele>
        <time>2023-12-03T08:10:23Z</time>
      </trkpt>
      <trkpt lat="46.59889" lon="0.20323">
        <ele>-16.4</ele>
        <time>2023-12-03T08:10:26Z</time>
      </trkpt>
      <trkpt lat="46.59931" lon="0.20323">
        <ele>-16.6</ele>
        <time>2023-12-03T08:10:32Z</time>
      </trkpt>
      <trkpt lat="46.59979" lon="0.20322">
        <ele>-16.4</ele>
        <time>2023-12-03T08:10:39Z</time>
      </trkpt>
      <trkpt lat="46.60006" lon="0.20323">
        <ele>-16.8</ele>
        <time>2023-12-03T08:10:44Z</time>
      </trkpt>
      <trkpt lat="46.60016" lon="0.20326">
        <ele>-16.6</ele>
        <time>2023-12-03T08:10:46Z</time>
      </trkpt>
      <trkpt lat="46.60039" lon="0.20334">
        <ele>-16.6</ele>
        <time>2023-12-03T08:10:50Z</time>
      </trkpt>
      <trkpt lat="46.60051" lon="0.20334">
        <ele>-16.6</ele>
        <time>2023-12-03T08:10:52Z</time>
      </trkpt>
      <trkpt lat="46.60085" lon="0.20328">
        <ele>-16.6</ele>
        <time>2023-12-03T08:10:57Z</time>
      </trkpt>
      <trkpt lat="46.60126" lon="0.20331">
        <ele>-17.2</ele>
        <time>2023-12-03T08:11:03Z</time>
      </trkpt>
      <trkpt lat="46.60156" lon="0.20337">
        <ele>-18.4</ele>
        <time>2023-12-03T08:11:08Z</time>
      </trkpt>
      <trkpt lat="46.60162" lon="0.20338">
        <ele>-18.4</ele>
        <time>2023-12-03T08:11:09Z</time>
      </trkpt>
      <trkpt lat="46.60204" lon="0.2035">
        <ele>-18.6</ele>
        <time>2023-12-03T08:11:16Z</time>
      </trkpt>
      <trkpt lat="46.60242" lon="0.20363">
        <ele>-19.4</ele>
        <time>2023-12-03T08:11:22Z</time>
      </trkpt>
      <trkpt lat="46.60247" lon="0.20366">
        <ele>-19.4</ele>
        <time>2023-12-03T08:11:23Z</time>
      </trkpt>
      <trkpt lat="46.6028" lon="0.20385">
        <ele>-19.8</ele>
        <time>2023-12-03T08:11:28Z</time>
      </trkpt>
      <trkpt lat="46.60318" lon="0.20409">
        <ele>-19.6</ele>
        <time>2023-12-03T08:11:35Z</time>
      </trkpt>
      <trkpt lat="46.60331" lon="0.20419">
        <ele>-19.8</ele>
        <time>2023-12-03T08:11:38Z</time>
      </trkpt>
      <trkpt lat="46.60339" lon="0.20419">
        <ele>-19.8</ele>
        <time>2023-12-03T08:11:40Z</time>
      </trkpt>
      <trkpt lat="46.60346" lon="0.20411">
        <ele>-19.8</ele>
        <time>2023-12-03T08:11:42Z</time>
      </trkpt>
      <trkpt lat="46.60348" lon="0.20405">
        <ele>-19.8</ele>
        <time>2023-12-03T08:11:43Z</time>
      </trkpt>
      <trkpt lat="46.60366" lon="0.2035">
        <ele>-19.2</ele>
        <time>2023-12-03T08:11:51Z</time>
      </trkpt>
      <trkpt lat="46.60382" lon="0.20308">
        <ele>-19.6</ele>
        <time>2023-12-03T08:11:57Z</time>
      </trkpt>
      <trkpt lat="46.60386" lon="0.20301">
        <ele>-19.8</ele>
        <time>2023-12-03T08:11:58Z</time>
      </trkpt>
      <trkpt lat="46.60391" lon="0.20296">
        <ele>-19.8</ele>
        <time>2023-12-03T08:11:59Z</time>
      </trkpt>
      <trkpt lat="46.60406" lon="0.20282">
        <ele>-19.6</ele>
        <time>2023-12-03T08:12:02Z</time>
      </trkpt>
      <trkpt lat="46.60416" lon="0.20273">
        <ele>-19.2</ele>
        <time>2023-12-03T08:12:04Z</time>
      </trkpt>
      <trkpt lat="46.60436" lon="0.20253">
        <ele>-19</ele>
        <time>2023-12-03T08:12:08Z</time>
      </trkpt>
      <trkpt lat="46.60468" lon="0.20216">
        <ele>-18.4</ele>
        <time>2023-12-03T08:12:15Z</time>
      </trkpt>
      <trkpt lat="46.60511" lon="0.20178">
        <ele>-18.4</ele>
        <time>2023-12-03T08:12:23Z</time>
      </trkpt>
      <trkpt lat="46.60516" lon="0.20173">
        <ele>-18.4</ele>
        <time>2023-12-03T08:12:24Z</time>
      </trkpt>
      <trkpt lat="46.6055" lon="0.20153">
        <ele>-18</ele>
        <time>2023-12-03T08:12:30Z</time>
      </trkpt>
      <trkpt lat="46.60579" lon="0.20138">
        <ele>-17.4</ele>
        <time>2023-12-03T08:12:36Z</time>
      </trkpt>
      <trkpt lat="46.60583" lon="0.20136">
        <ele>-17.4</ele>
        <time>2023-12-03T08:12:37Z</time>
      </trkpt>
      <trkpt lat="46.6061" lon="0.20121">
        <ele>-17</ele>
        <time>2023-12-03T08:12:43Z</time>
      </trkpt>
      <trkpt lat="46.60613" lon="0.20119">
        <ele>-16.8</ele>
        <time>2023-12-03T08:12:44Z</time>
      </trkpt>
      <trkpt lat="46.6062" lon="0.20121">
        <ele>-16.6</ele>
        <time>2023-12-03T08:12:46Z</time>
      </trkpt>
      <trkpt lat="46.60637" lon="0.20136">
        <ele>-16.8</ele>
        <time>2023-12-03T08:12:50Z</time>
      </trkpt>
      <trkpt lat="46.60674" lon="0.20165">
        <ele>-17</ele>
        <time>2023-12-03T08:12:58Z</time>
      </trkpt>
      <trkpt lat="46.60695" lon="0.20178">
        <ele>-17.2</ele>
        <time>2023-12-03T08:13:03Z</time>
      </trkpt>
      <trkpt lat="46.60702" lon="0.20182">
        <ele>-17.2</ele>
        <time>2023-12-03T08:13:05Z</time>
      </trkpt>
      <trkpt lat="46.60712" lon="0.20194">
        <ele>-16.8</ele>
        <time>2023-12-03T08:13:08Z</time>
      </trkpt>
      <trkpt lat="46.60725" lon="0.20209">
        <ele>-16.4</ele>
        <time>2023-12-03T08:13:11Z</time>
      </trkpt>
      <trkpt lat="46.60734" lon="0.20218">
        <ele>-16.8</ele>
        <time>2023-12-03T08:13:13Z</time>
      </trkpt>
      <trkpt lat="46.60753" lon="0.20234">
        <ele>-18.2</ele>
        <time>2023-12-03T08:13:17Z</time>
      </trkpt>
      <trkpt lat="46.60765" lon="0.20242">
        <ele>-18.2</ele>
        <time>2023-12-03T08:13:20Z</time>
      </trkpt>
      <trkpt lat="46.60768" lon="0.20244">
        <ele>-18.4</ele>
        <time>2023-12-03T08:13:21Z</time>
      </trkpt>
      <trkpt lat="46.60778" lon="0.2025">
        <ele>-18.6</ele>
        <time>2023-12-03T08:13:24Z</time>
      </trkpt>
      <trkpt lat="46.60782" lon="0.20251">
        <ele>-18.8</ele>
        <time>2023-12-03T08:13:25Z</time>
      </trkpt>
      <trkpt lat="46.608" lon="0.20255">
        <ele>-19</ele>
        <time>2023-12-03T08:13:29Z</time>
      </trkpt>
      <trkpt lat="46.60805" lon="0.20256">
        <ele>-19</ele>
        <time>2023-12-03T08:13:30Z</time>
      </trkpt>
      <trkpt lat="46.60825" lon="0.20262">
        <ele>-19.2</ele>
        <time>2023-12-03T08:13:34Z</time>
      </trkpt>
      <trkpt lat="46.60862" lon="0.20272">
        <ele>-19</ele>
        <time>2023-12-03T08:13:41Z</time>
      </trkpt>
      <trkpt lat="46.60867" lon="0.20274">
        <ele>-19</ele>
        <time>2023-12-03T08:13:42Z</time>
      </trkpt>
      <trkpt lat="46.60881" lon="0.20283">
        <ele>-18.8</ele>
        <time>2023-12-03T08:13:45Z</time>
      </trkpt>
      <trkpt lat="46.60885" lon="0.20288">
        <ele>-18.8</ele>
        <time>2023-12-03T08:13:46Z</time>
      </trkpt>
      <trkpt lat="46.60889" lon="0.20293">
        <ele>-18.8</ele>
        <time>2023-12-03T08:13:47Z</time>
      </trkpt>
      <trkpt lat="46.60908" lon="0.20315">
        <ele>-18.8</ele>
        <time>2023-12-03T08:13:50Z</time>
      </trkpt>
      <trkpt lat="46.60942" lon="0.20356">
        <ele>-19.8</ele>
        <time>2023-12-03T08:13:55Z</time>
      </trkpt>
      <trkpt lat="46.60949" lon="0.20364">
        <ele>-20</ele>
        <time>2023-12-03T08:13:56Z</time>
      </trkpt>
      <trkpt lat="46.60962" lon="0.20389">
        <ele>-21</ele>
        <time>2023-12-03T08:13:59Z</time>
      </trkpt>
      <trkpt lat="46.60966" lon="0.20396">
        <ele>-21.2</ele>
        <time>2023-12-03T08:14:00Z</time>
      </trkpt>
      <trkpt lat="46.60972" lon="0.20403">
        <ele>-21.4</ele>
        <time>2023-12-03T08:14:01Z</time>
      </trkpt>
      <trkpt lat="46.60976" lon="0.2041">
        <ele>-21.6</ele>
        <time>2023-12-03T08:14:02Z</time>
      </trkpt>
      <trkpt lat="46.60985" lon="0.20418">
        <ele>-22.2</ele>
        <time>2023-12-03T08:14:04Z</time>
      </trkpt>
      <trkpt lat="46.6099" lon="0.20421">
        <ele>-22.2</ele>
        <time>2023-12-03T08:14:05Z</time>
      </trkpt>
      <trkpt lat="46.60994" lon="0.20426">
        <ele>-22.4</ele>
        <time>2023-12-03T08:14:06Z</time>
      </trkpt>
      <trkpt lat="46.61008" lon="0.20442">
        <ele>-23</ele>
        <time>2023-12-03T08:14:09Z</time>
      </trkpt>
      <trkpt lat="46.61017" lon="0.20453">
        <ele>-23.4</ele>
        <time>2023-12-03T08:14:11Z</time>
      </trkpt>
      <trkpt lat="46.61031" lon="0.2047">
        <ele>-24.6</ele>
        <time>2023-12-03T08:14:14Z</time>
      </trkpt>
      <trkpt lat="46.61035" lon="0.20476">
        <ele>-25</ele>
        <time>2023-12-03T08:14:15Z</time>
      </trkpt>
      <trkpt lat="46.61055" lon="0.20504">
        <ele>-26</ele>
        <time>2023-12-03T08:14:19Z</time>
      </trkpt>
      <trkpt lat="46.61063" lon="0.20522">
        <ele>-27.8</ele>
        <time>2023-12-03T08:14:21Z</time>
      </trkpt>
      <trkpt lat="46.61065" lon="0.20531">
        <ele>-28.6</ele>
        <time>2023-12-03T08:14:22Z</time>
      </trkpt>
      <trkpt lat="46.61066" lon="0.20538">
        <ele>-29.2</ele>
        <time>2023-12-03T08:14:23Z</time>
      </trkpt>
      <trkpt lat="46.61069" lon="0.20547">
        <ele>-29.4</ele>
        <time>2023-12-03T08:14:25Z</time>
      </trkpt>
      <trkpt lat="46.61071" lon="0.2055">
        <ele>-29.6</ele>
        <time>2023-12-03T08:14:26Z</time>
      </trkpt>
      <trkpt lat="46.61073" lon="0.20551">
        <ele>-29.4</ele>
        <time>2023-12-03T08:14:27Z</time>
      </trkpt>
      <trkpt lat="46.61075" lon="0.20568">
        <ele>-29</ele>
        <time>2023-12-03T08:14:30Z</time>
      </trkpt>
      <trkpt lat="46.61079" lon="0.20577">
        <ele>-27.6</ele>
        <time>2023-12-03T08:14:33Z</time>
      </trkpt>
      <trkpt lat="46.61085" lon="0.20584">
        <ele>-26.2</ele>
        <time>2023-12-03T08:14:36Z</time>
      </trkpt>
      <trkpt lat="46.61087" lon="0.20586">
        <ele>-25.8</ele>
        <time>2023-12-03T08:14:37Z</time>
      </trkpt>
      <trkpt lat="46.6109" lon="0.20599">
        <ele>-25</ele>
        <time>2023-12-03T08:14:40Z</time>
      </trkpt>
      <trkpt lat="46.61095" lon="0.20614">
        <ele>-23.8</ele>
        <time>2023-12-03T08:14:44Z</time>
      </trkpt>
      <trkpt lat="46.61097" lon="0.20622">
        <ele>-22.6</ele>
        <time>2023-12-03T08:14:46Z</time>
      </trkpt>
      <trkpt lat="46.61098" lon="0.20635">
        <ele>-21.6</ele>
        <time>2023-12-03T08:14:49Z</time>
      </trkpt>
      <trkpt lat="46.61099" lon="0.20639">
        <ele>-21.2</ele>
        <time>2023-12-03T08:14:50Z</time>
      </trkpt>
      <trkpt lat="46.611" lon="0.20641">
        <ele>-21</ele>
        <time>2023-12-03T08:14:51Z</time>
      </trkpt>
      <trkpt lat="46.611" lon="0.20645">
        <ele>-20.4</ele>
        <time>2023-12-03T08:14:52Z</time>
      </trkpt>
      <trkpt lat="46.611" lon="0.20657">
        <ele>-19.4</ele>
        <time>2023-12-03T08:14:55Z</time>
      </trkpt>
      <trkpt lat="46.611" lon="0.2066">
        <ele>-19</ele>
        <time>2023-12-03T08:14:56Z</time>
      </trkpt>
      <trkpt lat="46.61099" lon="0.2068">
        <ele>-18.2</ele>
        <time>2023-12-03T08:15:01Z</time>
      </trkpt>
      <trkpt lat="46.61099" lon="0.20684">
        <ele>-17.2</ele>
        <time>2023-12-03T08:15:03Z</time>
      </trkpt>
      <trkpt lat="46.611" lon="0.20691">
        <ele>-16.8</ele>
        <time>2023-12-03T08:15:04Z</time>
      </trkpt>
      <trkpt lat="46.61102" lon="0.20703">
        <ele>-15.8</ele>
        <time>2023-12-03T08:15:08Z</time>
      </trkpt>
      <trkpt lat="46.61102" lon="0.20707">
        <ele>-15.6</ele>
        <time>2023-12-03T08:15:09Z</time>
      </trkpt>
      <trkpt lat="46.61105" lon="0.20723">
        <ele>-14.8</ele>
        <time>2023-12-03T08:15:15Z</time>
      </trkpt>
      <trkpt lat="46.61105" lon="0.20728">
        <ele>-14.4</ele>
        <time>2023-12-03T08:15:17Z</time>
      </trkpt>
      <trkpt lat="46.61107" lon="0.20737">
        <ele>-13.8</ele>
        <time>2023-12-03T08:15:20Z</time>
      </trkpt>
      <trkpt lat="46.6111" lon="0.20749">
        <ele>-13.4</ele>
        <time>2023-12-03T08:15:23Z</time>
      </trkpt>
      <trkpt lat="46.6111" lon="0.20779">
        <ele>-12.8</ele>
        <time>2023-12-03T08:15:30Z</time>
      </trkpt>
      <trkpt lat="46.61108" lon="0.20802">
        <ele>-12</ele>
        <time>2023-12-03T08:15:36Z</time>
      </trkpt>
      <trkpt lat="46.61104" lon="0.20821">
        <ele>-11.6</ele>
        <time>2023-12-03T08:15:41Z</time>
      </trkpt>
      <trkpt lat="46.61103" lon="0.20829">
        <ele>-11.4</ele>
        <time>2023-12-03T08:15:43Z</time>
      </trkpt>
      <trkpt lat="46.61103" lon="0.20833">
        <ele>-11.4</ele>
        <time>2023-12-03T08:15:44Z</time>
      </trkpt>
      <trkpt lat="46.61104" lon="0.2084">
        <ele>-11.4</ele>
        <time>2023-12-03T08:15:46Z</time>
      </trkpt>
      <trkpt lat="46.61105" lon="0.20852">
        <ele>-11.8</ele>
        <time>2023-12-03T08:15:48Z</time>
      </trkpt>
      <trkpt lat="46.61108" lon="0.20863">
        <ele>-12</ele>
        <time>2023-12-03T08:15:50Z</time>
      </trkpt>
      <trkpt lat="46.61115" lon="0.20884">
        <ele>-11.6</ele>
        <time>2023-12-03T08:15:54Z</time>
      </trkpt>
      <trkpt lat="46.61116" lon="0.20891">
        <ele>-11.6</ele>
        <time>2023-12-03T08:15:55Z</time>
      </trkpt>
      <trkpt lat="46.61119" lon="0.20907">
        <ele>-12</ele>
        <time>2023-12-03T08:15:58Z</time>
      </trkpt>
      <trkpt lat="46.61117" lon="0.20916">
        <ele>-12</ele>
        <time>2023-12-03T08:16:00Z</time>
      </trkpt>
      <trkpt lat="46.61109" lon="0.20944">
        <ele>-11.4</ele>
        <time>2023-12-03T08:16:06Z</time>
      </trkpt>
      <trkpt lat="46.61105" lon="0.20951">
        <ele>-11</ele>
        <time>2023-12-03T08:16:08Z</time>
      </trkpt>
      <trkpt lat="46.61099" lon="0.20957">
        <ele>-10.6</ele>
        <time>2023-12-03T08:16:10Z</time>
      </trkpt>
      <trkpt lat="46.61093" lon="0.20962">
        <ele>-10.4</ele>
        <time>2023-12-03T08:16:12Z</time>
      </trkpt>
      <trkpt lat="46.61079" lon="0.20974">
        <ele>-10</ele>
        <time>2023-12-03T08:16:16Z</time>
      </trkpt>
      <trkpt lat="46.61069" lon="0.20977">
        <ele>-9.4</ele>
        <time>2023-12-03T08:16:19Z</time>
      </trkpt>
      <trkpt lat="46.61057" lon="0.2098">
        <ele>-9.2</ele>
        <time>2023-12-03T08:16:22Z</time>
      </trkpt>
      <trkpt lat="46.61038" lon="0.20982">
        <ele>-8.4</ele>
        <time>2023-12-03T08:16:27Z</time>
      </trkpt>
      <trkpt lat="46.61023" lon="0.20976">
        <ele>-7.6</ele>
        <time>2023-12-03T08:16:32Z</time>
      </trkpt>
      <trkpt lat="46.61018" lon="0.20974">
        <ele>-6.8</ele>
        <time>2023-12-03T08:16:34Z</time>
      </trkpt>
      <trkpt lat="46.61007" lon="0.2097">
        <ele>-6</ele>
        <time>2023-12-03T08:16:38Z</time>
      </trkpt>
      <trkpt lat="46.61005" lon="0.20971">
        <ele>-5.8</ele>
        <time>2023-12-03T08:16:39Z</time>
      </trkpt>
      <trkpt lat="46.61002" lon="0.20977">
        <ele>-5.6</ele>
        <time>2023-12-03T08:16:42Z</time>
      </trkpt>
      <trkpt lat="46.60998" lon="0.20986">
        <ele>-5.4</ele>
        <time>2023-12-03T08:16:47Z</time>
      </trkpt>
      <trkpt lat="46.60996" lon="0.20987">
        <ele>-5.2</ele>
        <time>2023-12-03T08:16:48Z</time>
      </trkpt>
      <trkpt lat="46.60992" lon="0.2099">
        <ele>-5</ele>
        <time>2023-12-03T08:16:50Z</time>
      </trkpt>
      <trkpt lat="46.6099" lon="0.2099">
        <ele>-4.8</ele>
        <time>2023-12-03T08:16:51Z</time>
      </trkpt>
      <trkpt lat="46.60984" lon="0.20992">
        <ele>-4.8</ele>
        <time>2023-12-03T08:16:53Z</time>
      </trkpt>
      <trkpt lat="46.60977" lon="0.20993">
        <ele>-4.8</ele>
        <time>2023-12-03T08:16:55Z</time>
      </trkpt>
      <trkpt lat="46.60965" lon="0.20995">
        <ele>-4.2</ele>
        <time>2023-12-03T08:16:59Z</time>
      </trkpt>
      <trkpt lat="46.60961" lon="0.20997">
        <ele>-3.4</ele>
        <time>2023-12-03T08:17:01Z</time>
      </trkpt>
      <trkpt lat="46.60954" lon="0.21007">
        <ele>-3</ele>
        <time>2023-12-03T08:17:05Z</time>
      </trkpt>
      <trkpt lat="46.60944" lon="0.21028">
        <ele>-3.8</ele>
        <time>2023-12-03T08:17:11Z</time>
      </trkpt>
      <trkpt lat="46.60944" lon="0.2103">
        <ele>-4</ele>
        <time>2023-12-03T08:17:12Z</time>
      </trkpt>
      <trkpt lat="46.60945" lon="0.21037">
        <ele>-3.8</ele>
        <time>2023-12-03T08:17:15Z</time>
      </trkpt>
      <trkpt lat="46.60951" lon="0.21054">
        <ele>-4.2</ele>
        <time>2023-12-03T08:17:21Z</time>
      </trkpt>
      <trkpt lat="46.60954" lon="0.2106">
        <ele>-4.6</ele>
        <time>2023-12-03T08:17:23Z</time>
      </trkpt>
      <trkpt lat="46.60954" lon="0.21064">
        <ele>-4.6</ele>
        <time>2023-12-03T08:17:24Z</time>
      </trkpt>
      <trkpt lat="46.60954" lon="0.21073">
        <ele>-4.8</ele>
        <time>2023-12-03T08:17:26Z</time>
      </trkpt>
      <trkpt lat="46.60952" lon="0.21079">
        <ele>-4.8</ele>
        <time>2023-12-03T08:17:28Z</time>
      </trkpt>
      <trkpt lat="46.60947" lon="0.21097">
        <ele>-4.4</ele>
        <time>2023-12-03T08:17:33Z</time>
      </trkpt>
      <trkpt lat="46.60947" lon="0.21103">
        <ele>-4.4</ele>
        <time>2023-12-03T08:17:35Z</time>
      </trkpt>
      <trkpt lat="46.60947" lon="0.21112">
        <ele>-4.4</ele>
        <time>2023-12-03T08:17:37Z</time>
      </trkpt>
      <trkpt lat="46.60942" lon="0.21117">
        <ele>-4.4</ele>
        <time>2023-12-03T08:17:39Z</time>
      </trkpt>
      <trkpt lat="46.60939" lon="0.2112">
        <ele>-4.4</ele>
        <time>2023-12-03T08:17:40Z</time>
      </trkpt>
      <trkpt lat="46.60916" lon="0.21126">
        <ele>-3.8</ele>
        <time>2023-12-03T08:17:47Z</time>
      </trkpt>
      <trkpt lat="46.60913" lon="0.21127">
        <ele>-3.8</ele>
        <time>2023-12-03T08:17:48Z</time>
      </trkpt>
      <trkpt lat="46.60895" lon="0.21127">
        <ele>-3.4</ele>
        <time>2023-12-03T08:17:54Z</time>
      </trkpt>
      <trkpt lat="46.60878" lon="0.21129">
        <ele>-2.4</ele>
        <time>2023-12-03T08:17:59Z</time>
      </trkpt>
      <trkpt lat="46.60874" lon="0.21128">
        <ele>-2.2</ele>
        <time>2023-12-03T08:18:00Z</time>
      </trkpt>
      <trkpt lat="46.60859" lon="0.21128">
        <ele>-1.2</ele>
        <time>2023-12-03T08:18:04Z</time>
      </trkpt>
      <trkpt lat="46.60848" lon="0.21127">
        <ele>-1</ele>
        <time>2023-12-03T08:18:07Z</time>
      </trkpt>
      <trkpt lat="46.60821" lon="0.21121">
        <ele>-0.2</ele>
        <time>2023-12-03T08:18:13Z</time>
      </trkpt>
      <trkpt lat="46.60786" lon="0.21102">
        <ele>0.6</ele>
        <time>2023-12-03T08:18:21Z</time>
      </trkpt>
      <trkpt lat="46.60774" lon="0.21094">
        <ele>1</ele>
        <time>2023-12-03T08:18:24Z</time>
      </trkpt>
      <trkpt lat="46.6075" lon="0.21077">
        <ele>1</ele>
        <time>2023-12-03T08:18:30Z</time>
      </trkpt>
      <trkpt lat="46.60712" lon="0.21054">
        <ele>1.6</ele>
        <time>2023-12-03T08:18:39Z</time>
      </trkpt>
      <trkpt lat="46.60676" lon="0.21027">
        <ele>1.8</ele>
        <time>2023-12-03T08:18:48Z</time>
      </trkpt>
      <trkpt lat="46.60651" lon="0.21007">
        <ele>1.4</ele>
        <time>2023-12-03T08:18:55Z</time>
      </trkpt>
      <trkpt lat="46.60619" lon="0.20983">
        <ele>1.2</ele>
        <time>2023-12-03T08:19:03Z</time>
      </trkpt>
      <trkpt lat="46.60586" lon="0.20963">
        <ele>0.4</ele>
        <time>2023-12-03T08:19:10Z</time>
      </trkpt>
      <trkpt lat="46.60559" lon="0.20948">
        <ele>-0.2</ele>
        <time>2023-12-03T08:19:16Z</time>
      </trkpt>
      <trkpt lat="46.60549" lon="0.20942">
        <ele>-0.4</ele>
        <time>2023-12-03T08:19:18Z</time>
      </trkpt>
      <trkpt lat="46.60519" lon="0.20925">
        <ele>-1.2</ele>
        <time>2023-12-03T08:19:24Z</time>
      </trkpt>
      <trkpt lat="46.60513" lon="0.20923">
        <ele>-1.6</ele>
        <time>2023-12-03T08:19:25Z</time>
      </trkpt>
      <trkpt lat="46.60489" lon="0.20914">
        <ele>-2.2</ele>
        <time>2023-12-03T08:19:29Z</time>
      </trkpt>
      <trkpt lat="46.60472" lon="0.20908">
        <ele>-3</ele>
        <time>2023-12-03T08:19:32Z</time>
      </trkpt>
      <trkpt lat="46.60461" lon="0.20903">
        <ele>-3.4</ele>
        <time>2023-12-03T08:19:34Z</time>
      </trkpt>
      <trkpt lat="46.60455" lon="0.20902">
        <ele>-3.6</ele>
        <time>2023-12-03T08:19:35Z</time>
      </trkpt>
      <trkpt lat="46.60442" lon="0.209">
        <ele>-4.2</ele>
        <time>2023-12-03T08:19:37Z</time>
      </trkpt>
      <trkpt lat="46.60436" lon="0.20898">
        <ele>-4.4</ele>
        <time>2023-12-03T08:19:38Z</time>
      </trkpt>
      <trkpt lat="46.60406" lon="0.20887">
        <ele>-5.4</ele>
        <time>2023-12-03T08:19:43Z</time>
      </trkpt>
      <trkpt lat="46.60377" lon="0.20883">
        <ele>-5.8</ele>
        <time>2023-12-03T08:19:48Z</time>
      </trkpt>
      <trkpt lat="46.60361" lon="0.20878">
        <ele>-5.2</ele>
        <time>2023-12-03T08:19:51Z</time>
      </trkpt>
      <trkpt lat="46.60352" lon="0.20872">
        <ele>-5.2</ele>
        <time>2023-12-03T08:19:53Z</time>
      </trkpt>
      <trkpt lat="46.60338" lon="0.20868">
        <ele>-5.2</ele>
        <time>2023-12-03T08:19:56Z</time>
      </trkpt>
      <trkpt lat="46.60329" lon="0.20869">
        <ele>-5.4</ele>
        <time>2023-12-03T08:19:58Z</time>
      </trkpt>
      <trkpt lat="46.60315" lon="0.2087">
        <ele>-5.6</ele>
        <time>2023-12-03T08:20:01Z</time>
      </trkpt>
      <trkpt lat="46.60301" lon="0.20867">
        <ele>-5.6</ele>
        <time>2023-12-03T08:20:04Z</time>
      </trkpt>
      <trkpt lat="46.60261" lon="0.20851">
        <ele>-5.6</ele>
        <time>2023-12-03T08:20:12Z</time>
      </trkpt>
      <trkpt lat="46.60237" lon="0.20844">
        <ele>-5</ele>
        <time>2023-12-03T08:20:17Z</time>
      </trkpt>
      <trkpt lat="46.60208" lon="0.20832">
        <ele>-4.8</ele>
        <time>2023-12-03T08:20:23Z</time>
      </trkpt>
      <trkpt lat="46.60187" lon="0.2083">
        <ele>-4.8</ele>
        <time>2023-12-03T08:20:28Z</time>
      </trkpt>
      <trkpt lat="46.60175" lon="0.20831">
        <ele>-4.8</ele>
        <time>2023-12-03T08:20:31Z</time>
      </trkpt>
      <trkpt lat="46.60163" lon="0.20832">
        <ele>-4.8</ele>
        <time>2023-12-03T08:20:34Z</time>
      </trkpt>
      <trkpt lat="46.60159" lon="0.20831">
        <ele>-4.8</ele>
        <time>2023-12-03T08:20:35Z</time>
      </trkpt>
      <trkpt lat="46.60135" lon="0.20825">
        <ele>-4.6</ele>
        <time>2023-12-03T08:20:41Z</time>
      </trkpt>
      <trkpt lat="46.60121" lon="0.20822">
        <ele>-4.4</ele>
        <time>2023-12-03T08:20:44Z</time>
      </trkpt>
      <trkpt lat="46.60103" lon="0.2082">
        <ele>-4</ele>
        <time>2023-12-03T08:20:48Z</time>
      </trkpt>
      <trkpt lat="46.60074" lon="0.20812">
        <ele>-3.8</ele>
        <time>2023-12-03T08:20:55Z</time>
      </trkpt>
      <trkpt lat="46.60065" lon="0.20808">
        <ele>-3.8</ele>
        <time>2023-12-03T08:20:57Z</time>
      </trkpt>
      <trkpt lat="46.60047" lon="0.20803">
        <ele>-3.4</ele>
        <time>2023-12-03T08:21:01Z</time>
      </trkpt>
      <trkpt lat="46.60043" lon="0.20801">
        <ele>-3.2</ele>
        <time>2023-12-03T08:21:02Z</time>
      </trkpt>
      <trkpt lat="46.60024" lon="0.2079">
        <ele>-2.6</ele>
        <time>2023-12-03T08:21:07Z</time>
      </trkpt>
      <trkpt lat="46.60015" lon="0.20786">
        <ele>-2.2</ele>
        <time>2023-12-03T08:21:09Z</time>
      </trkpt>
      <trkpt lat="46.59999" lon="0.20776">
        <ele>-1.8</ele>
        <time>2023-12-03T08:21:13Z</time>
      </trkpt>
      <trkpt lat="46.59995" lon="0.20773">
        <ele>-1.6</ele>
        <time>2023-12-03T08:21:14Z</time>
      </trkpt>
      <trkpt lat="46.59988" lon="0.20769">
        <ele>-1.4</ele>
        <time>2023-12-03T08:21:16Z</time>
      </trkpt>
      <trkpt lat="46.5998" lon="0.20765">
        <ele>-1.4</ele>
        <time>2023-12-03T08:21:18Z</time>
      </trkpt>
      <trkpt lat="46.59959" lon="0.20754">
        <ele>-1.6</ele>
        <time>2023-12-03T08:21:23Z</time>
      </trkpt>
      <trkpt lat="46.59947" lon="0.20746">
        <ele>-1.4</ele>
        <time>2023-12-03T08:21:27Z</time>
      </trkpt>
      <trkpt lat="46.59939" lon="0.20741">
        <ele>-1.2</ele>
        <time>2023-12-03T08:21:29Z</time>
      </trkpt>
      <trkpt lat="46.59935" lon="0.20739">
        <ele>-1.2</ele>
        <time>2023-12-03T08:21:30Z</time>
      </trkpt>
      <trkpt lat="46.59905" lon="0.20719">
        <ele>-0.8</ele>
        <time>2023-12-03T08:21:37Z</time>
      </trkpt>
      <trkpt lat="46.59891" lon="0.20711">
        <ele>-1</ele>
        <time>2023-12-03T08:21:40Z</time>
      </trkpt>
      <trkpt lat="46.5988" lon="0.20702">
        <ele>-1.6</ele>
        <time>2023-12-03T08:21:43Z</time>
      </trkpt>
      <trkpt lat="46.59856" lon="0.20682">
        <ele>-1.8</ele>
        <time>2023-12-03T08:21:48Z</time>
      </trkpt>
      <trkpt lat="46.59824" lon="0.20658">
        <ele>-2</ele>
        <time>2023-12-03T08:21:54Z</time>
      </trkpt>
      <trkpt lat="46.59813" lon="0.20653">
        <ele>-2.2</ele>
        <time>2023-12-03T08:21:56Z</time>
      </trkpt>
      <trkpt lat="46.59796" lon="0.20639">
        <ele>-2.2</ele>
        <time>2023-12-03T08:22:00Z</time>
      </trkpt>
      <trkpt lat="46.59777" lon="0.20626">
        <ele>-2.8</ele>
        <time>2023-12-03T08:22:04Z</time>
      </trkpt>
      <trkpt lat="46.59767" lon="0.20624">
        <ele>-3</ele>
        <time>2023-12-03T08:22:06Z</time>
      </trkpt>
      <trkpt lat="46.59757" lon="0.2062">
        <ele>-3</ele>
        <time>2023-12-03T08:22:08Z</time>
      </trkpt>
      <trkpt lat="46.59739" lon="0.20612">
        <ele>-3</ele>
        <time>2023-12-03T08:22:11Z</time>
      </trkpt>
      <trkpt lat="46.59733" lon="0.2061">
        <ele>-3.2</ele>
        <time>2023-12-03T08:22:12Z</time>
      </trkpt>
      <trkpt lat="46.59728" lon="0.20608">
        <ele>-3.2</ele>
        <time>2023-12-03T08:22:13Z</time>
      </trkpt>
      <trkpt lat="46.59705" lon="0.20598">
        <ele>-4.2</ele>
        <time>2023-12-03T08:22:17Z</time>
      </trkpt>
      <trkpt lat="46.597" lon="0.20596">
        <ele>-4.4</ele>
        <time>2023-12-03T08:22:18Z</time>
      </trkpt>
      <trkpt lat="46.59672" lon="0.20579">
        <ele>-4.4</ele>
        <time>2023-12-03T08:22:23Z</time>
      </trkpt>
      <trkpt lat="46.5966" lon="0.2057">
        <ele>-5.4</ele>
        <time>2023-12-03T08:22:25Z</time>
      </trkpt>
      <trkpt lat="46.59643" lon="0.20558">
        <ele>-5.8</ele>
        <time>2023-12-03T08:22:28Z</time>
      </trkpt>
      <trkpt lat="46.59618" lon="0.20541">
        <ele>-6.2</ele>
        <time>2023-12-03T08:22:33Z</time>
      </trkpt>
      <trkpt lat="46.59614" lon="0.20539">
        <ele>-6.4</ele>
        <time>2023-12-03T08:22:34Z</time>
      </trkpt>
      <trkpt lat="46.59593" lon="0.20523">
        <ele>-7.4</ele>
        <time>2023-12-03T08:22:38Z</time>
      </trkpt>
      <trkpt lat="46.59582" lon="0.2051">
        <ele>-7.6</ele>
        <time>2023-12-03T08:22:40Z</time>
      </trkpt>
      <trkpt lat="46.59582" lon="0.2051">
        <ele>-8.6</ele>
        <time>2023-12-03T08:22:41Z</time>
      </trkpt>
      <trkpt lat="46.59572" lon="0.20499">
        <ele>-8.6</ele>
        <time>2023-12-03T08:22:42Z</time>
      </trkpt>
      <trkpt lat="46.59562" lon="0.20481">
        <ele>-9.2</ele>
        <time>2023-12-03T08:22:45Z</time>
      </trkpt>
      <trkpt lat="46.59556" lon="0.20469">
        <ele>-9.4</ele>
        <time>2023-12-03T08:22:47Z</time>
      </trkpt>
      <trkpt lat="46.59553" lon="0.20459">
        <ele>-9.6</ele>
        <time>2023-12-03T08:22:48Z</time>
      </trkpt>
      <trkpt lat="46.59547" lon="0.20443">
        <ele>-10</ele>
        <time>2023-12-03T08:22:50Z</time>
      </trkpt>
      <trkpt lat="46.59542" lon="0.20434">
        <ele>-10.2</ele>
        <time>2023-12-03T08:22:52Z</time>
      </trkpt>
      <trkpt lat="46.59537" lon="0.20428">
        <ele>-10.2</ele>
        <time>2023-12-03T08:22:54Z</time>
      </trkpt>
      <trkpt lat="46.59534" lon="0.20422">
        <ele>-10.4</ele>
        <time>2023-12-03T08:22:55Z</time>
      </trkpt>
      <trkpt lat="46.59526" lon="0.20414">
        <ele>-10.8</ele>
        <time>2023-12-03T08:22:57Z</time>
      </trkpt>
      <trkpt lat="46.59514" lon="0.20401">
        <ele>-10.8</ele>
        <time>2023-12-03T08:22:59Z</time>
      </trkpt>
      <trkpt lat="46.59493" lon="0.20379">
        <ele>-10.8</ele>
        <time>2023-12-03T08:23:03Z</time>
      </trkpt>
      <trkpt lat="46.59487" lon="0.20374">
        <ele>-10.4</ele>
        <time>2023-12-03T08:23:05Z</time>
      </trkpt>
      <trkpt lat="46.59469" lon="0.20359">
        <ele>-10</ele>
        <time>2023-12-03T08:23:11Z</time>
      </trkpt>
      <trkpt lat="46.59451" lon="0.20342">
        <ele>-9.8</ele>
        <time>2023-12-03T08:23:16Z</time>
      </trkpt>
      <trkpt lat="46.59442" lon="0.20332">
        <ele>-9.8</ele>
        <time>2023-12-03T08:23:18Z</time>
      </trkpt>
      <trkpt lat="46.5943" lon="0.20319">
        <ele>-9.8</ele>
        <time>2023-12-03T08:23:21Z</time>
      </trkpt>
      <trkpt lat="46.59409" lon="0.20283">
        <ele>-9.8</ele>
        <time>2023-12-03T08:23:27Z</time>
      </trkpt>
      <trkpt lat="46.59393" lon="0.20257">
        <ele>-9.6</ele>
        <time>2023-12-03T08:23:31Z</time>
      </trkpt>
      <trkpt lat="46.59389" lon="0.2025">
        <ele>-9.6</ele>
        <time>2023-12-03T08:23:32Z</time>
      </trkpt>
      <trkpt lat="46.59385" lon="0.20243">
        <ele>-9.8</ele>
        <time>2023-12-03T08:23:33Z</time>
      </trkpt>
      <trkpt lat="46.59372" lon="0.20216">
        <ele>-10.2</ele>
        <time>2023-12-03T08:23:37Z</time>
      </trkpt>
      <trkpt lat="46.59369" lon="0.20211">
        <ele>-10.2</ele>
        <time>2023-12-03T08:23:38Z</time>
      </trkpt>
      <trkpt lat="46.59363" lon="0.20204">
        <ele>-10.2</ele>
        <time>2023-12-03T08:23:40Z</time>
      </trkpt>
      <trkpt lat="46.59358" lon="0.20193">
        <ele>-10.4</ele>
        <time>2023-12-03T08:23:42Z</time>
      </trkpt>
      <trkpt lat="46.5934" lon="0.20154">
        <ele>-10.4</ele>
        <time>2023-12-03T08:23:47Z</time>
      </trkpt>
      <trkpt lat="46.59336" lon="0.20149">
        <ele>-10.4</ele>
        <time>2023-12-03T08:23:48Z</time>
      </trkpt>
      <trkpt lat="46.59317" lon="0.20123">
        <ele>-10.4</ele>
        <time>2023-12-03T08:23:52Z</time>
      </trkpt>
      <trkpt lat="46.59313" lon="0.20116">
        <ele>-10.4</ele>
        <time>2023-12-03T08:23:53Z</time>
      </trkpt>
      <trkpt lat="46.59286" lon="0.20083">
        <ele>-10</ele>
        <time>2023-12-03T08:23:58Z</time>
      </trkpt>
      <trkpt lat="46.59262" lon="0.20058">
        <ele>-9.8</ele>
        <time>2023-12-03T08:24:03Z</time>
      </trkpt>
      <trkpt lat="46.59232" lon="0.20028">
        <ele>-9.8</ele>
        <time>2023-12-03T08:24:09Z</time>
      </trkpt>
      <trkpt lat="46.59207" lon="0.20004">
        <ele>-9.6</ele>
        <time>2023-12-03T08:24:14Z</time>
      </trkpt>
      <trkpt lat="46.59202" lon="0.2">
        <ele>-9.6</ele>
        <time>2023-12-03T08:24:15Z</time>
      </trkpt>
      <trkpt lat="46.59187" lon="0.19988">
        <ele>-9.6</ele>
        <time>2023-12-03T08:24:18Z</time>
      </trkpt>
      <trkpt lat="46.59168" lon="0.19979">
        <ele>-9.4</ele>
        <time>2023-12-03T08:24:22Z</time>
      </trkpt>
      <trkpt lat="46.59163" lon="0.19978">
        <ele>-9.2</ele>
        <time>2023-12-03T08:24:23Z</time>
      </trkpt>
      <trkpt lat="46.59139" lon="0.19974">
        <ele>-9</ele>
        <time>2023-12-03T08:24:28Z</time>
      </trkpt>
      <trkpt lat="46.59109" lon="0.19961">
        <ele>-9</ele>
        <time>2023-12-03T08:24:34Z</time>
      </trkpt>
      <trkpt lat="46.59105" lon="0.19959">
        <ele>-8.8</ele>
        <time>2023-12-03T08:24:35Z</time>
      </trkpt>
      <trkpt lat="46.59087" lon="0.19947">
        <ele>-8.6</ele>
        <time>2023-12-03T08:24:39Z</time>
      </trkpt>
      <trkpt lat="46.59075" lon="0.1994">
        <ele>-8.2</ele>
        <time>2023-12-03T08:24:42Z</time>
      </trkpt>
      <trkpt lat="46.5907" lon="0.19938">
        <ele>-8.2</ele>
        <time>2023-12-03T08:24:43Z</time>
      </trkpt>
      <trkpt lat="46.59066" lon="0.19935">
        <ele>-8</ele>
        <time>2023-12-03T08:24:44Z</time>
      </trkpt>
      <trkpt lat="46.5905" lon="0.19922">
        <ele>-7.8</ele>
        <time>2023-12-03T08:24:48Z</time>
      </trkpt>
      <trkpt lat="46.59038" lon="0.19913">
        <ele>-7.8</ele>
        <time>2023-12-03T08:24:52Z</time>
      </trkpt>
      <trkpt lat="46.59032" lon="0.19909">
        <ele>-7.6</ele>
        <time>2023-12-03T08:24:54Z</time>
      </trkpt>
      <trkpt lat="46.59007" lon="0.19883">
        <ele>-6.6</ele>
        <time>2023-12-03T08:25:00Z</time>
      </trkpt>
      <trkpt lat="46.58995" lon="0.19869">
        <ele>-6.2</ele>
        <time>2023-12-03T08:25:03Z</time>
      </trkpt>
      <trkpt lat="46.58987" lon="0.19861">
        <ele>-6.2</ele>
        <time>2023-12-03T08:25:05Z</time>
      </trkpt>
      <trkpt lat="46.58983" lon="0.19857">
        <ele>-6.2</ele>
        <time>2023-12-03T08:25:06Z</time>
      </trkpt>
      <trkpt lat="46.58979" lon="0.19854">
        <ele>-6</ele>
        <time>2023-12-03T08:25:07Z</time>
      </trkpt>
      <trkpt lat="46.58972" lon="0.19849">
        <ele>-5.8</ele>
        <time>2023-12-03T08:25:09Z</time>
      </trkpt>
      <trkpt lat="46.58967" lon="0.19844">
        <ele>-5.6</ele>
        <time>2023-12-03T08:25:11Z</time>
      </trkpt>
      <trkpt lat="46.58963" lon="0.19841">
        <ele>-5.6</ele>
        <time>2023-12-03T08:25:12Z</time>
      </trkpt>
      <trkpt lat="46.58939" lon="0.19816">
        <ele>-5.2</ele>
        <time>2023-12-03T08:25:18Z</time>
      </trkpt>
      <trkpt lat="46.58933" lon="0.19811">
        <ele>-4.6</ele>
        <time>2023-12-03T08:25:20Z</time>
      </trkpt>
      <trkpt lat="46.58926" lon="0.19806">
        <ele>-3.8</ele>
        <time>2023-12-03T08:25:23Z</time>
      </trkpt>
      <trkpt lat="46.58914" lon="0.19792">
        <ele>-3.4</ele>
        <time>2023-12-03T08:25:27Z</time>
      </trkpt>
      <trkpt lat="46.58909" lon="0.19788">
        <ele>-3.2</ele>
        <time>2023-12-03T08:25:29Z</time>
      </trkpt>
      <trkpt lat="46.58893" lon="0.19774">
        <ele>-2.4</ele>
        <time>2023-12-03T08:25:34Z</time>
      </trkpt>
      <trkpt lat="46.5889" lon="0.19771">
        <ele>-2.2</ele>
        <time>2023-12-03T08:25:35Z</time>
      </trkpt>
      <trkpt lat="46.58872" lon="0.19752">
        <ele>-1.6</ele>
        <time>2023-12-03T08:25:40Z</time>
      </trkpt>
      <trkpt lat="46.58856" lon="0.19738">
        <ele>-1.2</ele>
        <time>2023-12-03T08:25:45Z</time>
      </trkpt>
      <trkpt lat="46.58848" lon="0.19734">
        <ele>-1</ele>
        <time>2023-12-03T08:25:47Z</time>
      </trkpt>
      <trkpt lat="46.5883" lon="0.19724">
        <ele>-1</ele>
        <time>2023-12-03T08:25:52Z</time>
      </trkpt>
      <trkpt lat="46.58805" lon="0.19711">
        <ele>-0.2</ele>
        <time>2023-12-03T08:25:59Z</time>
      </trkpt>
      <trkpt lat="46.58797" lon="0.19705">
        <ele>-0.2</ele>
        <time>2023-12-03T08:26:01Z</time>
      </trkpt>
      <trkpt lat="46.58782" lon="0.19693">
        <ele>135</ele>
        <time>2023-12-03T08:26:05Z</time>
      </trkpt>
      <trkpt lat="46.58778" lon="0.1969">
        <ele>135</ele>
        <time>2023-12-03T08:26:06Z</time>
      </trkpt>
      <trkpt lat="46.5876" lon="0.19677">
        <ele>0.2</ele>
        <time>2023-12-03T08:26:10Z</time>
      </trkpt>
      <trkpt lat="46.58731" lon="0.19648">
        <ele>0.6</ele>
        <time>2023-12-03T08:26:17Z</time>
      </trkpt>
      <trkpt lat="46.58723" lon="0.19641">
        <ele>1</ele>
        <time>2023-12-03T08:26:19Z</time>
      </trkpt>
      <trkpt lat="46.58705" lon="0.1962">
        <ele>1.6</ele>
        <time>2023-12-03T08:26:24Z</time>
      </trkpt>
      <trkpt lat="46.58702" lon="0.19614">
        <ele>1.6</ele>
        <time>2023-12-03T08:26:25Z</time>
      </trkpt>
      <trkpt lat="46.58685" lon="0.19583">
        <ele>1.4</ele>
        <time>2023-12-03T08:26:30Z</time>
      </trkpt>
      <trkpt lat="46.58666" lon="0.19556">
        <ele>1.8</ele>
        <time>2023-12-03T08:26:36Z</time>
      </trkpt>
      <trkpt lat="46.58654" lon="0.19543">
        <ele>2</ele>
        <time>2023-12-03T08:26:39Z</time>
      </trkpt>
      <trkpt lat="46.58642" lon="0.1953">
        <ele>2</ele>
        <time>2023-12-03T08:26:42Z</time>
      </trkpt>
      <trkpt lat="46.58638" lon="0.19528">
        <ele>2.2</ele>
        <time>2023-12-03T08:26:43Z</time>
      </trkpt>
      <trkpt lat="46.58635" lon="0.19526">
        <ele>2.2</ele>
        <time>2023-12-03T08:26:44Z</time>
      </trkpt>
      <trkpt lat="46.58633" lon="0.19527">
        <ele>2.2</ele>
        <time>2023-12-03T08:26:46Z</time>
      </trkpt>
      <trkpt lat="46.58631" lon="0.19542">
        <ele>2.6</ele>
        <time>2023-12-03T08:26:50Z</time>
      </trkpt>
      <trkpt lat="46.58626" lon="0.19569">
        <ele>2.6</ele>
        <time>2023-12-03T08:26:56Z</time>
      </trkpt>
      <trkpt lat="46.58621" lon="0.19599">
        <ele>3</ele>
        <time>2023-12-03T08:27:02Z</time>
      </trkpt>
      <trkpt lat="46.58619" lon="0.19604">
        <ele>3</ele>
        <time>2023-12-03T08:27:03Z</time>
      </trkpt>
      <trkpt lat="46.58615" lon="0.1962">
        <ele>3</ele>
        <time>2023-12-03T08:27:06Z</time>
      </trkpt>
      <trkpt lat="46.58613" lon="0.19633">
        <ele>3</ele>
        <time>2023-12-03T08:27:08Z</time>
      </trkpt>
      <trkpt lat="46.58613" lon="0.19638">
        <ele>2.8</ele>
        <time>2023-12-03T08:27:09Z</time>
      </trkpt>
      <trkpt lat="46.58609" lon="0.19661">
        <ele>2.6</ele>
        <time>2023-12-03T08:27:12Z</time>
      </trkpt>
      <trkpt lat="46.58608" lon="0.19668">
        <ele>2.6</ele>
        <time>2023-12-03T08:27:13Z</time>
      </trkpt>
      <trkpt lat="46.58607" lon="0.19675">
        <ele>2.6</ele>
        <time>2023-12-03T08:27:14Z</time>
      </trkpt>
      <trkpt lat="46.58598" lon="0.19713">
        <ele>2.2</ele>
        <time>2023-12-03T08:27:19Z</time>
      </trkpt>
      <trkpt lat="46.58592" lon="0.19727">
        <ele>2</ele>
        <time>2023-12-03T08:27:21Z</time>
      </trkpt>
      <trkpt lat="46.58583" lon="0.19752">
        <ele>2</ele>
        <time>2023-12-03T08:27:25Z</time>
      </trkpt>
      <trkpt lat="46.58582" lon="0.19758">
        <ele>1.8</ele>
        <time>2023-12-03T08:27:26Z</time>
      </trkpt>
      <trkpt lat="46.58582" lon="0.19764">
        <ele>1.8</ele>
        <time>2023-12-03T08:27:27Z</time>
      </trkpt>
      <trkpt lat="46.58579" lon="0.19774">
        <ele>1.6</ele>
        <time>2023-12-03T08:27:29Z</time>
      </trkpt>
      <trkpt lat="46.58575" lon="0.19779">
        <ele>1.4</ele>
        <time>2023-12-03T08:27:30Z</time>
      </trkpt>
      <trkpt lat="46.58572" lon="0.19784">
        <ele>1</ele>
        <time>2023-12-03T08:27:32Z</time>
      </trkpt>
      <trkpt lat="46.58571" lon="0.19787">
        <ele>1</ele>
        <time>2023-12-03T08:27:33Z</time>
      </trkpt>
      <trkpt lat="46.58571" lon="0.19791">
        <ele>0.8</ele>
        <time>2023-12-03T08:27:34Z</time>
      </trkpt>
      <trkpt lat="46.58576" lon="0.19809">
        <ele>0.6</ele>
        <time>2023-12-03T08:27:38Z</time>
      </trkpt>
      <trkpt lat="46.58597" lon="0.19836">
        <ele>0.2</ele>
        <time>2023-12-03T08:27:44Z</time>
      </trkpt>
      <trkpt lat="46.58615" lon="0.19862">
        <ele>-0.2</ele>
        <time>2023-12-03T08:27:49Z</time>
      </trkpt>
      <trkpt lat="46.58622" lon="0.19871">
        <ele>-0.6</ele>
        <time>2023-12-03T08:27:51Z</time>
      </trkpt>
      <trkpt lat="46.58639" lon="0.19899">
        <ele>-1</ele>
        <time>2023-12-03T08:27:56Z</time>
      </trkpt>
      <trkpt lat="46.58642" lon="0.19903">
        <ele>-1</ele>
        <time>2023-12-03T08:27:57Z</time>
      </trkpt>
      <trkpt lat="46.58651" lon="0.19915">
        <ele>-1.2</ele>
        <time>2023-12-03T08:28:00Z</time>
      </trkpt>
      <trkpt lat="46.58654" lon="0.19919">
        <ele>-1.4</ele>
        <time>2023-12-03T08:28:01Z</time>
      </trkpt>
      <trkpt lat="46.58655" lon="0.19924">
        <ele>-1.4</ele>
        <time>2023-12-03T08:28:02Z</time>
      </trkpt>
      <trkpt lat="46.5866" lon="0.19938">
        <ele>-1.6</ele>
        <time>2023-12-03T08:28:05Z</time>
      </trkpt>
      <trkpt lat="46.5867" lon="0.19968">
        <ele>-1.6</ele>
        <time>2023-12-03T08:28:12Z</time>
      </trkpt>
      <trkpt lat="46.58672" lon="0.19975">
        <ele>-1.4</ele>
        <time>2023-12-03T08:28:13Z</time>
      </trkpt>
      <trkpt lat="46.58676" lon="0.19993">
        <ele>-1.2</ele>
        <time>2023-12-03T08:28:16Z</time>
      </trkpt>
      <trkpt lat="46.58677" lon="0.19998">
        <ele>-1.2</ele>
        <time>2023-12-03T08:28:17Z</time>
      </trkpt>
      <trkpt lat="46.58684" lon="0.20018">
        <ele>-1</ele>
        <time>2023-12-03T08:28:20Z</time>
      </trkpt>
      <trkpt lat="46.5869" lon="0.2003">
        <ele>-1</ele>
        <time>2023-12-03T08:28:22Z</time>
      </trkpt>
      <trkpt lat="46.58692" lon="0.20037">
        <ele>-0.8</ele>
        <time>2023-12-03T08:28:23Z</time>
      </trkpt>
      <trkpt lat="46.58701" lon="0.20059">
        <ele>135.3</ele>
        <time>2023-12-03T08:28:26Z</time>
      </trkpt>
      <trkpt lat="46.58705" lon="0.20064">
        <ele>0.2</ele>
        <time>2023-12-03T08:28:27Z</time>
      </trkpt>
      <trkpt lat="46.58715" lon="0.20085">
        <ele>0.4</ele>
        <time>2023-12-03T08:28:30Z</time>
      </trkpt>
      <trkpt lat="46.58731" lon="0.20135">
        <ele>0.8</ele>
        <time>2023-12-03T08:28:37Z</time>
      </trkpt>
      <trkpt lat="46.58734" lon="0.20143">
        <ele>1</ele>
        <time>2023-12-03T08:28:38Z</time>
      </trkpt>
      <trkpt lat="46.58748" lon="0.20177">
        <ele>1.4</ele>
        <time>2023-12-03T08:28:43Z</time>
      </trkpt>
      <trkpt lat="46.58763" lon="0.20211">
        <ele>1.4</ele>
        <time>2023-12-03T08:28:48Z</time>
      </trkpt>
      <trkpt lat="46.58767" lon="0.20219">
        <ele>1.4</ele>
        <time>2023-12-03T08:28:49Z</time>
      </trkpt>
      <trkpt lat="46.58782" lon="0.20268">
        <ele>1.6</ele>
        <time>2023-12-03T08:28:55Z</time>
      </trkpt>
      <trkpt lat="46.588" lon="0.2031">
        <ele>1.8</ele>
        <time>2023-12-03T08:29:01Z</time>
      </trkpt>
      <trkpt lat="46.58822" lon="0.2037">
        <ele>0.8</ele>
        <time>2023-12-03T08:29:09Z</time>
      </trkpt>
      <trkpt lat="46.58844" lon="0.20431">
        <ele>0.2</ele>
        <time>2023-12-03T08:29:16Z</time>
      </trkpt>
      <trkpt lat="46.58847" lon="0.2044">
        <ele>-0.2</ele>
        <time>2023-12-03T08:29:17Z</time>
      </trkpt>
      <trkpt lat="46.58865" lon="0.20498">
        <ele>-1.2</ele>
        <time>2023-12-03T08:29:23Z</time>
      </trkpt>
      <trkpt lat="46.58868" lon="0.20507">
        <ele>-1.2</ele>
        <time>2023-12-03T08:29:24Z</time>
      </trkpt>
      <trkpt lat="46.58889" lon="0.2058">
        <ele>-2.2</ele>
        <time>2023-12-03T08:29:31Z</time>
      </trkpt>
      <trkpt lat="46.58897" lon="0.20607">
        <ele>-2.8</ele>
        <time>2023-12-03T08:29:34Z</time>
      </trkpt>
      <trkpt lat="46.58903" lon="0.20624">
        <ele>-3.2</ele>
        <time>2023-12-03T08:29:36Z</time>
      </trkpt>
      <trkpt lat="46.58906" lon="0.20632">
        <ele>-3.6</ele>
        <time>2023-12-03T08:29:37Z</time>
      </trkpt>
      <trkpt lat="46.58912" lon="0.2065">
        <ele>-4</ele>
        <time>2023-12-03T08:29:39Z</time>
      </trkpt>
      <trkpt lat="46.58919" lon="0.20665">
        <ele>-4.2</ele>
        <time>2023-12-03T08:29:41Z</time>
      </trkpt>
      <trkpt lat="46.58922" lon="0.20673">
        <ele>-4.2</ele>
        <time>2023-12-03T08:29:42Z</time>
      </trkpt>
      <trkpt lat="46.58933" lon="0.20705">
        <ele>-4.8</ele>
        <time>2023-12-03T08:29:46Z</time>
      </trkpt>
      <trkpt lat="46.58945" lon="0.20741">
        <ele>-4</ele>
        <time>2023-12-03T08:29:51Z</time>
      </trkpt>
      <trkpt lat="46.58952" lon="0.20763">
        <ele>-3.2</ele>
        <time>2023-12-03T08:29:54Z</time>
      </trkpt>
      <trkpt lat="46.58958" lon="0.20776">
        <ele>-3</ele>
        <time>2023-12-03T08:29:56Z</time>
      </trkpt>
      <trkpt lat="46.58971" lon="0.20809">
        <ele>-2.6</ele>
        <time>2023-12-03T08:30:02Z</time>
      </trkpt>
      <trkpt lat="46.58975" lon="0.20821">
        <ele>-2.6</ele>
        <time>2023-12-03T08:30:03Z</time>
      </trkpt>
      <trkpt lat="46.5898" lon="0.20837">
        <ele>-2.4</ele>
        <time>2023-12-03T08:30:06Z</time>
      </trkpt>
      <trkpt lat="46.58989" lon="0.20857">
        <ele>-2.4</ele>
        <time>2023-12-03T08:30:09Z</time>
      </trkpt>
      <trkpt lat="46.58994" lon="0.20871">
        <ele>-2.4</ele>
        <time>2023-12-03T08:30:11Z</time>
      </trkpt>
      <trkpt lat="46.59005" lon="0.20896">
        <ele>-2.6</ele>
        <time>2023-12-03T08:30:15Z</time>
      </trkpt>
      <trkpt lat="46.59008" lon="0.20902">
        <ele>-2.6</ele>
        <time>2023-12-03T08:30:16Z</time>
      </trkpt>
      <trkpt lat="46.59015" lon="0.20923">
        <ele>-2.8</ele>
        <time>2023-12-03T08:30:19Z</time>
      </trkpt>
      <trkpt lat="46.5902" lon="0.20939">
        <ele>-2.8</ele>
        <time>2023-12-03T08:30:21Z</time>
      </trkpt>
      <trkpt lat="46.5904" lon="0.20986">
        <ele>-2.8</ele>
        <time>2023-12-03T08:30:28Z</time>
      </trkpt>
      <trkpt lat="46.59043" lon="0.20991">
        <ele>-2.6</ele>
        <time>2023-12-03T08:30:29Z</time>
      </trkpt>
      <trkpt lat="46.59052" lon="0.21014">
        <ele>-2.2</ele>
        <time>2023-12-03T08:30:33Z</time>
      </trkpt>
      <trkpt lat="46.59053" lon="0.21022">
        <ele>-2.2</ele>
        <time>2023-12-03T08:30:34Z</time>
      </trkpt>
      <trkpt lat="46.59064" lon="0.21054">
        <ele>-2</ele>
        <time>2023-12-03T08:30:39Z</time>
      </trkpt>
      <trkpt lat="46.59075" lon="0.2108">
        <ele>-1.4</ele>
        <time>2023-12-03T08:30:43Z</time>
      </trkpt>
      <trkpt lat="46.59079" lon="0.21093">
        <ele>-1.2</ele>
        <time>2023-12-03T08:30:45Z</time>
      </trkpt>
      <trkpt lat="46.59089" lon="0.21118">
        <ele>-1</ele>
        <time>2023-12-03T08:30:49Z</time>
      </trkpt>
      <trkpt lat="46.59093" lon="0.21131">
        <ele>-1</ele>
        <time>2023-12-03T08:30:51Z</time>
      </trkpt>
      <trkpt lat="46.59096" lon="0.21137">
        <ele>-1</ele>
        <time>2023-12-03T08:30:52Z</time>
      </trkpt>
      <trkpt lat="46.59098" lon="0.21143">
        <ele>-1</ele>
        <time>2023-12-03T08:30:53Z</time>
      </trkpt>
      <trkpt lat="46.59103" lon="0.21154">
        <ele>-1</ele>
        <time>2023-12-03T08:30:55Z</time>
      </trkpt>
      <trkpt lat="46.59104" lon="0.21169">
        <ele>-1.2</ele>
        <time>2023-12-03T08:30:57Z</time>
      </trkpt>
      <trkpt lat="46.59096" lon="0.21198">
        <ele>-0.6</ele>
        <time>2023-12-03T08:31:01Z</time>
      </trkpt>
      <trkpt lat="46.59084" lon="0.21222">
        <ele>-0.4</ele>
        <time>2023-12-03T08:31:05Z</time>
      </trkpt>
      <trkpt lat="46.59078" lon="0.21236">
        <ele>-0.2</ele>
        <time>2023-12-03T08:31:07Z</time>
      </trkpt>
      <trkpt lat="46.59064" lon="0.21268">
        <ele>135.7</ele>
        <time>2023-12-03T08:31:12Z</time>
      </trkpt>
      <trkpt lat="46.59055" lon="0.21288">
        <ele>0.4</ele>
        <time>2023-12-03T08:31:15Z</time>
      </trkpt>
      <trkpt lat="46.59034" lon="0.21334">
        <ele>0.8</ele>
        <time>2023-12-03T08:31:22Z</time>
      </trkpt>
      <trkpt lat="46.59011" lon="0.2138">
        <ele>0.8</ele>
        <time>2023-12-03T08:31:29Z</time>
      </trkpt>
      <trkpt lat="46.58983" lon="0.21443">
        <ele>0.6</ele>
        <time>2023-12-03T08:31:38Z</time>
      </trkpt>
      <trkpt lat="46.58956" lon="0.215">
        <ele>0.2</ele>
        <time>2023-12-03T08:31:46Z</time>
      </trkpt>
      <trkpt lat="46.58934" lon="0.21547">
        <ele>-0.2</ele>
        <time>2023-12-03T08:31:53Z</time>
      </trkpt>
      <trkpt lat="46.58914" lon="0.21589">
        <ele>-0.8</ele>
        <time>2023-12-03T08:31:59Z</time>
      </trkpt>
      <trkpt lat="46.58893" lon="0.21631">
        <ele>-0.8</ele>
        <time>2023-12-03T08:32:05Z</time>
      </trkpt>
      <trkpt lat="46.5887" lon="0.21677">
        <ele>-0.4</ele>
        <time>2023-12-03T08:32:12Z</time>
      </trkpt>
      <trkpt lat="46.5885" lon="0.21715">
        <ele>0.2</ele>
        <time>2023-12-03T08:32:18Z</time>
      </trkpt>
      <trkpt lat="46.58832" lon="0.21754">
        <ele>1.2</ele>
        <time>2023-12-03T08:32:24Z</time>
      </trkpt>
      <trkpt lat="46.58829" lon="0.21759">
        <ele>1.4</ele>
        <time>2023-12-03T08:32:25Z</time>
      </trkpt>
      <trkpt lat="46.5882" lon="0.21776">
        <ele>2.2</ele>
        <time>2023-12-03T08:32:28Z</time>
      </trkpt>
      <trkpt lat="46.58807" lon="0.218">
        <ele>2.6</ele>
        <time>2023-12-03T08:32:32Z</time>
      </trkpt>
      <trkpt lat="46.58796" lon="0.21823">
        <ele>3.2</ele>
        <time>2023-12-03T08:32:36Z</time>
      </trkpt>
      <trkpt lat="46.58786" lon="0.21843">
        <ele>4.2</ele>
        <time>2023-12-03T08:32:39Z</time>
      </trkpt>
      <trkpt lat="46.58783" lon="0.21849">
        <ele>4.4</ele>
        <time>2023-12-03T08:32:40Z</time>
      </trkpt>
      <trkpt lat="46.58767" lon="0.21886">
        <ele>5</ele>
        <time>2023-12-03T08:32:46Z</time>
      </trkpt>
      <trkpt lat="46.58761" lon="0.21898">
        <ele>5</ele>
        <time>2023-12-03T08:32:48Z</time>
      </trkpt>
      <trkpt lat="46.58749" lon="0.21924">
        <ele>5.4</ele>
        <time>2023-12-03T08:32:52Z</time>
      </trkpt>
      <trkpt lat="46.58727" lon="0.21969">
        <ele>5.8</ele>
        <time>2023-12-03T08:32:59Z</time>
      </trkpt>
      <trkpt lat="46.58705" lon="0.22019">
        <ele>6</ele>
        <time>2023-12-03T08:33:07Z</time>
      </trkpt>
      <trkpt lat="46.58686" lon="0.22057">
        <ele>5.8</ele>
        <time>2023-12-03T08:33:13Z</time>
      </trkpt>
      <trkpt lat="46.58662" lon="0.22106">
        <ele>5</ele>
        <time>2023-12-03T08:33:21Z</time>
      </trkpt>
      <trkpt lat="46.58645" lon="0.2214">
        <ele>4.8</ele>
        <time>2023-12-03T08:33:26Z</time>
      </trkpt>
      <trkpt lat="46.58639" lon="0.22151">
        <ele>4.6</ele>
        <time>2023-12-03T08:33:28Z</time>
      </trkpt>
      <trkpt lat="46.58639" lon="0.22162">
        <ele>4.6</ele>
        <time>2023-12-03T08:33:30Z</time>
      </trkpt>
      <trkpt lat="46.58641" lon="0.22169">
        <ele>4.2</ele>
        <time>2023-12-03T08:33:32Z</time>
      </trkpt>
      <trkpt lat="46.58643" lon="0.22174">
        <ele>4</ele>
        <time>2023-12-03T08:33:34Z</time>
      </trkpt>
      <trkpt lat="46.58655" lon="0.22198">
        <ele>3.6</ele>
        <time>2023-12-03T08:33:42Z</time>
      </trkpt>
      <trkpt lat="46.58662" lon="0.22208">
        <ele>3.6</ele>
        <time>2023-12-03T08:33:45Z</time>
      </trkpt>
      <trkpt lat="46.58669" lon="0.22217">
        <ele>3.6</ele>
        <time>2023-12-03T08:33:48Z</time>
      </trkpt>
      <trkpt lat="46.58673" lon="0.22219">
        <ele>3.6</ele>
        <time>2023-12-03T08:33:49Z</time>
      </trkpt>
      <trkpt lat="46.58679" lon="0.22225">
        <ele>3.6</ele>
        <time>2023-12-03T08:33:51Z</time>
      </trkpt>
      <trkpt lat="46.58687" lon="0.22235">
        <ele>3.4</ele>
        <time>2023-12-03T08:33:54Z</time>
      </trkpt>
      <trkpt lat="46.58697" lon="0.22245">
        <ele>3.4</ele>
        <time>2023-12-03T08:33:57Z</time>
      </trkpt>
      <trkpt lat="46.58701" lon="0.22253">
        <ele>3.4</ele>
        <time>2023-12-03T08:33:59Z</time>
      </trkpt>
      <trkpt lat="46.58704" lon="0.22257">
        <ele>3.4</ele>
        <time>2023-12-03T08:34:00Z</time>
      </trkpt>
      <trkpt lat="46.58715" lon="0.22269">
        <ele>3.6</ele>
        <time>2023-12-03T08:34:03Z</time>
      </trkpt>
      <trkpt lat="46.58728" lon="0.22281">
        <ele>3.2</ele>
        <time>2023-12-03T08:34:06Z</time>
      </trkpt>
      <trkpt lat="46.58752" lon="0.22304">
        <ele>3</ele>
        <time>2023-12-03T08:34:13Z</time>
      </trkpt>
      <trkpt lat="46.5877" lon="0.22322">
        <ele>2.6</ele>
        <time>2023-12-03T08:34:19Z</time>
      </trkpt>
      <trkpt lat="46.58775" lon="0.22329">
        <ele>2.4</ele>
        <time>2023-12-03T08:34:21Z</time>
      </trkpt>
      <trkpt lat="46.58783" lon="0.2234">
        <ele>2</ele>
        <time>2023-12-03T08:34:24Z</time>
      </trkpt>
      <trkpt lat="46.58806" lon="0.22365">
        <ele>1.4</ele>
        <time>2023-12-03T08:34:30Z</time>
      </trkpt>
      <trkpt lat="46.58829" lon="0.22386">
        <ele>1.2</ele>
        <time>2023-12-03T08:34:36Z</time>
      </trkpt>
      <trkpt lat="46.58833" lon="0.22389">
        <ele>1</ele>
        <time>2023-12-03T08:34:37Z</time>
      </trkpt>
      <trkpt lat="46.58837" lon="0.22392">
        <ele>1</ele>
        <time>2023-12-03T08:34:38Z</time>
      </trkpt>
      <trkpt lat="46.58844" lon="0.22402">
        <ele>1</ele>
        <time>2023-12-03T08:34:40Z</time>
      </trkpt>
      <trkpt lat="46.58848" lon="0.22407">
        <ele>1</ele>
        <time>2023-12-03T08:34:41Z</time>
      </trkpt>
      <trkpt lat="46.58856" lon="0.22414">
        <ele>0.8</ele>
        <time>2023-12-03T08:34:43Z</time>
      </trkpt>
      <trkpt lat="46.58866" lon="0.22422">
        <ele>0.6</ele>
        <time>2023-12-03T08:34:45Z</time>
      </trkpt>
      <trkpt lat="46.58883" lon="0.22435">
        <ele>136.2</ele>
        <time>2023-12-03T08:34:49Z</time>
      </trkpt>
      <trkpt lat="46.58888" lon="0.22441">
        <ele>136</ele>
        <time>2023-12-03T08:34:51Z</time>
      </trkpt>
      <trkpt lat="46.58891" lon="0.22445">
        <ele>136</ele>
        <time>2023-12-03T08:34:52Z</time>
      </trkpt>
      <trkpt lat="46.58907" lon="0.22456">
        <ele>136</ele>
        <time>2023-12-03T08:34:56Z</time>
      </trkpt>
      <trkpt lat="46.58909" lon="0.22461">
        <ele>136</ele>
        <time>2023-12-03T08:34:57Z</time>
      </trkpt>
      <trkpt lat="46.5891" lon="0.22471">
        <ele>136</ele>
        <time>2023-12-03T08:34:59Z</time>
      </trkpt>
      <trkpt lat="46.58909" lon="0.22481">
        <ele>135.8</ele>
        <time>2023-12-03T08:35:01Z</time>
      </trkpt>
      <trkpt lat="46.58904" lon="0.22503">
        <ele>135.4</ele>
        <time>2023-12-03T08:35:04Z</time>
      </trkpt>
      <trkpt lat="46.58889" lon="0.22547">
        <ele>0.2</ele>
        <time>2023-12-03T08:35:09Z</time>
      </trkpt>
      <trkpt lat="46.58863" lon="0.22615">
        <ele>-0.6</ele>
        <time>2023-12-03T08:35:17Z</time>
      </trkpt>
      <trkpt lat="46.58843" lon="0.22661">
        <ele>-0.4</ele>
        <time>2023-12-03T08:35:23Z</time>
      </trkpt>
      <trkpt lat="46.58828" lon="0.22696">
        <ele>-0.4</ele>
        <time>2023-12-03T08:35:29Z</time>
      </trkpt>
      <trkpt lat="46.58821" lon="0.22711">
        <ele>-0.4</ele>
        <time>2023-12-03T08:35:32Z</time>
      </trkpt>
      <trkpt lat="46.58809" lon="0.22738">
        <ele>-0.4</ele>
        <time>2023-12-03T08:35:37Z</time>
      </trkpt>
      <trkpt lat="46.58794" lon="0.2277">
        <ele>-0.6</ele>
        <time>2023-12-03T08:35:42Z</time>
      </trkpt>
      <trkpt lat="46.58791" lon="0.22777">
        <ele>-0.6</ele>
        <time>2023-12-03T08:35:43Z</time>
      </trkpt>
      <trkpt lat="46.58778" lon="0.22809">
        <ele>-1</ele>
        <time>2023-12-03T08:35:49Z</time>
      </trkpt>
      <trkpt lat="46.58765" lon="0.22835">
        <ele>-1</ele>
        <time>2023-12-03T08:35:54Z</time>
      </trkpt>
      <trkpt lat="46.58762" lon="0.22839">
        <ele>-1.2</ele>
        <time>2023-12-03T08:35:55Z</time>
      </trkpt>
      <trkpt lat="46.58752" lon="0.2286">
        <ele>-1</ele>
        <time>2023-12-03T08:35:59Z</time>
      </trkpt>
      <trkpt lat="46.58745" lon="0.22876">
        <ele>-1</ele>
        <time>2023-12-03T08:36:02Z</time>
      </trkpt>
      <trkpt lat="46.58741" lon="0.22887">
        <ele>-0.8</ele>
        <time>2023-12-03T08:36:04Z</time>
      </trkpt>
      <trkpt lat="46.58724" lon="0.22926">
        <ele>-0.8</ele>
        <time>2023-12-03T08:36:12Z</time>
      </trkpt>
      <trkpt lat="46.58704" lon="0.22965">
        <ele>-0.2</ele>
        <time>2023-12-03T08:36:19Z</time>
      </trkpt>
      <trkpt lat="46.58702" lon="0.2297">
        <ele>-0.2</ele>
        <time>2023-12-03T08:36:20Z</time>
      </trkpt>
      <trkpt lat="46.58679" lon="0.23024">
        <ele>-1.4</ele>
        <time>2023-12-03T08:36:27Z</time>
      </trkpt>
      <trkpt lat="46.5866" lon="0.23065">
        <ele>-2.2</ele>
        <time>2023-12-03T08:36:32Z</time>
      </trkpt>
      <trkpt lat="46.58656" lon="0.23074">
        <ele>-2.4</ele>
        <time>2023-12-03T08:36:33Z</time>
      </trkpt>
      <trkpt lat="46.58645" lon="0.23093">
        <ele>-2.8</ele>
        <time>2023-12-03T08:36:36Z</time>
      </trkpt>
      <trkpt lat="46.58638" lon="0.23102">
        <ele>-3</ele>
        <time>2023-12-03T08:36:38Z</time>
      </trkpt>
      <trkpt lat="46.58634" lon="0.23107">
        <ele>-3.2</ele>
        <time>2023-12-03T08:36:40Z</time>
      </trkpt>
      <trkpt lat="46.58625" lon="0.23113">
        <ele>-3</ele>
        <time>2023-12-03T08:36:43Z</time>
      </trkpt>
      <trkpt lat="46.58616" lon="0.2312">
        <ele>-2.8</ele>
        <time>2023-12-03T08:36:45Z</time>
      </trkpt>
      <trkpt lat="46.58603" lon="0.2313">
        <ele>-2</ele>
        <time>2023-12-03T08:36:48Z</time>
      </trkpt>
      <trkpt lat="46.58579" lon="0.23144">
        <ele>-1.8</ele>
        <time>2023-12-03T08:36:53Z</time>
      </trkpt>
      <trkpt lat="46.5857" lon="0.23149">
        <ele>-1.6</ele>
        <time>2023-12-03T08:36:55Z</time>
      </trkpt>
      <trkpt lat="46.58561" lon="0.23152">
        <ele>-1.6</ele>
        <time>2023-12-03T08:36:57Z</time>
      </trkpt>
      <trkpt lat="46.58552" lon="0.23157">
        <ele>-1.8</ele>
        <time>2023-12-03T08:36:59Z</time>
      </trkpt>
      <trkpt lat="46.58549" lon="0.23159">
        <ele>-1.8</ele>
        <time>2023-12-03T08:37:00Z</time>
      </trkpt>
      <trkpt lat="46.58531" lon="0.2317">
        <ele>-1.6</ele>
        <time>2023-12-03T08:37:05Z</time>
      </trkpt>
      <trkpt lat="46.5851" lon="0.23191">
        <ele>-1.2</ele>
        <time>2023-12-03T08:37:11Z</time>
      </trkpt>
      <trkpt lat="46.58499" lon="0.23205">
        <ele>-0.8</ele>
        <time>2023-12-03T08:37:14Z</time>
      </trkpt>
      <trkpt lat="46.58485" lon="0.23223">
        <ele>136</ele>
        <time>2023-12-03T08:37:18Z</time>
      </trkpt>
      <trkpt lat="46.58479" lon="0.23231">
        <ele>0.2</ele>
        <time>2023-12-03T08:37:20Z</time>
      </trkpt>
      <trkpt lat="46.58477" lon="0.23234">
        <ele>0.2</ele>
        <time>2023-12-03T08:37:21Z</time>
      </trkpt>
      <trkpt lat="46.58474" lon="0.23237">
        <ele>0.4</ele>
        <time>2023-12-03T08:37:22Z</time>
      </trkpt>
      <trkpt lat="46.58454" lon="0.2326">
        <ele>1</ele>
        <time>2023-12-03T08:37:28Z</time>
      </trkpt>
      <trkpt lat="46.58451" lon="0.23263">
        <ele>1</ele>
        <time>2023-12-03T08:37:29Z</time>
      </trkpt>
      <trkpt lat="46.58446" lon="0.23271">
        <ele>1.2</ele>
        <time>2023-12-03T08:37:31Z</time>
      </trkpt>
      <trkpt lat="46.58439" lon="0.23287">
        <ele>1</ele>
        <time>2023-12-03T08:37:34Z</time>
      </trkpt>
      <trkpt lat="46.58433" lon="0.23299">
        <ele>0.8</ele>
        <time>2023-12-03T08:37:36Z</time>
      </trkpt>
      <trkpt lat="46.58428" lon="0.23309">
        <ele>0.6</ele>
        <time>2023-12-03T08:37:38Z</time>
      </trkpt>
      <trkpt lat="46.58426" lon="0.23316">
        <ele>0.4</ele>
        <time>2023-12-03T08:37:40Z</time>
      </trkpt>
      <trkpt lat="46.58422" lon="0.23337">
        <ele>-0.8</ele>
        <time>2023-12-03T08:37:46Z</time>
      </trkpt>
      <trkpt lat="46.58425" lon="0.23361">
        <ele>-1.2</ele>
        <time>2023-12-03T08:37:52Z</time>
      </trkpt>
      <trkpt lat="46.58424" lon="0.23392">
        <ele>-1.4</ele>
        <time>2023-12-03T08:37:58Z</time>
      </trkpt>
      <trkpt lat="46.58423" lon="0.23422">
        <ele>-1.6</ele>
        <time>2023-12-03T08:38:04Z</time>
      </trkpt>
      <trkpt lat="46.58408" lon="0.23435">
        <ele>-1.6</ele>
        <time>2023-12-03T08:38:08Z</time>
      </trkpt>
      <trkpt lat="46.58394" lon="0.23435">
        <ele>-1.8</ele>
        <time>2023-12-03T08:38:12Z</time>
      </trkpt>
      <trkpt lat="46.58387" lon="0.23432">
        <ele>-2</ele>
        <time>2023-12-03T08:38:14Z</time>
      </trkpt>
      <trkpt lat="46.58366" lon="0.23422">
        <ele>-1.2</ele>
        <time>2023-12-03T08:38:20Z</time>
      </trkpt>
      <trkpt lat="46.58349" lon="0.23417">
        <ele>-0.8</ele>
        <time>2023-12-03T08:38:25Z</time>
      </trkpt>
      <trkpt lat="46.58346" lon="0.23416">
        <ele>-0.8</ele>
        <time>2023-12-03T08:38:26Z</time>
      </trkpt>
      <trkpt lat="46.58323" lon="0.23408">
        <ele>0.2</ele>
        <time>2023-12-03T08:38:31Z</time>
      </trkpt>
      <trkpt lat="46.58307" lon="0.23404">
        <ele>0.4</ele>
        <time>2023-12-03T08:38:34Z</time>
      </trkpt>
      <trkpt lat="46.58297" lon="0.234">
        <ele>0.6</ele>
        <time>2023-12-03T08:38:36Z</time>
      </trkpt>
      <trkpt lat="46.58293" lon="0.23397">
        <ele>0.8</ele>
        <time>2023-12-03T08:38:37Z</time>
      </trkpt>
      <trkpt lat="46.58285" lon="0.23394">
        <ele>1</ele>
        <time>2023-12-03T08:38:39Z</time>
      </trkpt>
      <trkpt lat="46.5828" lon="0.23394">
        <ele>1.2</ele>
        <time>2023-12-03T08:38:40Z</time>
      </trkpt>
      <trkpt lat="46.58271" lon="0.23392">
        <ele>1.6</ele>
        <time>2023-12-03T08:38:42Z</time>
      </trkpt>
      <trkpt lat="46.58252" lon="0.23386">
        <ele>2.2</ele>
        <time>2023-12-03T08:38:46Z</time>
      </trkpt>
      <trkpt lat="46.5823" lon="0.23375">
        <ele>2.8</ele>
        <time>2023-12-03T08:38:51Z</time>
      </trkpt>
      <trkpt lat="46.58227" lon="0.23373">
        <ele>2.8</ele>
        <time>2023-12-03T08:38:52Z</time>
      </trkpt>
      <trkpt lat="46.58219" lon="0.23369">
        <ele>3</ele>
        <time>2023-12-03T08:38:54Z</time>
      </trkpt>
      <trkpt lat="46.58206" lon="0.23361">
        <ele>3.4</ele>
        <time>2023-12-03T08:38:57Z</time>
      </trkpt>
      <trkpt lat="46.58201" lon="0.23359">
        <ele>3.4</ele>
        <time>2023-12-03T08:38:58Z</time>
      </trkpt>
      <trkpt lat="46.58187" lon="0.23349">
        <ele>3.8</ele>
        <time>2023-12-03T08:39:01Z</time>
      </trkpt>
      <trkpt lat="46.58173" lon="0.2334">
        <ele>4</ele>
        <time>2023-12-03T08:39:04Z</time>
      </trkpt>
      <trkpt lat="46.58169" lon="0.23336">
        <ele>4</ele>
        <time>2023-12-03T08:39:05Z</time>
      </trkpt>
      <trkpt lat="46.58158" lon="0.23325">
        <ele>4.2</ele>
        <time>2023-12-03T08:39:08Z</time>
      </trkpt>
      <trkpt lat="46.58145" lon="0.23311">
        <ele>4.4</ele>
        <time>2023-12-03T08:39:12Z</time>
      </trkpt>
      <trkpt lat="46.58136" lon="0.23301">
        <ele>4.4</ele>
        <time>2023-12-03T08:39:15Z</time>
      </trkpt>
      <trkpt lat="46.58127" lon="0.23286">
        <ele>4.6</ele>
        <time>2023-12-03T08:39:18Z</time>
      </trkpt>
      <trkpt lat="46.58122" lon="0.23276">
        <ele>4.6</ele>
        <time>2023-12-03T08:39:20Z</time>
      </trkpt>
      <trkpt lat="46.58116" lon="0.23273">
        <ele>4.4</ele>
        <time>2023-12-03T08:39:22Z</time>
      </trkpt>
      <trkpt lat="46.58107" lon="0.23281">
        <ele>4.4</ele>
        <time>2023-12-03T08:39:25Z</time>
      </trkpt>
      <trkpt lat="46.58082" lon="0.23315">
        <ele>4.4</ele>
        <time>2023-12-03T08:39:33Z</time>
      </trkpt>
      <trkpt lat="46.5808" lon="0.23318">
        <ele>4.4</ele>
        <time>2023-12-03T08:39:34Z</time>
      </trkpt>
      <trkpt lat="46.58074" lon="0.23327">
        <ele>4.4</ele>
        <time>2023-12-03T08:39:36Z</time>
      </trkpt>
      <trkpt lat="46.58067" lon="0.23336">
        <ele>4.4</ele>
        <time>2023-12-03T08:39:38Z</time>
      </trkpt>
      <trkpt lat="46.58062" lon="0.23345">
        <ele>4.4</ele>
        <time>2023-12-03T08:39:40Z</time>
      </trkpt>
      <trkpt lat="46.5805" lon="0.23366">
        <ele>4.4</ele>
        <time>2023-12-03T08:39:45Z</time>
      </trkpt>
      <trkpt lat="46.58038" lon="0.23384">
        <ele>4.2</ele>
        <time>2023-12-03T08:39:49Z</time>
      </trkpt>
      <trkpt lat="46.58032" lon="0.23393">
        <ele>4</ele>
        <time>2023-12-03T08:39:51Z</time>
      </trkpt>
      <trkpt lat="46.58026" lon="0.23382">
        <ele>4</ele>
        <time>2023-12-03T08:39:55Z</time>
      </trkpt>
      <trkpt lat="46.58028" lon="0.23354">
        <ele>4</ele>
        <time>2023-12-03T08:40:00Z</time>
      </trkpt>
      <trkpt lat="46.58027" lon="0.23348">
        <ele>4</ele>
        <time>2023-12-03T08:40:01Z</time>
      </trkpt>
      <trkpt lat="46.58022" lon="0.23339">
        <ele>3.8</ele>
        <time>2023-12-03T08:40:03Z</time>
      </trkpt>
      <trkpt lat="46.58019" lon="0.23328">
        <ele>3.6</ele>
        <time>2023-12-03T08:40:05Z</time>
      </trkpt>
      <trkpt lat="46.58019" lon="0.23317">
        <ele>3.4</ele>
        <time>2023-12-03T08:40:07Z</time>
      </trkpt>
      <trkpt lat="46.58021" lon="0.23292">
        <ele>3.4</ele>
        <time>2023-12-03T08:40:12Z</time>
      </trkpt>
      <trkpt lat="46.58021" lon="0.23286">
        <ele>3.4</ele>
        <time>2023-12-03T08:40:13Z</time>
      </trkpt>
      <trkpt lat="46.58022" lon="0.23279">
        <ele>3.4</ele>
        <time>2023-12-03T08:40:14Z</time>
      </trkpt>
      <trkpt lat="46.58021" lon="0.23268">
        <ele>3.4</ele>
        <time>2023-12-03T08:40:16Z</time>
      </trkpt>
      <trkpt lat="46.58018" lon="0.23264">
        <ele>3.4</ele>
        <time>2023-12-03T08:40:17Z</time>
      </trkpt>
      <trkpt lat="46.58016" lon="0.2326">
        <ele>3.4</ele>
        <time>2023-12-03T08:40:18Z</time>
      </trkpt>
      <trkpt lat="46.58003" lon="0.23245">
        <ele>3</ele>
        <time>2023-12-03T08:40:22Z</time>
      </trkpt>
      <trkpt lat="46.57982" lon="0.23221">
        <ele>3</ele>
        <time>2023-12-03T08:40:27Z</time>
      </trkpt>
      <trkpt lat="46.57969" lon="0.23204">
        <ele>2.8</ele>
        <time>2023-12-03T08:40:30Z</time>
      </trkpt>
      <trkpt lat="46.57961" lon="0.23199">
        <ele>2.6</ele>
        <time>2023-12-03T08:40:32Z</time>
      </trkpt>
      <trkpt lat="46.5795" lon="0.23192">
        <ele>2.6</ele>
        <time>2023-12-03T08:40:36Z</time>
      </trkpt>
      <trkpt lat="46.57948" lon="0.23189">
        <ele>2.4</ele>
        <time>2023-12-03T08:40:37Z</time>
      </trkpt>
      <trkpt lat="46.57944" lon="0.23177">
        <ele>2.4</ele>
        <time>2023-12-03T08:40:40Z</time>
      </trkpt>
      <trkpt lat="46.57941" lon="0.23168">
        <ele>2.2</ele>
        <time>2023-12-03T08:40:42Z</time>
      </trkpt>
      <trkpt lat="46.57933" lon="0.23142">
        <ele>1.4</ele>
        <time>2023-12-03T08:40:47Z</time>
      </trkpt>
      <trkpt lat="46.57931" lon="0.23136">
        <ele>1.2</ele>
        <time>2023-12-03T08:40:48Z</time>
      </trkpt>
      <trkpt lat="46.57918" lon="0.23091">
        <ele>1</ele>
        <time>2023-12-03T08:40:54Z</time>
      </trkpt>
      <trkpt lat="46.57916" lon="0.23086">
        <ele>0.2</ele>
        <time>2023-12-03T08:40:55Z</time>
      </trkpt>
      <trkpt lat="46.57913" lon="0.23075">
        <ele>-0.8</ele>
        <time>2023-12-03T08:40:57Z</time>
      </trkpt>
      <trkpt lat="46.57912" lon="0.23072">
        <ele>-1</ele>
        <time>2023-12-03T08:40:58Z</time>
      </trkpt>
      <trkpt lat="46.5791" lon="0.23069">
        <ele>-1</ele>
        <time>2023-12-03T08:40:59Z</time>
      </trkpt>
      <trkpt lat="46.57904" lon="0.23045">
        <ele>-1.2</ele>
        <time>2023-12-03T08:41:04Z</time>
      </trkpt>
      <trkpt lat="46.57899" lon="0.23023">
        <ele>-2.4</ele>
        <time>2023-12-03T08:41:09Z</time>
      </trkpt>
      <trkpt lat="46.57897" lon="0.23019">
        <ele>-2.8</ele>
        <time>2023-12-03T08:41:11Z</time>
      </trkpt>
      <trkpt lat="46.57894" lon="0.2301">
        <ele>-2.8</ele>
        <time>2023-12-03T08:41:13Z</time>
      </trkpt>
      <trkpt lat="46.57886" lon="0.22982">
        <ele>-2.8</ele>
        <time>2023-12-03T08:41:19Z</time>
      </trkpt>
      <trkpt lat="46.57884" lon="0.22976">
        <ele>-3.4</ele>
        <time>2023-12-03T08:41:20Z</time>
      </trkpt>
      <trkpt lat="46.57879" lon="0.22963">
        <ele>-3.8</ele>
        <time>2023-12-03T08:41:22Z</time>
      </trkpt>
      <trkpt lat="46.57877" lon="0.22948">
        <ele>-4</ele>
        <time>2023-12-03T08:41:24Z</time>
      </trkpt>
      <trkpt lat="46.57878" lon="0.2291">
        <ele>-4.4</ele>
        <time>2023-12-03T08:41:29Z</time>
      </trkpt>
      <trkpt lat="46.57878" lon="0.22905">
        <ele>-4.4</ele>
        <time>2023-12-03T08:41:30Z</time>
      </trkpt>
      <trkpt lat="46.57877" lon="0.22894">
        <ele>-5.4</ele>
        <time>2023-12-03T08:41:32Z</time>
      </trkpt>
      <trkpt lat="46.57877" lon="0.22888">
        <ele>-6.6</ele>
        <time>2023-12-03T08:41:33Z</time>
      </trkpt>
      <trkpt lat="46.57876" lon="0.22874">
        <ele>-7.2</ele>
        <time>2023-12-03T08:41:35Z</time>
      </trkpt>
      <trkpt lat="46.57877" lon="0.22867">
        <ele>-7.8</ele>
        <time>2023-12-03T08:41:36Z</time>
      </trkpt>
      <trkpt lat="46.57879" lon="0.22864">
        <ele>-8.4</ele>
        <time>2023-12-03T08:41:37Z</time>
      </trkpt>
      <trkpt lat="46.57881" lon="0.22859">
        <ele>-8.8</ele>
        <time>2023-12-03T08:41:38Z</time>
      </trkpt>
      <trkpt lat="46.57883" lon="0.2285">
        <ele>-9.4</ele>
        <time>2023-12-03T08:41:40Z</time>
      </trkpt>
      <trkpt lat="46.57882" lon="0.22845">
        <ele>-9.6</ele>
        <time>2023-12-03T08:41:41Z</time>
      </trkpt>
      <trkpt lat="46.57878" lon="0.2283">
        <ele>-10</ele>
        <time>2023-12-03T08:41:44Z</time>
      </trkpt>
      <trkpt lat="46.57875" lon="0.22824">
        <ele>-10</ele>
        <time>2023-12-03T08:41:45Z</time>
      </trkpt>
      <trkpt lat="46.57873" lon="0.22819">
        <ele>-10.2</ele>
        <time>2023-12-03T08:41:46Z</time>
      </trkpt>
      <trkpt lat="46.5787" lon="0.22816">
        <ele>-10.6</ele>
        <time>2023-12-03T08:41:47Z</time>
      </trkpt>
      <trkpt lat="46.57859" lon="0.22802">
        <ele>-10.8</ele>
        <time>2023-12-03T08:41:50Z</time>
      </trkpt>
      <trkpt lat="46.57858" lon="0.22797">
        <ele>-10.8</ele>
        <time>2023-12-03T08:41:51Z</time>
      </trkpt>
      <trkpt lat="46.57851" lon="0.22771">
        <ele>-8.8</ele>
        <time>2023-12-03T08:41:57Z</time>
      </trkpt>
      <trkpt lat="46.57847" lon="0.22757">
        <ele>-7.6</ele>
        <time>2023-12-03T08:42:01Z</time>
      </trkpt>
      <trkpt lat="46.57844" lon="0.22743">
        <ele>-6.6</ele>
        <time>2023-12-03T08:42:04Z</time>
      </trkpt>
      <trkpt lat="46.57842" lon="0.2273">
        <ele>-6</ele>
        <time>2023-12-03T08:42:06Z</time>
      </trkpt>
      <trkpt lat="46.5784" lon="0.22711">
        <ele>-5.4</ele>
        <time>2023-12-03T08:42:10Z</time>
      </trkpt>
      <trkpt lat="46.57837" lon="0.22702">
        <ele>-5</ele>
        <time>2023-12-03T08:42:12Z</time>
      </trkpt>
      <trkpt lat="46.57835" lon="0.227">
        <ele>-4.8</ele>
        <time>2023-12-03T08:42:13Z</time>
      </trkpt>
      <trkpt lat="46.57831" lon="0.22699">
        <ele>-4.6</ele>
        <time>2023-12-03T08:42:15Z</time>
      </trkpt>
      <trkpt lat="46.57832" lon="0.22701">
        <ele>-5</ele>
        <time>2023-12-03T08:42:19Z</time>
      </trkpt>
      <trkpt lat="46.57838" lon="0.22717">
        <ele>-5.6</ele>
        <time>2023-12-03T08:42:24Z</time>
      </trkpt>
      <trkpt lat="46.57841" lon="0.22732">
        <ele>-6.8</ele>
        <time>2023-12-03T08:42:27Z</time>
      </trkpt>
      <trkpt lat="46.57841" lon="0.22739">
        <ele>-7.4</ele>
        <time>2023-12-03T08:42:28Z</time>
      </trkpt>
      <trkpt lat="46.57841" lon="0.22746">
        <ele>-7.8</ele>
        <time>2023-12-03T08:42:29Z</time>
      </trkpt>
      <trkpt lat="46.5784" lon="0.22749">
        <ele>-8.2</ele>
        <time>2023-12-03T08:42:30Z</time>
      </trkpt>
      <trkpt lat="46.5784" lon="0.22754">
        <ele>-8.2</ele>
        <time>2023-12-03T08:42:32Z</time>
      </trkpt>
      <trkpt lat="46.5784" lon="0.22774">
        <ele>-9</ele>
        <time>2023-12-03T08:42:36Z</time>
      </trkpt>
      <trkpt lat="46.57841" lon="0.22782">
        <ele>-9.2</ele>
        <time>2023-12-03T08:42:37Z</time>
      </trkpt>
      <trkpt lat="46.57845" lon="0.22796">
        <ele>-10</ele>
        <time>2023-12-03T08:42:39Z</time>
      </trkpt>
      <trkpt lat="46.57846" lon="0.22809">
        <ele>-10.2</ele>
        <time>2023-12-03T08:42:41Z</time>
      </trkpt>
      <trkpt lat="46.57843" lon="0.2282">
        <ele>-10.2</ele>
        <time>2023-12-03T08:42:43Z</time>
      </trkpt>
      <trkpt lat="46.57836" lon="0.22831">
        <ele>-10</ele>
        <time>2023-12-03T08:42:45Z</time>
      </trkpt>
      <trkpt lat="46.57825" lon="0.22851">
        <ele>-9</ele>
        <time>2023-12-03T08:42:50Z</time>
      </trkpt>
      <trkpt lat="46.57823" lon="0.22855">
        <ele>-8.6</ele>
        <time>2023-12-03T08:42:51Z</time>
      </trkpt>
      <trkpt lat="46.57819" lon="0.22867">
        <ele>-7.4</ele>
        <time>2023-12-03T08:42:55Z</time>
      </trkpt>
      <trkpt lat="46.57817" lon="0.22869">
        <ele>-7</ele>
        <time>2023-12-03T08:42:56Z</time>
      </trkpt>
      <trkpt lat="46.57815" lon="0.22877">
        <ele>-6</ele>
        <time>2023-12-03T08:42:58Z</time>
      </trkpt>
      <trkpt lat="46.5781" lon="0.22891">
        <ele>-5.4</ele>
        <time>2023-12-03T08:43:01Z</time>
      </trkpt>
      <trkpt lat="46.57806" lon="0.229">
        <ele>-5</ele>
        <time>2023-12-03T08:43:03Z</time>
      </trkpt>
      <trkpt lat="46.578" lon="0.22917">
        <ele>-4.6</ele>
        <time>2023-12-03T08:43:07Z</time>
      </trkpt>
      <trkpt lat="46.57796" lon="0.2293">
        <ele>-3.8</ele>
        <time>2023-12-03T08:43:10Z</time>
      </trkpt>
      <trkpt lat="46.57792" lon="0.22943">
        <ele>-2.8</ele>
        <time>2023-12-03T08:43:13Z</time>
      </trkpt>
      <trkpt lat="46.57791" lon="0.2295">
        <ele>-2.6</ele>
        <time>2023-12-03T08:43:15Z</time>
      </trkpt>
      <trkpt lat="46.57786" lon="0.22966">
        <ele>-2</ele>
        <time>2023-12-03T08:43:19Z</time>
      </trkpt>
      <trkpt lat="46.57782" lon="0.22981">
        <ele>-1.4</ele>
        <time>2023-12-03T08:43:23Z</time>
      </trkpt>
      <trkpt lat="46.5778" lon="0.22993">
        <ele>-1.2</ele>
        <time>2023-12-03T08:43:26Z</time>
      </trkpt>
      <trkpt lat="46.57774" lon="0.23016">
        <ele>-0.8</ele>
        <time>2023-12-03T08:43:32Z</time>
      </trkpt>
      <trkpt lat="46.57764" lon="0.23044">
        <ele>-0.6</ele>
        <time>2023-12-03T08:43:37Z</time>
      </trkpt>
      <trkpt lat="46.57762" lon="0.23054">
        <ele>-0.4</ele>
        <time>2023-12-03T08:43:39Z</time>
      </trkpt>
      <trkpt lat="46.57755" lon="0.23072">
        <ele>0.2</ele>
        <time>2023-12-03T08:43:43Z</time>
      </trkpt>
      <trkpt lat="46.5775" lon="0.23088">
        <ele>0.8</ele>
        <time>2023-12-03T08:43:46Z</time>
      </trkpt>
      <trkpt lat="46.57748" lon="0.23096">
        <ele>1</ele>
        <time>2023-12-03T08:43:48Z</time>
      </trkpt>
      <trkpt lat="46.57741" lon="0.23121">
        <ele>2</ele>
        <time>2023-12-03T08:43:53Z</time>
      </trkpt>
      <trkpt lat="46.5774" lon="0.23126">
        <ele>2</ele>
        <time>2023-12-03T08:43:54Z</time>
      </trkpt>
      <trkpt lat="46.5773" lon="0.23163">
        <ele>3</ele>
        <time>2023-12-03T08:44:01Z</time>
      </trkpt>
      <trkpt lat="46.57723" lon="0.23192">
        <ele>3.2</ele>
        <time>2023-12-03T08:44:07Z</time>
      </trkpt>
      <trkpt lat="46.57718" lon="0.23216">
        <ele>3.8</ele>
        <time>2023-12-03T08:44:11Z</time>
      </trkpt>
      <trkpt lat="46.57714" lon="0.23227">
        <ele>4</ele>
        <time>2023-12-03T08:44:13Z</time>
      </trkpt>
      <trkpt lat="46.57697" lon="0.23264">
        <ele>4.4</ele>
        <time>2023-12-03T08:44:20Z</time>
      </trkpt>
      <trkpt lat="46.57687" lon="0.23281">
        <ele>4.4</ele>
        <time>2023-12-03T08:44:23Z</time>
      </trkpt>
      <trkpt lat="46.57674" lon="0.23303">
        <ele>4.6</ele>
        <time>2023-12-03T08:44:27Z</time>
      </trkpt>
      <trkpt lat="46.57668" lon="0.23314">
        <ele>4.4</ele>
        <time>2023-12-03T08:44:29Z</time>
      </trkpt>
      <trkpt lat="46.57659" lon="0.23323">
        <ele>4.2</ele>
        <time>2023-12-03T08:44:31Z</time>
      </trkpt>
      <trkpt lat="46.57654" lon="0.23327">
        <ele>4.2</ele>
        <time>2023-12-03T08:44:32Z</time>
      </trkpt>
      <trkpt lat="46.57643" lon="0.23336">
        <ele>3.2</ele>
        <time>2023-12-03T08:44:35Z</time>
      </trkpt>
      <trkpt lat="46.57632" lon="0.23344">
        <ele>2.8</ele>
        <time>2023-12-03T08:44:38Z</time>
      </trkpt>
      <trkpt lat="46.5762" lon="0.23351">
        <ele>2</ele>
        <time>2023-12-03T08:44:41Z</time>
      </trkpt>
      <trkpt lat="46.57616" lon="0.23354">
        <ele>1.8</ele>
        <time>2023-12-03T08:44:42Z</time>
      </trkpt>
      <trkpt lat="46.57608" lon="0.23361">
        <ele>1.2</ele>
        <time>2023-12-03T08:44:44Z</time>
      </trkpt>
      <trkpt lat="46.57603" lon="0.23363">
        <ele>0.6</ele>
        <time>2023-12-03T08:44:45Z</time>
      </trkpt>
      <trkpt lat="46.57598" lon="0.23366">
        <ele>131.9</ele>
        <time>2023-12-03T08:44:46Z</time>
      </trkpt>
      <trkpt lat="46.57594" lon="0.23374">
        <ele>-1</ele>
        <time>2023-12-03T08:44:48Z</time>
      </trkpt>
      <trkpt lat="46.57593" lon="0.23381">
        <ele>-1.8</ele>
        <time>2023-12-03T08:44:50Z</time>
      </trkpt>
      <trkpt lat="46.57594" lon="0.23383">
        <ele>-2</ele>
        <time>2023-12-03T08:44:51Z</time>
      </trkpt>
      <trkpt lat="46.57594" lon="0.23386">
        <ele>-2.2</ele>
        <time>2023-12-03T08:44:52Z</time>
      </trkpt>
      <trkpt lat="46.57597" lon="0.23406">
        <ele>-1.8</ele>
        <time>2023-12-03T08:44:57Z</time>
      </trkpt>
      <trkpt lat="46.57602" lon="0.23425">
        <ele>-1</ele>
        <time>2023-12-03T08:45:02Z</time>
      </trkpt>
      <trkpt lat="46.57603" lon="0.23429">
        <ele>-1</ele>
        <time>2023-12-03T08:45:03Z</time>
      </trkpt>
      <trkpt lat="46.57606" lon="0.23443">
        <ele>131.7</ele>
        <time>2023-12-03T08:45:06Z</time>
      </trkpt>
      <trkpt lat="46.57607" lon="0.23447">
        <ele>0.4</ele>
        <time>2023-12-03T08:45:07Z</time>
      </trkpt>
      <trkpt lat="46.57607" lon="0.23451">
        <ele>0.6</ele>
        <time>2023-12-03T08:45:08Z</time>
      </trkpt>
      <trkpt lat="46.57606" lon="0.23465">
        <ele>0.8</ele>
        <time>2023-12-03T08:45:11Z</time>
      </trkpt>
      <trkpt lat="46.57614" lon="0.23492">
        <ele>0.8</ele>
        <time>2023-12-03T08:45:16Z</time>
      </trkpt>
      <trkpt lat="46.57617" lon="0.23503">
        <ele>1.2</ele>
        <time>2023-12-03T08:45:18Z</time>
      </trkpt>
      <trkpt lat="46.57622" lon="0.23515">
        <ele>1.6</ele>
        <time>2023-12-03T08:45:21Z</time>
      </trkpt>
      <trkpt lat="46.57627" lon="0.23526">
        <ele>2.2</ele>
        <time>2023-12-03T08:45:25Z</time>
      </trkpt>
      <trkpt lat="46.57629" lon="0.23527">
        <ele>2.4</ele>
        <time>2023-12-03T08:45:26Z</time>
      </trkpt>
      <trkpt lat="46.57639" lon="0.23523">
        <ele>2.8</ele>
        <time>2023-12-03T08:45:31Z</time>
      </trkpt>
      <trkpt lat="46.57655" lon="0.23516">
        <ele>3.2</ele>
        <time>2023-12-03T08:45:37Z</time>
      </trkpt>
      <trkpt lat="46.57667" lon="0.23522">
        <ele>3.4</ele>
        <time>2023-12-03T08:45:41Z</time>
      </trkpt>
      <trkpt lat="46.57679" lon="0.23542">
        <ele>4.2</ele>
        <time>2023-12-03T08:45:47Z</time>
      </trkpt>
      <trkpt lat="46.57684" lon="0.23549">
        <ele>4.2</ele>
        <time>2023-12-03T08:45:49Z</time>
      </trkpt>
      <trkpt lat="46.57688" lon="0.23556">
        <ele>4.2</ele>
        <time>2023-12-03T08:45:51Z</time>
      </trkpt>
      <trkpt lat="46.57694" lon="0.23567">
        <ele>4.2</ele>
        <time>2023-12-03T08:45:54Z</time>
      </trkpt>
      <trkpt lat="46.57698" lon="0.23577">
        <ele>4.2</ele>
        <time>2023-12-03T08:45:56Z</time>
      </trkpt>
      <trkpt lat="46.57702" lon="0.23589">
        <ele>4.2</ele>
        <time>2023-12-03T08:45:58Z</time>
      </trkpt>
      <trkpt lat="46.57703" lon="0.23595">
        <ele>4.2</ele>
        <time>2023-12-03T08:45:59Z</time>
      </trkpt>
      <trkpt lat="46.57712" lon="0.2362">
        <ele>4.2</ele>
        <time>2023-12-03T08:46:03Z</time>
      </trkpt>
      <trkpt lat="46.57713" lon="0.23626">
        <ele>4.4</ele>
        <time>2023-12-03T08:46:04Z</time>
      </trkpt>
      <trkpt lat="46.57715" lon="0.23637">
        <ele>4.6</ele>
        <time>2023-12-03T08:46:06Z</time>
      </trkpt>
      <trkpt lat="46.57715" lon="0.23643">
        <ele>4.6</ele>
        <time>2023-12-03T08:46:07Z</time>
      </trkpt>
      <trkpt lat="46.57715" lon="0.2365">
        <ele>4.6</ele>
        <time>2023-12-03T08:46:08Z</time>
      </trkpt>
      <trkpt lat="46.57712" lon="0.23667">
        <ele>4.2</ele>
        <time>2023-12-03T08:46:11Z</time>
      </trkpt>
      <trkpt lat="46.57713" lon="0.23677">
        <ele>4</ele>
        <time>2023-12-03T08:46:13Z</time>
      </trkpt>
      <trkpt lat="46.57715" lon="0.23692">
        <ele>3.8</ele>
        <time>2023-12-03T08:46:16Z</time>
      </trkpt>
      <trkpt lat="46.57712" lon="0.2374">
        <ele>4</ele>
        <time>2023-12-03T08:46:23Z</time>
      </trkpt>
      <trkpt lat="46.5771" lon="0.23769">
        <ele>3.4</ele>
        <time>2023-12-03T08:46:27Z</time>
      </trkpt>
      <trkpt lat="46.57707" lon="0.23795">
        <ele>3.2</ele>
        <time>2023-12-03T08:46:30Z</time>
      </trkpt>
      <trkpt lat="46.57704" lon="0.23812">
        <ele>3.2</ele>
        <time>2023-12-03T08:46:32Z</time>
      </trkpt>
      <trkpt lat="46.57703" lon="0.23834">
        <ele>3.2</ele>
        <time>2023-12-03T08:46:35Z</time>
      </trkpt>
      <trkpt lat="46.57701" lon="0.23843">
        <ele>3.2</ele>
        <time>2023-12-03T08:46:36Z</time>
      </trkpt>
      <trkpt lat="46.57696" lon="0.23856">
        <ele>3.2</ele>
        <time>2023-12-03T08:46:38Z</time>
      </trkpt>
      <trkpt lat="46.57693" lon="0.23863">
        <ele>3</ele>
        <time>2023-12-03T08:46:39Z</time>
      </trkpt>
      <trkpt lat="46.57681" lon="0.23889">
        <ele>2.6</ele>
        <time>2023-12-03T08:46:44Z</time>
      </trkpt>
      <trkpt lat="46.57674" lon="0.23901">
        <ele>2.6</ele>
        <time>2023-12-03T08:46:46Z</time>
      </trkpt>
      <trkpt lat="46.57668" lon="0.23912">
        <ele>2.4</ele>
        <time>2023-12-03T08:46:48Z</time>
      </trkpt>
      <trkpt lat="46.57653" lon="0.23932">
        <ele>2</ele>
        <time>2023-12-03T08:46:52Z</time>
      </trkpt>
      <trkpt lat="46.57643" lon="0.23948">
        <ele>1.2</ele>
        <time>2023-12-03T08:46:55Z</time>
      </trkpt>
      <trkpt lat="46.57636" lon="0.23957">
        <ele>1</ele>
        <time>2023-12-03T08:46:57Z</time>
      </trkpt>
      <trkpt lat="46.57608" lon="0.23988">
        <ele>0.6</ele>
        <time>2023-12-03T08:47:03Z</time>
      </trkpt>
      <trkpt lat="46.57598" lon="0.24003">
        <ele>136.6</ele>
        <time>2023-12-03T08:47:06Z</time>
      </trkpt>
      <trkpt lat="46.57587" lon="0.24016">
        <ele>-0.6</ele>
        <time>2023-12-03T08:47:09Z</time>
      </trkpt>
      <trkpt lat="46.57578" lon="0.24026">
        <ele>-0.6</ele>
        <time>2023-12-03T08:47:11Z</time>
      </trkpt>
      <trkpt lat="46.57563" lon="0.2404">
        <ele>-0.2</ele>
        <time>2023-12-03T08:47:14Z</time>
      </trkpt>
      <trkpt lat="46.57527" lon="0.24068">
        <ele>-1</ele>
        <time>2023-12-03T08:47:20Z</time>
      </trkpt>
      <trkpt lat="46.57515" lon="0.24075">
        <ele>-1.2</ele>
        <time>2023-12-03T08:47:22Z</time>
      </trkpt>
      <trkpt lat="46.57486" lon="0.24091">
        <ele>-2.4</ele>
        <time>2023-12-03T08:47:27Z</time>
      </trkpt>
      <trkpt lat="46.57475" lon="0.24099">
        <ele>-3.2</ele>
        <time>2023-12-03T08:47:29Z</time>
      </trkpt>
      <trkpt lat="46.57471" lon="0.24102">
        <ele>-3.4</ele>
        <time>2023-12-03T08:47:30Z</time>
      </trkpt>
      <trkpt lat="46.57466" lon="0.24106">
        <ele>-3.6</ele>
        <time>2023-12-03T08:47:31Z</time>
      </trkpt>
      <trkpt lat="46.57462" lon="0.2411">
        <ele>-3.8</ele>
        <time>2023-12-03T08:47:32Z</time>
      </trkpt>
      <trkpt lat="46.57451" lon="0.24124">
        <ele>-4.2</ele>
        <time>2023-12-03T08:47:35Z</time>
      </trkpt>
      <trkpt lat="46.57447" lon="0.24138">
        <ele>-4.6</ele>
        <time>2023-12-03T08:47:37Z</time>
      </trkpt>
      <trkpt lat="46.57438" lon="0.24194">
        <ele>-4.6</ele>
        <time>2023-12-03T08:47:44Z</time>
      </trkpt>
      <trkpt lat="46.57435" lon="0.24208">
        <ele>-4.6</ele>
        <time>2023-12-03T08:47:46Z</time>
      </trkpt>
      <trkpt lat="46.57431" lon="0.24228">
        <ele>-4.6</ele>
        <time>2023-12-03T08:47:49Z</time>
      </trkpt>
      <trkpt lat="46.57423" lon="0.24257">
        <ele>-4.6</ele>
        <time>2023-12-03T08:47:54Z</time>
      </trkpt>
      <trkpt lat="46.57421" lon="0.24261">
        <ele>-4.6</ele>
        <time>2023-12-03T08:47:55Z</time>
      </trkpt>
      <trkpt lat="46.57411" lon="0.2427">
        <ele>-4.8</ele>
        <time>2023-12-03T08:47:58Z</time>
      </trkpt>
      <trkpt lat="46.57407" lon="0.24271">
        <ele>-4.8</ele>
        <time>2023-12-03T08:47:59Z</time>
      </trkpt>
      <trkpt lat="46.57404" lon="0.24271">
        <ele>-5</ele>
        <time>2023-12-03T08:48:00Z</time>
      </trkpt>
      <trkpt lat="46.57399" lon="0.24267">
        <ele>-5.6</ele>
        <time>2023-12-03T08:48:01Z</time>
      </trkpt>
      <trkpt lat="46.57394" lon="0.2426">
        <ele>-6</ele>
        <time>2023-12-03T08:48:02Z</time>
      </trkpt>
      <trkpt lat="46.57383" lon="0.24249">
        <ele>-6.6</ele>
        <time>2023-12-03T08:48:04Z</time>
      </trkpt>
      <trkpt lat="46.57376" lon="0.24244">
        <ele>-7.4</ele>
        <time>2023-12-03T08:48:05Z</time>
      </trkpt>
      <trkpt lat="46.57371" lon="0.2424">
        <ele>-7.8</ele>
        <time>2023-12-03T08:48:06Z</time>
      </trkpt>
      <trkpt lat="46.57366" lon="0.24236">
        <ele>-8.4</ele>
        <time>2023-12-03T08:48:07Z</time>
      </trkpt>
      <trkpt lat="46.57354" lon="0.24234">
        <ele>-9.4</ele>
        <time>2023-12-03T08:48:09Z</time>
      </trkpt>
      <trkpt lat="46.5734" lon="0.24234">
        <ele>-10.4</ele>
        <time>2023-12-03T08:48:11Z</time>
      </trkpt>
      <trkpt lat="46.57325" lon="0.24232">
        <ele>-11.8</ele>
        <time>2023-12-03T08:48:13Z</time>
      </trkpt>
      <trkpt lat="46.57316" lon="0.24231">
        <ele>-12.8</ele>
        <time>2023-12-03T08:48:14Z</time>
      </trkpt>
      <trkpt lat="46.57298" lon="0.24229">
        <ele>-14.6</ele>
        <time>2023-12-03T08:48:16Z</time>
      </trkpt>
      <trkpt lat="46.57283" lon="0.24233">
        <ele>-16.8</ele>
        <time>2023-12-03T08:48:18Z</time>
      </trkpt>
      <trkpt lat="46.57277" lon="0.24236">
        <ele>-17.2</ele>
        <time>2023-12-03T08:48:19Z</time>
      </trkpt>
      <trkpt lat="46.5727" lon="0.24241">
        <ele>-17.8</ele>
        <time>2023-12-03T08:48:20Z</time>
      </trkpt>
      <trkpt lat="46.57264" lon="0.24245">
        <ele>-19</ele>
        <time>2023-12-03T08:48:21Z</time>
      </trkpt>
      <trkpt lat="46.57257" lon="0.24252">
        <ele>-20.4</ele>
        <time>2023-12-03T08:48:22Z</time>
      </trkpt>
      <trkpt lat="46.57251" lon="0.24259">
        <ele>-21</ele>
        <time>2023-12-03T08:48:23Z</time>
      </trkpt>
      <trkpt lat="46.57244" lon="0.24266">
        <ele>-22.2</ele>
        <time>2023-12-03T08:48:24Z</time>
      </trkpt>
      <trkpt lat="46.57239" lon="0.24272">
        <ele>-23.6</ele>
        <time>2023-12-03T08:48:25Z</time>
      </trkpt>
      <trkpt lat="46.57235" lon="0.24277">
        <ele>-24.8</ele>
        <time>2023-12-03T08:48:26Z</time>
      </trkpt>
      <trkpt lat="46.57231" lon="0.24281">
        <ele>-26</ele>
        <time>2023-12-03T08:48:27Z</time>
      </trkpt>
      <trkpt lat="46.57225" lon="0.2428">
        <ele>-28.2</ele>
        <time>2023-12-03T08:48:29Z</time>
      </trkpt>
      <trkpt lat="46.57222" lon="0.24277">
        <ele>-29.2</ele>
        <time>2023-12-03T08:48:30Z</time>
      </trkpt>
      <trkpt lat="46.57221" lon="0.24273">
        <ele>-29.6</ele>
        <time>2023-12-03T08:48:31Z</time>
      </trkpt>
      <trkpt lat="46.5722" lon="0.24263">
        <ele>-30.8</ele>
        <time>2023-12-03T08:48:33Z</time>
      </trkpt>
      <trkpt lat="46.5722" lon="0.24256">
        <ele>-31.2</ele>
        <time>2023-12-03T08:48:34Z</time>
      </trkpt>
      <trkpt lat="46.57222" lon="0.24241">
        <ele>-31.8</ele>
        <time>2023-12-03T08:48:36Z</time>
      </trkpt>
      <trkpt lat="46.57228" lon="0.24218">
        <ele>-33</ele>
        <time>2023-12-03T08:48:39Z</time>
      </trkpt>
      <trkpt lat="46.57243" lon="0.24185">
        <ele>-34.2</ele>
        <time>2023-12-03T08:48:43Z</time>
      </trkpt>
      <trkpt lat="46.57249" lon="0.24166">
        <ele>-34.8</ele>
        <time>2023-12-03T08:48:45Z</time>
      </trkpt>
      <trkpt lat="46.57253" lon="0.24155">
        <ele>-35.2</ele>
        <time>2023-12-03T08:48:46Z</time>
      </trkpt>
      <trkpt lat="46.5726" lon="0.24133">
        <ele>-37.2</ele>
        <time>2023-12-03T08:48:48Z</time>
      </trkpt>
      <trkpt lat="46.57264" lon="0.24123">
        <ele>-38.4</ele>
        <time>2023-12-03T08:48:49Z</time>
      </trkpt>
      <trkpt lat="46.57268" lon="0.24114">
        <ele>-39.4</ele>
        <time>2023-12-03T08:48:50Z</time>
      </trkpt>
      <trkpt lat="46.57273" lon="0.24106">
        <ele>-40.2</ele>
        <time>2023-12-03T08:48:51Z</time>
      </trkpt>
      <trkpt lat="46.57281" lon="0.24091">
        <ele>-41.8</ele>
        <time>2023-12-03T08:48:53Z</time>
      </trkpt>
      <trkpt lat="46.57285" lon="0.24085">
        <ele>-43</ele>
        <time>2023-12-03T08:48:54Z</time>
      </trkpt>
      <trkpt lat="46.57287" lon="0.2408">
        <ele>-44</ele>
        <time>2023-12-03T08:48:55Z</time>
      </trkpt>
      <trkpt lat="46.57287" lon="0.2408">
        <ele>-45.8</ele>
        <time>2023-12-03T08:48:56Z</time>
      </trkpt>
      <trkpt lat="46.5729" lon="0.24072">
        <ele>-45.8</ele>
        <time>2023-12-03T08:48:57Z</time>
      </trkpt>
      <trkpt lat="46.57291" lon="0.24064">
        <ele>-46.4</ele>
        <time>2023-12-03T08:48:59Z</time>
      </trkpt>
      <trkpt lat="46.57289" lon="0.24053">
        <ele>-46.4</ele>
        <time>2023-12-03T08:49:03Z</time>
      </trkpt>
      <trkpt lat="46.57283" lon="0.2403">
        <ele>-46.2</ele>
        <time>2023-12-03T08:49:09Z</time>
      </trkpt>
      <trkpt lat="46.57281" lon="0.24022">
        <ele>-46.8</ele>
        <time>2023-12-03T08:49:11Z</time>
      </trkpt>
      <trkpt lat="46.57276" lon="0.24009">
        <ele>-47.4</ele>
        <time>2023-12-03T08:49:14Z</time>
      </trkpt>
      <trkpt lat="46.57267" lon="0.23988">
        <ele>-47</ele>
        <time>2023-12-03T08:49:20Z</time>
      </trkpt>
      <trkpt lat="46.57263" lon="0.23963">
        <ele>-46.8</ele>
        <time>2023-12-03T08:49:26Z</time>
      </trkpt>
      <trkpt lat="46.57261" lon="0.23961">
        <ele>-46.4</ele>
        <time>2023-12-03T08:49:27Z</time>
      </trkpt>
      <trkpt lat="46.57253" lon="0.23957">
        <ele>-45.8</ele>
        <time>2023-12-03T08:49:30Z</time>
      </trkpt>
      <trkpt lat="46.57247" lon="0.23954">
        <ele>-45.6</ele>
        <time>2023-12-03T08:49:32Z</time>
      </trkpt>
      <trkpt lat="46.57227" lon="0.2395">
        <ele>-45</ele>
        <time>2023-12-03T08:49:39Z</time>
      </trkpt>
      <trkpt lat="46.57223" lon="0.23949">
        <ele>-44.6</ele>
        <time>2023-12-03T08:49:41Z</time>
      </trkpt>
      <trkpt lat="46.57213" lon="0.23947">
        <ele>-43.4</ele>
        <time>2023-12-03T08:49:46Z</time>
      </trkpt>
      <trkpt lat="46.57211" lon="0.23947">
        <ele>-43.2</ele>
        <time>2023-12-03T08:49:47Z</time>
      </trkpt>
      <trkpt lat="46.57207" lon="0.23948">
        <ele>-42.2</ele>
        <time>2023-12-03T08:49:50Z</time>
      </trkpt>
      <trkpt lat="46.57204" lon="0.23948">
        <ele>-41.2</ele>
        <time>2023-12-03T08:49:52Z</time>
      </trkpt>
      <trkpt lat="46.57202" lon="0.23947">
        <ele>-40.8</ele>
        <time>2023-12-03T08:49:53Z</time>
      </trkpt>
      <trkpt lat="46.57194" lon="0.23947">
        <ele>-39.6</ele>
        <time>2023-12-03T08:49:57Z</time>
      </trkpt>
      <trkpt lat="46.5719" lon="0.23947">
        <ele>-39.2</ele>
        <time>2023-12-03T08:49:59Z</time>
      </trkpt>
      <trkpt lat="46.57186" lon="0.23946">
        <ele>-38.4</ele>
        <time>2023-12-03T08:50:01Z</time>
      </trkpt>
      <trkpt lat="46.57183" lon="0.23944">
        <ele>-38</ele>
        <time>2023-12-03T08:50:03Z</time>
      </trkpt>
      <trkpt lat="46.57181" lon="0.23942">
        <ele>-37.8</ele>
        <time>2023-12-03T08:50:04Z</time>
      </trkpt>
      <trkpt lat="46.57178" lon="0.23938">
        <ele>-37.4</ele>
        <time>2023-12-03T08:50:06Z</time>
      </trkpt>
      <trkpt lat="46.57173" lon="0.23932">
        <ele>-36.2</ele>
        <time>2023-12-03T08:50:10Z</time>
      </trkpt>
      <trkpt lat="46.57163" lon="0.2392">
        <ele>-35.2</ele>
        <time>2023-12-03T08:50:16Z</time>
      </trkpt>
      <trkpt lat="46.57159" lon="0.23915">
        <ele>-34.8</ele>
        <time>2023-12-03T08:50:18Z</time>
      </trkpt>
      <trkpt lat="46.5715" lon="0.23907">
        <ele>-34.2</ele>
        <time>2023-12-03T08:50:22Z</time>
      </trkpt>
      <trkpt lat="46.57147" lon="0.23904">
        <ele>-34</ele>
        <time>2023-12-03T08:50:24Z</time>
      </trkpt>
      <trkpt lat="46.57132" lon="0.23891">
        <ele>-33</ele>
        <time>2023-12-03T08:50:31Z</time>
      </trkpt>
      <trkpt lat="46.57117" lon="0.23876">
        <ele>-32.4</ele>
        <time>2023-12-03T08:50:38Z</time>
      </trkpt>
      <trkpt lat="46.57108" lon="0.23868">
        <ele>-32</ele>
        <time>2023-12-03T08:50:42Z</time>
      </trkpt>
      <trkpt lat="46.571" lon="0.23859">
        <ele>-31.4</ele>
        <time>2023-12-03T08:50:45Z</time>
      </trkpt>
      <trkpt lat="46.57094" lon="0.23852">
        <ele>-31</ele>
        <time>2023-12-03T08:50:48Z</time>
      </trkpt>
      <trkpt lat="46.57086" lon="0.23844">
        <ele>-30.6</ele>
        <time>2023-12-03T08:50:51Z</time>
      </trkpt>
      <trkpt lat="46.57073" lon="0.2383">
        <ele>-29.8</ele>
        <time>2023-12-03T08:50:57Z</time>
      </trkpt>
      <trkpt lat="46.5707" lon="0.23828">
        <ele>-29.4</ele>
        <time>2023-12-03T08:50:59Z</time>
      </trkpt>
      <trkpt lat="46.57054" lon="0.23818">
        <ele>-28.6</ele>
        <time>2023-12-03T08:51:05Z</time>
      </trkpt>
      <trkpt lat="46.57041" lon="0.23814">
        <ele>-27.4</ele>
        <time>2023-12-03T08:51:11Z</time>
      </trkpt>
      <trkpt lat="46.57034" lon="0.23813">
        <ele>-26.2</ele>
        <time>2023-12-03T08:51:15Z</time>
      </trkpt>
      <trkpt lat="46.57026" lon="0.23811">
        <ele>-25.6</ele>
        <time>2023-12-03T08:51:18Z</time>
      </trkpt>
      <trkpt lat="46.57019" lon="0.23808">
        <ele>-25</ele>
        <time>2023-12-03T08:51:21Z</time>
      </trkpt>
      <trkpt lat="46.57013" lon="0.23808">
        <ele>-24.2</ele>
        <time>2023-12-03T08:51:24Z</time>
      </trkpt>
      <trkpt lat="46.57012" lon="0.23807">
        <ele>-23.8</ele>
        <time>2023-12-03T08:51:25Z</time>
      </trkpt>
      <trkpt lat="46.57003" lon="0.23807">
        <ele>-22.6</ele>
        <time>2023-12-03T08:51:30Z</time>
      </trkpt>
      <trkpt lat="46.56998" lon="0.23808">
        <ele>-21.2</ele>
        <time>2023-12-03T08:51:34Z</time>
      </trkpt>
      <trkpt lat="46.56993" lon="0.2381">
        <ele>-20</ele>
        <time>2023-12-03T08:51:38Z</time>
      </trkpt>
      <trkpt lat="46.56986" lon="0.23813">
        <ele>-18.8</ele>
        <time>2023-12-03T08:51:42Z</time>
      </trkpt>
      <trkpt lat="46.56985" lon="0.23814">
        <ele>-18.6</ele>
        <time>2023-12-03T08:51:43Z</time>
      </trkpt>
      <trkpt lat="46.56983" lon="0.23814">
        <ele>-18.4</ele>
        <time>2023-12-03T08:51:44Z</time>
      </trkpt>
      <trkpt lat="46.56981" lon="0.23816">
        <ele>-17.8</ele>
        <time>2023-12-03T08:51:46Z</time>
      </trkpt>
      <trkpt lat="46.56976" lon="0.23821">
        <ele>-16.6</ele>
        <time>2023-12-03T08:51:50Z</time>
      </trkpt>
      <trkpt lat="46.56972" lon="0.23826">
        <ele>-16</ele>
        <time>2023-12-03T08:51:53Z</time>
      </trkpt>
      <trkpt lat="46.56969" lon="0.2383">
        <ele>-15.6</ele>
        <time>2023-12-03T08:51:56Z</time>
      </trkpt>
      <trkpt lat="46.56965" lon="0.23834">
        <ele>-14.6</ele>
        <time>2023-12-03T08:51:59Z</time>
      </trkpt>
      <trkpt lat="46.5696" lon="0.23843">
        <ele>-13.2</ele>
        <time>2023-12-03T08:52:04Z</time>
      </trkpt>
      <trkpt lat="46.56958" lon="0.23848">
        <ele>-12.2</ele>
        <time>2023-12-03T08:52:07Z</time>
      </trkpt>
      <trkpt lat="46.56956" lon="0.23849">
        <ele>-12.2</ele>
        <time>2023-12-03T08:52:08Z</time>
      </trkpt>
      <trkpt lat="46.5695" lon="0.23856">
        <ele>-10.8</ele>
        <time>2023-12-03T08:52:13Z</time>
      </trkpt>
      <trkpt lat="46.56948" lon="0.23858">
        <ele>-10.4</ele>
        <time>2023-12-03T08:52:15Z</time>
      </trkpt>
      <trkpt lat="46.56946" lon="0.23859">
        <ele>-9.6</ele>
        <time>2023-12-03T08:52:16Z</time>
      </trkpt>
      <trkpt lat="46.56942" lon="0.23861">
        <ele>-9</ele>
        <time>2023-12-03T08:52:19Z</time>
      </trkpt>
      <trkpt lat="46.5694" lon="0.23862">
        <ele>-8.4</ele>
        <time>2023-12-03T08:52:21Z</time>
      </trkpt>
      <trkpt lat="46.56938" lon="0.23862">
        <ele>-7.8</ele>
        <time>2023-12-03T08:52:23Z</time>
      </trkpt>
      <trkpt lat="46.56937" lon="0.23861">
        <ele>-7.8</ele>
        <time>2023-12-03T08:52:24Z</time>
      </trkpt>
      <trkpt lat="46.56935" lon="0.23857">
        <ele>-7.2</ele>
        <time>2023-12-03T08:52:27Z</time>
      </trkpt>
      <trkpt lat="46.56932" lon="0.23852">
        <ele>-6.6</ele>
        <time>2023-12-03T08:52:30Z</time>
      </trkpt>
      <trkpt lat="46.56929" lon="0.23846">
        <ele>-6</ele>
        <time>2023-12-03T08:52:33Z</time>
      </trkpt>
      <trkpt lat="46.56926" lon="0.2384">
        <ele>-5.6</ele>
        <time>2023-12-03T08:52:36Z</time>
      </trkpt>
      <trkpt lat="46.56924" lon="0.23831">
        <ele>-5</ele>
        <time>2023-12-03T08:52:40Z</time>
      </trkpt>
      <trkpt lat="46.56922" lon="0.23825">
        <ele>-4.4</ele>
        <time>2023-12-03T08:52:43Z</time>
      </trkpt>
      <trkpt lat="46.56919" lon="0.23814">
        <ele>-4</ele>
        <time>2023-12-03T08:52:47Z</time>
      </trkpt>
      <trkpt lat="46.56917" lon="0.2381">
        <ele>-3.6</ele>
        <time>2023-12-03T08:52:49Z</time>
      </trkpt>
      <trkpt lat="46.56916" lon="0.23794">
        <ele>-3</ele>
        <time>2023-12-03T08:52:54Z</time>
      </trkpt>
      <trkpt lat="46.56915" lon="0.2379">
        <ele>-3</ele>
        <time>2023-12-03T08:52:55Z</time>
      </trkpt>
      <trkpt lat="46.56912" lon="0.23777">
        <ele>-2.4</ele>
        <time>2023-12-03T08:52:59Z</time>
      </trkpt>
      <trkpt lat="46.5691" lon="0.23775">
        <ele>-2.4</ele>
        <time>2023-12-03T08:53:00Z</time>
      </trkpt>
      <trkpt lat="46.56904" lon="0.23766">
        <ele>-1.8</ele>
        <time>2023-12-03T08:53:03Z</time>
      </trkpt>
      <trkpt lat="46.56894" lon="0.23755">
        <ele>-0.6</ele>
        <time>2023-12-03T08:53:08Z</time>
      </trkpt>
      <trkpt lat="46.56882" lon="0.23743">
        <ele>135.1</ele>
        <time>2023-12-03T08:53:14Z</time>
      </trkpt>
      <trkpt lat="46.56876" lon="0.23738">
        <ele>0.4</ele>
        <time>2023-12-03T08:53:17Z</time>
      </trkpt>
      <trkpt lat="46.56868" lon="0.23731">
        <ele>1.2</ele>
        <time>2023-12-03T08:53:21Z</time>
      </trkpt>
      <trkpt lat="46.5686" lon="0.23719">
        <ele>1.4</ele>
        <time>2023-12-03T08:53:26Z</time>
      </trkpt>
      <trkpt lat="46.56856" lon="0.23712">
        <ele>1.6</ele>
        <time>2023-12-03T08:53:28Z</time>
      </trkpt>
      <trkpt lat="46.56843" lon="0.23697">
        <ele>2</ele>
        <time>2023-12-03T08:53:34Z</time>
      </trkpt>
      <trkpt lat="46.56838" lon="0.23683">
        <ele>2</ele>
        <time>2023-12-03T08:53:38Z</time>
      </trkpt>
      <trkpt lat="46.56838" lon="0.23679">
        <ele>2</ele>
        <time>2023-12-03T08:53:39Z</time>
      </trkpt>
      <trkpt lat="46.56843" lon="0.23658">
        <ele>2.2</ele>
        <time>2023-12-03T08:53:44Z</time>
      </trkpt>
      <trkpt lat="46.56842" lon="0.23641">
        <ele>2</ele>
        <time>2023-12-03T08:53:46Z</time>
      </trkpt>
      <trkpt lat="46.56843" lon="0.23628">
        <ele>1.8</ele>
        <time>2023-12-03T08:53:48Z</time>
      </trkpt>
      <trkpt lat="46.56843" lon="0.23616">
        <ele>1.6</ele>
        <time>2023-12-03T08:53:50Z</time>
      </trkpt>
      <trkpt lat="46.56845" lon="0.23603">
        <ele>1.6</ele>
        <time>2023-12-03T08:53:52Z</time>
      </trkpt>
      <trkpt lat="46.56846" lon="0.23595">
        <ele>1.6</ele>
        <time>2023-12-03T08:53:53Z</time>
      </trkpt>
      <trkpt lat="46.56857" lon="0.23541">
        <ele>0.4</ele>
        <time>2023-12-03T08:53:59Z</time>
      </trkpt>
      <trkpt lat="46.5687" lon="0.23475">
        <ele>-0.2</ele>
        <time>2023-12-03T08:54:06Z</time>
      </trkpt>
      <trkpt lat="46.56873" lon="0.23467">
        <ele>-0.6</ele>
        <time>2023-12-03T08:54:07Z</time>
      </trkpt>
      <trkpt lat="46.56881" lon="0.23424">
        <ele>-0.8</ele>
        <time>2023-12-03T08:54:12Z</time>
      </trkpt>
      <trkpt lat="46.56897" lon="0.23363">
        <ele>-0.6</ele>
        <time>2023-12-03T08:54:20Z</time>
      </trkpt>
      <trkpt lat="46.56907" lon="0.23327">
        <ele>-0.6</ele>
        <time>2023-12-03T08:54:25Z</time>
      </trkpt>
      <trkpt lat="46.56908" lon="0.23313">
        <ele>-0.6</ele>
        <time>2023-12-03T08:54:27Z</time>
      </trkpt>
      <trkpt lat="46.56906" lon="0.233">
        <ele>-0.6</ele>
        <time>2023-12-03T08:54:29Z</time>
      </trkpt>
      <trkpt lat="46.56903" lon="0.23295">
        <ele>-0.8</ele>
        <time>2023-12-03T08:54:30Z</time>
      </trkpt>
      <trkpt lat="46.56901" lon="0.23292">
        <ele>-0.8</ele>
        <time>2023-12-03T08:54:31Z</time>
      </trkpt>
      <trkpt lat="46.56893" lon="0.23286">
        <ele>-0.6</ele>
        <time>2023-12-03T08:54:34Z</time>
      </trkpt>
      <trkpt lat="46.56888" lon="0.23277">
        <ele>-0.2</ele>
        <time>2023-12-03T08:54:39Z</time>
      </trkpt>
      <trkpt lat="46.5688" lon="0.23266">
        <ele>135.6</ele>
        <time>2023-12-03T08:54:43Z</time>
      </trkpt>
      <trkpt lat="46.56878" lon="0.23263">
        <ele>0.2</ele>
        <time>2023-12-03T08:54:44Z</time>
      </trkpt>
      <trkpt lat="46.56875" lon="0.23257">
        <ele>136</ele>
        <time>2023-12-03T08:54:46Z</time>
      </trkpt>
      <trkpt lat="46.5687" lon="0.23249">
        <ele>136.4</ele>
        <time>2023-12-03T08:54:48Z</time>
      </trkpt>
      <trkpt lat="46.56867" lon="0.23245">
        <ele>136.6</ele>
        <time>2023-12-03T08:54:49Z</time>
      </trkpt>
      <trkpt lat="46.56851" lon="0.23214">
        <ele>-0.4</ele>
        <time>2023-12-03T08:54:56Z</time>
      </trkpt>
      <trkpt lat="46.56842" lon="0.23194">
        <ele>-0.4</ele>
        <time>2023-12-03T08:55:01Z</time>
      </trkpt>
      <trkpt lat="46.5683" lon="0.23173">
        <ele>-0.4</ele>
        <time>2023-12-03T08:55:07Z</time>
      </trkpt>
      <trkpt lat="46.56823" lon="0.23148">
        <ele>-0.4</ele>
        <time>2023-12-03T08:55:12Z</time>
      </trkpt>
      <trkpt lat="46.56824" lon="0.23144">
        <ele>-0.4</ele>
        <time>2023-12-03T08:55:13Z</time>
      </trkpt>
      <trkpt lat="46.56828" lon="0.23143">
        <ele>-0.6</ele>
        <time>2023-12-03T08:55:15Z</time>
      </trkpt>
      <trkpt lat="46.56839" lon="0.23144">
        <ele>-1</ele>
        <time>2023-12-03T08:55:19Z</time>
      </trkpt>
      <trkpt lat="46.56841" lon="0.23144">
        <ele>-1</ele>
        <time>2023-12-03T08:55:20Z</time>
      </trkpt>
      <trkpt lat="46.56844" lon="0.23144">
        <ele>-1</ele>
        <time>2023-12-03T08:55:21Z</time>
      </trkpt>
      <trkpt lat="46.56851" lon="0.23146">
        <ele>-1.2</ele>
        <time>2023-12-03T08:55:23Z</time>
      </trkpt>
      <trkpt lat="46.56858" lon="0.23149">
        <ele>-1.4</ele>
        <time>2023-12-03T08:55:25Z</time>
      </trkpt>
      <trkpt lat="46.56866" lon="0.23152">
        <ele>-1.8</ele>
        <time>2023-12-03T08:55:28Z</time>
      </trkpt>
      <trkpt lat="46.56874" lon="0.23155">
        <ele>-2.4</ele>
        <time>2023-12-03T08:55:31Z</time>
      </trkpt>
      <trkpt lat="46.56886" lon="0.23157">
        <ele>-2.8</ele>
        <time>2023-12-03T08:55:35Z</time>
      </trkpt>
      <trkpt lat="46.569" lon="0.23159">
        <ele>-4</ele>
        <time>2023-12-03T08:55:39Z</time>
      </trkpt>
      <trkpt lat="46.56916" lon="0.23162">
        <ele>-4.6</ele>
        <time>2023-12-03T08:55:43Z</time>
      </trkpt>
      <trkpt lat="46.56919" lon="0.23161">
        <ele>-5</ele>
        <time>2023-12-03T08:55:44Z</time>
      </trkpt>
      <trkpt lat="46.56924" lon="0.23161">
        <ele>-5.2</ele>
        <time>2023-12-03T08:55:45Z</time>
      </trkpt>
      <trkpt lat="46.56929" lon="0.2316">
        <ele>-5.4</ele>
        <time>2023-12-03T08:55:46Z</time>
      </trkpt>
      <trkpt lat="46.56945" lon="0.23155">
        <ele>-6.4</ele>
        <time>2023-12-03T08:55:49Z</time>
      </trkpt>
      <trkpt lat="46.5696" lon="0.23151">
        <ele>-7.6</ele>
        <time>2023-12-03T08:55:52Z</time>
      </trkpt>
      <trkpt lat="46.5696" lon="0.23151">
        <ele>-9</ele>
        <time>2023-12-03T08:55:53Z</time>
      </trkpt>
      <trkpt lat="46.56979" lon="0.23145">
        <ele>-10</ele>
        <time>2023-12-03T08:55:55Z</time>
      </trkpt>
      <trkpt lat="46.56989" lon="0.2314">
        <ele>-12</ele>
        <time>2023-12-03T08:55:57Z</time>
      </trkpt>
      <trkpt lat="46.56997" lon="0.23136">
        <ele>-13.6</ele>
        <time>2023-12-03T08:55:59Z</time>
      </trkpt>
      <trkpt lat="46.57003" lon="0.2313">
        <ele>-14.6</ele>
        <time>2023-12-03T08:56:01Z</time>
      </trkpt>
      <trkpt lat="46.57005" lon="0.23126">
        <ele>-15.8</ele>
        <time>2023-12-03T08:56:03Z</time>
      </trkpt>
      <trkpt lat="46.57005" lon="0.23122">
        <ele>-16.4</ele>
        <time>2023-12-03T08:56:05Z</time>
      </trkpt>
      <trkpt lat="46.56999" lon="0.23115">
        <ele>-16.6</ele>
        <time>2023-12-03T08:56:08Z</time>
      </trkpt>
      <trkpt lat="46.56981" lon="0.23091">
        <ele>-16.4</ele>
        <time>2023-12-03T08:56:14Z</time>
      </trkpt>
      <trkpt lat="46.56974" lon="0.23081">
        <ele>-17</ele>
        <time>2023-12-03T08:56:16Z</time>
      </trkpt>
      <trkpt lat="46.56967" lon="0.2307">
        <ele>-18.6</ele>
        <time>2023-12-03T08:56:18Z</time>
      </trkpt>
      <trkpt lat="46.56964" lon="0.23065">
        <ele>-19.4</ele>
        <time>2023-12-03T08:56:19Z</time>
      </trkpt>
      <trkpt lat="46.56961" lon="0.23061">
        <ele>-20</ele>
        <time>2023-12-03T08:56:20Z</time>
      </trkpt>
      <trkpt lat="46.56954" lon="0.23051">
        <ele>-21.2</ele>
        <time>2023-12-03T08:56:22Z</time>
      </trkpt>
      <trkpt lat="46.56947" lon="0.23039">
        <ele>-22.2</ele>
        <time>2023-12-03T08:56:24Z</time>
      </trkpt>
      <trkpt lat="46.56938" lon="0.23026">
        <ele>-24</ele>
        <time>2023-12-03T08:56:26Z</time>
      </trkpt>
      <trkpt lat="46.56927" lon="0.2301">
        <ele>-24.8</ele>
        <time>2023-12-03T08:56:28Z</time>
      </trkpt>
      <trkpt lat="46.5692" lon="0.23001">
        <ele>-26</ele>
        <time>2023-12-03T08:56:29Z</time>
      </trkpt>
      <trkpt lat="46.56908" lon="0.2298">
        <ele>-27.8</ele>
        <time>2023-12-03T08:56:31Z</time>
      </trkpt>
      <trkpt lat="46.56899" lon="0.22963">
        <ele>-29.6</ele>
        <time>2023-12-03T08:56:33Z</time>
      </trkpt>
      <trkpt lat="46.56889" lon="0.22941">
        <ele>-31</ele>
        <time>2023-12-03T08:56:36Z</time>
      </trkpt>
      <trkpt lat="46.56882" lon="0.22923">
        <ele>-31.2</ele>
        <time>2023-12-03T08:56:38Z</time>
      </trkpt>
      <trkpt lat="46.5688" lon="0.22916">
        <ele>-31</ele>
        <time>2023-12-03T08:56:39Z</time>
      </trkpt>
      <trkpt lat="46.56873" lon="0.22894">
        <ele>-31</ele>
        <time>2023-12-03T08:56:42Z</time>
      </trkpt>
      <trkpt lat="46.5687" lon="0.22886">
        <ele>-30.8</ele>
        <time>2023-12-03T08:56:43Z</time>
      </trkpt>
      <trkpt lat="46.56859" lon="0.22858">
        <ele>-31.2</ele>
        <time>2023-12-03T08:56:47Z</time>
      </trkpt>
      <trkpt lat="46.56851" lon="0.22836">
        <ele>-31.2</ele>
        <time>2023-12-03T08:56:50Z</time>
      </trkpt>
      <trkpt lat="46.56844" lon="0.22826">
        <ele>-31.2</ele>
        <time>2023-12-03T08:56:52Z</time>
      </trkpt>
      <trkpt lat="46.56826" lon="0.22807">
        <ele>-31</ele>
        <time>2023-12-03T08:56:57Z</time>
      </trkpt>
      <trkpt lat="46.56809" lon="0.22786">
        <ele>-30.6</ele>
        <time>2023-12-03T08:57:02Z</time>
      </trkpt>
      <trkpt lat="46.56803" lon="0.22777">
        <ele>-29.8</ele>
        <time>2023-12-03T08:57:05Z</time>
      </trkpt>
      <trkpt lat="46.56793" lon="0.22768">
        <ele>-28.8</ele>
        <time>2023-12-03T08:57:09Z</time>
      </trkpt>
      <trkpt lat="46.56776" lon="0.22754">
        <ele>-27.4</ele>
        <time>2023-12-03T08:57:16Z</time>
      </trkpt>
      <trkpt lat="46.56764" lon="0.22747">
        <ele>-26.4</ele>
        <time>2023-12-03T08:57:21Z</time>
      </trkpt>
      <trkpt lat="46.5676" lon="0.22745">
        <ele>-25.8</ele>
        <time>2023-12-03T08:57:23Z</time>
      </trkpt>
      <trkpt lat="46.56755" lon="0.22741">
        <ele>-25.4</ele>
        <time>2023-12-03T08:57:25Z</time>
      </trkpt>
      <trkpt lat="46.56746" lon="0.22733">
        <ele>-25</ele>
        <time>2023-12-03T08:57:29Z</time>
      </trkpt>
      <trkpt lat="46.56737" lon="0.22726">
        <ele>-24.2</ele>
        <time>2023-12-03T08:57:33Z</time>
      </trkpt>
      <trkpt lat="46.56727" lon="0.22716">
        <ele>-23.2</ele>
        <time>2023-12-03T08:57:38Z</time>
      </trkpt>
      <trkpt lat="46.56725" lon="0.22714">
        <ele>-23</ele>
        <time>2023-12-03T08:57:39Z</time>
      </trkpt>
      <trkpt lat="46.56715" lon="0.22708">
        <ele>-22</ele>
        <time>2023-12-03T08:57:44Z</time>
      </trkpt>
      <trkpt lat="46.5671" lon="0.22705">
        <ele>-21.6</ele>
        <time>2023-12-03T08:57:46Z</time>
      </trkpt>
      <trkpt lat="46.56705" lon="0.22701">
        <ele>-20.8</ele>
        <time>2023-12-03T08:57:49Z</time>
      </trkpt>
      <trkpt lat="46.56697" lon="0.22695">
        <ele>-19.6</ele>
        <time>2023-12-03T08:57:53Z</time>
      </trkpt>
      <trkpt lat="46.56692" lon="0.22694">
        <ele>-18.6</ele>
        <time>2023-12-03T08:57:56Z</time>
      </trkpt>
      <trkpt lat="46.56687" lon="0.2269">
        <ele>-17.2</ele>
        <time>2023-12-03T08:57:59Z</time>
      </trkpt>
      <trkpt lat="46.56685" lon="0.22689">
        <ele>-17</ele>
        <time>2023-12-03T08:58:00Z</time>
      </trkpt>
      <trkpt lat="46.56681" lon="0.22687">
        <ele>-16.2</ele>
        <time>2023-12-03T08:58:04Z</time>
      </trkpt>
      <trkpt lat="46.56677" lon="0.22685">
        <ele>-15.6</ele>
        <time>2023-12-03T08:58:07Z</time>
      </trkpt>
      <trkpt lat="46.56673" lon="0.22682">
        <ele>-15</ele>
        <time>2023-12-03T08:58:10Z</time>
      </trkpt>
      <trkpt lat="46.56665" lon="0.22678">
        <ele>-13.8</ele>
        <time>2023-12-03T08:58:15Z</time>
      </trkpt>
      <trkpt lat="46.56661" lon="0.22676">
        <ele>-12.8</ele>
        <time>2023-12-03T08:58:19Z</time>
      </trkpt>
      <trkpt lat="46.56657" lon="0.22673">
        <ele>-11.8</ele>
        <time>2023-12-03T08:58:22Z</time>
      </trkpt>
      <trkpt lat="46.56656" lon="0.22672">
        <ele>-11.6</ele>
        <time>2023-12-03T08:58:23Z</time>
      </trkpt>
      <trkpt lat="46.5665" lon="0.22667">
        <ele>-10.6</ele>
        <time>2023-12-03T08:58:28Z</time>
      </trkpt>
      <trkpt lat="46.56644" lon="0.22663">
        <ele>-9.8</ele>
        <time>2023-12-03T08:58:33Z</time>
      </trkpt>
      <trkpt lat="46.56643" lon="0.22662">
        <ele>-9.4</ele>
        <time>2023-12-03T08:58:34Z</time>
      </trkpt>
      <trkpt lat="46.56639" lon="0.22658">
        <ele>-8.4</ele>
        <time>2023-12-03T08:58:38Z</time>
      </trkpt>
      <trkpt lat="46.56637" lon="0.22653">
        <ele>-8</ele>
        <time>2023-12-03T08:58:41Z</time>
      </trkpt>
      <trkpt lat="46.56639" lon="0.22648">
        <ele>-8.6</ele>
        <time>2023-12-03T08:58:45Z</time>
      </trkpt>
      <trkpt lat="46.56641" lon="0.22644">
        <ele>-9.6</ele>
        <time>2023-12-03T08:58:47Z</time>
      </trkpt>
      <trkpt lat="46.56641" lon="0.22643">
        <ele>-10.6</ele>
        <time>2023-12-03T08:58:48Z</time>
      </trkpt>
      <trkpt lat="46.56642" lon="0.2264">
        <ele>-11.8</ele>
        <time>2023-12-03T08:58:49Z</time>
      </trkpt>
      <trkpt lat="46.56645" lon="0.22634">
        <ele>-13.2</ele>
        <time>2023-12-03T08:58:52Z</time>
      </trkpt>
      <trkpt lat="46.56647" lon="0.2263">
        <ele>-14.4</ele>
        <time>2023-12-03T08:58:55Z</time>
      </trkpt>
      <trkpt lat="46.56647" lon="0.22629">
        <ele>-14.4</ele>
        <time>2023-12-03T08:58:56Z</time>
      </trkpt>
      <trkpt lat="46.56647" lon="0.22628">
        <ele>-14.4</ele>
        <time>2023-12-03T08:58:57Z</time>
      </trkpt>
      <trkpt lat="46.56647" lon="0.22626">
        <ele>-13.4</ele>
        <time>2023-12-03T08:59:00Z</time>
      </trkpt>
      <trkpt lat="46.56647" lon="0.22626">
        <ele>-13</ele>
        <time>2023-12-03T08:59:01Z</time>
      </trkpt>
      <trkpt lat="46.56646" lon="0.22625">
        <ele>-11.6</ele>
        <time>2023-12-03T08:59:05Z</time>
      </trkpt>
      <trkpt lat="46.56644" lon="0.22624">
        <ele>-10.8</ele>
        <time>2023-12-03T08:59:07Z</time>
      </trkpt>
      <trkpt lat="46.56643" lon="0.22622">
        <ele>-10.6</ele>
        <time>2023-12-03T08:59:08Z</time>
      </trkpt>
      <trkpt lat="46.5664" lon="0.22621">
        <ele>-9.6</ele>
        <time>2023-12-03T08:59:11Z</time>
      </trkpt>
      <trkpt lat="46.56636" lon="0.2262">
        <ele>-8.4</ele>
        <time>2023-12-03T08:59:16Z</time>
      </trkpt>
      <trkpt lat="46.56635" lon="0.22618">
        <ele>-7.4</ele>
        <time>2023-12-03T08:59:19Z</time>
      </trkpt>
      <trkpt lat="46.56632" lon="0.22616">
        <ele>-6.2</ele>
        <time>2023-12-03T08:59:23Z</time>
      </trkpt>
      <trkpt lat="46.56631" lon="0.22616">
        <ele>-6</ele>
        <time>2023-12-03T08:59:24Z</time>
      </trkpt>
      <trkpt lat="46.56627" lon="0.22613">
        <ele>-5.2</ele>
        <time>2023-12-03T08:59:28Z</time>
      </trkpt>
      <trkpt lat="46.56623" lon="0.2261">
        <ele>-4.4</ele>
        <time>2023-12-03T08:59:31Z</time>
      </trkpt>
      <trkpt lat="46.56621" lon="0.22606">
        <ele>-4</ele>
        <time>2023-12-03T08:59:33Z</time>
      </trkpt>
      <trkpt lat="46.5662" lon="0.22602">
        <ele>-3.8</ele>
        <time>2023-12-03T08:59:35Z</time>
      </trkpt>
      <trkpt lat="46.5662" lon="0.22586">
        <ele>-3.8</ele>
        <time>2023-12-03T08:59:41Z</time>
      </trkpt>
      <trkpt lat="46.56621" lon="0.22581">
        <ele>-3.8</ele>
        <time>2023-12-03T08:59:43Z</time>
      </trkpt>
      <trkpt lat="46.56624" lon="0.22568">
        <ele>-4.2</ele>
        <time>2023-12-03T08:59:47Z</time>
      </trkpt>
      <trkpt lat="46.56629" lon="0.22538">
        <ele>-4</ele>
        <time>2023-12-03T08:59:54Z</time>
      </trkpt>
      <trkpt lat="46.56632" lon="0.22535">
        <ele>-4</ele>
        <time>2023-12-03T08:59:55Z</time>
      </trkpt>
      <trkpt lat="46.56642" lon="0.22531">
        <ele>-4.6</ele>
        <time>2023-12-03T08:59:58Z</time>
      </trkpt>
      <trkpt lat="46.56649" lon="0.22533">
        <ele>-5</ele>
        <time>2023-12-03T09:00:00Z</time>
      </trkpt>
      <trkpt lat="46.56653" lon="0.22535">
        <ele>-5.2</ele>
        <time>2023-12-03T09:00:01Z</time>
      </trkpt>
      <trkpt lat="46.56656" lon="0.22538">
        <ele>-5.4</ele>
        <time>2023-12-03T09:00:02Z</time>
      </trkpt>
      <trkpt lat="46.56661" lon="0.22546">
        <ele>-6.2</ele>
        <time>2023-12-03T09:00:04Z</time>
      </trkpt>
      <trkpt lat="46.56662" lon="0.22555">
        <ele>-7.8</ele>
        <time>2023-12-03T09:00:06Z</time>
      </trkpt>
      <trkpt lat="46.56664" lon="0.22569">
        <ele>-9</ele>
        <time>2023-12-03T09:00:09Z</time>
      </trkpt>
      <trkpt lat="46.56665" lon="0.22575">
        <ele>-10.2</ele>
        <time>2023-12-03T09:00:10Z</time>
      </trkpt>
      <trkpt lat="46.56666" lon="0.22581">
        <ele>-11</ele>
        <time>2023-12-03T09:00:11Z</time>
      </trkpt>
      <trkpt lat="46.56668" lon="0.22587">
        <ele>-11.6</ele>
        <time>2023-12-03T09:00:12Z</time>
      </trkpt>
      <trkpt lat="46.56669" lon="0.22598">
        <ele>-12.2</ele>
        <time>2023-12-03T09:00:14Z</time>
      </trkpt>
      <trkpt lat="46.5667" lon="0.22601">
        <ele>-13</ele>
        <time>2023-12-03T09:00:15Z</time>
      </trkpt>
      <trkpt lat="46.56671" lon="0.22603">
        <ele>-13.8</ele>
        <time>2023-12-03T09:00:16Z</time>
      </trkpt>
      <trkpt lat="46.56673" lon="0.22605">
        <ele>-14.8</ele>
        <time>2023-12-03T09:00:17Z</time>
      </trkpt>
      <trkpt lat="46.56675" lon="0.22608">
        <ele>-16</ele>
        <time>2023-12-03T09:00:18Z</time>
      </trkpt>
      <trkpt lat="46.56682" lon="0.22613">
        <ele>-17.4</ele>
        <time>2023-12-03T09:00:20Z</time>
      </trkpt>
      <trkpt lat="46.56686" lon="0.22616">
        <ele>-18.4</ele>
        <time>2023-12-03T09:00:21Z</time>
      </trkpt>
      <trkpt lat="46.56694" lon="0.22619">
        <ele>-19</ele>
        <time>2023-12-03T09:00:22Z</time>
      </trkpt>
      <trkpt lat="46.56706" lon="0.22621">
        <ele>-20.6</ele>
        <time>2023-12-03T09:00:23Z</time>
      </trkpt>
      <trkpt lat="46.56714" lon="0.22624">
        <ele>-22.2</ele>
        <time>2023-12-03T09:00:24Z</time>
      </trkpt>
      <trkpt lat="46.56729" lon="0.22631">
        <ele>-24.6</ele>
        <time>2023-12-03T09:00:26Z</time>
      </trkpt>
      <trkpt lat="46.56734" lon="0.22635">
        <ele>-26</ele>
        <time>2023-12-03T09:00:27Z</time>
      </trkpt>
      <trkpt lat="46.56742" lon="0.22641">
        <ele>-27.4</ele>
        <time>2023-12-03T09:00:29Z</time>
      </trkpt>
      <trkpt lat="46.56748" lon="0.22641">
        <ele>-28.6</ele>
        <time>2023-12-03T09:00:31Z</time>
      </trkpt>
      <trkpt lat="46.56755" lon="0.22643">
        <ele>-29.2</ele>
        <time>2023-12-03T09:00:33Z</time>
      </trkpt>
      <trkpt lat="46.56762" lon="0.22646">
        <ele>-29.8</ele>
        <time>2023-12-03T09:00:35Z</time>
      </trkpt>
      <trkpt lat="46.56767" lon="0.22654">
        <ele>-31.2</ele>
        <time>2023-12-03T09:00:37Z</time>
      </trkpt>
      <trkpt lat="46.56772" lon="0.22664">
        <ele>-33.2</ele>
        <time>2023-12-03T09:00:39Z</time>
      </trkpt>
      <trkpt lat="46.5678" lon="0.22676">
        <ele>-34.6</ele>
        <time>2023-12-03T09:00:41Z</time>
      </trkpt>
      <trkpt lat="46.56784" lon="0.22682">
        <ele>-36</ele>
        <time>2023-12-03T09:00:42Z</time>
      </trkpt>
      <trkpt lat="46.5679" lon="0.22692">
        <ele>-37.6</ele>
        <time>2023-12-03T09:00:44Z</time>
      </trkpt>
      <trkpt lat="46.56791" lon="0.22695">
        <ele>-38.4</ele>
        <time>2023-12-03T09:00:45Z</time>
      </trkpt>
      <trkpt lat="46.56793" lon="0.22696">
        <ele>-39.6</ele>
        <time>2023-12-03T09:00:46Z</time>
      </trkpt>
      <trkpt lat="46.56797" lon="0.22696">
        <ele>-40.6</ele>
        <time>2023-12-03T09:00:47Z</time>
      </trkpt>
      <trkpt lat="46.56801" lon="0.22696">
        <ele>-41.6</ele>
        <time>2023-12-03T09:00:49Z</time>
      </trkpt>
      <trkpt lat="46.56802" lon="0.22696">
        <ele>-41.8</ele>
        <time>2023-12-03T09:00:50Z</time>
      </trkpt>
      <trkpt lat="46.56803" lon="0.22696">
        <ele>-41.8</ele>
        <time>2023-12-03T09:00:51Z</time>
      </trkpt>
      <trkpt lat="46.56803" lon="0.22696">
        <ele>-41.8</ele>
        <time>2023-12-03T09:00:52Z</time>
      </trkpt>
      <trkpt lat="46.56805" lon="0.22695">
        <ele>-41.6</ele>
        <time>2023-12-03T09:00:53Z</time>
      </trkpt>
      <trkpt lat="46.56806" lon="0.22689">
        <ele>-40.8</ele>
        <time>2023-12-03T09:00:57Z</time>
      </trkpt>
      <trkpt lat="46.56807" lon="0.22687">
        <ele>-40.6</ele>
        <time>2023-12-03T09:00:58Z</time>
      </trkpt>
      <trkpt lat="46.56811" lon="0.22675">
        <ele>-39.6</ele>
        <time>2023-12-03T09:01:03Z</time>
      </trkpt>
      <trkpt lat="46.56812" lon="0.22672">
        <ele>-39.6</ele>
        <time>2023-12-03T09:01:04Z</time>
      </trkpt>
      <trkpt lat="46.56816" lon="0.22656">
        <ele>-39.8</ele>
        <time>2023-12-03T09:01:09Z</time>
      </trkpt>
      <trkpt lat="46.56822" lon="0.22635">
        <ele>-39.6</ele>
        <time>2023-12-03T09:01:14Z</time>
      </trkpt>
      <trkpt lat="46.56822" lon="0.22613">
        <ele>-39</ele>
        <time>2023-12-03T09:01:20Z</time>
      </trkpt>
      <trkpt lat="46.56821" lon="0.22602">
        <ele>-38.4</ele>
        <time>2023-12-03T09:01:23Z</time>
      </trkpt>
      <trkpt lat="46.5682" lon="0.22589">
        <ele>-37.2</ele>
        <time>2023-12-03T09:01:27Z</time>
      </trkpt>
      <trkpt lat="46.56819" lon="0.22582">
        <ele>-36.8</ele>
        <time>2023-12-03T09:01:29Z</time>
      </trkpt>
      <trkpt lat="46.56818" lon="0.22571">
        <ele>-36</ele>
        <time>2023-12-03T09:01:32Z</time>
      </trkpt>
      <trkpt lat="46.56818" lon="0.22566">
        <ele>-35</ele>
        <time>2023-12-03T09:01:34Z</time>
      </trkpt>
      <trkpt lat="46.56818" lon="0.22564">
        <ele>-34.6</ele>
        <time>2023-12-03T09:01:35Z</time>
      </trkpt>
      <trkpt lat="46.56817" lon="0.22555">
        <ele>-33.8</ele>
        <time>2023-12-03T09:01:38Z</time>
      </trkpt>
      <trkpt lat="46.56815" lon="0.22545">
        <ele>-32.8</ele>
        <time>2023-12-03T09:01:42Z</time>
      </trkpt>
      <trkpt lat="46.56815" lon="0.22542">
        <ele>-32.6</ele>
        <time>2023-12-03T09:01:43Z</time>
      </trkpt>
      <trkpt lat="46.56813" lon="0.22518">
        <ele>-31.8</ele>
        <time>2023-12-03T09:01:51Z</time>
      </trkpt>
      <trkpt lat="46.56813" lon="0.22515">
        <ele>-31.8</ele>
        <time>2023-12-03T09:01:52Z</time>
      </trkpt>
      <trkpt lat="46.56813" lon="0.22495">
        <ele>-30.8</ele>
        <time>2023-12-03T09:01:59Z</time>
      </trkpt>
      <trkpt lat="46.56814" lon="0.22492">
        <ele>-30.8</ele>
        <time>2023-12-03T09:02:00Z</time>
      </trkpt>
      <trkpt lat="46.56813" lon="0.22479">
        <ele>-29.6</ele>
        <time>2023-12-03T09:02:06Z</time>
      </trkpt>
      <trkpt lat="46.56813" lon="0.22476">
        <ele>-29.4</ele>
        <time>2023-12-03T09:02:07Z</time>
      </trkpt>
      <trkpt lat="46.56814" lon="0.22466">
        <ele>-28.6</ele>
        <time>2023-12-03T09:02:11Z</time>
      </trkpt>
      <trkpt lat="46.56815" lon="0.22457">
        <ele>-28</ele>
        <time>2023-12-03T09:02:14Z</time>
      </trkpt>
      <trkpt lat="46.56817" lon="0.22448">
        <ele>-27.6</ele>
        <time>2023-12-03T09:02:17Z</time>
      </trkpt>
      <trkpt lat="46.56817" lon="0.22439">
        <ele>-27.2</ele>
        <time>2023-12-03T09:02:20Z</time>
      </trkpt>
      <trkpt lat="46.56819" lon="0.22424">
        <ele>-26.4</ele>
        <time>2023-12-03T09:02:25Z</time>
      </trkpt>
      <trkpt lat="46.56821" lon="0.2242">
        <ele>-26.2</ele>
        <time>2023-12-03T09:02:26Z</time>
      </trkpt>
      <trkpt lat="46.56824" lon="0.22402">
        <ele>-25.6</ele>
        <time>2023-12-03T09:02:32Z</time>
      </trkpt>
      <trkpt lat="46.56825" lon="0.22397">
        <ele>-25.2</ele>
        <time>2023-12-03T09:02:34Z</time>
      </trkpt>
      <trkpt lat="46.56824" lon="0.22386">
        <ele>-24.4</ele>
        <time>2023-12-03T09:02:37Z</time>
      </trkpt>
      <trkpt lat="46.56823" lon="0.22383">
        <ele>-24.2</ele>
        <time>2023-12-03T09:02:38Z</time>
      </trkpt>
      <trkpt lat="46.56817" lon="0.22379">
        <ele>-24</ele>
        <time>2023-12-03T09:02:41Z</time>
      </trkpt>
      <trkpt lat="46.56805" lon="0.2237">
        <ele>-23.6</ele>
        <time>2023-12-03T09:02:47Z</time>
      </trkpt>
      <trkpt lat="46.56804" lon="0.22366">
        <ele>-23.4</ele>
        <time>2023-12-03T09:02:48Z</time>
      </trkpt>
      <trkpt lat="46.56804" lon="0.22362">
        <ele>-23.2</ele>
        <time>2023-12-03T09:02:49Z</time>
      </trkpt>
      <trkpt lat="46.56804" lon="0.2235">
        <ele>-22.8</ele>
        <time>2023-12-03T09:02:52Z</time>
      </trkpt>
      <trkpt lat="46.56807" lon="0.22345">
        <ele>-22.6</ele>
        <time>2023-12-03T09:02:54Z</time>
      </trkpt>
      <trkpt lat="46.56809" lon="0.22336">
        <ele>-22</ele>
        <time>2023-12-03T09:02:57Z</time>
      </trkpt>
      <trkpt lat="46.56811" lon="0.22327">
        <ele>-21.6</ele>
        <time>2023-12-03T09:03:00Z</time>
      </trkpt>
      <trkpt lat="46.56823" lon="0.22309">
        <ele>-22</ele>
        <time>2023-12-03T09:03:06Z</time>
      </trkpt>
      <trkpt lat="46.56835" lon="0.2229">
        <ele>-23.2</ele>
        <time>2023-12-03T09:03:10Z</time>
      </trkpt>
      <trkpt lat="46.56836" lon="0.22286">
        <ele>-23.4</ele>
        <time>2023-12-03T09:03:11Z</time>
      </trkpt>
      <trkpt lat="46.5684" lon="0.22275">
        <ele>-24.2</ele>
        <time>2023-12-03T09:03:15Z</time>
      </trkpt>
      <trkpt lat="46.56841" lon="0.22273">
        <ele>-24</ele>
        <time>2023-12-03T09:03:16Z</time>
      </trkpt>
      <trkpt lat="46.56845" lon="0.22252">
        <ele>-23.2</ele>
        <time>2023-12-03T09:03:24Z</time>
      </trkpt>
      <trkpt lat="46.56845" lon="0.2225">
        <ele>-23</ele>
        <time>2023-12-03T09:03:25Z</time>
      </trkpt>
      <trkpt lat="46.56845" lon="0.22247">
        <ele>-23</ele>
        <time>2023-12-03T09:03:27Z</time>
      </trkpt>
      <trkpt lat="46.56843" lon="0.22243">
        <ele>-22.8</ele>
        <time>2023-12-03T09:03:29Z</time>
      </trkpt>
      <trkpt lat="46.56834" lon="0.22242">
        <ele>-21.8</ele>
        <time>2023-12-03T09:03:34Z</time>
      </trkpt>
      <trkpt lat="46.56821" lon="0.22237">
        <ele>-21</ele>
        <time>2023-12-03T09:03:40Z</time>
      </trkpt>
      <trkpt lat="46.56812" lon="0.22237">
        <ele>-21</ele>
        <time>2023-12-03T09:03:45Z</time>
      </trkpt>
      <trkpt lat="46.56807" lon="0.22237">
        <ele>-20.6</ele>
        <time>2023-12-03T09:03:49Z</time>
      </trkpt>
      <trkpt lat="46.56805" lon="0.22237">
        <ele>-20.4</ele>
        <time>2023-12-03T09:03:50Z</time>
      </trkpt>
      <trkpt lat="46.568" lon="0.22239">
        <ele>-19.4</ele>
        <time>2023-12-03T09:03:55Z</time>
      </trkpt>
      <trkpt lat="46.56797" lon="0.2224">
        <ele>-18.8</ele>
        <time>2023-12-03T09:03:57Z</time>
      </trkpt>
      <trkpt lat="46.56795" lon="0.2224">
        <ele>-18.4</ele>
        <time>2023-12-03T09:03:59Z</time>
      </trkpt>
      <trkpt lat="46.56792" lon="0.22241">
        <ele>-17.8</ele>
        <time>2023-12-03T09:04:01Z</time>
      </trkpt>
      <trkpt lat="46.56788" lon="0.22243">
        <ele>-17.4</ele>
        <time>2023-12-03T09:04:03Z</time>
      </trkpt>
      <trkpt lat="46.56776" lon="0.22244">
        <ele>-16.2</ele>
        <time>2023-12-03T09:04:09Z</time>
      </trkpt>
      <trkpt lat="46.5677" lon="0.22246">
        <ele>-15.8</ele>
        <time>2023-12-03T09:04:11Z</time>
      </trkpt>
      <trkpt lat="46.56763" lon="0.22248">
        <ele>-15</ele>
        <time>2023-12-03T09:04:14Z</time>
      </trkpt>
      <trkpt lat="46.56757" lon="0.22247">
        <ele>-14.8</ele>
        <time>2023-12-03T09:04:16Z</time>
      </trkpt>
      <trkpt lat="46.56747" lon="0.22247">
        <ele>-14</ele>
        <time>2023-12-03T09:04:20Z</time>
      </trkpt>
      <trkpt lat="46.56742" lon="0.22246">
        <ele>-13.8</ele>
        <time>2023-12-03T09:04:22Z</time>
      </trkpt>
      <trkpt lat="46.56732" lon="0.22248">
        <ele>-13</ele>
        <time>2023-12-03T09:04:26Z</time>
      </trkpt>
      <trkpt lat="46.56723" lon="0.2225">
        <ele>-12.4</ele>
        <time>2023-12-03T09:04:30Z</time>
      </trkpt>
      <trkpt lat="46.56719" lon="0.22251">
        <ele>-11.8</ele>
        <time>2023-12-03T09:04:32Z</time>
      </trkpt>
      <trkpt lat="46.56706" lon="0.22256">
        <ele>-10.8</ele>
        <time>2023-12-03T09:04:39Z</time>
      </trkpt>
      <trkpt lat="46.56704" lon="0.22256">
        <ele>-10.4</ele>
        <time>2023-12-03T09:04:40Z</time>
      </trkpt>
      <trkpt lat="46.5669" lon="0.22264">
        <ele>-9.2</ele>
        <time>2023-12-03T09:04:47Z</time>
      </trkpt>
      <trkpt lat="46.56678" lon="0.22272">
        <ele>-8</ele>
        <time>2023-12-03T09:04:53Z</time>
      </trkpt>
      <trkpt lat="46.56666" lon="0.22282">
        <ele>-7.4</ele>
        <time>2023-12-03T09:04:59Z</time>
      </trkpt>
      <trkpt lat="46.56664" lon="0.22283">
        <ele>-7</ele>
        <time>2023-12-03T09:05:00Z</time>
      </trkpt>
      <trkpt lat="46.56653" lon="0.22292">
        <ele>-6</ele>
        <time>2023-12-03T09:05:04Z</time>
      </trkpt>
      <trkpt lat="46.56646" lon="0.22298">
        <ele>-5.6</ele>
        <time>2023-12-03T09:05:07Z</time>
      </trkpt>
      <trkpt lat="46.56642" lon="0.22302">
        <ele>-5.6</ele>
        <time>2023-12-03T09:05:09Z</time>
      </trkpt>
      <trkpt lat="46.56631" lon="0.22307">
        <ele>-5.4</ele>
        <time>2023-12-03T09:05:13Z</time>
      </trkpt>
      <trkpt lat="46.56612" lon="0.22311">
        <ele>-5.4</ele>
        <time>2023-12-03T09:05:21Z</time>
      </trkpt>
      <trkpt lat="46.56594" lon="0.22311">
        <ele>-5.2</ele>
        <time>2023-12-03T09:05:27Z</time>
      </trkpt>
      <trkpt lat="46.56591" lon="0.22311">
        <ele>-5</ele>
        <time>2023-12-03T09:05:28Z</time>
      </trkpt>
      <trkpt lat="46.56574" lon="0.2231">
        <ele>-4.2</ele>
        <time>2023-12-03T09:05:33Z</time>
      </trkpt>
      <trkpt lat="46.56568" lon="0.2231">
        <ele>-3.8</ele>
        <time>2023-12-03T09:05:35Z</time>
      </trkpt>
      <trkpt lat="46.56552" lon="0.22308">
        <ele>-3.2</ele>
        <time>2023-12-03T09:05:40Z</time>
      </trkpt>
      <trkpt lat="46.56543" lon="0.22306">
        <ele>-2.6</ele>
        <time>2023-12-03T09:05:43Z</time>
      </trkpt>
      <trkpt lat="46.56535" lon="0.22306">
        <ele>-2</ele>
        <time>2023-12-03T09:05:46Z</time>
      </trkpt>
      <trkpt lat="46.56529" lon="0.22305">
        <ele>-1.6</ele>
        <time>2023-12-03T09:05:48Z</time>
      </trkpt>
      <trkpt lat="46.56517" lon="0.22306">
        <ele>-1</ele>
        <time>2023-12-03T09:05:52Z</time>
      </trkpt>
      <trkpt lat="46.56505" lon="0.22306">
        <ele>-0.6</ele>
        <time>2023-12-03T09:05:56Z</time>
      </trkpt>
      <trkpt lat="46.56491" lon="0.22305">
        <ele>0.2</ele>
        <time>2023-12-03T09:06:01Z</time>
      </trkpt>
      <trkpt lat="46.56478" lon="0.22307">
        <ele>0.6</ele>
        <time>2023-12-03T09:06:04Z</time>
      </trkpt>
      <trkpt lat="46.56474" lon="0.2231">
        <ele>0.8</ele>
        <time>2023-12-03T09:06:06Z</time>
      </trkpt>
      <trkpt lat="46.56463" lon="0.22322">
        <ele>1</ele>
        <time>2023-12-03T09:06:12Z</time>
      </trkpt>
      <trkpt lat="46.56452" lon="0.22347">
        <ele>1.4</ele>
        <time>2023-12-03T09:06:18Z</time>
      </trkpt>
      <trkpt lat="46.56437" lon="0.22391">
        <ele>0.6</ele>
        <time>2023-12-03T09:06:25Z</time>
      </trkpt>
      <trkpt lat="46.5643" lon="0.2242">
        <ele>0.2</ele>
        <time>2023-12-03T09:06:29Z</time>
      </trkpt>
      <trkpt lat="46.56429" lon="0.22434">
        <ele>132.9</ele>
        <time>2023-12-03T09:06:31Z</time>
      </trkpt>
      <trkpt lat="46.5643" lon="0.22472">
        <ele>0.2</ele>
        <time>2023-12-03T09:06:37Z</time>
      </trkpt>
      <trkpt lat="46.56431" lon="0.22484">
        <ele>0.2</ele>
        <time>2023-12-03T09:06:39Z</time>
      </trkpt>
      <trkpt lat="46.56432" lon="0.22508">
        <ele>0.4</ele>
        <time>2023-12-03T09:06:44Z</time>
      </trkpt>
      <trkpt lat="46.5643" lon="0.22538">
        <ele>1.6</ele>
        <time>2023-12-03T09:06:50Z</time>
      </trkpt>
      <trkpt lat="46.5643" lon="0.22543">
        <ele>1.8</ele>
        <time>2023-12-03T09:06:51Z</time>
      </trkpt>
      <trkpt lat="46.56423" lon="0.22569">
        <ele>3</ele>
        <time>2023-12-03T09:06:56Z</time>
      </trkpt>
      <trkpt lat="46.5642" lon="0.22574">
        <ele>3.2</ele>
        <time>2023-12-03T09:06:57Z</time>
      </trkpt>
      <trkpt lat="46.56411" lon="0.2259">
        <ele>4.2</ele>
        <time>2023-12-03T09:07:01Z</time>
      </trkpt>
      <trkpt lat="46.56405" lon="0.22604">
        <ele>4.6</ele>
        <time>2023-12-03T09:07:04Z</time>
      </trkpt>
      <trkpt lat="46.56387" lon="0.22638">
        <ele>5</ele>
        <time>2023-12-03T09:07:12Z</time>
      </trkpt>
      <trkpt lat="46.56381" lon="0.22649">
        <ele>5.2</ele>
        <time>2023-12-03T09:07:15Z</time>
      </trkpt>
      <trkpt lat="46.56371" lon="0.22667">
        <ele>6.2</ele>
        <time>2023-12-03T09:07:20Z</time>
      </trkpt>
      <trkpt lat="46.56369" lon="0.22671">
        <ele>6.4</ele>
        <time>2023-12-03T09:07:21Z</time>
      </trkpt>
      <trkpt lat="46.56355" lon="0.22696">
        <ele>7.2</ele>
        <time>2023-12-03T09:07:27Z</time>
      </trkpt>
      <trkpt lat="46.56352" lon="0.22701">
        <ele>7.4</ele>
        <time>2023-12-03T09:07:28Z</time>
      </trkpt>
      <trkpt lat="46.56337" lon="0.22727">
        <ele>8</ele>
        <time>2023-12-03T09:07:34Z</time>
      </trkpt>
      <trkpt lat="46.56332" lon="0.22737">
        <ele>8.6</ele>
        <time>2023-12-03T09:07:36Z</time>
      </trkpt>
      <trkpt lat="46.56314" lon="0.22769">
        <ele>9</ele>
        <time>2023-12-03T09:07:42Z</time>
      </trkpt>
      <trkpt lat="46.56295" lon="0.22802">
        <ele>9.8</ele>
        <time>2023-12-03T09:07:48Z</time>
      </trkpt>
      <trkpt lat="46.56292" lon="0.22807">
        <ele>9.8</ele>
        <time>2023-12-03T09:07:49Z</time>
      </trkpt>
      <trkpt lat="46.56285" lon="0.22821">
        <ele>9.6</ele>
        <time>2023-12-03T09:07:52Z</time>
      </trkpt>
      <trkpt lat="46.56279" lon="0.22832">
        <ele>9.6</ele>
        <time>2023-12-03T09:07:54Z</time>
      </trkpt>
      <trkpt lat="46.56256" lon="0.22869">
        <ele>9.8</ele>
        <time>2023-12-03T09:08:01Z</time>
      </trkpt>
      <trkpt lat="46.56248" lon="0.22872">
        <ele>9.6</ele>
        <time>2023-12-03T09:08:03Z</time>
      </trkpt>
      <trkpt lat="46.56244" lon="0.22872">
        <ele>9.8</ele>
        <time>2023-12-03T09:08:04Z</time>
      </trkpt>
      <trkpt lat="46.56217" lon="0.22862">
        <ele>9.8</ele>
        <time>2023-12-03T09:08:10Z</time>
      </trkpt>
      <trkpt lat="46.56173" lon="0.22847">
        <ele>9.8</ele>
        <time>2023-12-03T09:08:18Z</time>
      </trkpt>
      <trkpt lat="46.56118" lon="0.22823">
        <ele>9.2</ele>
        <time>2023-12-03T09:08:28Z</time>
      </trkpt>
      <trkpt lat="46.56075" lon="0.22806">
        <ele>9.6</ele>
        <time>2023-12-03T09:08:36Z</time>
      </trkpt>
      <trkpt lat="46.56033" lon="0.22789">
        <ele>9.6</ele>
        <time>2023-12-03T09:08:44Z</time>
      </trkpt>
      <trkpt lat="46.55994" lon="0.22772">
        <ele>10</ele>
        <time>2023-12-03T09:08:51Z</time>
      </trkpt>
      <trkpt lat="46.55953" lon="0.22754">
        <ele>9.8</ele>
        <time>2023-12-03T09:08:58Z</time>
      </trkpt>
      <trkpt lat="46.55911" lon="0.22736">
        <ele>9.6</ele>
        <time>2023-12-03T09:09:05Z</time>
      </trkpt>
      <trkpt lat="46.55888" lon="0.22727">
        <ele>10</ele>
        <time>2023-12-03T09:09:10Z</time>
      </trkpt>
      <trkpt lat="46.55884" lon="0.22726">
        <ele>10.2</ele>
        <time>2023-12-03T09:09:11Z</time>
      </trkpt>
      <trkpt lat="46.55856" lon="0.22718">
        <ele>10.4</ele>
        <time>2023-12-03T09:09:17Z</time>
      </trkpt>
      <trkpt lat="46.55847" lon="0.22714">
        <ele>10.6</ele>
        <time>2023-12-03T09:09:19Z</time>
      </trkpt>
      <trkpt lat="46.55844" lon="0.22711">
        <ele>10.8</ele>
        <time>2023-12-03T09:09:20Z</time>
      </trkpt>
      <trkpt lat="46.5584" lon="0.22708">
        <ele>11</ele>
        <time>2023-12-03T09:09:21Z</time>
      </trkpt>
      <trkpt lat="46.55836" lon="0.22706">
        <ele>11.2</ele>
        <time>2023-12-03T09:09:22Z</time>
      </trkpt>
      <trkpt lat="46.55833" lon="0.22703">
        <ele>11.6</ele>
        <time>2023-12-03T09:09:23Z</time>
      </trkpt>
      <trkpt lat="46.5583" lon="0.22699">
        <ele>11.8</ele>
        <time>2023-12-03T09:09:24Z</time>
      </trkpt>
      <trkpt lat="46.55824" lon="0.2269">
        <ele>11.8</ele>
        <time>2023-12-03T09:09:26Z</time>
      </trkpt>
      <trkpt lat="46.55818" lon="0.22681">
        <ele>11.8</ele>
        <time>2023-12-03T09:09:28Z</time>
      </trkpt>
      <trkpt lat="46.55803" lon="0.22666">
        <ele>11.2</ele>
        <time>2023-12-03T09:09:32Z</time>
      </trkpt>
      <trkpt lat="46.55782" lon="0.22646">
        <ele>11.4</ele>
        <time>2023-12-03T09:09:38Z</time>
      </trkpt>
      <trkpt lat="46.55755" lon="0.22625">
        <ele>12</ele>
        <time>2023-12-03T09:09:45Z</time>
      </trkpt>
      <trkpt lat="46.55725" lon="0.22599">
        <ele>12.2</ele>
        <time>2023-12-03T09:09:53Z</time>
      </trkpt>
      <trkpt lat="46.55698" lon="0.22574">
        <ele>12</ele>
        <time>2023-12-03T09:10:00Z</time>
      </trkpt>
      <trkpt lat="46.55665" lon="0.22546">
        <ele>12.2</ele>
        <time>2023-12-03T09:10:08Z</time>
      </trkpt>
      <trkpt lat="46.55638" lon="0.22518">
        <ele>12</ele>
        <time>2023-12-03T09:10:15Z</time>
      </trkpt>
      <trkpt lat="46.55612" lon="0.22484">
        <ele>11.6</ele>
        <time>2023-12-03T09:10:22Z</time>
      </trkpt>
      <trkpt lat="46.55587" lon="0.22448">
        <ele>11.4</ele>
        <time>2023-12-03T09:10:29Z</time>
      </trkpt>
      <trkpt lat="46.55573" lon="0.22418">
        <ele>10.6</ele>
        <time>2023-12-03T09:10:34Z</time>
      </trkpt>
      <trkpt lat="46.55571" lon="0.22412">
        <ele>10.6</ele>
        <time>2023-12-03T09:10:35Z</time>
      </trkpt>
      <trkpt lat="46.55564" lon="0.22389">
        <ele>10.4</ele>
        <time>2023-12-03T09:10:39Z</time>
      </trkpt>
      <trkpt lat="46.5556" lon="0.2237">
        <ele>10.2</ele>
        <time>2023-12-03T09:10:42Z</time>
      </trkpt>
      <trkpt lat="46.55559" lon="0.22363">
        <ele>10</ele>
        <time>2023-12-03T09:10:43Z</time>
      </trkpt>
      <trkpt lat="46.55553" lon="0.22329">
        <ele>9.8</ele>
        <time>2023-12-03T09:10:48Z</time>
      </trkpt>
      <trkpt lat="46.55549" lon="0.22316">
        <ele>9.8</ele>
        <time>2023-12-03T09:10:50Z</time>
      </trkpt>
      <trkpt lat="46.55544" lon="0.22299">
        <ele>9.6</ele>
        <time>2023-12-03T09:10:53Z</time>
      </trkpt>
      <trkpt lat="46.55542" lon="0.22294">
        <ele>9.6</ele>
        <time>2023-12-03T09:10:54Z</time>
      </trkpt>
      <trkpt lat="46.55538" lon="0.22282">
        <ele>9.4</ele>
        <time>2023-12-03T09:10:56Z</time>
      </trkpt>
      <trkpt lat="46.5553" lon="0.22264">
        <ele>9.2</ele>
        <time>2023-12-03T09:11:00Z</time>
      </trkpt>
      <trkpt lat="46.55518" lon="0.22242">
        <ele>9.8</ele>
        <time>2023-12-03T09:11:04Z</time>
      </trkpt>
      <trkpt lat="46.55515" lon="0.22236">
        <ele>9.8</ele>
        <time>2023-12-03T09:11:05Z</time>
      </trkpt>
      <trkpt lat="46.555" lon="0.22206">
        <ele>10.2</ele>
        <time>2023-12-03T09:11:10Z</time>
      </trkpt>
      <trkpt lat="46.55488" lon="0.22177">
        <ele>10.8</ele>
        <time>2023-12-03T09:11:15Z</time>
      </trkpt>
      <trkpt lat="46.55485" lon="0.22167">
        <ele>11</ele>
        <time>2023-12-03T09:11:17Z</time>
      </trkpt>
      <trkpt lat="46.55482" lon="0.22155">
        <ele>11</ele>
        <time>2023-12-03T09:11:19Z</time>
      </trkpt>
      <trkpt lat="46.55477" lon="0.2214">
        <ele>11</ele>
        <time>2023-12-03T09:11:22Z</time>
      </trkpt>
      <trkpt lat="46.55476" lon="0.22135">
        <ele>11.2</ele>
        <time>2023-12-03T09:11:23Z</time>
      </trkpt>
      <trkpt lat="46.55469" lon="0.22112">
        <ele>11.6</ele>
        <time>2023-12-03T09:11:27Z</time>
      </trkpt>
      <trkpt lat="46.55466" lon="0.22107">
        <ele>11.6</ele>
        <time>2023-12-03T09:11:28Z</time>
      </trkpt>
      <trkpt lat="46.55464" lon="0.22103">
        <ele>11.6</ele>
        <time>2023-12-03T09:11:29Z</time>
      </trkpt>
      <trkpt lat="46.55458" lon="0.22095">
        <ele>11.8</ele>
        <time>2023-12-03T09:11:31Z</time>
      </trkpt>
      <trkpt lat="46.55456" lon="0.22091">
        <ele>11.6</ele>
        <time>2023-12-03T09:11:32Z</time>
      </trkpt>
      <trkpt lat="46.5545" lon="0.22081">
        <ele>11.8</ele>
        <time>2023-12-03T09:11:34Z</time>
      </trkpt>
      <trkpt lat="46.55445" lon="0.22071">
        <ele>11.8</ele>
        <time>2023-12-03T09:11:36Z</time>
      </trkpt>
      <trkpt lat="46.55438" lon="0.22057">
        <ele>11.8</ele>
        <time>2023-12-03T09:11:39Z</time>
      </trkpt>
      <trkpt lat="46.55437" lon="0.22053">
        <ele>11.8</ele>
        <time>2023-12-03T09:11:40Z</time>
      </trkpt>
      <trkpt lat="46.55421" lon="0.22022">
        <ele>12.2</ele>
        <time>2023-12-03T09:11:46Z</time>
      </trkpt>
      <trkpt lat="46.55403" lon="0.21989">
        <ele>12</ele>
        <time>2023-12-03T09:11:52Z</time>
      </trkpt>
      <trkpt lat="46.55375" lon="0.21942">
        <ele>11.2</ele>
        <time>2023-12-03T09:11:59Z</time>
      </trkpt>
      <trkpt lat="46.55361" lon="0.21923">
        <ele>10.6</ele>
        <time>2023-12-03T09:12:02Z</time>
      </trkpt>
      <trkpt lat="46.55343" lon="0.21898">
        <ele>10.4</ele>
        <time>2023-12-03T09:12:06Z</time>
      </trkpt>
      <trkpt lat="46.55326" lon="0.21875">
        <ele>9.6</ele>
        <time>2023-12-03T09:12:10Z</time>
      </trkpt>
      <trkpt lat="46.55323" lon="0.2187">
        <ele>9.4</ele>
        <time>2023-12-03T09:12:11Z</time>
      </trkpt>
      <trkpt lat="46.5532" lon="0.21859">
        <ele>9.2</ele>
        <time>2023-12-03T09:12:13Z</time>
      </trkpt>
      <trkpt lat="46.55321" lon="0.2185">
        <ele>9</ele>
        <time>2023-12-03T09:12:15Z</time>
      </trkpt>
      <trkpt lat="46.55323" lon="0.21833">
        <ele>9</ele>
        <time>2023-12-03T09:12:18Z</time>
      </trkpt>
      <trkpt lat="46.55323" lon="0.21826">
        <ele>9</ele>
        <time>2023-12-03T09:12:19Z</time>
      </trkpt>
      <trkpt lat="46.55321" lon="0.21819">
        <ele>9.2</ele>
        <time>2023-12-03T09:12:20Z</time>
      </trkpt>
      <trkpt lat="46.55313" lon="0.21797">
        <ele>8.8</ele>
        <time>2023-12-03T09:12:23Z</time>
      </trkpt>
      <trkpt lat="46.55307" lon="0.21783">
        <ele>8.4</ele>
        <time>2023-12-03T09:12:25Z</time>
      </trkpt>
      <trkpt lat="46.55292" lon="0.21745">
        <ele>7.6</ele>
        <time>2023-12-03T09:12:30Z</time>
      </trkpt>
      <trkpt lat="46.55286" lon="0.2173">
        <ele>7.2</ele>
        <time>2023-12-03T09:12:32Z</time>
      </trkpt>
      <trkpt lat="46.55274" lon="0.21702">
        <ele>6.8</ele>
        <time>2023-12-03T09:12:36Z</time>
      </trkpt>
      <trkpt lat="46.55265" lon="0.21682">
        <ele>6.2</ele>
        <time>2023-12-03T09:12:39Z</time>
      </trkpt>
      <trkpt lat="46.55253" lon="0.21655">
        <ele>5.8</ele>
        <time>2023-12-03T09:12:43Z</time>
      </trkpt>
      <trkpt lat="46.55243" lon="0.21632">
        <ele>5</ele>
        <time>2023-12-03T09:12:46Z</time>
      </trkpt>
      <trkpt lat="46.55232" lon="0.2161">
        <ele>4.6</ele>
        <time>2023-12-03T09:12:49Z</time>
      </trkpt>
      <trkpt lat="46.55229" lon="0.21603">
        <ele>4.6</ele>
        <time>2023-12-03T09:12:50Z</time>
      </trkpt>
      <trkpt lat="46.55226" lon="0.21587">
        <ele>4.2</ele>
        <time>2023-12-03T09:12:52Z</time>
      </trkpt>
      <trkpt lat="46.55225" lon="0.21579">
        <ele>3.8</ele>
        <time>2023-12-03T09:12:53Z</time>
      </trkpt>
      <trkpt lat="46.55221" lon="0.21551">
        <ele>2.6</ele>
        <time>2023-12-03T09:12:56Z</time>
      </trkpt>
      <trkpt lat="46.55219" lon="0.21542">
        <ele>2.4</ele>
        <time>2023-12-03T09:12:57Z</time>
      </trkpt>
      <trkpt lat="46.55215" lon="0.21535">
        <ele>1.8</ele>
        <time>2023-12-03T09:12:58Z</time>
      </trkpt>
      <trkpt lat="46.55211" lon="0.21526">
        <ele>1.4</ele>
        <time>2023-12-03T09:12:59Z</time>
      </trkpt>
      <trkpt lat="46.55201" lon="0.21511">
        <ele>0.6</ele>
        <time>2023-12-03T09:13:01Z</time>
      </trkpt>
      <trkpt lat="46.55198" lon="0.21504">
        <ele>0.4</ele>
        <time>2023-12-03T09:13:02Z</time>
      </trkpt>
      <trkpt lat="46.55196" lon="0.21496">
        <ele>134.2</ele>
        <time>2023-12-03T09:13:03Z</time>
      </trkpt>
      <trkpt lat="46.55192" lon="0.21467">
        <ele>-0.2</ele>
        <time>2023-12-03T09:13:06Z</time>
      </trkpt>
      <trkpt lat="46.55186" lon="0.21429">
        <ele>-0.8</ele>
        <time>2023-12-03T09:13:10Z</time>
      </trkpt>
      <trkpt lat="46.55183" lon="0.214">
        <ele>-1.4</ele>
        <time>2023-12-03T09:13:13Z</time>
      </trkpt>
      <trkpt lat="46.55182" lon="0.2138">
        <ele>-2</ele>
        <time>2023-12-03T09:13:15Z</time>
      </trkpt>
      <trkpt lat="46.55184" lon="0.2135">
        <ele>-3.4</ele>
        <time>2023-12-03T09:13:18Z</time>
      </trkpt>
      <trkpt lat="46.55188" lon="0.21331">
        <ele>-4</ele>
        <time>2023-12-03T09:13:20Z</time>
      </trkpt>
      <trkpt lat="46.55191" lon="0.2132">
        <ele>-4.4</ele>
        <time>2023-12-03T09:13:21Z</time>
      </trkpt>
      <trkpt lat="46.55194" lon="0.21309">
        <ele>-4.6</ele>
        <time>2023-12-03T09:13:22Z</time>
      </trkpt>
      <trkpt lat="46.55199" lon="0.21289">
        <ele>-5.6</ele>
        <time>2023-12-03T09:13:24Z</time>
      </trkpt>
      <trkpt lat="46.55201" lon="0.21278">
        <ele>-6</ele>
        <time>2023-12-03T09:13:25Z</time>
      </trkpt>
      <trkpt lat="46.55202" lon="0.21257">
        <ele>-6.6</ele>
        <time>2023-12-03T09:13:27Z</time>
      </trkpt>
      <trkpt lat="46.55204" lon="0.21226">
        <ele>-8</ele>
        <time>2023-12-03T09:13:30Z</time>
      </trkpt>
      <trkpt lat="46.55205" lon="0.21208">
        <ele>-9.2</ele>
        <time>2023-12-03T09:13:32Z</time>
      </trkpt>
      <trkpt lat="46.55205" lon="0.212">
        <ele>-10</ele>
        <time>2023-12-03T09:13:33Z</time>
      </trkpt>
      <trkpt lat="46.55205" lon="0.21193">
        <ele>-10.6</ele>
        <time>2023-12-03T09:13:34Z</time>
      </trkpt>
      <trkpt lat="46.55206" lon="0.21182">
        <ele>-11.4</ele>
        <time>2023-12-03T09:13:36Z</time>
      </trkpt>
      <trkpt lat="46.55206" lon="0.21177">
        <ele>-12.2</ele>
        <time>2023-12-03T09:13:37Z</time>
      </trkpt>
      <trkpt lat="46.55208" lon="0.21171">
        <ele>-13.4</ele>
        <time>2023-12-03T09:13:39Z</time>
      </trkpt>
      <trkpt lat="46.55209" lon="0.21163">
        <ele>-14.6</ele>
        <time>2023-12-03T09:13:42Z</time>
      </trkpt>
      <trkpt lat="46.55211" lon="0.21146">
        <ele>-15.2</ele>
        <time>2023-12-03T09:13:45Z</time>
      </trkpt>
      <trkpt lat="46.55211" lon="0.21139">
        <ele>-15.4</ele>
        <time>2023-12-03T09:13:46Z</time>
      </trkpt>
      <trkpt lat="46.5521" lon="0.21132">
        <ele>-15.4</ele>
        <time>2023-12-03T09:13:47Z</time>
      </trkpt>
      <trkpt lat="46.5521" lon="0.21114">
        <ele>-15.8</ele>
        <time>2023-12-03T09:13:49Z</time>
      </trkpt>
      <trkpt lat="46.55209" lon="0.21105">
        <ele>-15.8</ele>
        <time>2023-12-03T09:13:50Z</time>
      </trkpt>
      <trkpt lat="46.552" lon="0.21065">
        <ele>-16.2</ele>
        <time>2023-12-03T09:13:55Z</time>
      </trkpt>
      <trkpt lat="46.552" lon="0.21052">
        <ele>-16.6</ele>
        <time>2023-12-03T09:13:57Z</time>
      </trkpt>
      <trkpt lat="46.552" lon="0.21045">
        <ele>-17</ele>
        <time>2023-12-03T09:13:58Z</time>
      </trkpt>
      <trkpt lat="46.55202" lon="0.2104">
        <ele>-17.2</ele>
        <time>2023-12-03T09:13:59Z</time>
      </trkpt>
      <trkpt lat="46.5522" lon="0.21025">
        <ele>-17</ele>
        <time>2023-12-03T09:14:06Z</time>
      </trkpt>
      <trkpt lat="46.55238" lon="0.21017">
        <ele>-16.4</ele>
        <time>2023-12-03T09:14:12Z</time>
      </trkpt>
      <trkpt lat="46.55254" lon="0.21006">
        <ele>-16</ele>
        <time>2023-12-03T09:14:17Z</time>
      </trkpt>
      <trkpt lat="46.55258" lon="0.21002">
        <ele>-15.8</ele>
        <time>2023-12-03T09:14:19Z</time>
      </trkpt>
      <trkpt lat="46.55261" lon="0.20998">
        <ele>-15.6</ele>
        <time>2023-12-03T09:14:22Z</time>
      </trkpt>
      <trkpt lat="46.55264" lon="0.20996">
        <ele>-15.4</ele>
        <time>2023-12-03T09:14:24Z</time>
      </trkpt>
      <trkpt lat="46.55269" lon="0.20994">
        <ele>-15.4</ele>
        <time>2023-12-03T09:14:27Z</time>
      </trkpt>
      <trkpt lat="46.5527" lon="0.20993">
        <ele>-15.4</ele>
        <time>2023-12-03T09:14:28Z</time>
      </trkpt>
      <trkpt lat="46.55275" lon="0.20986">
        <ele>-15.2</ele>
        <time>2023-12-03T09:14:32Z</time>
      </trkpt>
      <trkpt lat="46.55278" lon="0.20978">
        <ele>-14.6</ele>
        <time>2023-12-03T09:14:35Z</time>
      </trkpt>
      <trkpt lat="46.5528" lon="0.20975">
        <ele>-14</ele>
        <time>2023-12-03T09:14:36Z</time>
      </trkpt>
      <trkpt lat="46.55279" lon="0.20971">
        <ele>-13.2</ele>
        <time>2023-12-03T09:14:39Z</time>
      </trkpt>
      <trkpt lat="46.5528" lon="0.2097">
        <ele>-13.2</ele>
        <time>2023-12-03T09:14:40Z</time>
      </trkpt>
      <trkpt lat="46.5528" lon="0.20967">
        <ele>-13</ele>
        <time>2023-12-03T09:14:41Z</time>
      </trkpt>
      <trkpt lat="46.55282" lon="0.20961">
        <ele>-12</ele>
        <time>2023-12-03T09:14:44Z</time>
      </trkpt>
      <trkpt lat="46.55284" lon="0.20951">
        <ele>-10.8</ele>
        <time>2023-12-03T09:14:47Z</time>
      </trkpt>
      <trkpt lat="46.55285" lon="0.20947">
        <ele>-10.6</ele>
        <time>2023-12-03T09:14:48Z</time>
      </trkpt>
      <trkpt lat="46.55285" lon="0.20938">
        <ele>-9.8</ele>
        <time>2023-12-03T09:14:52Z</time>
      </trkpt>
      <trkpt lat="46.55284" lon="0.20934">
        <ele>-9.2</ele>
        <time>2023-12-03T09:14:53Z</time>
      </trkpt>
      <trkpt lat="46.55285" lon="0.2093">
        <ele>-9</ele>
        <time>2023-12-03T09:14:54Z</time>
      </trkpt>
      <trkpt lat="46.55289" lon="0.20924">
        <ele>-8.6</ele>
        <time>2023-12-03T09:14:56Z</time>
      </trkpt>
      <trkpt lat="46.55291" lon="0.2092">
        <ele>-8.2</ele>
        <time>2023-12-03T09:14:57Z</time>
      </trkpt>
      <trkpt lat="46.55292" lon="0.20914">
        <ele>-8</ele>
        <time>2023-12-03T09:14:59Z</time>
      </trkpt>
      <trkpt lat="46.55291" lon="0.2091">
        <ele>-7.6</ele>
        <time>2023-12-03T09:15:01Z</time>
      </trkpt>
      <trkpt lat="46.5529" lon="0.20902">
        <ele>-7.4</ele>
        <time>2023-12-03T09:15:04Z</time>
      </trkpt>
      <trkpt lat="46.55292" lon="0.20892">
        <ele>-6.8</ele>
        <time>2023-12-03T09:15:07Z</time>
      </trkpt>
      <trkpt lat="46.55297" lon="0.20876">
        <ele>-6.8</ele>
        <time>2023-12-03T09:15:12Z</time>
      </trkpt>
      <trkpt lat="46.55302" lon="0.20855">
        <ele>-8</ele>
        <time>2023-12-03T09:15:17Z</time>
      </trkpt>
      <trkpt lat="46.55304" lon="0.20852">
        <ele>-8.2</ele>
        <time>2023-12-03T09:15:18Z</time>
      </trkpt>
      <trkpt lat="46.55305" lon="0.20848">
        <ele>-8.6</ele>
        <time>2023-12-03T09:15:19Z</time>
      </trkpt>
      <trkpt lat="46.55308" lon="0.20833">
        <ele>-9.2</ele>
        <time>2023-12-03T09:15:23Z</time>
      </trkpt>
      <trkpt lat="46.55306" lon="0.20828">
        <ele>-9.2</ele>
        <time>2023-12-03T09:15:25Z</time>
      </trkpt>
      <trkpt lat="46.55308" lon="0.2082">
        <ele>-9.2</ele>
        <time>2023-12-03T09:15:27Z</time>
      </trkpt>
      <trkpt lat="46.55309" lon="0.20817">
        <ele>-9.2</ele>
        <time>2023-12-03T09:15:28Z</time>
      </trkpt>
      <trkpt lat="46.55311" lon="0.20812">
        <ele>-9.8</ele>
        <time>2023-12-03T09:15:29Z</time>
      </trkpt>
      <trkpt lat="46.5532" lon="0.20782">
        <ele>-10.6</ele>
        <time>2023-12-03T09:15:34Z</time>
      </trkpt>
      <trkpt lat="46.55322" lon="0.20759">
        <ele>-10.8</ele>
        <time>2023-12-03T09:15:37Z</time>
      </trkpt>
      <trkpt lat="46.55326" lon="0.20742">
        <ele>-11</ele>
        <time>2023-12-03T09:15:40Z</time>
      </trkpt>
      <trkpt lat="46.55327" lon="0.20737">
        <ele>-10.6</ele>
        <time>2023-12-03T09:15:41Z</time>
      </trkpt>
      <trkpt lat="46.55327" lon="0.20721">
        <ele>-9.8</ele>
        <time>2023-12-03T09:15:45Z</time>
      </trkpt>
      <trkpt lat="46.55327" lon="0.20718">
        <ele>-9.8</ele>
        <time>2023-12-03T09:15:46Z</time>
      </trkpt>
      <trkpt lat="46.55327" lon="0.20715">
        <ele>-9.8</ele>
        <time>2023-12-03T09:15:47Z</time>
      </trkpt>
      <trkpt lat="46.55326" lon="0.20703">
        <ele>-8.8</ele>
        <time>2023-12-03T09:15:50Z</time>
      </trkpt>
      <trkpt lat="46.55327" lon="0.207">
        <ele>-8.4</ele>
        <time>2023-12-03T09:15:51Z</time>
      </trkpt>
      <trkpt lat="46.55331" lon="0.2069">
        <ele>-8.2</ele>
        <time>2023-12-03T09:15:54Z</time>
      </trkpt>
      <trkpt lat="46.55332" lon="0.20681">
        <ele>-7.8</ele>
        <time>2023-12-03T09:15:58Z</time>
      </trkpt>
      <trkpt lat="46.55332" lon="0.20677">
        <ele>-7.8</ele>
        <time>2023-12-03T09:15:59Z</time>
      </trkpt>
      <trkpt lat="46.55332" lon="0.20672">
        <ele>-7.6</ele>
        <time>2023-12-03T09:16:00Z</time>
      </trkpt>
      <trkpt lat="46.55332" lon="0.20653">
        <ele>-6.4</ele>
        <time>2023-12-03T09:16:05Z</time>
      </trkpt>
      <trkpt lat="46.55332" lon="0.20649">
        <ele>-6.2</ele>
        <time>2023-12-03T09:16:06Z</time>
      </trkpt>
      <trkpt lat="46.55333" lon="0.20639">
        <ele>-5.8</ele>
        <time>2023-12-03T09:16:09Z</time>
      </trkpt>
      <trkpt lat="46.55337" lon="0.20627">
        <ele>-5.8</ele>
        <time>2023-12-03T09:16:12Z</time>
      </trkpt>
      <trkpt lat="46.55339" lon="0.2061">
        <ele>-6</ele>
        <time>2023-12-03T09:16:17Z</time>
      </trkpt>
      <trkpt lat="46.55341" lon="0.20603">
        <ele>-5.8</ele>
        <time>2023-12-03T09:16:19Z</time>
      </trkpt>
      <trkpt lat="46.55341" lon="0.20591">
        <ele>-5.6</ele>
        <time>2023-12-03T09:16:22Z</time>
      </trkpt>
      <trkpt lat="46.5534" lon="0.20588">
        <ele>-5.6</ele>
        <time>2023-12-03T09:16:23Z</time>
      </trkpt>
      <trkpt lat="46.55338" lon="0.20577">
        <ele>-5.8</ele>
        <time>2023-12-03T09:16:27Z</time>
      </trkpt>
      <trkpt lat="46.55334" lon="0.20555">
        <ele>-5.6</ele>
        <time>2023-12-03T09:16:33Z</time>
      </trkpt>
      <trkpt lat="46.55332" lon="0.20547">
        <ele>-5.4</ele>
        <time>2023-12-03T09:16:35Z</time>
      </trkpt>
      <trkpt lat="46.55329" lon="0.20537">
        <ele>-5.2</ele>
        <time>2023-12-03T09:16:38Z</time>
      </trkpt>
      <trkpt lat="46.55329" lon="0.20534">
        <ele>-5.2</ele>
        <time>2023-12-03T09:16:39Z</time>
      </trkpt>
      <trkpt lat="46.55332" lon="0.20511">
        <ele>-5.6</ele>
        <time>2023-12-03T09:16:45Z</time>
      </trkpt>
      <trkpt lat="46.55332" lon="0.20506">
        <ele>-7</ele>
        <time>2023-12-03T09:16:46Z</time>
      </trkpt>
      <trkpt lat="46.55332" lon="0.20497">
        <ele>-8</ele>
        <time>2023-12-03T09:16:48Z</time>
      </trkpt>
      <trkpt lat="46.55333" lon="0.20488">
        <ele>-9.4</ele>
        <time>2023-12-03T09:16:50Z</time>
      </trkpt>
      <trkpt lat="46.55333" lon="0.20483">
        <ele>-10</ele>
        <time>2023-12-03T09:16:51Z</time>
      </trkpt>
      <trkpt lat="46.55334" lon="0.20478">
        <ele>-11.4</ele>
        <time>2023-12-03T09:16:52Z</time>
      </trkpt>
      <trkpt lat="46.55335" lon="0.20474">
        <ele>-12.4</ele>
        <time>2023-12-03T09:16:53Z</time>
      </trkpt>
      <trkpt lat="46.55338" lon="0.20466">
        <ele>-14</ele>
        <time>2023-12-03T09:16:55Z</time>
      </trkpt>
      <trkpt lat="46.55339" lon="0.20463">
        <ele>-15.2</ele>
        <time>2023-12-03T09:16:56Z</time>
      </trkpt>
      <trkpt lat="46.55341" lon="0.20454">
        <ele>-16.2</ele>
        <time>2023-12-03T09:16:58Z</time>
      </trkpt>
      <trkpt lat="46.55344" lon="0.20452">
        <ele>-16.8</ele>
        <time>2023-12-03T09:16:59Z</time>
      </trkpt>
      <trkpt lat="46.55347" lon="0.20453">
        <ele>-17.4</ele>
        <time>2023-12-03T09:17:00Z</time>
      </trkpt>
      <trkpt lat="46.55349" lon="0.20452">
        <ele>-18</ele>
        <time>2023-12-03T09:17:01Z</time>
      </trkpt>
      <trkpt lat="46.55357" lon="0.20448">
        <ele>-19</ele>
        <time>2023-12-03T09:17:06Z</time>
      </trkpt>
      <trkpt lat="46.55363" lon="0.20445">
        <ele>-19.2</ele>
        <time>2023-12-03T09:17:12Z</time>
      </trkpt>
      <trkpt lat="46.55369" lon="0.20435">
        <ele>-19.6</ele>
        <time>2023-12-03T09:17:18Z</time>
      </trkpt>
      <trkpt lat="46.5537" lon="0.20435">
        <ele>-19.8</ele>
        <time>2023-12-03T09:17:19Z</time>
      </trkpt>
      <trkpt lat="46.55373" lon="0.20438">
        <ele>-20</ele>
        <time>2023-12-03T09:17:22Z</time>
      </trkpt>
      <trkpt lat="46.55375" lon="0.20442">
        <ele>-20</ele>
        <time>2023-12-03T09:17:24Z</time>
      </trkpt>
      <trkpt lat="46.55381" lon="0.20456">
        <ele>-20.4</ele>
        <time>2023-12-03T09:17:30Z</time>
      </trkpt>
      <trkpt lat="46.55386" lon="0.20468">
        <ele>-20.8</ele>
        <time>2023-12-03T09:17:35Z</time>
      </trkpt>
      <trkpt lat="46.55389" lon="0.20473">
        <ele>-21</ele>
        <time>2023-12-03T09:17:37Z</time>
      </trkpt>
      <trkpt lat="46.55396" lon="0.20484">
        <ele>-21.2</ele>
        <time>2023-12-03T09:17:42Z</time>
      </trkpt>
      <trkpt lat="46.55396" lon="0.20488">
        <ele>-21.2</ele>
        <time>2023-12-03T09:17:44Z</time>
      </trkpt>
      <trkpt lat="46.55394" lon="0.20494">
        <ele>-21.6</ele>
        <time>2023-12-03T09:17:48Z</time>
      </trkpt>
      <trkpt lat="46.55393" lon="0.20494">
        <ele>-21.6</ele>
        <time>2023-12-03T09:17:49Z</time>
      </trkpt>
      <trkpt lat="46.55392" lon="0.20495">
        <ele>-21.8</ele>
        <time>2023-12-03T09:17:51Z</time>
      </trkpt>
      <trkpt lat="46.55389" lon="0.20498">
        <ele>-21.4</ele>
        <time>2023-12-03T09:17:54Z</time>
      </trkpt>
      <trkpt lat="46.55389" lon="0.205">
        <ele>-21</ele>
        <time>2023-12-03T09:17:55Z</time>
      </trkpt>
      <trkpt lat="46.55389" lon="0.20502">
        <ele>-21</ele>
        <time>2023-12-03T09:17:56Z</time>
      </trkpt>
      <trkpt lat="46.55396" lon="0.20514">
        <ele>-20.8</ele>
        <time>2023-12-03T09:18:00Z</time>
      </trkpt>
      <trkpt lat="46.55408" lon="0.20541">
        <ele>-22</ele>
        <time>2023-12-03T09:18:06Z</time>
      </trkpt>
      <trkpt lat="46.55408" lon="0.20541">
        <ele>-22.2</ele>
        <time>2023-12-03T09:18:07Z</time>
      </trkpt>
      <trkpt lat="46.55409" lon="0.20551">
        <ele>-22.2</ele>
        <time>2023-12-03T09:18:08Z</time>
      </trkpt>
      <trkpt lat="46.55414" lon="0.2056">
        <ele>-22.4</ele>
        <time>2023-12-03T09:18:11Z</time>
      </trkpt>
      <trkpt lat="46.55422" lon="0.20573">
        <ele>-23</ele>
        <time>2023-12-03T09:18:15Z</time>
      </trkpt>
      <trkpt lat="46.55423" lon="0.20576">
        <ele>-23.4</ele>
        <time>2023-12-03T09:18:16Z</time>
      </trkpt>
      <trkpt lat="46.55422" lon="0.20579">
        <ele>-23.8</ele>
        <time>2023-12-03T09:18:17Z</time>
      </trkpt>
      <trkpt lat="46.55421" lon="0.20586">
        <ele>-24.2</ele>
        <time>2023-12-03T09:18:20Z</time>
      </trkpt>
      <trkpt lat="46.55414" lon="0.20604">
        <ele>-24.4</ele>
        <time>2023-12-03T09:18:25Z</time>
      </trkpt>
      <trkpt lat="46.55406" lon="0.20627">
        <ele>-24.2</ele>
        <time>2023-12-03T09:18:31Z</time>
      </trkpt>
      <trkpt lat="46.55402" lon="0.20643">
        <ele>-24</ele>
        <time>2023-12-03T09:18:36Z</time>
      </trkpt>
      <trkpt lat="46.55394" lon="0.20664">
        <ele>-23.6</ele>
        <time>2023-12-03T09:18:42Z</time>
      </trkpt>
      <trkpt lat="46.55393" lon="0.20668">
        <ele>-23.6</ele>
        <time>2023-12-03T09:18:43Z</time>
      </trkpt>
      <trkpt lat="46.55388" lon="0.20686">
        <ele>-23.2</ele>
        <time>2023-12-03T09:18:48Z</time>
      </trkpt>
      <trkpt lat="46.55384" lon="0.20699">
        <ele>-22.4</ele>
        <time>2023-12-03T09:18:52Z</time>
      </trkpt>
      <trkpt lat="46.55381" lon="0.20702">
        <ele>-22.4</ele>
        <time>2023-12-03T09:18:53Z</time>
      </trkpt>
      <trkpt lat="46.5537" lon="0.20718">
        <ele>-21.2</ele>
        <time>2023-12-03T09:18:59Z</time>
      </trkpt>
      <trkpt lat="46.55367" lon="0.20722">
        <ele>-20.8</ele>
        <time>2023-12-03T09:19:00Z</time>
      </trkpt>
      <trkpt lat="46.55363" lon="0.20744">
        <ele>-20.6</ele>
        <time>2023-12-03T09:19:05Z</time>
      </trkpt>
      <trkpt lat="46.55363" lon="0.20751">
        <ele>-20.8</ele>
        <time>2023-12-03T09:19:07Z</time>
      </trkpt>
      <trkpt lat="46.55363" lon="0.20763">
        <ele>-21</ele>
        <time>2023-12-03T09:19:09Z</time>
      </trkpt>
      <trkpt lat="46.5536" lon="0.20796">
        <ele>-20.6</ele>
        <time>2023-12-03T09:19:15Z</time>
      </trkpt>
      <trkpt lat="46.55361" lon="0.20829">
        <ele>-20</ele>
        <time>2023-12-03T09:19:21Z</time>
      </trkpt>
      <trkpt lat="46.55362" lon="0.20854">
        <ele>-20</ele>
        <time>2023-12-03T09:19:27Z</time>
      </trkpt>
      <trkpt lat="46.55366" lon="0.20876">
        <ele>-19.8</ele>
        <time>2023-12-03T09:19:32Z</time>
      </trkpt>
      <trkpt lat="46.55367" lon="0.20902">
        <ele>-19.6</ele>
        <time>2023-12-03T09:19:38Z</time>
      </trkpt>
      <trkpt lat="46.55365" lon="0.20911">
        <ele>-19.6</ele>
        <time>2023-12-03T09:19:40Z</time>
      </trkpt>
      <trkpt lat="46.55362" lon="0.20926">
        <ele>-19.4</ele>
        <time>2023-12-03T09:19:43Z</time>
      </trkpt>
      <trkpt lat="46.55358" lon="0.20948">
        <ele>-19.2</ele>
        <time>2023-12-03T09:19:49Z</time>
      </trkpt>
      <trkpt lat="46.55356" lon="0.20957">
        <ele>-19</ele>
        <time>2023-12-03T09:19:52Z</time>
      </trkpt>
      <trkpt lat="46.55351" lon="0.20969">
        <ele>-18.8</ele>
        <time>2023-12-03T09:19:56Z</time>
      </trkpt>
      <trkpt lat="46.55338" lon="0.20981">
        <ele>-18.8</ele>
        <time>2023-12-03T09:20:02Z</time>
      </trkpt>
      <trkpt lat="46.55332" lon="0.20985">
        <ele>-18.8</ele>
        <time>2023-12-03T09:20:05Z</time>
      </trkpt>
      <trkpt lat="46.55321" lon="0.20988">
        <ele>-18.6</ele>
        <time>2023-12-03T09:20:09Z</time>
      </trkpt>
      <trkpt lat="46.55314" lon="0.20989">
        <ele>-18</ele>
        <time>2023-12-03T09:20:12Z</time>
      </trkpt>
      <trkpt lat="46.55301" lon="0.20987">
        <ele>-17</ele>
        <time>2023-12-03T09:20:17Z</time>
      </trkpt>
      <trkpt lat="46.55299" lon="0.20986">
        <ele>-16.8</ele>
        <time>2023-12-03T09:20:18Z</time>
      </trkpt>
      <trkpt lat="46.55291" lon="0.2099">
        <ele>-15.6</ele>
        <time>2023-12-03T09:20:22Z</time>
      </trkpt>
      <trkpt lat="46.55279" lon="0.21002">
        <ele>-15.6</ele>
        <time>2023-12-03T09:20:27Z</time>
      </trkpt>
      <trkpt lat="46.55276" lon="0.21004">
        <ele>-15.8</ele>
        <time>2023-12-03T09:20:28Z</time>
      </trkpt>
      <trkpt lat="46.55269" lon="0.21008">
        <ele>-16.2</ele>
        <time>2023-12-03T09:20:30Z</time>
      </trkpt>
      <trkpt lat="46.55258" lon="0.21013">
        <ele>-16.4</ele>
        <time>2023-12-03T09:20:33Z</time>
      </trkpt>
      <trkpt lat="46.55255" lon="0.21013">
        <ele>-16.6</ele>
        <time>2023-12-03T09:20:34Z</time>
      </trkpt>
      <trkpt lat="46.55242" lon="0.21013">
        <ele>-17.2</ele>
        <time>2023-12-03T09:20:40Z</time>
      </trkpt>
      <trkpt lat="46.55234" lon="0.21016">
        <ele>-17.6</ele>
        <time>2023-12-03T09:20:44Z</time>
      </trkpt>
      <trkpt lat="46.55232" lon="0.21017">
        <ele>-17.8</ele>
        <time>2023-12-03T09:20:45Z</time>
      </trkpt>
      <trkpt lat="46.55228" lon="0.2102">
        <ele>-18.2</ele>
        <time>2023-12-03T09:20:47Z</time>
      </trkpt>
      <trkpt lat="46.55221" lon="0.21032">
        <ele>-18</ele>
        <time>2023-12-03T09:20:52Z</time>
      </trkpt>
      <trkpt lat="46.5522" lon="0.21036">
        <ele>-17.8</ele>
        <time>2023-12-03T09:20:53Z</time>
      </trkpt>
      <trkpt lat="46.55218" lon="0.21064">
        <ele>-17</ele>
        <time>2023-12-03T09:20:59Z</time>
      </trkpt>
      <trkpt lat="46.55218" lon="0.21086">
        <ele>-16.4</ele>
        <time>2023-12-03T09:21:03Z</time>
      </trkpt>
      <trkpt lat="46.55217" lon="0.21096">
        <ele>-16.2</ele>
        <time>2023-12-03T09:21:05Z</time>
      </trkpt>
      <trkpt lat="46.55217" lon="0.21106">
        <ele>-16</ele>
        <time>2023-12-03T09:21:09Z</time>
      </trkpt>
      <trkpt lat="46.55217" lon="0.21107">
        <ele>-15.4</ele>
        <time>2023-12-03T09:21:10Z</time>
      </trkpt>
      <trkpt lat="46.55217" lon="0.21107">
        <ele>-15.2</ele>
        <time>2023-12-03T09:21:11Z</time>
      </trkpt>
      <trkpt lat="46.55217" lon="0.21106">
        <ele>-14.6</ele>
        <time>2023-12-03T09:21:13Z</time>
      </trkpt>
      <trkpt lat="46.55218" lon="0.21106">
        <ele>-14.4</ele>
        <time>2023-12-03T09:21:14Z</time>
      </trkpt>
      <trkpt lat="46.55222" lon="0.21105">
        <ele>-13.2</ele>
        <time>2023-12-03T09:21:18Z</time>
      </trkpt>
      <trkpt lat="46.55226" lon="0.21104">
        <ele>-12.4</ele>
        <time>2023-12-03T09:21:20Z</time>
      </trkpt>
      <trkpt lat="46.55229" lon="0.21104">
        <ele>-12</ele>
        <time>2023-12-03T09:21:22Z</time>
      </trkpt>
      <trkpt lat="46.55235" lon="0.21104">
        <ele>-10.8</ele>
        <time>2023-12-03T09:21:26Z</time>
      </trkpt>
      <trkpt lat="46.55237" lon="0.21105">
        <ele>-10.2</ele>
        <time>2023-12-03T09:21:28Z</time>
      </trkpt>
      <trkpt lat="46.5524" lon="0.21106">
        <ele>-9.6</ele>
        <time>2023-12-03T09:21:30Z</time>
      </trkpt>
      <trkpt lat="46.55245" lon="0.2111">
        <ele>-8.2</ele>
        <time>2023-12-03T09:21:34Z</time>
      </trkpt>
      <trkpt lat="46.55246" lon="0.2111">
        <ele>-8</ele>
        <time>2023-12-03T09:21:35Z</time>
      </trkpt>
      <trkpt lat="46.55254" lon="0.21114">
        <ele>-7.2</ele>
        <time>2023-12-03T09:21:40Z</time>
      </trkpt>
      <trkpt lat="46.55259" lon="0.21116">
        <ele>-6.8</ele>
        <time>2023-12-03T09:21:43Z</time>
      </trkpt>
      <trkpt lat="46.55262" lon="0.21117">
        <ele>-6.4</ele>
        <time>2023-12-03T09:21:46Z</time>
      </trkpt>
      <trkpt lat="46.55263" lon="0.21118">
        <ele>-6</ele>
        <time>2023-12-03T09:21:47Z</time>
      </trkpt>
      <trkpt lat="46.55266" lon="0.21118">
        <ele>-5.6</ele>
        <time>2023-12-03T09:21:48Z</time>
      </trkpt>
      <trkpt lat="46.55272" lon="0.2112">
        <ele>-5</ele>
        <time>2023-12-03T09:21:52Z</time>
      </trkpt>
      <trkpt lat="46.55275" lon="0.21121">
        <ele>-4.8</ele>
        <time>2023-12-03T09:21:54Z</time>
      </trkpt>
      <trkpt lat="46.55283" lon="0.21122">
        <ele>-4.2</ele>
        <time>2023-12-03T09:21:58Z</time>
      </trkpt>
      <trkpt lat="46.55289" lon="0.21125">
        <ele>-3.6</ele>
        <time>2023-12-03T09:22:02Z</time>
      </trkpt>
      <trkpt lat="46.55292" lon="0.21126">
        <ele>-3</ele>
        <time>2023-12-03T09:22:04Z</time>
      </trkpt>
      <trkpt lat="46.55293" lon="0.21128">
        <ele>-2.6</ele>
        <time>2023-12-03T09:22:06Z</time>
      </trkpt>
      <trkpt lat="46.55295" lon="0.21128">
        <ele>-2.4</ele>
        <time>2023-12-03T09:22:07Z</time>
      </trkpt>
      <trkpt lat="46.55301" lon="0.21129">
        <ele>-1.4</ele>
        <time>2023-12-03T09:22:12Z</time>
      </trkpt>
      <trkpt lat="46.55302" lon="0.2113">
        <ele>-1</ele>
        <time>2023-12-03T09:22:13Z</time>
      </trkpt>
      <trkpt lat="46.55304" lon="0.21131">
        <ele>-0.6</ele>
        <time>2023-12-03T09:22:15Z</time>
      </trkpt>
      <trkpt lat="46.55305" lon="0.21131">
        <ele>-0.4</ele>
        <time>2023-12-03T09:22:16Z</time>
      </trkpt>
      <trkpt lat="46.55312" lon="0.2113">
        <ele>0.8</ele>
        <time>2023-12-03T09:22:20Z</time>
      </trkpt>
      <trkpt lat="46.55314" lon="0.21129">
        <ele>1.2</ele>
        <time>2023-12-03T09:22:21Z</time>
      </trkpt>
      <trkpt lat="46.55322" lon="0.21127">
        <ele>1.8</ele>
        <time>2023-12-03T09:22:25Z</time>
      </trkpt>
      <trkpt lat="46.5533" lon="0.21125">
        <ele>1.8</ele>
        <time>2023-12-03T09:22:28Z</time>
      </trkpt>
      <trkpt lat="46.5534" lon="0.21122">
        <ele>2.2</ele>
        <time>2023-12-03T09:22:32Z</time>
      </trkpt>
      <trkpt lat="46.55352" lon="0.21115">
        <ele>2.4</ele>
        <time>2023-12-03T09:22:36Z</time>
      </trkpt>
      <trkpt lat="46.55358" lon="0.21112">
        <ele>2.6</ele>
        <time>2023-12-03T09:22:38Z</time>
      </trkpt>
      <trkpt lat="46.5537" lon="0.21108">
        <ele>3</ele>
        <time>2023-12-03T09:22:42Z</time>
      </trkpt>
      <trkpt lat="46.5538" lon="0.21105">
        <ele>3.4</ele>
        <time>2023-12-03T09:22:45Z</time>
      </trkpt>
      <trkpt lat="46.55396" lon="0.211">
        <ele>4</ele>
        <time>2023-12-03T09:22:49Z</time>
      </trkpt>
      <trkpt lat="46.55404" lon="0.21095">
        <ele>4.2</ele>
        <time>2023-12-03T09:22:51Z</time>
      </trkpt>
      <trkpt lat="46.55409" lon="0.21087">
        <ele>4.2</ele>
        <time>2023-12-03T09:22:53Z</time>
      </trkpt>
      <trkpt lat="46.55414" lon="0.21079">
        <ele>4.2</ele>
        <time>2023-12-03T09:22:55Z</time>
      </trkpt>
      <trkpt lat="46.55422" lon="0.2106">
        <ele>4.2</ele>
        <time>2023-12-03T09:22:59Z</time>
      </trkpt>
      <trkpt lat="46.55424" lon="0.21057">
        <ele>4.2</ele>
        <time>2023-12-03T09:23:00Z</time>
      </trkpt>
      <trkpt lat="46.55434" lon="0.21034">
        <ele>4.8</ele>
        <time>2023-12-03T09:23:05Z</time>
      </trkpt>
      <trkpt lat="46.55436" lon="0.21022">
        <ele>4.6</ele>
        <time>2023-12-03T09:23:07Z</time>
      </trkpt>
      <trkpt lat="46.55441" lon="0.2101">
        <ele>4.4</ele>
        <time>2023-12-03T09:23:09Z</time>
      </trkpt>
      <trkpt lat="46.5545" lon="0.20992">
        <ele>4.4</ele>
        <time>2023-12-03T09:23:12Z</time>
      </trkpt>
      <trkpt lat="46.55463" lon="0.20965">
        <ele>5.2</ele>
        <time>2023-12-03T09:23:17Z</time>
      </trkpt>
      <trkpt lat="46.55467" lon="0.20959">
        <ele>5</ele>
        <time>2023-12-03T09:23:18Z</time>
      </trkpt>
      <trkpt lat="46.55474" lon="0.20947">
        <ele>5</ele>
        <time>2023-12-03T09:23:20Z</time>
      </trkpt>
      <trkpt lat="46.55482" lon="0.20929">
        <ele>5</ele>
        <time>2023-12-03T09:23:23Z</time>
      </trkpt>
      <trkpt lat="46.55493" lon="0.20908">
        <ele>5</ele>
        <time>2023-12-03T09:23:27Z</time>
      </trkpt>
      <trkpt lat="46.55503" lon="0.20893">
        <ele>4.8</ele>
        <time>2023-12-03T09:23:30Z</time>
      </trkpt>
      <trkpt lat="46.55519" lon="0.20874">
        <ele>4.6</ele>
        <time>2023-12-03T09:23:34Z</time>
      </trkpt>
      <trkpt lat="46.55524" lon="0.2087">
        <ele>4.4</ele>
        <time>2023-12-03T09:23:35Z</time>
      </trkpt>
      <trkpt lat="46.55538" lon="0.20857">
        <ele>4</ele>
        <time>2023-12-03T09:23:38Z</time>
      </trkpt>
      <trkpt lat="46.55547" lon="0.2085">
        <ele>3.6</ele>
        <time>2023-12-03T09:23:40Z</time>
      </trkpt>
      <trkpt lat="46.55552" lon="0.20848">
        <ele>3.2</ele>
        <time>2023-12-03T09:23:41Z</time>
      </trkpt>
      <trkpt lat="46.55558" lon="0.20845">
        <ele>3</ele>
        <time>2023-12-03T09:23:42Z</time>
      </trkpt>
      <trkpt lat="46.55562" lon="0.20842">
        <ele>2.8</ele>
        <time>2023-12-03T09:23:43Z</time>
      </trkpt>
      <trkpt lat="46.55579" lon="0.20837">
        <ele>2</ele>
        <time>2023-12-03T09:23:46Z</time>
      </trkpt>
      <trkpt lat="46.55585" lon="0.20836">
        <ele>1.6</ele>
        <time>2023-12-03T09:23:47Z</time>
      </trkpt>
      <trkpt lat="46.55608" lon="0.20834">
        <ele>0.6</ele>
        <time>2023-12-03T09:23:51Z</time>
      </trkpt>
      <trkpt lat="46.55615" lon="0.20834">
        <ele>0.2</ele>
        <time>2023-12-03T09:23:52Z</time>
      </trkpt>
      <trkpt lat="46.55646" lon="0.20842">
        <ele>-0.4</ele>
        <time>2023-12-03T09:23:57Z</time>
      </trkpt>
      <trkpt lat="46.55651" lon="0.20844">
        <ele>-0.6</ele>
        <time>2023-12-03T09:23:58Z</time>
      </trkpt>
      <trkpt lat="46.5566" lon="0.20845">
        <ele>-0.8</ele>
        <time>2023-12-03T09:24:00Z</time>
      </trkpt>
      <trkpt lat="46.5566" lon="0.20845">
        <ele>-0.8</ele>
        <time>2023-12-03T09:24:01Z</time>
      </trkpt>
      <trkpt lat="46.55688" lon="0.20838">
        <ele>-1.6</ele>
        <time>2023-12-03T09:24:05Z</time>
      </trkpt>
      <trkpt lat="46.55695" lon="0.20837">
        <ele>-2</ele>
        <time>2023-12-03T09:24:06Z</time>
      </trkpt>
      <trkpt lat="46.55702" lon="0.20837">
        <ele>-2.8</ele>
        <time>2023-12-03T09:24:07Z</time>
      </trkpt>
      <trkpt lat="46.55722" lon="0.20841">
        <ele>-3.8</ele>
        <time>2023-12-03T09:24:10Z</time>
      </trkpt>
      <trkpt lat="46.55727" lon="0.20841">
        <ele>-4</ele>
        <time>2023-12-03T09:24:11Z</time>
      </trkpt>
      <trkpt lat="46.55766" lon="0.20848">
        <ele>-4.8</ele>
        <time>2023-12-03T09:24:17Z</time>
      </trkpt>
      <trkpt lat="46.55784" lon="0.2085">
        <ele>-5.2</ele>
        <time>2023-12-03T09:24:20Z</time>
      </trkpt>
      <trkpt lat="46.55793" lon="0.20855">
        <ele>-4.8</ele>
        <time>2023-12-03T09:24:22Z</time>
      </trkpt>
      <trkpt lat="46.55814" lon="0.20868">
        <ele>-4</ele>
        <time>2023-12-03T09:24:27Z</time>
      </trkpt>
      <trkpt lat="46.55818" lon="0.20871">
        <ele>-3.8</ele>
        <time>2023-12-03T09:24:28Z</time>
      </trkpt>
      <trkpt lat="46.55823" lon="0.20874">
        <ele>-3.8</ele>
        <time>2023-12-03T09:24:29Z</time>
      </trkpt>
      <trkpt lat="46.55831" lon="0.2088">
        <ele>-3.6</ele>
        <time>2023-12-03T09:24:31Z</time>
      </trkpt>
      <trkpt lat="46.55841" lon="0.20885">
        <ele>-3.6</ele>
        <time>2023-12-03T09:24:34Z</time>
      </trkpt>
      <trkpt lat="46.55855" lon="0.20889">
        <ele>-4</ele>
        <time>2023-12-03T09:24:37Z</time>
      </trkpt>
      <trkpt lat="46.55864" lon="0.20895">
        <ele>-4.2</ele>
        <time>2023-12-03T09:24:39Z</time>
      </trkpt>
      <trkpt lat="46.55867" lon="0.20898">
        <ele>-4.2</ele>
        <time>2023-12-03T09:24:40Z</time>
      </trkpt>
      <trkpt lat="46.55871" lon="0.209">
        <ele>-4.2</ele>
        <time>2023-12-03T09:24:41Z</time>
      </trkpt>
      <trkpt lat="46.55886" lon="0.20902">
        <ele>-4.4</ele>
        <time>2023-12-03T09:24:44Z</time>
      </trkpt>
      <trkpt lat="46.55902" lon="0.20903">
        <ele>-5</ele>
        <time>2023-12-03T09:24:48Z</time>
      </trkpt>
      <trkpt lat="46.55906" lon="0.20905">
        <ele>-5.8</ele>
        <time>2023-12-03T09:24:49Z</time>
      </trkpt>
      <trkpt lat="46.55909" lon="0.20907">
        <ele>-6.4</ele>
        <time>2023-12-03T09:24:50Z</time>
      </trkpt>
      <trkpt lat="46.55914" lon="0.20909">
        <ele>-6.8</ele>
        <time>2023-12-03T09:24:51Z</time>
      </trkpt>
      <trkpt lat="46.5592" lon="0.2091">
        <ele>-7.4</ele>
        <time>2023-12-03T09:24:53Z</time>
      </trkpt>
      <trkpt lat="46.55924" lon="0.20911">
        <ele>-7.6</ele>
        <time>2023-12-03T09:24:54Z</time>
      </trkpt>
      <trkpt lat="46.55929" lon="0.20915">
        <ele>-8.6</ele>
        <time>2023-12-03T09:24:56Z</time>
      </trkpt>
      <trkpt lat="46.55932" lon="0.20918">
        <ele>-9</ele>
        <time>2023-12-03T09:24:57Z</time>
      </trkpt>
      <trkpt lat="46.55947" lon="0.20932">
        <ele>-9.8</ele>
        <time>2023-12-03T09:25:01Z</time>
      </trkpt>
      <trkpt lat="46.55954" lon="0.20939">
        <ele>-10.4</ele>
        <time>2023-12-03T09:25:03Z</time>
      </trkpt>
      <trkpt lat="46.55956" lon="0.20942">
        <ele>-10.8</ele>
        <time>2023-12-03T09:25:04Z</time>
      </trkpt>
      <trkpt lat="46.55962" lon="0.20948">
        <ele>-13</ele>
        <time>2023-12-03T09:25:06Z</time>
      </trkpt>
      <trkpt lat="46.55968" lon="0.20953">
        <ele>-14.4</ele>
        <time>2023-12-03T09:25:08Z</time>
      </trkpt>
      <trkpt lat="46.55974" lon="0.20956">
        <ele>-16.4</ele>
        <time>2023-12-03T09:25:10Z</time>
      </trkpt>
      <trkpt lat="46.55977" lon="0.20959">
        <ele>-17.4</ele>
        <time>2023-12-03T09:25:11Z</time>
      </trkpt>
      <trkpt lat="46.55981" lon="0.20961">
        <ele>-18.4</ele>
        <time>2023-12-03T09:25:12Z</time>
      </trkpt>
      <trkpt lat="46.55985" lon="0.20964">
        <ele>-19</ele>
        <time>2023-12-03T09:25:13Z</time>
      </trkpt>
      <trkpt lat="46.55989" lon="0.20966">
        <ele>-19.4</ele>
        <time>2023-12-03T09:25:14Z</time>
      </trkpt>
      <trkpt lat="46.55992" lon="0.20967">
        <ele>-20.4</ele>
        <time>2023-12-03T09:25:15Z</time>
      </trkpt>
      <trkpt lat="46.55996" lon="0.2097">
        <ele>-21.4</ele>
        <time>2023-12-03T09:25:16Z</time>
      </trkpt>
      <trkpt lat="46.55996" lon="0.2097">
        <ele>-23</ele>
        <time>2023-12-03T09:25:17Z</time>
      </trkpt>
      <trkpt lat="46.56002" lon="0.20971">
        <ele>-23</ele>
        <time>2023-12-03T09:25:18Z</time>
      </trkpt>
      <trkpt lat="46.56006" lon="0.20971">
        <ele>-24</ele>
        <time>2023-12-03T09:25:19Z</time>
      </trkpt>
      <trkpt lat="46.56008" lon="0.2097">
        <ele>-25.2</ele>
        <time>2023-12-03T09:25:20Z</time>
      </trkpt>
      <trkpt lat="46.56013" lon="0.20969">
        <ele>-27.2</ele>
        <time>2023-12-03T09:25:22Z</time>
      </trkpt>
      <trkpt lat="46.56016" lon="0.20968">
        <ele>-27.8</ele>
        <time>2023-12-03T09:25:23Z</time>
      </trkpt>
      <trkpt lat="46.56018" lon="0.20969">
        <ele>-29</ele>
        <time>2023-12-03T09:25:24Z</time>
      </trkpt>
      <trkpt lat="46.56021" lon="0.20972">
        <ele>-30.2</ele>
        <time>2023-12-03T09:25:26Z</time>
      </trkpt>
      <trkpt lat="46.56023" lon="0.20974">
        <ele>-30.4</ele>
        <time>2023-12-03T09:25:27Z</time>
      </trkpt>
      <trkpt lat="46.56026" lon="0.20977">
        <ele>-30.6</ele>
        <time>2023-12-03T09:25:32Z</time>
      </trkpt>
      <trkpt lat="46.56032" lon="0.20982">
        <ele>-30.4</ele>
        <time>2023-12-03T09:25:38Z</time>
      </trkpt>
      <trkpt lat="46.56036" lon="0.20997">
        <ele>-30</ele>
        <time>2023-12-03T09:25:43Z</time>
      </trkpt>
      <trkpt lat="46.5604" lon="0.21013">
        <ele>-29</ele>
        <time>2023-12-03T09:25:49Z</time>
      </trkpt>
      <trkpt lat="46.56034" lon="0.21022">
        <ele>-28.2</ele>
        <time>2023-12-03T09:25:53Z</time>
      </trkpt>
      <trkpt lat="46.56034" lon="0.21025">
        <ele>-28</ele>
        <time>2023-12-03T09:25:54Z</time>
      </trkpt>
      <trkpt lat="46.56033" lon="0.21028">
        <ele>-27.8</ele>
        <time>2023-12-03T09:25:55Z</time>
      </trkpt>
      <trkpt lat="46.56029" lon="0.21038">
        <ele>-26.8</ele>
        <time>2023-12-03T09:25:59Z</time>
      </trkpt>
      <trkpt lat="46.56027" lon="0.21041">
        <ele>-26.4</ele>
        <time>2023-12-03T09:26:00Z</time>
      </trkpt>
      <trkpt lat="46.56023" lon="0.21049">
        <ele>-25.8</ele>
        <time>2023-12-03T09:26:03Z</time>
      </trkpt>
      <trkpt lat="46.56021" lon="0.21062">
        <ele>-25</ele>
        <time>2023-12-03T09:26:07Z</time>
      </trkpt>
      <trkpt lat="46.5602" lon="0.21068">
        <ele>-24.6</ele>
        <time>2023-12-03T09:26:09Z</time>
      </trkpt>
      <trkpt lat="46.56017" lon="0.21077">
        <ele>-23.8</ele>
        <time>2023-12-03T09:26:13Z</time>
      </trkpt>
      <trkpt lat="46.56016" lon="0.21083">
        <ele>-23.6</ele>
        <time>2023-12-03T09:26:15Z</time>
      </trkpt>
      <trkpt lat="46.56013" lon="0.21088">
        <ele>-23.4</ele>
        <time>2023-12-03T09:26:17Z</time>
      </trkpt>
      <trkpt lat="46.56009" lon="0.21094">
        <ele>-23</ele>
        <time>2023-12-03T09:26:19Z</time>
      </trkpt>
      <trkpt lat="46.56007" lon="0.21099">
        <ele>-22.2</ele>
        <time>2023-12-03T09:26:21Z</time>
      </trkpt>
      <trkpt lat="46.56002" lon="0.21113">
        <ele>-21.2</ele>
        <time>2023-12-03T09:26:26Z</time>
      </trkpt>
      <trkpt lat="46.56001" lon="0.21121">
        <ele>-20.8</ele>
        <time>2023-12-03T09:26:30Z</time>
      </trkpt>
      <trkpt lat="46.56001" lon="0.21127">
        <ele>-20.4</ele>
        <time>2023-12-03T09:26:32Z</time>
      </trkpt>
      <trkpt lat="46.56001" lon="0.21129">
        <ele>-20.2</ele>
        <time>2023-12-03T09:26:33Z</time>
      </trkpt>
      <trkpt lat="46.55999" lon="0.21134">
        <ele>-19.4</ele>
        <time>2023-12-03T09:26:36Z</time>
      </trkpt>
      <trkpt lat="46.55997" lon="0.21139">
        <ele>-19</ele>
        <time>2023-12-03T09:26:38Z</time>
      </trkpt>
      <trkpt lat="46.55995" lon="0.21144">
        <ele>-18.6</ele>
        <time>2023-12-03T09:26:40Z</time>
      </trkpt>
      <trkpt lat="46.55989" lon="0.21154">
        <ele>-18</ele>
        <time>2023-12-03T09:26:44Z</time>
      </trkpt>
      <trkpt lat="46.55985" lon="0.21159">
        <ele>-17.8</ele>
        <time>2023-12-03T09:26:46Z</time>
      </trkpt>
      <trkpt lat="46.55972" lon="0.21172">
        <ele>-17</ele>
        <time>2023-12-03T09:26:52Z</time>
      </trkpt>
      <trkpt lat="46.5597" lon="0.21174">
        <ele>-16.6</ele>
        <time>2023-12-03T09:26:53Z</time>
      </trkpt>
      <trkpt lat="46.55955" lon="0.21186">
        <ele>-15.6</ele>
        <time>2023-12-03T09:26:59Z</time>
      </trkpt>
      <trkpt lat="46.55952" lon="0.21189">
        <ele>-15.4</ele>
        <time>2023-12-03T09:27:00Z</time>
      </trkpt>
      <trkpt lat="46.55941" lon="0.21206">
        <ele>-14.6</ele>
        <time>2023-12-03T09:27:07Z</time>
      </trkpt>
      <trkpt lat="46.55935" lon="0.21213">
        <ele>-13.8</ele>
        <time>2023-12-03T09:27:13Z</time>
      </trkpt>
      <trkpt lat="46.55934" lon="0.21215">
        <ele>-13.6</ele>
        <time>2023-12-03T09:27:14Z</time>
      </trkpt>
      <trkpt lat="46.55932" lon="0.21217">
        <ele>-13.2</ele>
        <time>2023-12-03T09:27:16Z</time>
      </trkpt>
      <trkpt lat="46.55927" lon="0.21221">
        <ele>-12.6</ele>
        <time>2023-12-03T09:27:20Z</time>
      </trkpt>
      <trkpt lat="46.55926" lon="0.21222">
        <ele>-12.6</ele>
        <time>2023-12-03T09:27:21Z</time>
      </trkpt>
      <trkpt lat="46.55924" lon="0.21223">
        <ele>-12.4</ele>
        <time>2023-12-03T09:27:22Z</time>
      </trkpt>
      <trkpt lat="46.55917" lon="0.21234">
        <ele>-12</ele>
        <time>2023-12-03T09:27:27Z</time>
      </trkpt>
      <trkpt lat="46.55904" lon="0.21243">
        <ele>-11.6</ele>
        <time>2023-12-03T09:27:30Z</time>
      </trkpt>
      <trkpt lat="46.55899" lon="0.21248">
        <ele>-11.4</ele>
        <time>2023-12-03T09:27:32Z</time>
      </trkpt>
      <trkpt lat="46.55883" lon="0.21262">
        <ele>-10.8</ele>
        <time>2023-12-03T09:27:39Z</time>
      </trkpt>
      <trkpt lat="46.5588" lon="0.21265">
        <ele>-10.4</ele>
        <time>2023-12-03T09:27:41Z</time>
      </trkpt>
      <trkpt lat="46.55873" lon="0.21269">
        <ele>-9.8</ele>
        <time>2023-12-03T09:27:45Z</time>
      </trkpt>
      <trkpt lat="46.55865" lon="0.21276">
        <ele>-9.2</ele>
        <time>2023-12-03T09:27:49Z</time>
      </trkpt>
      <trkpt lat="46.55862" lon="0.21281">
        <ele>-8.8</ele>
        <time>2023-12-03T09:27:51Z</time>
      </trkpt>
      <trkpt lat="46.55849" lon="0.21294">
        <ele>-8.2</ele>
        <time>2023-12-03T09:27:57Z</time>
      </trkpt>
      <trkpt lat="46.55847" lon="0.21296">
        <ele>-8</ele>
        <time>2023-12-03T09:27:58Z</time>
      </trkpt>
      <trkpt lat="46.55836" lon="0.21308">
        <ele>-7.4</ele>
        <time>2023-12-03T09:28:04Z</time>
      </trkpt>
      <trkpt lat="46.55834" lon="0.21309">
        <ele>-7.2</ele>
        <time>2023-12-03T09:28:05Z</time>
      </trkpt>
      <trkpt lat="46.55832" lon="0.2131">
        <ele>-7</ele>
        <time>2023-12-03T09:28:06Z</time>
      </trkpt>
      <trkpt lat="46.5583" lon="0.21312">
        <ele>-6.8</ele>
        <time>2023-12-03T09:28:07Z</time>
      </trkpt>
      <trkpt lat="46.55823" lon="0.21319">
        <ele>-6.2</ele>
        <time>2023-12-03T09:28:11Z</time>
      </trkpt>
      <trkpt lat="46.5582" lon="0.21323">
        <ele>-6</ele>
        <time>2023-12-03T09:28:13Z</time>
      </trkpt>
      <trkpt lat="46.5581" lon="0.21333">
        <ele>-5</ele>
        <time>2023-12-03T09:28:19Z</time>
      </trkpt>
      <trkpt lat="46.55808" lon="0.21336">
        <ele>-4.8</ele>
        <time>2023-12-03T09:28:20Z</time>
      </trkpt>
      <trkpt lat="46.55803" lon="0.21344">
        <ele>-3.8</ele>
        <time>2023-12-03T09:28:24Z</time>
      </trkpt>
      <trkpt lat="46.55798" lon="0.21348">
        <ele>-3.6</ele>
        <time>2023-12-03T09:28:26Z</time>
      </trkpt>
      <trkpt lat="46.55795" lon="0.21349">
        <ele>-3.4</ele>
        <time>2023-12-03T09:28:27Z</time>
      </trkpt>
      <trkpt lat="46.55787" lon="0.21352">
        <ele>-2.6</ele>
        <time>2023-12-03T09:28:30Z</time>
      </trkpt>
      <trkpt lat="46.55781" lon="0.21356">
        <ele>-2.2</ele>
        <time>2023-12-03T09:28:33Z</time>
      </trkpt>
      <trkpt lat="46.55779" lon="0.21361">
        <ele>-2</ele>
        <time>2023-12-03T09:28:35Z</time>
      </trkpt>
      <trkpt lat="46.55773" lon="0.21371">
        <ele>-1.4</ele>
        <time>2023-12-03T09:28:38Z</time>
      </trkpt>
      <trkpt lat="46.55769" lon="0.21376">
        <ele>-1.2</ele>
        <time>2023-12-03T09:28:40Z</time>
      </trkpt>
      <trkpt lat="46.55754" lon="0.21401">
        <ele>-0.6</ele>
        <time>2023-12-03T09:28:48Z</time>
      </trkpt>
      <trkpt lat="46.55749" lon="0.21419">
        <ele>-0.4</ele>
        <time>2023-12-03T09:28:53Z</time>
      </trkpt>
      <trkpt lat="46.55749" lon="0.21423">
        <ele>-0.2</ele>
        <time>2023-12-03T09:28:54Z</time>
      </trkpt>
      <trkpt lat="46.55742" lon="0.21445">
        <ele>0.4</ele>
        <time>2023-12-03T09:29:00Z</time>
      </trkpt>
      <trkpt lat="46.55738" lon="0.21464">
        <ele>0.8</ele>
        <time>2023-12-03T09:29:05Z</time>
      </trkpt>
      <trkpt lat="46.5573" lon="0.21476">
        <ele>1.2</ele>
        <time>2023-12-03T09:29:08Z</time>
      </trkpt>
      <trkpt lat="46.55728" lon="0.21482">
        <ele>2</ele>
        <time>2023-12-03T09:29:10Z</time>
      </trkpt>
      <trkpt lat="46.55724" lon="0.21497">
        <ele>2.6</ele>
        <time>2023-12-03T09:29:14Z</time>
      </trkpt>
      <trkpt lat="46.55722" lon="0.21504">
        <ele>3</ele>
        <time>2023-12-03T09:29:16Z</time>
      </trkpt>
      <trkpt lat="46.55715" lon="0.21522">
        <ele>3.6</ele>
        <time>2023-12-03T09:29:20Z</time>
      </trkpt>
      <trkpt lat="46.55708" lon="0.21552">
        <ele>4</ele>
        <time>2023-12-03T09:29:26Z</time>
      </trkpt>
      <trkpt lat="46.55708" lon="0.21557">
        <ele>4.2</ele>
        <time>2023-12-03T09:29:27Z</time>
      </trkpt>
      <trkpt lat="46.55706" lon="0.21582">
        <ele>4.4</ele>
        <time>2023-12-03T09:29:33Z</time>
      </trkpt>
      <trkpt lat="46.55703" lon="0.216">
        <ele>5.2</ele>
        <time>2023-12-03T09:29:37Z</time>
      </trkpt>
      <trkpt lat="46.557" lon="0.21613">
        <ele>5.8</ele>
        <time>2023-12-03T09:29:40Z</time>
      </trkpt>
      <trkpt lat="46.55699" lon="0.21625">
        <ele>6.2</ele>
        <time>2023-12-03T09:29:43Z</time>
      </trkpt>
      <trkpt lat="46.55698" lon="0.21638">
        <ele>6.6</ele>
        <time>2023-12-03T09:29:46Z</time>
      </trkpt>
      <trkpt lat="46.55698" lon="0.21661">
        <ele>7.2</ele>
        <time>2023-12-03T09:29:51Z</time>
      </trkpt>
      <trkpt lat="46.55697" lon="0.21674">
        <ele>7.2</ele>
        <time>2023-12-03T09:29:54Z</time>
      </trkpt>
      <trkpt lat="46.55694" lon="0.21696">
        <ele>7.8</ele>
        <time>2023-12-03T09:29:59Z</time>
      </trkpt>
      <trkpt lat="46.55693" lon="0.21717">
        <ele>8.2</ele>
        <time>2023-12-03T09:30:04Z</time>
      </trkpt>
      <trkpt lat="46.55695" lon="0.21725">
        <ele>8.4</ele>
        <time>2023-12-03T09:30:06Z</time>
      </trkpt>
      <trkpt lat="46.55698" lon="0.21755">
        <ele>8.4</ele>
        <time>2023-12-03T09:30:12Z</time>
      </trkpt>
      <trkpt lat="46.55701" lon="0.21759">
        <ele>8.4</ele>
        <time>2023-12-03T09:30:13Z</time>
      </trkpt>
      <trkpt lat="46.55707" lon="0.21767">
        <ele>8.4</ele>
        <time>2023-12-03T09:30:15Z</time>
      </trkpt>
      <trkpt lat="46.55724" lon="0.21774">
        <ele>8.8</ele>
        <time>2023-12-03T09:30:20Z</time>
      </trkpt>
      <trkpt lat="46.55731" lon="0.21778">
        <ele>8.8</ele>
        <time>2023-12-03T09:30:22Z</time>
      </trkpt>
      <trkpt lat="46.55745" lon="0.21785">
        <ele>9.2</ele>
        <time>2023-12-03T09:30:25Z</time>
      </trkpt>
      <trkpt lat="46.55778" lon="0.21814">
        <ele>9</ele>
        <time>2023-12-03T09:30:32Z</time>
      </trkpt>
      <trkpt lat="46.55818" lon="0.21852">
        <ele>8.8</ele>
        <time>2023-12-03T09:30:40Z</time>
      </trkpt>
      <trkpt lat="46.55858" lon="0.21891">
        <ele>7.6</ele>
        <time>2023-12-03T09:30:48Z</time>
      </trkpt>
      <trkpt lat="46.55863" lon="0.21896">
        <ele>7.2</ele>
        <time>2023-12-03T09:30:49Z</time>
      </trkpt>
      <trkpt lat="46.55879" lon="0.21913">
        <ele>6</ele>
        <time>2023-12-03T09:30:52Z</time>
      </trkpt>
      <trkpt lat="46.55895" lon="0.21929">
        <ele>5</ele>
        <time>2023-12-03T09:30:55Z</time>
      </trkpt>
      <trkpt lat="46.55901" lon="0.21933">
        <ele>4.8</ele>
        <time>2023-12-03T09:30:56Z</time>
      </trkpt>
      <trkpt lat="46.55914" lon="0.21939">
        <ele>4.4</ele>
        <time>2023-12-03T09:30:58Z</time>
      </trkpt>
      <trkpt lat="46.55922" lon="0.2194">
        <ele>3.6</ele>
        <time>2023-12-03T09:30:59Z</time>
      </trkpt>
      <trkpt lat="46.5593" lon="0.21941">
        <ele>3</ele>
        <time>2023-12-03T09:31:00Z</time>
      </trkpt>
      <trkpt lat="46.55938" lon="0.21941">
        <ele>2.4</ele>
        <time>2023-12-03T09:31:01Z</time>
      </trkpt>
      <trkpt lat="46.5596" lon="0.21937">
        <ele>1</ele>
        <time>2023-12-03T09:31:04Z</time>
      </trkpt>
      <trkpt lat="46.55983" lon="0.21926">
        <ele>0.6</ele>
        <time>2023-12-03T09:31:08Z</time>
      </trkpt>
      <trkpt lat="46.55998" lon="0.21915">
        <ele>1.4</ele>
        <time>2023-12-03T09:31:12Z</time>
      </trkpt>
      <trkpt lat="46.56" lon="0.21912">
        <ele>1.6</ele>
        <time>2023-12-03T09:31:13Z</time>
      </trkpt>
      <trkpt lat="46.56003" lon="0.2191">
        <ele>1.8</ele>
        <time>2023-12-03T09:31:14Z</time>
      </trkpt>
      <trkpt lat="46.5601" lon="0.21906">
        <ele>2.4</ele>
        <time>2023-12-03T09:31:16Z</time>
      </trkpt>
      <trkpt lat="46.56015" lon="0.21904">
        <ele>2.8</ele>
        <time>2023-12-03T09:31:17Z</time>
      </trkpt>
      <trkpt lat="46.56018" lon="0.21904">
        <ele>3.2</ele>
        <time>2023-12-03T09:31:18Z</time>
      </trkpt>
      <trkpt lat="46.56025" lon="0.21902">
        <ele>3.4</ele>
        <time>2023-12-03T09:31:20Z</time>
      </trkpt>
      <trkpt lat="46.56039" lon="0.21899">
        <ele>3.8</ele>
        <time>2023-12-03T09:31:25Z</time>
      </trkpt>
      <trkpt lat="46.56051" lon="0.21897">
        <ele>4.6</ele>
        <time>2023-12-03T09:31:29Z</time>
      </trkpt>
      <trkpt lat="46.56055" lon="0.21895">
        <ele>4.8</ele>
        <time>2023-12-03T09:31:30Z</time>
      </trkpt>
      <trkpt lat="46.56081" lon="0.21879">
        <ele>5.2</ele>
        <time>2023-12-03T09:31:35Z</time>
      </trkpt>
      <trkpt lat="46.56099" lon="0.21865">
        <ele>5.2</ele>
        <time>2023-12-03T09:31:38Z</time>
      </trkpt>
      <trkpt lat="46.56116" lon="0.21851">
        <ele>5.2</ele>
        <time>2023-12-03T09:31:41Z</time>
      </trkpt>
      <trkpt lat="46.56143" lon="0.21819">
        <ele>4.8</ele>
        <time>2023-12-03T09:31:47Z</time>
      </trkpt>
      <trkpt lat="46.56173" lon="0.21787">
        <ele>3.8</ele>
        <time>2023-12-03T09:31:53Z</time>
      </trkpt>
      <trkpt lat="46.56178" lon="0.21782">
        <ele>3.6</ele>
        <time>2023-12-03T09:31:54Z</time>
      </trkpt>
      <trkpt lat="46.56206" lon="0.21759">
        <ele>2.4</ele>
        <time>2023-12-03T09:31:59Z</time>
      </trkpt>
      <trkpt lat="46.5624" lon="0.21727">
        <ele>1.4</ele>
        <time>2023-12-03T09:32:05Z</time>
      </trkpt>
      <trkpt lat="46.56245" lon="0.21721">
        <ele>1.4</ele>
        <time>2023-12-03T09:32:06Z</time>
      </trkpt>
      <trkpt lat="46.56277" lon="0.21695">
        <ele>0.4</ele>
        <time>2023-12-03T09:32:12Z</time>
      </trkpt>
      <trkpt lat="46.56287" lon="0.21685">
        <ele>0.2</ele>
        <time>2023-12-03T09:32:14Z</time>
      </trkpt>
      <trkpt lat="46.5631" lon="0.21662">
        <ele>-0.2</ele>
        <time>2023-12-03T09:32:18Z</time>
      </trkpt>
      <trkpt lat="46.56357" lon="0.21608">
        <ele>-0.4</ele>
        <time>2023-12-03T09:32:27Z</time>
      </trkpt>
      <trkpt lat="46.56388" lon="0.21575">
        <ele>0.4</ele>
        <time>2023-12-03T09:32:33Z</time>
      </trkpt>
      <trkpt lat="46.56408" lon="0.21545">
        <ele>1.4</ele>
        <time>2023-12-03T09:32:38Z</time>
      </trkpt>
      <trkpt lat="46.56413" lon="0.21539">
        <ele>1.6</ele>
        <time>2023-12-03T09:32:39Z</time>
      </trkpt>
      <trkpt lat="46.56418" lon="0.21533">
        <ele>1.6</ele>
        <time>2023-12-03T09:32:40Z</time>
      </trkpt>
      <trkpt lat="46.56435" lon="0.21518">
        <ele>1.8</ele>
        <time>2023-12-03T09:32:43Z</time>
      </trkpt>
      <trkpt lat="46.56475" lon="0.21484">
        <ele>1.4</ele>
        <time>2023-12-03T09:32:50Z</time>
      </trkpt>
      <trkpt lat="46.56488" lon="0.2147">
        <ele>1.2</ele>
        <time>2023-12-03T09:32:53Z</time>
      </trkpt>
      <trkpt lat="46.56497" lon="0.21462">
        <ele>1</ele>
        <time>2023-12-03T09:32:55Z</time>
      </trkpt>
      <trkpt lat="46.56505" lon="0.21455">
        <ele>1</ele>
        <time>2023-12-03T09:32:57Z</time>
      </trkpt>
      <trkpt lat="46.56508" lon="0.21445">
        <ele>0.8</ele>
        <time>2023-12-03T09:32:59Z</time>
      </trkpt>
      <trkpt lat="46.56508" lon="0.21425">
        <ele>0.2</ele>
        <time>2023-12-03T09:33:02Z</time>
      </trkpt>
      <trkpt lat="46.56507" lon="0.21419">
        <ele>0.2</ele>
        <time>2023-12-03T09:33:03Z</time>
      </trkpt>
      <trkpt lat="46.56506" lon="0.21389">
        <ele>-0.8</ele>
        <time>2023-12-03T09:33:08Z</time>
      </trkpt>
      <trkpt lat="46.56504" lon="0.21371">
        <ele>-1.8</ele>
        <time>2023-12-03T09:33:11Z</time>
      </trkpt>
      <trkpt lat="46.56502" lon="0.21344">
        <ele>-3</ele>
        <time>2023-12-03T09:33:15Z</time>
      </trkpt>
      <trkpt lat="46.56502" lon="0.21344">
        <ele>-4.2</ele>
        <time>2023-12-03T09:33:16Z</time>
      </trkpt>
      <trkpt lat="46.56501" lon="0.21332">
        <ele>-4.2</ele>
        <time>2023-12-03T09:33:17Z</time>
      </trkpt>
      <trkpt lat="46.56498" lon="0.21321">
        <ele>-5.2</ele>
        <time>2023-12-03T09:33:19Z</time>
      </trkpt>
      <trkpt lat="46.56496" lon="0.21314">
        <ele>-5.6</ele>
        <time>2023-12-03T09:33:20Z</time>
      </trkpt>
      <trkpt lat="46.56494" lon="0.21299">
        <ele>-6.4</ele>
        <time>2023-12-03T09:33:22Z</time>
      </trkpt>
      <trkpt lat="46.56494" lon="0.21289">
        <ele>-7</ele>
        <time>2023-12-03T09:33:23Z</time>
      </trkpt>
      <trkpt lat="46.56493" lon="0.21279">
        <ele>-7.6</ele>
        <time>2023-12-03T09:33:24Z</time>
      </trkpt>
      <trkpt lat="46.5649" lon="0.21259">
        <ele>-9</ele>
        <time>2023-12-03T09:33:26Z</time>
      </trkpt>
      <trkpt lat="46.56491" lon="0.21243">
        <ele>-11</ele>
        <time>2023-12-03T09:33:28Z</time>
      </trkpt>
      <trkpt lat="46.56492" lon="0.21237">
        <ele>-12</ele>
        <time>2023-12-03T09:33:29Z</time>
      </trkpt>
      <trkpt lat="46.56492" lon="0.2123">
        <ele>-12.6</ele>
        <time>2023-12-03T09:33:30Z</time>
      </trkpt>
      <trkpt lat="46.56489" lon="0.21215">
        <ele>-14.6</ele>
        <time>2023-12-03T09:33:32Z</time>
      </trkpt>
      <trkpt lat="46.56489" lon="0.2121">
        <ele>-15.4</ele>
        <time>2023-12-03T09:33:33Z</time>
      </trkpt>
      <trkpt lat="46.56492" lon="0.21207">
        <ele>-15.8</ele>
        <time>2023-12-03T09:33:34Z</time>
      </trkpt>
      <trkpt lat="46.56499" lon="0.21198">
        <ele>-17.4</ele>
        <time>2023-12-03T09:33:36Z</time>
      </trkpt>
      <trkpt lat="46.56501" lon="0.21193">
        <ele>-18</ele>
        <time>2023-12-03T09:33:37Z</time>
      </trkpt>
      <trkpt lat="46.56502" lon="0.21186">
        <ele>-19</ele>
        <time>2023-12-03T09:33:38Z</time>
      </trkpt>
      <trkpt lat="46.56504" lon="0.21181">
        <ele>-20.4</ele>
        <time>2023-12-03T09:33:39Z</time>
      </trkpt>
      <trkpt lat="46.56506" lon="0.21176">
        <ele>-21.4</ele>
        <time>2023-12-03T09:33:40Z</time>
      </trkpt>
      <trkpt lat="46.56508" lon="0.21172">
        <ele>-22.2</ele>
        <time>2023-12-03T09:33:41Z</time>
      </trkpt>
      <trkpt lat="46.56512" lon="0.21168">
        <ele>-23.2</ele>
        <time>2023-12-03T09:33:42Z</time>
      </trkpt>
      <trkpt lat="46.56515" lon="0.21162">
        <ele>-23.8</ele>
        <time>2023-12-03T09:33:43Z</time>
      </trkpt>
      <trkpt lat="46.56518" lon="0.21157">
        <ele>-24.8</ele>
        <time>2023-12-03T09:33:44Z</time>
      </trkpt>
      <trkpt lat="46.56522" lon="0.21152">
        <ele>-25.8</ele>
        <time>2023-12-03T09:33:45Z</time>
      </trkpt>
      <trkpt lat="46.56525" lon="0.21148">
        <ele>-27.2</ele>
        <time>2023-12-03T09:33:46Z</time>
      </trkpt>
      <trkpt lat="46.56535" lon="0.21142">
        <ele>-28.8</ele>
        <time>2023-12-03T09:33:48Z</time>
      </trkpt>
      <trkpt lat="46.56545" lon="0.21137">
        <ele>-30.2</ele>
        <time>2023-12-03T09:33:50Z</time>
      </trkpt>
      <trkpt lat="46.56552" lon="0.21132">
        <ele>-32</ele>
        <time>2023-12-03T09:33:52Z</time>
      </trkpt>
      <trkpt lat="46.56555" lon="0.21131">
        <ele>-33</ele>
        <time>2023-12-03T09:33:53Z</time>
      </trkpt>
      <trkpt lat="46.56559" lon="0.21131">
        <ele>-34</ele>
        <time>2023-12-03T09:33:54Z</time>
      </trkpt>
      <trkpt lat="46.56567" lon="0.21134">
        <ele>-35.4</ele>
        <time>2023-12-03T09:33:56Z</time>
      </trkpt>
      <trkpt lat="46.56571" lon="0.21133">
        <ele>-35.8</ele>
        <time>2023-12-03T09:33:57Z</time>
      </trkpt>
      <trkpt lat="46.56577" lon="0.21124">
        <ele>-36.2</ele>
        <time>2023-12-03T09:33:59Z</time>
      </trkpt>
      <trkpt lat="46.56581" lon="0.21119">
        <ele>-36.6</ele>
        <time>2023-12-03T09:34:00Z</time>
      </trkpt>
      <trkpt lat="46.56579" lon="0.21114">
        <ele>-37</ele>
        <time>2023-12-03T09:34:01Z</time>
      </trkpt>
      <trkpt lat="46.56579" lon="0.21114">
        <ele>-37.6</ele>
        <time>2023-12-03T09:34:02Z</time>
      </trkpt>
      <trkpt lat="46.56575" lon="0.21103">
        <ele>-38</ele>
        <time>2023-12-03T09:34:03Z</time>
      </trkpt>
      <trkpt lat="46.56576" lon="0.21097">
        <ele>-38.2</ele>
        <time>2023-12-03T09:34:04Z</time>
      </trkpt>
      <trkpt lat="46.56577" lon="0.21092">
        <ele>-38.8</ele>
        <time>2023-12-03T09:34:05Z</time>
      </trkpt>
      <trkpt lat="46.56578" lon="0.21085">
        <ele>-39.2</ele>
        <time>2023-12-03T09:34:06Z</time>
      </trkpt>
      <trkpt lat="46.5658" lon="0.21074">
        <ele>-39.8</ele>
        <time>2023-12-03T09:34:08Z</time>
      </trkpt>
      <trkpt lat="46.56582" lon="0.21064">
        <ele>-40.4</ele>
        <time>2023-12-03T09:34:10Z</time>
      </trkpt>
      <trkpt lat="46.56581" lon="0.21057">
        <ele>-40.8</ele>
        <time>2023-12-03T09:34:12Z</time>
      </trkpt>
      <trkpt lat="46.56581" lon="0.21037">
        <ele>-40.6</ele>
        <time>2023-12-03T09:34:15Z</time>
      </trkpt>
      <trkpt lat="46.5658" lon="0.21029">
        <ele>-40.6</ele>
        <time>2023-12-03T09:34:17Z</time>
      </trkpt>
      <trkpt lat="46.56584" lon="0.21024">
        <ele>-40.6</ele>
        <time>2023-12-03T09:34:20Z</time>
      </trkpt>
      <trkpt lat="46.56587" lon="0.21024">
        <ele>-40.8</ele>
        <time>2023-12-03T09:34:24Z</time>
      </trkpt>
      <trkpt lat="46.5659" lon="0.21024">
        <ele>-40.8</ele>
        <time>2023-12-03T09:34:32Z</time>
      </trkpt>
      <trkpt lat="46.56588" lon="0.21024">
        <ele>-40.8</ele>
        <time>2023-12-03T09:34:40Z</time>
      </trkpt>
      <trkpt lat="46.56588" lon="0.21024">
        <ele>-40.8</ele>
        <time>2023-12-03T09:34:41Z</time>
      </trkpt>
      <trkpt lat="46.56591" lon="0.21026">
        <ele>-41</ele>
        <time>2023-12-03T09:34:59Z</time>
      </trkpt>
      <trkpt lat="46.5659" lon="0.21025">
        <ele>-41.4</ele>
        <time>2023-12-03T09:35:06Z</time>
      </trkpt>
      <trkpt lat="46.5659" lon="0.21024">
        <ele>-41.6</ele>
        <time>2023-12-03T09:35:15Z</time>
      </trkpt>
      <trkpt lat="46.5659" lon="0.21024">
        <ele>-41.6</ele>
        <time>2023-12-03T09:35:17Z</time>
      </trkpt>
      <trkpt lat="46.56591" lon="0.21023">
        <ele>-41.8</ele>
        <time>2023-12-03T09:35:33Z</time>
      </trkpt>
      <trkpt lat="46.56595" lon="0.21019">
        <ele>-41.8</ele>
        <time>2023-12-03T09:35:41Z</time>
      </trkpt>
      <trkpt lat="46.56595" lon="0.21019">
        <ele>-41.8</ele>
        <time>2023-12-03T09:35:42Z</time>
      </trkpt>
      <trkpt lat="46.56595" lon="0.21018">
        <ele>-42.6</ele>
        <time>2023-12-03T09:35:46Z</time>
      </trkpt>
      <trkpt lat="46.56595" lon="0.21018">
        <ele>-43.2</ele>
        <time>2023-12-03T09:35:54Z</time>
      </trkpt>
      <trkpt lat="46.56596" lon="0.21016">
        <ele>-43.2</ele>
        <time>2023-12-03T09:36:10Z</time>
      </trkpt>
      <trkpt lat="46.56598" lon="0.21017">
        <ele>-43.4</ele>
        <time>2023-12-03T09:36:28Z</time>
      </trkpt>
      <trkpt lat="46.56598" lon="0.21017">
        <ele>-43.6</ele>
        <time>2023-12-03T09:36:30Z</time>
      </trkpt>
      <trkpt lat="46.56598" lon="0.21017">
        <ele>-43.4</ele>
        <time>2023-12-03T09:36:50Z</time>
      </trkpt>
      <trkpt lat="46.56598" lon="0.21017">
        <ele>-43.6</ele>
        <time>2023-12-03T09:36:55Z</time>
      </trkpt>
      <trkpt lat="46.56599" lon="0.21017">
        <ele>-43.4</ele>
        <time>2023-12-03T09:37:11Z</time>
      </trkpt>
      <trkpt lat="46.56599" lon="0.21016">
        <ele>-43.8</ele>
        <time>2023-12-03T09:37:44Z</time>
      </trkpt>
      <trkpt lat="46.56599" lon="0.21016">
        <ele>-44</ele>
        <time>2023-12-03T09:37:53Z</time>
      </trkpt>
      <trkpt lat="46.56599" lon="0.21016">
        <ele>-44.6</ele>
        <time>2023-12-03T09:38:16Z</time>
      </trkpt>
      <trkpt lat="46.56599" lon="0.21016">
        <ele>-44.6</ele>
        <time>2023-12-03T09:38:20Z</time>
      </trkpt>
      <trkpt lat="46.56599" lon="0.21015">
        <ele>-44.8</ele>
        <time>2023-12-03T09:38:37Z</time>
      </trkpt>
      <trkpt lat="46.56598" lon="0.21015">
        <ele>-45</ele>
        <time>2023-12-03T09:38:42Z</time>
      </trkpt>
      <trkpt lat="46.56598" lon="0.21013">
        <ele>-45.2</ele>
        <time>2023-12-03T09:39:12Z</time>
      </trkpt>
      <trkpt lat="46.56598" lon="0.21013">
        <ele>-45.8</ele>
        <time>2023-12-03T09:39:37Z</time>
      </trkpt>
      <trkpt lat="46.56598" lon="0.21013">
        <ele>-46</ele>
        <time>2023-12-03T09:39:40Z</time>
      </trkpt>
      <trkpt lat="46.56598" lon="0.21013">
        <ele>-46</ele>
        <time>2023-12-03T09:39:42Z</time>
      </trkpt>
      <trkpt lat="46.56598" lon="0.21013">
        <ele>-46.2</ele>
        <time>2023-12-03T09:40:06Z</time>
      </trkpt>
      <trkpt lat="46.56598" lon="0.21013">
        <ele>-46.4</ele>
        <time>2023-12-03T09:40:22Z</time>
      </trkpt>
      <trkpt lat="46.56598" lon="0.21013">
        <ele>-46.4</ele>
        <time>2023-12-03T09:40:35Z</time>
      </trkpt>
      <trkpt lat="46.56598" lon="0.21014">
        <ele>-46.8</ele>
        <time>2023-12-03T09:40:41Z</time>
      </trkpt>
      <trkpt lat="46.56599" lon="0.21014">
        <ele>-46.8</ele>
        <time>2023-12-03T09:41:02Z</time>
      </trkpt>
      <trkpt lat="46.56599" lon="0.21014">
        <ele>-47</ele>
        <time>2023-12-03T09:41:08Z</time>
      </trkpt>
      <trkpt lat="46.56599" lon="0.21014">
        <ele>-47</ele>
        <time>2023-12-03T09:41:34Z</time>
      </trkpt>
      <trkpt lat="46.56599" lon="0.21014">
        <ele>-47.4</ele>
        <time>2023-12-03T09:41:51Z</time>
      </trkpt>
      <trkpt lat="46.56599" lon="0.21014">
        <ele>-47.4</ele>
        <time>2023-12-03T09:42:07Z</time>
      </trkpt>
      <trkpt lat="46.56599" lon="0.21014">
        <ele>-47.8</ele>
        <time>2023-12-03T09:42:25Z</time>
      </trkpt>
      <trkpt lat="46.56599" lon="0.21014">
        <ele>-47.4</ele>
        <time>2023-12-03T09:42:53Z</time>
      </trkpt>
      <trkpt lat="46.56599" lon="0.21014">
        <ele>-47.4</ele>
        <time>2023-12-03T09:43:14Z</time>
      </trkpt>
      <trkpt lat="46.56599" lon="0.21014">
        <ele>-47.4</ele>
        <time>2023-12-03T09:43:27Z</time>
      </trkpt>
      <trkpt lat="46.56599" lon="0.21014">
        <ele>-47.4</ele>
        <time>2023-12-03T09:44:17Z</time>
      </trkpt>
      <trkpt lat="46.56599" lon="0.21014">
        <ele>-47.4</ele>
        <time>2023-12-03T09:44:20Z</time>
      </trkpt>
      <trkpt lat="46.56599" lon="0.21014">
        <ele>-47.4</ele>
        <time>2023-12-03T09:44:46Z</time>
      </trkpt>
      <trkpt lat="46.56599" lon="0.21014">
        <ele>-47.4</ele>
        <time>2023-12-03T09:45:01Z</time>
      </trkpt>
      <trkpt lat="46.56599" lon="0.21014">
        <ele>-47.4</ele>
        <time>2023-12-03T09:45:42Z</time>
      </trkpt>
      <trkpt lat="46.56599" lon="0.21014">
        <ele>-47.4</ele>
        <time>2023-12-03T09:45:56Z</time>
      </trkpt>
      <trkpt lat="46.56599" lon="0.21014">
        <ele>-47.4</ele>
        <time>2023-12-03T09:46:38Z</time>
      </trkpt>
      <trkpt lat="46.56598" lon="0.21015">
        <ele>-47.4</ele>
        <time>2023-12-03T09:46:46Z</time>
      </trkpt>
      <trkpt lat="46.56591" lon="0.21025">
        <ele>-47.4</ele>
        <time>2023-12-03T09:46:59Z</time>
      </trkpt>
      <trkpt lat="46.56591" lon="0.21042">
        <ele>-46.6</ele>
        <time>2023-12-03T09:47:03Z</time>
      </trkpt>
      <trkpt lat="46.56591" lon="0.21046">
        <ele>-46.4</ele>
        <time>2023-12-03T09:47:04Z</time>
      </trkpt>
      <trkpt lat="46.56596" lon="0.21059">
        <ele>-46.2</ele>
        <time>2023-12-03T09:47:08Z</time>
      </trkpt>
      <trkpt lat="46.56598" lon="0.21063">
        <ele>-45.8</ele>
        <time>2023-12-03T09:47:10Z</time>
      </trkpt>
      <trkpt lat="46.566" lon="0.21069">
        <ele>-45.4</ele>
        <time>2023-12-03T09:47:12Z</time>
      </trkpt>
      <trkpt lat="46.56607" lon="0.21081">
        <ele>-44.4</ele>
        <time>2023-12-03T09:47:16Z</time>
      </trkpt>
      <trkpt lat="46.5661" lon="0.21084">
        <ele>-44.2</ele>
        <time>2023-12-03T09:47:17Z</time>
      </trkpt>
      <trkpt lat="46.56624" lon="0.21089">
        <ele>-44.2</ele>
        <time>2023-12-03T09:47:21Z</time>
      </trkpt>
      <trkpt lat="46.56637" lon="0.2109">
        <ele>-44.6</ele>
        <time>2023-12-03T09:47:25Z</time>
      </trkpt>
      <trkpt lat="46.56646" lon="0.21086">
        <ele>-44.6</ele>
        <time>2023-12-03T09:47:27Z</time>
      </trkpt>
      <trkpt lat="46.56654" lon="0.2108">
        <ele>-44.8</ele>
        <time>2023-12-03T09:47:29Z</time>
      </trkpt>
      <trkpt lat="46.56666" lon="0.21068">
        <ele>-45</ele>
        <time>2023-12-03T09:47:32Z</time>
      </trkpt>
      <trkpt lat="46.56678" lon="0.21057">
        <ele>-45</ele>
        <time>2023-12-03T09:47:35Z</time>
      </trkpt>
      <trkpt lat="46.56681" lon="0.21053">
        <ele>-44.8</ele>
        <time>2023-12-03T09:47:36Z</time>
      </trkpt>
      <trkpt lat="46.56688" lon="0.21044">
        <ele>-44.6</ele>
        <time>2023-12-03T09:47:38Z</time>
      </trkpt>
      <trkpt lat="46.56707" lon="0.21022">
        <ele>-44.4</ele>
        <time>2023-12-03T09:47:43Z</time>
      </trkpt>
      <trkpt lat="46.56709" lon="0.21016">
        <ele>-44.2</ele>
        <time>2023-12-03T09:47:44Z</time>
      </trkpt>
      <trkpt lat="46.56709" lon="0.21011">
        <ele>-44</ele>
        <time>2023-12-03T09:47:45Z</time>
      </trkpt>
      <trkpt lat="46.56705" lon="0.21003">
        <ele>-43.4</ele>
        <time>2023-12-03T09:47:47Z</time>
      </trkpt>
      <trkpt lat="46.56699" lon="0.20997">
        <ele>-43.2</ele>
        <time>2023-12-03T09:47:49Z</time>
      </trkpt>
      <trkpt lat="46.56696" lon="0.20994">
        <ele>-43.2</ele>
        <time>2023-12-03T09:47:50Z</time>
      </trkpt>
      <trkpt lat="46.56692" lon="0.20992">
        <ele>-43.2</ele>
        <time>2023-12-03T09:47:51Z</time>
      </trkpt>
      <trkpt lat="46.56682" lon="0.20984">
        <ele>-43.4</ele>
        <time>2023-12-03T09:47:54Z</time>
      </trkpt>
      <trkpt lat="46.56669" lon="0.20975">
        <ele>-43.6</ele>
        <time>2023-12-03T09:47:58Z</time>
      </trkpt>
      <trkpt lat="46.56665" lon="0.20972">
        <ele>-43.6</ele>
        <time>2023-12-03T09:47:59Z</time>
      </trkpt>
      <trkpt lat="46.56644" lon="0.20947">
        <ele>-43.6</ele>
        <time>2023-12-03T09:48:04Z</time>
      </trkpt>
      <trkpt lat="46.5662" lon="0.20914">
        <ele>-42.8</ele>
        <time>2023-12-03T09:48:11Z</time>
      </trkpt>
      <trkpt lat="46.56616" lon="0.20909">
        <ele>-42.6</ele>
        <time>2023-12-03T09:48:12Z</time>
      </trkpt>
      <trkpt lat="46.566" lon="0.20887">
        <ele>-42.2</ele>
        <time>2023-12-03T09:48:17Z</time>
      </trkpt>
      <trkpt lat="46.56577" lon="0.20856">
        <ele>-43</ele>
        <time>2023-12-03T09:48:24Z</time>
      </trkpt>
      <trkpt lat="46.56565" lon="0.20834">
        <ele>-43.2</ele>
        <time>2023-12-03T09:48:27Z</time>
      </trkpt>
      <trkpt lat="46.56563" lon="0.20825">
        <ele>-43.2</ele>
        <time>2023-12-03T09:48:28Z</time>
      </trkpt>
      <trkpt lat="46.56558" lon="0.20807">
        <ele>-43</ele>
        <time>2023-12-03T09:48:30Z</time>
      </trkpt>
      <trkpt lat="46.56552" lon="0.2077">
        <ele>-42.8</ele>
        <time>2023-12-03T09:48:34Z</time>
      </trkpt>
      <trkpt lat="46.56551" lon="0.2073">
        <ele>-42.6</ele>
        <time>2023-12-03T09:48:39Z</time>
      </trkpt>
      <trkpt lat="46.56551" lon="0.20723">
        <ele>-42.6</ele>
        <time>2023-12-03T09:48:40Z</time>
      </trkpt>
      <trkpt lat="46.56553" lon="0.20689">
        <ele>-42.2</ele>
        <time>2023-12-03T09:48:45Z</time>
      </trkpt>
      <trkpt lat="46.56553" lon="0.2068">
        <ele>-42.2</ele>
        <time>2023-12-03T09:48:46Z</time>
      </trkpt>
      <trkpt lat="46.56554" lon="0.20673">
        <ele>-42.2</ele>
        <time>2023-12-03T09:48:47Z</time>
      </trkpt>
      <trkpt lat="46.56558" lon="0.20661">
        <ele>-42</ele>
        <time>2023-12-03T09:48:49Z</time>
      </trkpt>
      <trkpt lat="46.5656" lon="0.20656">
        <ele>-41.8</ele>
        <time>2023-12-03T09:48:50Z</time>
      </trkpt>
      <trkpt lat="46.56563" lon="0.20646">
        <ele>-41.6</ele>
        <time>2023-12-03T09:48:52Z</time>
      </trkpt>
      <trkpt lat="46.56567" lon="0.2063">
        <ele>-41</ele>
        <time>2023-12-03T09:48:55Z</time>
      </trkpt>
      <trkpt lat="46.56568" lon="0.20626">
        <ele>-40.8</ele>
        <time>2023-12-03T09:48:56Z</time>
      </trkpt>
      <trkpt lat="46.56578" lon="0.20605">
        <ele>-40</ele>
        <time>2023-12-03T09:49:01Z</time>
      </trkpt>
      <trkpt lat="46.5659" lon="0.20587">
        <ele>-39.6</ele>
        <time>2023-12-03T09:49:05Z</time>
      </trkpt>
      <trkpt lat="46.56615" lon="0.20549">
        <ele>-40.2</ele>
        <time>2023-12-03T09:49:12Z</time>
      </trkpt>
      <trkpt lat="46.56637" lon="0.20528">
        <ele>-41</ele>
        <time>2023-12-03T09:49:16Z</time>
      </trkpt>
      <trkpt lat="46.56641" lon="0.20522">
        <ele>-41.2</ele>
        <time>2023-12-03T09:49:17Z</time>
      </trkpt>
      <trkpt lat="46.56646" lon="0.20515">
        <ele>-41.4</ele>
        <time>2023-12-03T09:49:18Z</time>
      </trkpt>
      <trkpt lat="46.56649" lon="0.20506">
        <ele>-41.6</ele>
        <time>2023-12-03T09:49:19Z</time>
      </trkpt>
      <trkpt lat="46.56655" lon="0.2049">
        <ele>-41.8</ele>
        <time>2023-12-03T09:49:21Z</time>
      </trkpt>
      <trkpt lat="46.56657" lon="0.20473">
        <ele>-42</ele>
        <time>2023-12-03T09:49:23Z</time>
      </trkpt>
      <trkpt lat="46.56654" lon="0.20456">
        <ele>-41.6</ele>
        <time>2023-12-03T09:49:25Z</time>
      </trkpt>
      <trkpt lat="46.56645" lon="0.20426">
        <ele>-41.2</ele>
        <time>2023-12-03T09:49:29Z</time>
      </trkpt>
      <trkpt lat="46.56641" lon="0.20405">
        <ele>-40.6</ele>
        <time>2023-12-03T09:49:33Z</time>
      </trkpt>
      <trkpt lat="46.5664" lon="0.20394">
        <ele>-39.8</ele>
        <time>2023-12-03T09:49:35Z</time>
      </trkpt>
      <trkpt lat="46.5664" lon="0.20379">
        <ele>-38.8</ele>
        <time>2023-12-03T09:49:38Z</time>
      </trkpt>
      <trkpt lat="46.56642" lon="0.20366">
        <ele>-37.8</ele>
        <time>2023-12-03T09:49:41Z</time>
      </trkpt>
      <trkpt lat="46.56644" lon="0.20363">
        <ele>-37.4</ele>
        <time>2023-12-03T09:49:42Z</time>
      </trkpt>
      <trkpt lat="46.56647" lon="0.20356">
        <ele>-36.4</ele>
        <time>2023-12-03T09:49:44Z</time>
      </trkpt>
      <trkpt lat="46.56648" lon="0.20338">
        <ele>-35.4</ele>
        <time>2023-12-03T09:49:48Z</time>
      </trkpt>
      <trkpt lat="46.56648" lon="0.20334">
        <ele>-35.2</ele>
        <time>2023-12-03T09:49:49Z</time>
      </trkpt>
      <trkpt lat="46.56648" lon="0.20326">
        <ele>-34.4</ele>
        <time>2023-12-03T09:49:51Z</time>
      </trkpt>
      <trkpt lat="46.56644" lon="0.20315">
        <ele>-33.8</ele>
        <time>2023-12-03T09:49:53Z</time>
      </trkpt>
      <trkpt lat="46.56641" lon="0.20304">
        <ele>-33.2</ele>
        <time>2023-12-03T09:49:55Z</time>
      </trkpt>
      <trkpt lat="46.56637" lon="0.20294">
        <ele>-32</ele>
        <time>2023-12-03T09:49:58Z</time>
      </trkpt>
      <trkpt lat="46.56636" lon="0.2028">
        <ele>-31.6</ele>
        <time>2023-12-03T09:50:01Z</time>
      </trkpt>
      <trkpt lat="46.56636" lon="0.20247">
        <ele>-31.2</ele>
        <time>2023-12-03T09:50:07Z</time>
      </trkpt>
      <trkpt lat="46.56635" lon="0.2024">
        <ele>-31</ele>
        <time>2023-12-03T09:50:08Z</time>
      </trkpt>
      <trkpt lat="46.56635" lon="0.20206">
        <ele>-30.2</ele>
        <time>2023-12-03T09:50:14Z</time>
      </trkpt>
      <trkpt lat="46.56635" lon="0.20196">
        <ele>-30.2</ele>
        <time>2023-12-03T09:50:16Z</time>
      </trkpt>
      <trkpt lat="46.56633" lon="0.20187">
        <ele>-29.8</ele>
        <time>2023-12-03T09:50:18Z</time>
      </trkpt>
      <trkpt lat="46.56633" lon="0.20183">
        <ele>-29.8</ele>
        <time>2023-12-03T09:50:19Z</time>
      </trkpt>
      <trkpt lat="46.56628" lon="0.20163">
        <ele>-29</ele>
        <time>2023-12-03T09:50:25Z</time>
      </trkpt>
      <trkpt lat="46.56627" lon="0.2016">
        <ele>-28.8</ele>
        <time>2023-12-03T09:50:26Z</time>
      </trkpt>
      <trkpt lat="46.56625" lon="0.20153">
        <ele>-28.4</ele>
        <time>2023-12-03T09:50:28Z</time>
      </trkpt>
      <trkpt lat="46.56623" lon="0.20147">
        <ele>-28</ele>
        <time>2023-12-03T09:50:30Z</time>
      </trkpt>
      <trkpt lat="46.56623" lon="0.20144">
        <ele>-27.6</ele>
        <time>2023-12-03T09:50:31Z</time>
      </trkpt>
      <trkpt lat="46.56617" lon="0.20127">
        <ele>-26.2</ele>
        <time>2023-12-03T09:50:36Z</time>
      </trkpt>
      <trkpt lat="46.56616" lon="0.20124">
        <ele>-25.8</ele>
        <time>2023-12-03T09:50:37Z</time>
      </trkpt>
      <trkpt lat="46.56613" lon="0.20115">
        <ele>-25.2</ele>
        <time>2023-12-03T09:50:39Z</time>
      </trkpt>
      <trkpt lat="46.56607" lon="0.20099">
        <ele>-24.6</ele>
        <time>2023-12-03T09:50:43Z</time>
      </trkpt>
      <trkpt lat="46.56601" lon="0.20078">
        <ele>-24.2</ele>
        <time>2023-12-03T09:50:48Z</time>
      </trkpt>
      <trkpt lat="46.56598" lon="0.20069">
        <ele>-23.8</ele>
        <time>2023-12-03T09:50:50Z</time>
      </trkpt>
      <trkpt lat="46.56591" lon="0.20045">
        <ele>-23</ele>
        <time>2023-12-03T09:50:55Z</time>
      </trkpt>
      <trkpt lat="46.56588" lon="0.20035">
        <ele>-22.8</ele>
        <time>2023-12-03T09:50:57Z</time>
      </trkpt>
      <trkpt lat="46.56576" lon="0.20003">
        <ele>-21.8</ele>
        <time>2023-12-03T09:51:04Z</time>
      </trkpt>
      <trkpt lat="46.56563" lon="0.19993">
        <ele>-21.2</ele>
        <time>2023-12-03T09:51:09Z</time>
      </trkpt>
      <trkpt lat="46.56558" lon="0.19993">
        <ele>-20.8</ele>
        <time>2023-12-03T09:51:11Z</time>
      </trkpt>
      <trkpt lat="46.56556" lon="0.19992">
        <ele>-20.4</ele>
        <time>2023-12-03T09:51:12Z</time>
      </trkpt>
      <trkpt lat="46.56548" lon="0.19992">
        <ele>-19.6</ele>
        <time>2023-12-03T09:51:15Z</time>
      </trkpt>
      <trkpt lat="46.56536" lon="0.19989">
        <ele>-18.6</ele>
        <time>2023-12-03T09:51:19Z</time>
      </trkpt>
      <trkpt lat="46.56527" lon="0.19986">
        <ele>-17.8</ele>
        <time>2023-12-03T09:51:22Z</time>
      </trkpt>
      <trkpt lat="46.56523" lon="0.19985">
        <ele>-17.4</ele>
        <time>2023-12-03T09:51:23Z</time>
      </trkpt>
      <trkpt lat="46.56509" lon="0.1998">
        <ele>-16.4</ele>
        <time>2023-12-03T09:51:28Z</time>
      </trkpt>
      <trkpt lat="46.56506" lon="0.19979">
        <ele>-16.2</ele>
        <time>2023-12-03T09:51:29Z</time>
      </trkpt>
      <trkpt lat="46.56493" lon="0.19975">
        <ele>-15</ele>
        <time>2023-12-03T09:51:34Z</time>
      </trkpt>
      <trkpt lat="46.56487" lon="0.19974">
        <ele>-14.8</ele>
        <time>2023-12-03T09:51:36Z</time>
      </trkpt>
      <trkpt lat="46.56482" lon="0.19973">
        <ele>-14</ele>
        <time>2023-12-03T09:51:38Z</time>
      </trkpt>
      <trkpt lat="46.56471" lon="0.19969">
        <ele>-12.8</ele>
        <time>2023-12-03T09:51:42Z</time>
      </trkpt>
      <trkpt lat="46.56462" lon="0.19966">
        <ele>-12.4</ele>
        <time>2023-12-03T09:51:45Z</time>
      </trkpt>
      <trkpt lat="46.56453" lon="0.19963">
        <ele>-11.8</ele>
        <time>2023-12-03T09:51:48Z</time>
      </trkpt>
      <trkpt lat="46.56442" lon="0.1996">
        <ele>-10.8</ele>
        <time>2023-12-03T09:51:52Z</time>
      </trkpt>
      <trkpt lat="46.56439" lon="0.19959">
        <ele>-10.4</ele>
        <time>2023-12-03T09:51:53Z</time>
      </trkpt>
      <trkpt lat="46.56425" lon="0.19954">
        <ele>-9.2</ele>
        <time>2023-12-03T09:51:58Z</time>
      </trkpt>
      <trkpt lat="46.56422" lon="0.19952">
        <ele>-9</ele>
        <time>2023-12-03T09:51:59Z</time>
      </trkpt>
      <trkpt lat="46.56406" lon="0.19946">
        <ele>-8.2</ele>
        <time>2023-12-03T09:52:04Z</time>
      </trkpt>
      <trkpt lat="46.56399" lon="0.19942">
        <ele>-7.6</ele>
        <time>2023-12-03T09:52:06Z</time>
      </trkpt>
      <trkpt lat="46.56392" lon="0.19939">
        <ele>-7.2</ele>
        <time>2023-12-03T09:52:08Z</time>
      </trkpt>
      <trkpt lat="46.56371" lon="0.19928">
        <ele>-6.6</ele>
        <time>2023-12-03T09:52:14Z</time>
      </trkpt>
      <trkpt lat="46.5636" lon="0.19923">
        <ele>-6</ele>
        <time>2023-12-03T09:52:17Z</time>
      </trkpt>
      <trkpt lat="46.56342" lon="0.19917">
        <ele>-5.4</ele>
        <time>2023-12-03T09:52:22Z</time>
      </trkpt>
      <trkpt lat="46.56332" lon="0.19913">
        <ele>-4.8</ele>
        <time>2023-12-03T09:52:25Z</time>
      </trkpt>
      <trkpt lat="46.5632" lon="0.19908">
        <ele>-4.2</ele>
        <time>2023-12-03T09:52:28Z</time>
      </trkpt>
      <trkpt lat="46.56306" lon="0.19902">
        <ele>-4</ele>
        <time>2023-12-03T09:52:32Z</time>
      </trkpt>
      <trkpt lat="46.56303" lon="0.19901">
        <ele>-3.8</ele>
        <time>2023-12-03T09:52:33Z</time>
      </trkpt>
      <trkpt lat="46.56299" lon="0.19899">
        <ele>-3.8</ele>
        <time>2023-12-03T09:52:34Z</time>
      </trkpt>
      <trkpt lat="46.56279" lon="0.19889">
        <ele>-3.2</ele>
        <time>2023-12-03T09:52:40Z</time>
      </trkpt>
      <trkpt lat="46.56275" lon="0.19887">
        <ele>-3</ele>
        <time>2023-12-03T09:52:41Z</time>
      </trkpt>
      <trkpt lat="46.56272" lon="0.19884">
        <ele>-2.8</ele>
        <time>2023-12-03T09:52:42Z</time>
      </trkpt>
      <trkpt lat="46.56249" lon="0.19868">
        <ele>-1.6</ele>
        <time>2023-12-03T09:52:49Z</time>
      </trkpt>
      <trkpt lat="46.56224" lon="0.19852">
        <ele>-0.6</ele>
        <time>2023-12-03T09:52:56Z</time>
      </trkpt>
      <trkpt lat="46.56217" lon="0.19848">
        <ele>-0.4</ele>
        <time>2023-12-03T09:52:58Z</time>
      </trkpt>
      <trkpt lat="46.56191" lon="0.19838">
        <ele>0.6</ele>
        <time>2023-12-03T09:53:05Z</time>
      </trkpt>
      <trkpt lat="46.56187" lon="0.19837">
        <ele>0.8</ele>
        <time>2023-12-03T09:53:06Z</time>
      </trkpt>
      <trkpt lat="46.56164" lon="0.19836">
        <ele>1.4</ele>
        <time>2023-12-03T09:53:13Z</time>
      </trkpt>
      <trkpt lat="46.56156" lon="0.19837">
        <ele>2</ele>
        <time>2023-12-03T09:53:15Z</time>
      </trkpt>
      <trkpt lat="46.56141" lon="0.19842">
        <ele>2.2</ele>
        <time>2023-12-03T09:53:19Z</time>
      </trkpt>
      <trkpt lat="46.56107" lon="0.19848">
        <ele>2</ele>
        <time>2023-12-03T09:53:27Z</time>
      </trkpt>
      <trkpt lat="46.56081" lon="0.1985">
        <ele>2.2</ele>
        <time>2023-12-03T09:53:33Z</time>
      </trkpt>
      <trkpt lat="46.56067" lon="0.19848">
        <ele>2.2</ele>
        <time>2023-12-03T09:53:36Z</time>
      </trkpt>
      <trkpt lat="46.5604" lon="0.1984">
        <ele>2.2</ele>
        <time>2023-12-03T09:53:42Z</time>
      </trkpt>
      <trkpt lat="46.56032" lon="0.19837">
        <ele>2</ele>
        <time>2023-12-03T09:53:44Z</time>
      </trkpt>
      <trkpt lat="46.56005" lon="0.19823">
        <ele>2.4</ele>
        <time>2023-12-03T09:53:51Z</time>
      </trkpt>
      <trkpt lat="46.55987" lon="0.19805">
        <ele>3</ele>
        <time>2023-12-03T09:53:56Z</time>
      </trkpt>
      <trkpt lat="46.5598" lon="0.19796">
        <ele>3.2</ele>
        <time>2023-12-03T09:53:58Z</time>
      </trkpt>
      <trkpt lat="46.55968" lon="0.1978">
        <ele>3.6</ele>
        <time>2023-12-03T09:54:02Z</time>
      </trkpt>
      <trkpt lat="46.55965" lon="0.19769">
        <ele>3.8</ele>
        <time>2023-12-03T09:54:04Z</time>
      </trkpt>
      <trkpt lat="46.55963" lon="0.19739">
        <ele>3.8</ele>
        <time>2023-12-03T09:54:09Z</time>
      </trkpt>
      <trkpt lat="46.5596" lon="0.19707">
        <ele>3.8</ele>
        <time>2023-12-03T09:54:14Z</time>
      </trkpt>
      <trkpt lat="46.55959" lon="0.19701">
        <ele>3.8</ele>
        <time>2023-12-03T09:54:15Z</time>
      </trkpt>
      <trkpt lat="46.55953" lon="0.19683">
        <ele>4</ele>
        <time>2023-12-03T09:54:18Z</time>
      </trkpt>
      <trkpt lat="46.55948" lon="0.19672">
        <ele>4.2</ele>
        <time>2023-12-03T09:54:20Z</time>
      </trkpt>
      <trkpt lat="46.55938" lon="0.19647">
        <ele>4.4</ele>
        <time>2023-12-03T09:54:24Z</time>
      </trkpt>
      <trkpt lat="46.55933" lon="0.19627">
        <ele>4.6</ele>
        <time>2023-12-03T09:54:27Z</time>
      </trkpt>
      <trkpt lat="46.55923" lon="0.19586">
        <ele>5</ele>
        <time>2023-12-03T09:54:34Z</time>
      </trkpt>
      <trkpt lat="46.55922" lon="0.19579">
        <ele>5</ele>
        <time>2023-12-03T09:54:35Z</time>
      </trkpt>
      <trkpt lat="46.55915" lon="0.19542">
        <ele>5.8</ele>
        <time>2023-12-03T09:54:41Z</time>
      </trkpt>
      <trkpt lat="46.55912" lon="0.19497">
        <ele>5.2</ele>
        <time>2023-12-03T09:54:48Z</time>
      </trkpt>
      <trkpt lat="46.55912" lon="0.19486">
        <ele>5</ele>
        <time>2023-12-03T09:54:50Z</time>
      </trkpt>
      <trkpt lat="46.55914" lon="0.19468">
        <ele>5</ele>
        <time>2023-12-03T09:54:53Z</time>
      </trkpt>
      <trkpt lat="46.55923" lon="0.19428">
        <ele>4.4</ele>
        <time>2023-12-03T09:54:59Z</time>
      </trkpt>
      <trkpt lat="46.55927" lon="0.19413">
        <ele>4</ele>
        <time>2023-12-03T09:55:01Z</time>
      </trkpt>
      <trkpt lat="46.55933" lon="0.19398">
        <ele>3.8</ele>
        <time>2023-12-03T09:55:03Z</time>
      </trkpt>
      <trkpt lat="46.55942" lon="0.19375">
        <ele>3.6</ele>
        <time>2023-12-03T09:55:06Z</time>
      </trkpt>
      <trkpt lat="46.55958" lon="0.19329">
        <ele>2.8</ele>
        <time>2023-12-03T09:55:12Z</time>
      </trkpt>
      <trkpt lat="46.55961" lon="0.19323">
        <ele>2.8</ele>
        <time>2023-12-03T09:55:13Z</time>
      </trkpt>
      <trkpt lat="46.55972" lon="0.19285">
        <ele>2.8</ele>
        <time>2023-12-03T09:55:18Z</time>
      </trkpt>
      <trkpt lat="46.55975" lon="0.19273">
        <ele>2.6</ele>
        <time>2023-12-03T09:55:20Z</time>
      </trkpt>
      <trkpt lat="46.5598" lon="0.19269">
        <ele>2.6</ele>
        <time>2023-12-03T09:55:22Z</time>
      </trkpt>
      <trkpt lat="46.55986" lon="0.19272">
        <ele>2.4</ele>
        <time>2023-12-03T09:55:24Z</time>
      </trkpt>
      <trkpt lat="46.55989" lon="0.19276">
        <ele>2.4</ele>
        <time>2023-12-03T09:55:26Z</time>
      </trkpt>
      <trkpt lat="46.55989" lon="0.19279">
        <ele>2.2</ele>
        <time>2023-12-03T09:55:27Z</time>
      </trkpt>
      <trkpt lat="46.55987" lon="0.19281">
        <ele>1.8</ele>
        <time>2023-12-03T09:55:29Z</time>
      </trkpt>
      <trkpt lat="46.55987" lon="0.19282">
        <ele>1.8</ele>
        <time>2023-12-03T09:55:30Z</time>
      </trkpt>
      <trkpt lat="46.55979" lon="0.19292">
        <ele>2.2</ele>
        <time>2023-12-03T09:55:35Z</time>
      </trkpt>
      <trkpt lat="46.55978" lon="0.19301">
        <ele>1.6</ele>
        <time>2023-12-03T09:55:38Z</time>
      </trkpt>
      <trkpt lat="46.55975" lon="0.19307">
        <ele>1.2</ele>
        <time>2023-12-03T09:55:40Z</time>
      </trkpt>
      <trkpt lat="46.55972" lon="0.19313">
        <ele>1</ele>
        <time>2023-12-03T09:55:42Z</time>
      </trkpt>
      <trkpt lat="46.55971" lon="0.1932">
        <ele>1</ele>
        <time>2023-12-03T09:55:44Z</time>
      </trkpt>
      <trkpt lat="46.55969" lon="0.19327">
        <ele>1.2</ele>
        <time>2023-12-03T09:55:46Z</time>
      </trkpt>
      <trkpt lat="46.55966" lon="0.19335">
        <ele>1.6</ele>
        <time>2023-12-03T09:55:48Z</time>
      </trkpt>
      <trkpt lat="46.55963" lon="0.19342">
        <ele>1.6</ele>
        <time>2023-12-03T09:55:50Z</time>
      </trkpt>
      <trkpt lat="46.55962" lon="0.19346">
        <ele>1.6</ele>
        <time>2023-12-03T09:55:51Z</time>
      </trkpt>
      <trkpt lat="46.55961" lon="0.1935">
        <ele>1.6</ele>
        <time>2023-12-03T09:55:52Z</time>
      </trkpt>
      <trkpt lat="46.55965" lon="0.19359">
        <ele>1.6</ele>
        <time>2023-12-03T09:55:55Z</time>
      </trkpt>
      <trkpt lat="46.55969" lon="0.19364">
        <ele>1.6</ele>
        <time>2023-12-03T09:55:57Z</time>
      </trkpt>
      <trkpt lat="46.55979" lon="0.1937">
        <ele>1.2</ele>
        <time>2023-12-03T09:56:00Z</time>
      </trkpt>
      <trkpt lat="46.56" lon="0.1938">
        <ele>1</ele>
        <time>2023-12-03T09:56:06Z</time>
      </trkpt>
      <trkpt lat="46.56" lon="0.1938">
        <ele>0.6</ele>
        <time>2023-12-03T09:56:07Z</time>
      </trkpt>
      <trkpt lat="46.56017" lon="0.19385">
        <ele>135.4</ele>
        <time>2023-12-03T09:56:11Z</time>
      </trkpt>
      <trkpt lat="46.56024" lon="0.19386">
        <ele>135</ele>
        <time>2023-12-03T09:56:13Z</time>
      </trkpt>
      <trkpt lat="46.56045" lon="0.19394">
        <ele>0.4</ele>
        <time>2023-12-03T09:56:18Z</time>
      </trkpt>
      <trkpt lat="46.56058" lon="0.19396">
        <ele>0.2</ele>
        <time>2023-12-03T09:56:21Z</time>
      </trkpt>
      <trkpt lat="46.56066" lon="0.19399">
        <ele>0.2</ele>
        <time>2023-12-03T09:56:23Z</time>
      </trkpt>
      <trkpt lat="46.56093" lon="0.19403">
        <ele>133.2</ele>
        <time>2023-12-03T09:56:29Z</time>
      </trkpt>
      <trkpt lat="46.56111" lon="0.19407">
        <ele>133</ele>
        <time>2023-12-03T09:56:33Z</time>
      </trkpt>
      <trkpt lat="46.56119" lon="0.19411">
        <ele>132.8</ele>
        <time>2023-12-03T09:56:35Z</time>
      </trkpt>
      <trkpt lat="46.56124" lon="0.19418">
        <ele>133.2</ele>
        <time>2023-12-03T09:56:37Z</time>
      </trkpt>
      <trkpt lat="46.56128" lon="0.19425">
        <ele>133.4</ele>
        <time>2023-12-03T09:56:39Z</time>
      </trkpt>
      <trkpt lat="46.56138" lon="0.19452">
        <ele>0.8</ele>
        <time>2023-12-03T09:56:45Z</time>
      </trkpt>
      <trkpt lat="46.56139" lon="0.19457">
        <ele>1</ele>
        <time>2023-12-03T09:56:46Z</time>
      </trkpt>
      <trkpt lat="46.5614" lon="0.19462">
        <ele>1</ele>
        <time>2023-12-03T09:56:47Z</time>
      </trkpt>
      <trkpt lat="46.56142" lon="0.19467">
        <ele>1.2</ele>
        <time>2023-12-03T09:56:49Z</time>
      </trkpt>
      <trkpt lat="46.56143" lon="0.19469">
        <ele>1.2</ele>
        <time>2023-12-03T09:56:50Z</time>
      </trkpt>
      <trkpt lat="46.56154" lon="0.1948">
        <ele>1</ele>
        <time>2023-12-03T09:56:55Z</time>
      </trkpt>
      <trkpt lat="46.56173" lon="0.19492">
        <ele>0.8</ele>
        <time>2023-12-03T09:57:00Z</time>
      </trkpt>
      <trkpt lat="46.56189" lon="0.19501">
        <ele>-0.4</ele>
        <time>2023-12-03T09:57:04Z</time>
      </trkpt>
      <trkpt lat="46.56196" lon="0.19508">
        <ele>-1</ele>
        <time>2023-12-03T09:57:06Z</time>
      </trkpt>
      <trkpt lat="46.56204" lon="0.19514">
        <ele>-1.6</ele>
        <time>2023-12-03T09:57:08Z</time>
      </trkpt>
      <trkpt lat="46.56209" lon="0.19516">
        <ele>-2</ele>
        <time>2023-12-03T09:57:09Z</time>
      </trkpt>
      <trkpt lat="46.56213" lon="0.19518">
        <ele>-2.6</ele>
        <time>2023-12-03T09:57:10Z</time>
      </trkpt>
      <trkpt lat="46.56219" lon="0.19519">
        <ele>-3.4</ele>
        <time>2023-12-03T09:57:11Z</time>
      </trkpt>
      <trkpt lat="46.56223" lon="0.19519">
        <ele>-3.8</ele>
        <time>2023-12-03T09:57:12Z</time>
      </trkpt>
      <trkpt lat="46.56231" lon="0.19523">
        <ele>-5.4</ele>
        <time>2023-12-03T09:57:14Z</time>
      </trkpt>
      <trkpt lat="46.56234" lon="0.19523">
        <ele>-6.2</ele>
        <time>2023-12-03T09:57:15Z</time>
      </trkpt>
      <trkpt lat="46.56235" lon="0.19523">
        <ele>-7</ele>
        <time>2023-12-03T09:57:16Z</time>
      </trkpt>
      <trkpt lat="46.56237" lon="0.19521">
        <ele>-8.4</ele>
        <time>2023-12-03T09:57:19Z</time>
      </trkpt>
      <trkpt lat="46.56233" lon="0.19507">
        <ele>-9</ele>
        <time>2023-12-03T09:57:24Z</time>
      </trkpt>
      <trkpt lat="46.56232" lon="0.19502">
        <ele>-9.4</ele>
        <time>2023-12-03T09:57:26Z</time>
      </trkpt>
      <trkpt lat="46.5623" lon="0.1949">
        <ele>-10.8</ele>
        <time>2023-12-03T09:57:29Z</time>
      </trkpt>
      <trkpt lat="46.56229" lon="0.19486">
        <ele>-11.6</ele>
        <time>2023-12-03T09:57:30Z</time>
      </trkpt>
      <trkpt lat="46.56228" lon="0.19482">
        <ele>-12.4</ele>
        <time>2023-12-03T09:57:31Z</time>
      </trkpt>
      <trkpt lat="46.56226" lon="0.19474">
        <ele>-13.6</ele>
        <time>2023-12-03T09:57:34Z</time>
      </trkpt>
      <trkpt lat="46.56225" lon="0.19471">
        <ele>-14.4</ele>
        <time>2023-12-03T09:57:35Z</time>
      </trkpt>
      <trkpt lat="46.56223" lon="0.19468">
        <ele>-15</ele>
        <time>2023-12-03T09:57:36Z</time>
      </trkpt>
      <trkpt lat="46.56219" lon="0.19455">
        <ele>-16.2</ele>
        <time>2023-12-03T09:57:39Z</time>
      </trkpt>
      <trkpt lat="46.56218" lon="0.1945">
        <ele>-16.4</ele>
        <time>2023-12-03T09:57:40Z</time>
      </trkpt>
      <trkpt lat="46.56215" lon="0.19441">
        <ele>-17.4</ele>
        <time>2023-12-03T09:57:42Z</time>
      </trkpt>
      <trkpt lat="46.56213" lon="0.19434">
        <ele>-18.2</ele>
        <time>2023-12-03T09:57:44Z</time>
      </trkpt>
      <trkpt lat="46.56211" lon="0.19429">
        <ele>-18.6</ele>
        <time>2023-12-03T09:57:45Z</time>
      </trkpt>
      <trkpt lat="46.56207" lon="0.19417">
        <ele>-19.6</ele>
        <time>2023-12-03T09:57:48Z</time>
      </trkpt>
      <trkpt lat="46.56205" lon="0.19413">
        <ele>-19.8</ele>
        <time>2023-12-03T09:57:49Z</time>
      </trkpt>
      <trkpt lat="46.56202" lon="0.19403">
        <ele>-20.6</ele>
        <time>2023-12-03T09:57:52Z</time>
      </trkpt>
      <trkpt lat="46.56201" lon="0.19401">
        <ele>-20.8</ele>
        <time>2023-12-03T09:57:53Z</time>
      </trkpt>
      <trkpt lat="46.56195" lon="0.19386">
        <ele>-21.2</ele>
        <time>2023-12-03T09:57:59Z</time>
      </trkpt>
      <trkpt lat="46.56185" lon="0.19365">
        <ele>-19.8</ele>
        <time>2023-12-03T09:58:05Z</time>
      </trkpt>
      <trkpt lat="46.56184" lon="0.19361">
        <ele>-19.8</ele>
        <time>2023-12-03T09:58:06Z</time>
      </trkpt>
      <trkpt lat="46.56175" lon="0.19342">
        <ele>-20</ele>
        <time>2023-12-03T09:58:11Z</time>
      </trkpt>
      <trkpt lat="46.56161" lon="0.19317">
        <ele>-20</ele>
        <time>2023-12-03T09:58:17Z</time>
      </trkpt>
      <trkpt lat="46.56155" lon="0.19311">
        <ele>-20</ele>
        <time>2023-12-03T09:58:20Z</time>
      </trkpt>
      <trkpt lat="46.56152" lon="0.19306">
        <ele>-20.6</ele>
        <time>2023-12-03T09:58:22Z</time>
      </trkpt>
      <trkpt lat="46.5615" lon="0.19302">
        <ele>-21</ele>
        <time>2023-12-03T09:58:23Z</time>
      </trkpt>
      <trkpt lat="46.56148" lon="0.19296">
        <ele>-22</ele>
        <time>2023-12-03T09:58:25Z</time>
      </trkpt>
      <trkpt lat="46.56148" lon="0.1929">
        <ele>-23.2</ele>
        <time>2023-12-03T09:58:27Z</time>
      </trkpt>
      <trkpt lat="46.56152" lon="0.19283">
        <ele>-25.2</ele>
        <time>2023-12-03T09:58:30Z</time>
      </trkpt>
      <trkpt lat="46.56152" lon="0.19279">
        <ele>-25.8</ele>
        <time>2023-12-03T09:58:31Z</time>
      </trkpt>
      <trkpt lat="46.56154" lon="0.19276">
        <ele>-26.8</ele>
        <time>2023-12-03T09:58:32Z</time>
      </trkpt>
      <trkpt lat="46.56154" lon="0.19272">
        <ele>-27.8</ele>
        <time>2023-12-03T09:58:33Z</time>
      </trkpt>
      <trkpt lat="46.56156" lon="0.19269">
        <ele>-29.8</ele>
        <time>2023-12-03T09:58:35Z</time>
      </trkpt>
      <trkpt lat="46.56157" lon="0.19266">
        <ele>-31.2</ele>
        <time>2023-12-03T09:58:36Z</time>
      </trkpt>
      <trkpt lat="46.56157" lon="0.19264">
        <ele>-32</ele>
        <time>2023-12-03T09:58:37Z</time>
      </trkpt>
      <trkpt lat="46.56158" lon="0.19263">
        <ele>-33.2</ele>
        <time>2023-12-03T09:58:38Z</time>
      </trkpt>
      <trkpt lat="46.56163" lon="0.19262">
        <ele>-34.6</ele>
        <time>2023-12-03T09:58:40Z</time>
      </trkpt>
      <trkpt lat="46.56166" lon="0.19261">
        <ele>-36</ele>
        <time>2023-12-03T09:58:41Z</time>
      </trkpt>
      <trkpt lat="46.56171" lon="0.19256">
        <ele>-37.2</ele>
        <time>2023-12-03T09:58:43Z</time>
      </trkpt>
      <trkpt lat="46.56173" lon="0.19253">
        <ele>-37.4</ele>
        <time>2023-12-03T09:58:44Z</time>
      </trkpt>
      <trkpt lat="46.56178" lon="0.19251">
        <ele>-37.8</ele>
        <time>2023-12-03T09:58:46Z</time>
      </trkpt>
      <trkpt lat="46.56186" lon="0.19256">
        <ele>-38</ele>
        <time>2023-12-03T09:58:50Z</time>
      </trkpt>
      <trkpt lat="46.56188" lon="0.19257">
        <ele>-38.2</ele>
        <time>2023-12-03T09:58:51Z</time>
      </trkpt>
      <trkpt lat="46.56197" lon="0.19257">
        <ele>-38.6</ele>
        <time>2023-12-03T09:58:55Z</time>
      </trkpt>
      <trkpt lat="46.56201" lon="0.19254">
        <ele>-39</ele>
        <time>2023-12-03T09:58:57Z</time>
      </trkpt>
      <trkpt lat="46.56203" lon="0.19249">
        <ele>-39.2</ele>
        <time>2023-12-03T09:58:59Z</time>
      </trkpt>
      <trkpt lat="46.56204" lon="0.19247">
        <ele>-39.2</ele>
        <time>2023-12-03T09:59:00Z</time>
      </trkpt>
      <trkpt lat="46.56209" lon="0.19227">
        <ele>-39</ele>
        <time>2023-12-03T09:59:04Z</time>
      </trkpt>
      <trkpt lat="46.56218" lon="0.19198">
        <ele>-38.8</ele>
        <time>2023-12-03T09:59:10Z</time>
      </trkpt>
      <trkpt lat="46.56222" lon="0.1918">
        <ele>-38.4</ele>
        <time>2023-12-03T09:59:14Z</time>
      </trkpt>
      <trkpt lat="46.56223" lon="0.19176">
        <ele>-38.4</ele>
        <time>2023-12-03T09:59:15Z</time>
      </trkpt>
      <trkpt lat="46.56228" lon="0.19154">
        <ele>-38.4</ele>
        <time>2023-12-03T09:59:20Z</time>
      </trkpt>
      <trkpt lat="46.56233" lon="0.19138">
        <ele>-38.4</ele>
        <time>2023-12-03T09:59:24Z</time>
      </trkpt>
      <trkpt lat="46.56234" lon="0.19135">
        <ele>-38.6</ele>
        <time>2023-12-03T09:59:25Z</time>
      </trkpt>
      <trkpt lat="46.56238" lon="0.19128">
        <ele>-38.6</ele>
        <time>2023-12-03T09:59:27Z</time>
      </trkpt>
      <trkpt lat="46.56242" lon="0.19123">
        <ele>-38.6</ele>
        <time>2023-12-03T09:59:29Z</time>
      </trkpt>
      <trkpt lat="46.56247" lon="0.1912">
        <ele>-38.6</ele>
        <time>2023-12-03T09:59:31Z</time>
      </trkpt>
      <trkpt lat="46.56257" lon="0.19115">
        <ele>-38.2</ele>
        <time>2023-12-03T09:59:34Z</time>
      </trkpt>
      <trkpt lat="46.56263" lon="0.19113">
        <ele>-38.2</ele>
        <time>2023-12-03T09:59:35Z</time>
      </trkpt>
      <trkpt lat="46.56267" lon="0.19111">
        <ele>-38</ele>
        <time>2023-12-03T09:59:36Z</time>
      </trkpt>
      <trkpt lat="46.56273" lon="0.1911">
        <ele>-38</ele>
        <time>2023-12-03T09:59:37Z</time>
      </trkpt>
      <trkpt lat="46.56303" lon="0.19105">
        <ele>-38</ele>
        <time>2023-12-03T09:59:44Z</time>
      </trkpt>
      <trkpt lat="46.56316" lon="0.19105">
        <ele>-38.2</ele>
        <time>2023-12-03T09:59:47Z</time>
      </trkpt>
      <trkpt lat="46.56333" lon="0.19104">
        <ele>-37.6</ele>
        <time>2023-12-03T09:59:51Z</time>
      </trkpt>
      <trkpt lat="46.56342" lon="0.19105">
        <ele>-37.8</ele>
        <time>2023-12-03T09:59:53Z</time>
      </trkpt>
      <trkpt lat="46.56354" lon="0.19106">
        <ele>-38</ele>
        <time>2023-12-03T09:59:56Z</time>
      </trkpt>
      <trkpt lat="46.5638" lon="0.19111">
        <ele>-38.2</ele>
        <time>2023-12-03T10:00:02Z</time>
      </trkpt>
      <trkpt lat="46.56393" lon="0.19114">
        <ele>-38.2</ele>
        <time>2023-12-03T10:00:05Z</time>
      </trkpt>
      <trkpt lat="46.56402" lon="0.19112">
        <ele>-38</ele>
        <time>2023-12-03T10:00:08Z</time>
      </trkpt>
      <trkpt lat="46.56412" lon="0.19102">
        <ele>-37.6</ele>
        <time>2023-12-03T10:00:13Z</time>
      </trkpt>
      <trkpt lat="46.56413" lon="0.191">
        <ele>-37.6</ele>
        <time>2023-12-03T10:00:14Z</time>
      </trkpt>
      <trkpt lat="46.56413" lon="0.19094">
        <ele>-37.4</ele>
        <time>2023-12-03T10:00:16Z</time>
      </trkpt>
      <trkpt lat="46.56413" lon="0.1909">
        <ele>-37.2</ele>
        <time>2023-12-03T10:00:17Z</time>
      </trkpt>
      <trkpt lat="46.56412" lon="0.1908">
        <ele>-37</ele>
        <time>2023-12-03T10:00:19Z</time>
      </trkpt>
      <trkpt lat="46.5641" lon="0.19057">
        <ele>-36.6</ele>
        <time>2023-12-03T10:00:24Z</time>
      </trkpt>
      <trkpt lat="46.56403" lon="0.1903">
        <ele>-36.4</ele>
        <time>2023-12-03T10:00:30Z</time>
      </trkpt>
      <trkpt lat="46.56393" lon="0.19005">
        <ele>-36.4</ele>
        <time>2023-12-03T10:00:36Z</time>
      </trkpt>
      <trkpt lat="46.56392" lon="0.18997">
        <ele>-36</ele>
        <time>2023-12-03T10:00:38Z</time>
      </trkpt>
      <trkpt lat="46.56393" lon="0.18986">
        <ele>-35.2</ele>
        <time>2023-12-03T10:00:41Z</time>
      </trkpt>
      <trkpt lat="46.56397" lon="0.18975">
        <ele>-34.8</ele>
        <time>2023-12-03T10:00:44Z</time>
      </trkpt>
      <trkpt lat="46.56401" lon="0.18963">
        <ele>-34.4</ele>
        <time>2023-12-03T10:00:47Z</time>
      </trkpt>
      <trkpt lat="46.56404" lon="0.18945">
        <ele>-33.8</ele>
        <time>2023-12-03T10:00:53Z</time>
      </trkpt>
      <trkpt lat="46.56404" lon="0.18943">
        <ele>-33.6</ele>
        <time>2023-12-03T10:00:54Z</time>
      </trkpt>
      <trkpt lat="46.56402" lon="0.1894">
        <ele>-33</ele>
        <time>2023-12-03T10:00:57Z</time>
      </trkpt>
      <trkpt lat="46.56402" lon="0.1894">
        <ele>-32.6</ele>
        <time>2023-12-03T10:00:58Z</time>
      </trkpt>
      <trkpt lat="46.564" lon="0.18938">
        <ele>-32.4</ele>
        <time>2023-12-03T10:00:59Z</time>
      </trkpt>
      <trkpt lat="46.56392" lon="0.18933">
        <ele>-31.2</ele>
        <time>2023-12-03T10:01:05Z</time>
      </trkpt>
      <trkpt lat="46.56388" lon="0.1893">
        <ele>-30.6</ele>
        <time>2023-12-03T10:01:07Z</time>
      </trkpt>
      <trkpt lat="46.56383" lon="0.18923">
        <ele>-30</ele>
        <time>2023-12-03T10:01:11Z</time>
      </trkpt>
      <trkpt lat="46.56378" lon="0.18915">
        <ele>-29.2</ele>
        <time>2023-12-03T10:01:15Z</time>
      </trkpt>
      <trkpt lat="46.56374" lon="0.18911">
        <ele>-28.8</ele>
        <time>2023-12-03T10:01:17Z</time>
      </trkpt>
      <trkpt lat="46.5637" lon="0.18904">
        <ele>-27.8</ele>
        <time>2023-12-03T10:01:21Z</time>
      </trkpt>
      <trkpt lat="46.56368" lon="0.18902">
        <ele>-27.6</ele>
        <time>2023-12-03T10:01:22Z</time>
      </trkpt>
      <trkpt lat="46.56363" lon="0.18894">
        <ele>-26.8</ele>
        <time>2023-12-03T10:01:26Z</time>
      </trkpt>
      <trkpt lat="46.56359" lon="0.1889">
        <ele>-26</ele>
        <time>2023-12-03T10:01:30Z</time>
      </trkpt>
      <trkpt lat="46.56356" lon="0.18888">
        <ele>-25.6</ele>
        <time>2023-12-03T10:01:32Z</time>
      </trkpt>
      <trkpt lat="46.56348" lon="0.18877">
        <ele>-24.4</ele>
        <time>2023-12-03T10:01:37Z</time>
      </trkpt>
      <trkpt lat="46.56346" lon="0.18876">
        <ele>-24.2</ele>
        <time>2023-12-03T10:01:38Z</time>
      </trkpt>
      <trkpt lat="46.56335" lon="0.18863">
        <ele>-23.4</ele>
        <time>2023-12-03T10:01:44Z</time>
      </trkpt>
      <trkpt lat="46.56333" lon="0.18861">
        <ele>-23.2</ele>
        <time>2023-12-03T10:01:45Z</time>
      </trkpt>
      <trkpt lat="46.56327" lon="0.18854">
        <ele>-22.2</ele>
        <time>2023-12-03T10:01:48Z</time>
      </trkpt>
      <trkpt lat="46.5632" lon="0.18847">
        <ele>-21.4</ele>
        <time>2023-12-03T10:01:52Z</time>
      </trkpt>
      <trkpt lat="46.56312" lon="0.18841">
        <ele>-21</ele>
        <time>2023-12-03T10:01:56Z</time>
      </trkpt>
      <trkpt lat="46.56305" lon="0.18837">
        <ele>-20.8</ele>
        <time>2023-12-03T10:01:59Z</time>
      </trkpt>
      <trkpt lat="46.56291" lon="0.18833">
        <ele>-20.6</ele>
        <time>2023-12-03T10:02:05Z</time>
      </trkpt>
      <trkpt lat="46.56285" lon="0.18833">
        <ele>-20</ele>
        <time>2023-12-03T10:02:08Z</time>
      </trkpt>
      <trkpt lat="46.56276" lon="0.18836">
        <ele>-19</ele>
        <time>2023-12-03T10:02:14Z</time>
      </trkpt>
      <trkpt lat="46.56275" lon="0.18836">
        <ele>-18.6</ele>
        <time>2023-12-03T10:02:15Z</time>
      </trkpt>
      <trkpt lat="46.5627" lon="0.1884">
        <ele>-17.4</ele>
        <time>2023-12-03T10:02:19Z</time>
      </trkpt>
      <trkpt lat="46.56267" lon="0.18842">
        <ele>-17</ele>
        <time>2023-12-03T10:02:21Z</time>
      </trkpt>
      <trkpt lat="46.56262" lon="0.18845">
        <ele>-16.2</ele>
        <time>2023-12-03T10:02:24Z</time>
      </trkpt>
      <trkpt lat="46.56251" lon="0.18849">
        <ele>-15.4</ele>
        <time>2023-12-03T10:02:28Z</time>
      </trkpt>
      <trkpt lat="46.56249" lon="0.1885">
        <ele>-15.2</ele>
        <time>2023-12-03T10:02:29Z</time>
      </trkpt>
      <trkpt lat="46.56239" lon="0.18857">
        <ele>-14.6</ele>
        <time>2023-12-03T10:02:35Z</time>
      </trkpt>
      <trkpt lat="46.56238" lon="0.18858">
        <ele>-14.6</ele>
        <time>2023-12-03T10:02:36Z</time>
      </trkpt>
      <trkpt lat="46.56232" lon="0.18868">
        <ele>-14</ele>
        <time>2023-12-03T10:02:41Z</time>
      </trkpt>
      <trkpt lat="46.5623" lon="0.18871">
        <ele>-13.2</ele>
        <time>2023-12-03T10:02:43Z</time>
      </trkpt>
      <trkpt lat="46.56228" lon="0.18872">
        <ele>-12.8</ele>
        <time>2023-12-03T10:02:44Z</time>
      </trkpt>
      <trkpt lat="46.56214" lon="0.18885">
        <ele>-12.2</ele>
        <time>2023-12-03T10:02:51Z</time>
      </trkpt>
      <trkpt lat="46.56209" lon="0.18889">
        <ele>-11.8</ele>
        <time>2023-12-03T10:02:53Z</time>
      </trkpt>
      <trkpt lat="46.56198" lon="0.18898">
        <ele>-11.6</ele>
        <time>2023-12-03T10:02:58Z</time>
      </trkpt>
      <trkpt lat="46.5619" lon="0.18905">
        <ele>-10.6</ele>
        <time>2023-12-03T10:03:02Z</time>
      </trkpt>
      <trkpt lat="46.56186" lon="0.18908">
        <ele>-10.2</ele>
        <time>2023-12-03T10:03:04Z</time>
      </trkpt>
      <trkpt lat="46.56172" lon="0.18915">
        <ele>-9.6</ele>
        <time>2023-12-03T10:03:10Z</time>
      </trkpt>
      <trkpt lat="46.5617" lon="0.18916">
        <ele>-9.4</ele>
        <time>2023-12-03T10:03:11Z</time>
      </trkpt>
      <trkpt lat="46.56163" lon="0.18916">
        <ele>-8.4</ele>
        <time>2023-12-03T10:03:14Z</time>
      </trkpt>
      <trkpt lat="46.56161" lon="0.18913">
        <ele>-7.4</ele>
        <time>2023-12-03T10:03:17Z</time>
      </trkpt>
      <trkpt lat="46.56156" lon="0.18903">
        <ele>-6.8</ele>
        <time>2023-12-03T10:03:23Z</time>
      </trkpt>
      <trkpt lat="46.56154" lon="0.189">
        <ele>-6.8</ele>
        <time>2023-12-03T10:03:25Z</time>
      </trkpt>
      <trkpt lat="46.56152" lon="0.18892">
        <ele>-7.2</ele>
        <time>2023-12-03T10:03:28Z</time>
      </trkpt>
      <trkpt lat="46.5615" lon="0.18882">
        <ele>-8</ele>
        <time>2023-12-03T10:03:33Z</time>
      </trkpt>
      <trkpt lat="46.56149" lon="0.18878">
        <ele>-8.4</ele>
        <time>2023-12-03T10:03:34Z</time>
      </trkpt>
      <trkpt lat="46.56147" lon="0.18869">
        <ele>-9.6</ele>
        <time>2023-12-03T10:03:37Z</time>
      </trkpt>
      <trkpt lat="46.56146" lon="0.18866">
        <ele>-10</ele>
        <time>2023-12-03T10:03:38Z</time>
      </trkpt>
      <trkpt lat="46.56145" lon="0.18862">
        <ele>-11</ele>
        <time>2023-12-03T10:03:40Z</time>
      </trkpt>
      <trkpt lat="46.56144" lon="0.18856">
        <ele>-12.4</ele>
        <time>2023-12-03T10:03:42Z</time>
      </trkpt>
      <trkpt lat="46.56143" lon="0.18854">
        <ele>-12.6</ele>
        <time>2023-12-03T10:03:43Z</time>
      </trkpt>
      <trkpt lat="46.56143" lon="0.18851">
        <ele>-13.8</ele>
        <time>2023-12-03T10:03:44Z</time>
      </trkpt>
      <trkpt lat="46.56142" lon="0.18848">
        <ele>-14.8</ele>
        <time>2023-12-03T10:03:45Z</time>
      </trkpt>
      <trkpt lat="46.56141" lon="0.18846">
        <ele>-15.4</ele>
        <time>2023-12-03T10:03:46Z</time>
      </trkpt>
      <trkpt lat="46.56138" lon="0.18839">
        <ele>-16.8</ele>
        <time>2023-12-03T10:03:49Z</time>
      </trkpt>
      <trkpt lat="46.56136" lon="0.18836">
        <ele>-18</ele>
        <time>2023-12-03T10:03:50Z</time>
      </trkpt>
      <trkpt lat="46.56135" lon="0.18834">
        <ele>-19</ele>
        <time>2023-12-03T10:03:51Z</time>
      </trkpt>
      <trkpt lat="46.56132" lon="0.18829">
        <ele>-20.4</ele>
        <time>2023-12-03T10:03:53Z</time>
      </trkpt>
      <trkpt lat="46.56125" lon="0.18824">
        <ele>-21.2</ele>
        <time>2023-12-03T10:03:56Z</time>
      </trkpt>
      <trkpt lat="46.56112" lon="0.18808">
        <ele>-20.8</ele>
        <time>2023-12-03T10:04:02Z</time>
      </trkpt>
      <trkpt lat="46.56099" lon="0.188">
        <ele>-20.2</ele>
        <time>2023-12-03T10:04:08Z</time>
      </trkpt>
      <trkpt lat="46.5608" lon="0.18797">
        <ele>-19.8</ele>
        <time>2023-12-03T10:04:15Z</time>
      </trkpt>
      <trkpt lat="46.56063" lon="0.18798">
        <ele>-19.4</ele>
        <time>2023-12-03T10:04:21Z</time>
      </trkpt>
      <trkpt lat="46.56058" lon="0.18798">
        <ele>-19.4</ele>
        <time>2023-12-03T10:04:23Z</time>
      </trkpt>
      <trkpt lat="46.56044" lon="0.18799">
        <ele>-19</ele>
        <time>2023-12-03T10:04:28Z</time>
      </trkpt>
      <trkpt lat="46.56027" lon="0.18801">
        <ele>-18.6</ele>
        <time>2023-12-03T10:04:34Z</time>
      </trkpt>
      <trkpt lat="46.56014" lon="0.18804">
        <ele>-18.2</ele>
        <time>2023-12-03T10:04:38Z</time>
      </trkpt>
      <trkpt lat="46.56005" lon="0.18804">
        <ele>-18</ele>
        <time>2023-12-03T10:04:41Z</time>
      </trkpt>
      <trkpt lat="46.55983" lon="0.18807">
        <ele>-17.6</ele>
        <time>2023-12-03T10:04:47Z</time>
      </trkpt>
      <trkpt lat="46.55967" lon="0.18808">
        <ele>-17.2</ele>
        <time>2023-12-03T10:04:52Z</time>
      </trkpt>
      <trkpt lat="46.55964" lon="0.18809">
        <ele>-17.2</ele>
        <time>2023-12-03T10:04:53Z</time>
      </trkpt>
      <trkpt lat="46.55946" lon="0.18806">
        <ele>-16.6</ele>
        <time>2023-12-03T10:04:59Z</time>
      </trkpt>
      <trkpt lat="46.55938" lon="0.18804">
        <ele>-16.2</ele>
        <time>2023-12-03T10:05:01Z</time>
      </trkpt>
      <trkpt lat="46.55926" lon="0.18797">
        <ele>-15.6</ele>
        <time>2023-12-03T10:05:05Z</time>
      </trkpt>
      <trkpt lat="46.55922" lon="0.18793">
        <ele>-15.2</ele>
        <time>2023-12-03T10:05:07Z</time>
      </trkpt>
      <trkpt lat="46.55915" lon="0.18788">
        <ele>-14.6</ele>
        <time>2023-12-03T10:05:10Z</time>
      </trkpt>
      <trkpt lat="46.55912" lon="0.18785">
        <ele>-14.2</ele>
        <time>2023-12-03T10:05:12Z</time>
      </trkpt>
      <trkpt lat="46.55902" lon="0.18782">
        <ele>-13</ele>
        <time>2023-12-03T10:05:16Z</time>
      </trkpt>
      <trkpt lat="46.5589" lon="0.18788">
        <ele>-12.4</ele>
        <time>2023-12-03T10:05:22Z</time>
      </trkpt>
      <trkpt lat="46.55882" lon="0.18792">
        <ele>-12</ele>
        <time>2023-12-03T10:05:27Z</time>
      </trkpt>
      <trkpt lat="46.55877" lon="0.18794">
        <ele>-11.4</ele>
        <time>2023-12-03T10:05:30Z</time>
      </trkpt>
      <trkpt lat="46.55871" lon="0.18798">
        <ele>-10.8</ele>
        <time>2023-12-03T10:05:33Z</time>
      </trkpt>
      <trkpt lat="46.55864" lon="0.18801">
        <ele>-10</ele>
        <time>2023-12-03T10:05:37Z</time>
      </trkpt>
      <trkpt lat="46.55859" lon="0.18804">
        <ele>-9.8</ele>
        <time>2023-12-03T10:05:39Z</time>
      </trkpt>
      <trkpt lat="46.55851" lon="0.18809">
        <ele>-9.2</ele>
        <time>2023-12-03T10:05:43Z</time>
      </trkpt>
      <trkpt lat="46.55842" lon="0.18818">
        <ele>-8.4</ele>
        <time>2023-12-03T10:05:50Z</time>
      </trkpt>
      <trkpt lat="46.55827" lon="0.18831">
        <ele>-7.8</ele>
        <time>2023-12-03T10:05:58Z</time>
      </trkpt>
      <trkpt lat="46.55819" lon="0.18837">
        <ele>-7.2</ele>
        <time>2023-12-03T10:06:02Z</time>
      </trkpt>
      <trkpt lat="46.55808" lon="0.18844">
        <ele>-6.6</ele>
        <time>2023-12-03T10:06:07Z</time>
      </trkpt>
      <trkpt lat="46.55794" lon="0.18852">
        <ele>-6.4</ele>
        <time>2023-12-03T10:06:13Z</time>
      </trkpt>
      <trkpt lat="46.55789" lon="0.18848">
        <ele>-6.2</ele>
        <time>2023-12-03T10:06:16Z</time>
      </trkpt>
      <trkpt lat="46.55785" lon="0.18842">
        <ele>-5.8</ele>
        <time>2023-12-03T10:06:19Z</time>
      </trkpt>
      <trkpt lat="46.55782" lon="0.18837">
        <ele>-5</ele>
        <time>2023-12-03T10:06:22Z</time>
      </trkpt>
      <trkpt lat="46.55777" lon="0.18825">
        <ele>-4.4</ele>
        <time>2023-12-03T10:06:27Z</time>
      </trkpt>
      <trkpt lat="46.55774" lon="0.1882">
        <ele>-4</ele>
        <time>2023-12-03T10:06:29Z</time>
      </trkpt>
      <trkpt lat="46.55765" lon="0.18805">
        <ele>-3.4</ele>
        <time>2023-12-03T10:06:35Z</time>
      </trkpt>
      <trkpt lat="46.55759" lon="0.18794">
        <ele>-2.8</ele>
        <time>2023-12-03T10:06:39Z</time>
      </trkpt>
      <trkpt lat="46.55757" lon="0.18789">
        <ele>-2.8</ele>
        <time>2023-12-03T10:06:41Z</time>
      </trkpt>
      <trkpt lat="46.55749" lon="0.18775">
        <ele>-1.8</ele>
        <time>2023-12-03T10:06:47Z</time>
      </trkpt>
      <trkpt lat="46.55745" lon="0.18768">
        <ele>-1.2</ele>
        <time>2023-12-03T10:06:50Z</time>
      </trkpt>
      <trkpt lat="46.55741" lon="0.18761">
        <ele>-0.6</ele>
        <time>2023-12-03T10:06:53Z</time>
      </trkpt>
      <trkpt lat="46.55736" lon="0.18751">
        <ele>-0.4</ele>
        <time>2023-12-03T10:06:56Z</time>
      </trkpt>
      <trkpt lat="46.55727" lon="0.18732">
        <ele>0.4</ele>
        <time>2023-12-03T10:07:03Z</time>
      </trkpt>
      <trkpt lat="46.55719" lon="0.18712">
        <ele>1</ele>
        <time>2023-12-03T10:07:09Z</time>
      </trkpt>
      <trkpt lat="46.55716" lon="0.18702">
        <ele>1.4</ele>
        <time>2023-12-03T10:07:12Z</time>
      </trkpt>
      <trkpt lat="46.55713" lon="0.18696">
        <ele>1.6</ele>
        <time>2023-12-03T10:07:15Z</time>
      </trkpt>
      <trkpt lat="46.55711" lon="0.18688">
        <ele>2</ele>
        <time>2023-12-03T10:07:19Z</time>
      </trkpt>
      <trkpt lat="46.55708" lon="0.18681">
        <ele>2.2</ele>
        <time>2023-12-03T10:07:22Z</time>
      </trkpt>
      <trkpt lat="46.55704" lon="0.18668">
        <ele>2.4</ele>
        <time>2023-12-03T10:07:27Z</time>
      </trkpt>
      <trkpt lat="46.55699" lon="0.18655">
        <ele>2.8</ele>
        <time>2023-12-03T10:07:32Z</time>
      </trkpt>
      <trkpt lat="46.55695" lon="0.18641">
        <ele>3.4</ele>
        <time>2023-12-03T10:07:37Z</time>
      </trkpt>
      <trkpt lat="46.55694" lon="0.18636">
        <ele>3.4</ele>
        <time>2023-12-03T10:07:39Z</time>
      </trkpt>
      <trkpt lat="46.55688" lon="0.18624">
        <ele>4</ele>
        <time>2023-12-03T10:07:43Z</time>
      </trkpt>
      <trkpt lat="46.55683" lon="0.18609">
        <ele>4.2</ele>
        <time>2023-12-03T10:07:48Z</time>
      </trkpt>
      <trkpt lat="46.5568" lon="0.18599">
        <ele>4.6</ele>
        <time>2023-12-03T10:07:51Z</time>
      </trkpt>
      <trkpt lat="46.55677" lon="0.18591">
        <ele>5</ele>
        <time>2023-12-03T10:07:54Z</time>
      </trkpt>
      <trkpt lat="46.55669" lon="0.18573">
        <ele>5.6</ele>
        <time>2023-12-03T10:08:00Z</time>
      </trkpt>
      <trkpt lat="46.55668" lon="0.18569">
        <ele>5.8</ele>
        <time>2023-12-03T10:08:01Z</time>
      </trkpt>
      <trkpt lat="46.55659" lon="0.18553">
        <ele>6.2</ele>
        <time>2023-12-03T10:08:06Z</time>
      </trkpt>
      <trkpt lat="46.55654" lon="0.18535">
        <ele>6</ele>
        <time>2023-12-03T10:08:11Z</time>
      </trkpt>
      <trkpt lat="46.5565" lon="0.18504">
        <ele>6.8</ele>
        <time>2023-12-03T10:08:18Z</time>
      </trkpt>
      <trkpt lat="46.5565" lon="0.18498">
        <ele>6.8</ele>
        <time>2023-12-03T10:08:19Z</time>
      </trkpt>
      <trkpt lat="46.55647" lon="0.18462">
        <ele>7.6</ele>
        <time>2023-12-03T10:08:26Z</time>
      </trkpt>
      <trkpt lat="46.55643" lon="0.18427">
        <ele>7.6</ele>
        <time>2023-12-03T10:08:33Z</time>
      </trkpt>
      <trkpt lat="46.55643" lon="0.18421">
        <ele>7.8</ele>
        <time>2023-12-03T10:08:34Z</time>
      </trkpt>
      <trkpt lat="46.55643" lon="0.1839">
        <ele>8.4</ele>
        <time>2023-12-03T10:08:40Z</time>
      </trkpt>
      <trkpt lat="46.55643" lon="0.18363">
        <ele>9</ele>
        <time>2023-12-03T10:08:45Z</time>
      </trkpt>
      <trkpt lat="46.55646" lon="0.18351">
        <ele>9</ele>
        <time>2023-12-03T10:08:47Z</time>
      </trkpt>
      <trkpt lat="46.55649" lon="0.18332">
        <ele>9.2</ele>
        <time>2023-12-03T10:08:50Z</time>
      </trkpt>
      <trkpt lat="46.55653" lon="0.18314">
        <ele>9.2</ele>
        <time>2023-12-03T10:08:53Z</time>
      </trkpt>
      <trkpt lat="46.55655" lon="0.18302">
        <ele>9.4</ele>
        <time>2023-12-03T10:08:55Z</time>
      </trkpt>
      <trkpt lat="46.55662" lon="0.18276">
        <ele>9.4</ele>
        <time>2023-12-03T10:08:59Z</time>
      </trkpt>
      <trkpt lat="46.55675" lon="0.18231">
        <ele>9</ele>
        <time>2023-12-03T10:09:07Z</time>
      </trkpt>
      <trkpt lat="46.55683" lon="0.18203">
        <ele>8.6</ele>
        <time>2023-12-03T10:09:13Z</time>
      </trkpt>
      <trkpt lat="46.5569" lon="0.1817">
        <ele>9.4</ele>
        <time>2023-12-03T10:09:19Z</time>
      </trkpt>
      <trkpt lat="46.55694" lon="0.18152">
        <ele>9.6</ele>
        <time>2023-12-03T10:09:22Z</time>
      </trkpt>
      <trkpt lat="46.55697" lon="0.18134">
        <ele>9.4</ele>
        <time>2023-12-03T10:09:25Z</time>
      </trkpt>
      <trkpt lat="46.55701" lon="0.18103">
        <ele>9.6</ele>
        <time>2023-12-03T10:09:30Z</time>
      </trkpt>
      <trkpt lat="46.55702" lon="0.18096">
        <ele>9.6</ele>
        <time>2023-12-03T10:09:31Z</time>
      </trkpt>
      <trkpt lat="46.55707" lon="0.1808">
        <ele>9.6</ele>
        <time>2023-12-03T10:09:34Z</time>
      </trkpt>
      <trkpt lat="46.55709" lon="0.18075">
        <ele>9.8</ele>
        <time>2023-12-03T10:09:35Z</time>
      </trkpt>
      <trkpt lat="46.55709" lon="0.18069">
        <ele>9.8</ele>
        <time>2023-12-03T10:09:36Z</time>
      </trkpt>
      <trkpt lat="46.55712" lon="0.18054">
        <ele>9.8</ele>
        <time>2023-12-03T10:09:39Z</time>
      </trkpt>
      <trkpt lat="46.55713" lon="0.18049">
        <ele>10</ele>
        <time>2023-12-03T10:09:40Z</time>
      </trkpt>
      <trkpt lat="46.55714" lon="0.18045">
        <ele>10.2</ele>
        <time>2023-12-03T10:09:41Z</time>
      </trkpt>
      <trkpt lat="46.55717" lon="0.18035">
        <ele>10.2</ele>
        <time>2023-12-03T10:09:44Z</time>
      </trkpt>
      <trkpt lat="46.55722" lon="0.18011">
        <ele>9.8</ele>
        <time>2023-12-03T10:09:50Z</time>
      </trkpt>
      <trkpt lat="46.55712" lon="0.18001">
        <ele>10.6</ele>
        <time>2023-12-03T10:09:54Z</time>
      </trkpt>
      <trkpt lat="46.55702" lon="0.17995">
        <ele>11</ele>
        <time>2023-12-03T10:09:57Z</time>
      </trkpt>
      <trkpt lat="46.55691" lon="0.17988">
        <ele>11.2</ele>
        <time>2023-12-03T10:10:00Z</time>
      </trkpt>
      <trkpt lat="46.55664" lon="0.17975">
        <ele>12.2</ele>
        <time>2023-12-03T10:10:06Z</time>
      </trkpt>
      <trkpt lat="46.55633" lon="0.1796">
        <ele>12.8</ele>
        <time>2023-12-03T10:10:13Z</time>
      </trkpt>
      <trkpt lat="46.55592" lon="0.17942">
        <ele>13</ele>
        <time>2023-12-03T10:10:22Z</time>
      </trkpt>
      <trkpt lat="46.55582" lon="0.17938">
        <ele>13.2</ele>
        <time>2023-12-03T10:10:24Z</time>
      </trkpt>
      <trkpt lat="46.55559" lon="0.17929">
        <ele>13.8</ele>
        <time>2023-12-03T10:10:29Z</time>
      </trkpt>
      <trkpt lat="46.55545" lon="0.17924">
        <ele>13.8</ele>
        <time>2023-12-03T10:10:32Z</time>
      </trkpt>
      <trkpt lat="46.55532" lon="0.17919">
        <ele>13.8</ele>
        <time>2023-12-03T10:10:35Z</time>
      </trkpt>
      <trkpt lat="46.55495" lon="0.17907">
        <ele>13.6</ele>
        <time>2023-12-03T10:10:43Z</time>
      </trkpt>
      <trkpt lat="46.55489" lon="0.17904">
        <ele>13.8</ele>
        <time>2023-12-03T10:10:45Z</time>
      </trkpt>
      <trkpt lat="46.55485" lon="0.17899">
        <ele>13.6</ele>
        <time>2023-12-03T10:10:47Z</time>
      </trkpt>
      <trkpt lat="46.55481" lon="0.17887">
        <ele>13.4</ele>
        <time>2023-12-03T10:10:50Z</time>
      </trkpt>
      <trkpt lat="46.55478" lon="0.17875">
        <ele>13.2</ele>
        <time>2023-12-03T10:10:52Z</time>
      </trkpt>
      <trkpt lat="46.55481" lon="0.17868">
        <ele>13</ele>
        <time>2023-12-03T10:10:54Z</time>
      </trkpt>
      <trkpt lat="46.55483" lon="0.17864">
        <ele>13</ele>
        <time>2023-12-03T10:10:55Z</time>
      </trkpt>
      <trkpt lat="46.55485" lon="0.1786">
        <ele>13</ele>
        <time>2023-12-03T10:10:56Z</time>
      </trkpt>
      <trkpt lat="46.55488" lon="0.17852">
        <ele>12.6</ele>
        <time>2023-12-03T10:10:58Z</time>
      </trkpt>
      <trkpt lat="46.55493" lon="0.17843">
        <ele>12.4</ele>
        <time>2023-12-03T10:11:00Z</time>
      </trkpt>
      <trkpt lat="46.55495" lon="0.17838">
        <ele>12.2</ele>
        <time>2023-12-03T10:11:01Z</time>
      </trkpt>
      <trkpt lat="46.55498" lon="0.17832">
        <ele>12</ele>
        <time>2023-12-03T10:11:02Z</time>
      </trkpt>
      <trkpt lat="46.555" lon="0.17825">
        <ele>11.6</ele>
        <time>2023-12-03T10:11:03Z</time>
      </trkpt>
      <trkpt lat="46.555" lon="0.1781">
        <ele>11.2</ele>
        <time>2023-12-03T10:11:05Z</time>
      </trkpt>
      <trkpt lat="46.55501" lon="0.17786">
        <ele>11</ele>
        <time>2023-12-03T10:11:08Z</time>
      </trkpt>
      <trkpt lat="46.55502" lon="0.17769">
        <ele>10.8</ele>
        <time>2023-12-03T10:11:10Z</time>
      </trkpt>
      <trkpt lat="46.55503" lon="0.1776">
        <ele>10.8</ele>
        <time>2023-12-03T10:11:11Z</time>
      </trkpt>
      <trkpt lat="46.55502" lon="0.17744">
        <ele>9.8</ele>
        <time>2023-12-03T10:11:13Z</time>
      </trkpt>
      <trkpt lat="46.55503" lon="0.1773">
        <ele>9.4</ele>
        <time>2023-12-03T10:11:15Z</time>
      </trkpt>
      <trkpt lat="46.55503" lon="0.17724">
        <ele>9.4</ele>
        <time>2023-12-03T10:11:16Z</time>
      </trkpt>
      <trkpt lat="46.55503" lon="0.17697">
        <ele>9.8</ele>
        <time>2023-12-03T10:11:20Z</time>
      </trkpt>
      <trkpt lat="46.55505" lon="0.1769">
        <ele>9.8</ele>
        <time>2023-12-03T10:11:21Z</time>
      </trkpt>
      <trkpt lat="46.55507" lon="0.17684">
        <ele>9.8</ele>
        <time>2023-12-03T10:11:22Z</time>
      </trkpt>
      <trkpt lat="46.55514" lon="0.17656">
        <ele>9.8</ele>
        <time>2023-12-03T10:11:26Z</time>
      </trkpt>
      <trkpt lat="46.55519" lon="0.17635">
        <ele>9.6</ele>
        <time>2023-12-03T10:11:29Z</time>
      </trkpt>
      <trkpt lat="46.5552" lon="0.17622">
        <ele>9.6</ele>
        <time>2023-12-03T10:11:31Z</time>
      </trkpt>
      <trkpt lat="46.55519" lon="0.17613">
        <ele>9.4</ele>
        <time>2023-12-03T10:11:33Z</time>
      </trkpt>
      <trkpt lat="46.55516" lon="0.17597">
        <ele>9.2</ele>
        <time>2023-12-03T10:11:36Z</time>
      </trkpt>
      <trkpt lat="46.55515" lon="0.17585">
        <ele>9.4</ele>
        <time>2023-12-03T10:11:38Z</time>
      </trkpt>
      <trkpt lat="46.55514" lon="0.17563">
        <ele>9.4</ele>
        <time>2023-12-03T10:11:41Z</time>
      </trkpt>
      <trkpt lat="46.55514" lon="0.17546">
        <ele>9</ele>
        <time>2023-12-03T10:11:44Z</time>
      </trkpt>
      <trkpt lat="46.55513" lon="0.17543">
        <ele>8.6</ele>
        <time>2023-12-03T10:11:45Z</time>
      </trkpt>
      <trkpt lat="46.55503" lon="0.17539">
        <ele>8.8</ele>
        <time>2023-12-03T10:11:50Z</time>
      </trkpt>
      <trkpt lat="46.55497" lon="0.17539">
        <ele>9.2</ele>
        <time>2023-12-03T10:11:53Z</time>
      </trkpt>
      <trkpt lat="46.55489" lon="0.17537">
        <ele>9.2</ele>
        <time>2023-12-03T10:11:56Z</time>
      </trkpt>
      <trkpt lat="46.55481" lon="0.17534">
        <ele>9.2</ele>
        <time>2023-12-03T10:11:59Z</time>
      </trkpt>
      <trkpt lat="46.5547" lon="0.17531">
        <ele>9.6</ele>
        <time>2023-12-03T10:12:03Z</time>
      </trkpt>
      <trkpt lat="46.55467" lon="0.1753">
        <ele>9.8</ele>
        <time>2023-12-03T10:12:04Z</time>
      </trkpt>
      <trkpt lat="46.55464" lon="0.1753">
        <ele>10</ele>
        <time>2023-12-03T10:12:05Z</time>
      </trkpt>
      <trkpt lat="46.55458" lon="0.17529">
        <ele>10.6</ele>
        <time>2023-12-03T10:12:07Z</time>
      </trkpt>
      <trkpt lat="46.55454" lon="0.17528">
        <ele>10.8</ele>
        <time>2023-12-03T10:12:08Z</time>
      </trkpt>
      <trkpt lat="46.55451" lon="0.17527">
        <ele>10.8</ele>
        <time>2023-12-03T10:12:09Z</time>
      </trkpt>
      <trkpt lat="46.55433" lon="0.17517">
        <ele>10.4</ele>
        <time>2023-12-03T10:12:14Z</time>
      </trkpt>
      <trkpt lat="46.55429" lon="0.17515">
        <ele>10.4</ele>
        <time>2023-12-03T10:12:15Z</time>
      </trkpt>
      <trkpt lat="46.55408" lon="0.17504">
        <ele>10.2</ele>
        <time>2023-12-03T10:12:20Z</time>
      </trkpt>
      <trkpt lat="46.55394" lon="0.17499">
        <ele>10.4</ele>
        <time>2023-12-03T10:12:23Z</time>
      </trkpt>
      <trkpt lat="46.55381" lon="0.17498">
        <ele>10.4</ele>
        <time>2023-12-03T10:12:26Z</time>
      </trkpt>
      <trkpt lat="46.55372" lon="0.17497">
        <ele>10.2</ele>
        <time>2023-12-03T10:12:28Z</time>
      </trkpt>
      <trkpt lat="46.55362" lon="0.17497">
        <ele>10.2</ele>
        <time>2023-12-03T10:12:30Z</time>
      </trkpt>
      <trkpt lat="46.55354" lon="0.17499">
        <ele>10.2</ele>
        <time>2023-12-03T10:12:32Z</time>
      </trkpt>
      <trkpt lat="46.55332" lon="0.17505">
        <ele>10</ele>
        <time>2023-12-03T10:12:37Z</time>
      </trkpt>
      <trkpt lat="46.55328" lon="0.17505">
        <ele>10</ele>
        <time>2023-12-03T10:12:38Z</time>
      </trkpt>
      <trkpt lat="46.553" lon="0.17506">
        <ele>10.2</ele>
        <time>2023-12-03T10:12:44Z</time>
      </trkpt>
      <trkpt lat="46.55272" lon="0.17504">
        <ele>10</ele>
        <time>2023-12-03T10:12:50Z</time>
      </trkpt>
      <trkpt lat="46.55264" lon="0.17502">
        <ele>9.8</ele>
        <time>2023-12-03T10:12:52Z</time>
      </trkpt>
      <trkpt lat="46.5526" lon="0.17501">
        <ele>9.4</ele>
        <time>2023-12-03T10:12:53Z</time>
      </trkpt>
      <trkpt lat="46.55255" lon="0.17497">
        <ele>9.2</ele>
        <time>2023-12-03T10:12:55Z</time>
      </trkpt>
      <trkpt lat="46.55254" lon="0.17494">
        <ele>9.2</ele>
        <time>2023-12-03T10:12:56Z</time>
      </trkpt>
      <trkpt lat="46.55253" lon="0.17492">
        <ele>9</ele>
        <time>2023-12-03T10:12:57Z</time>
      </trkpt>
      <trkpt lat="46.55254" lon="0.17484">
        <ele>8.6</ele>
        <time>2023-12-03T10:13:00Z</time>
      </trkpt>
      <trkpt lat="46.55255" lon="0.17481">
        <ele>8.4</ele>
        <time>2023-12-03T10:13:01Z</time>
      </trkpt>
      <trkpt lat="46.55258" lon="0.17474">
        <ele>8.2</ele>
        <time>2023-12-03T10:13:03Z</time>
      </trkpt>
      <trkpt lat="46.55263" lon="0.17467">
        <ele>7.8</ele>
        <time>2023-12-03T10:13:05Z</time>
      </trkpt>
      <trkpt lat="46.55272" lon="0.17455">
        <ele>7.4</ele>
        <time>2023-12-03T10:13:08Z</time>
      </trkpt>
      <trkpt lat="46.55275" lon="0.17444">
        <ele>7.4</ele>
        <time>2023-12-03T10:13:10Z</time>
      </trkpt>
      <trkpt lat="46.55277" lon="0.17438">
        <ele>7.2</ele>
        <time>2023-12-03T10:13:11Z</time>
      </trkpt>
      <trkpt lat="46.55281" lon="0.17417">
        <ele>6.4</ele>
        <time>2023-12-03T10:13:14Z</time>
      </trkpt>
      <trkpt lat="46.55284" lon="0.1741">
        <ele>6</ele>
        <time>2023-12-03T10:13:15Z</time>
      </trkpt>
      <trkpt lat="46.5529" lon="0.17397">
        <ele>5.4</ele>
        <time>2023-12-03T10:13:17Z</time>
      </trkpt>
      <trkpt lat="46.55292" lon="0.17391">
        <ele>5</ele>
        <time>2023-12-03T10:13:18Z</time>
      </trkpt>
      <trkpt lat="46.55297" lon="0.17385">
        <ele>4.6</ele>
        <time>2023-12-03T10:13:19Z</time>
      </trkpt>
      <trkpt lat="46.55301" lon="0.1738">
        <ele>4.6</ele>
        <time>2023-12-03T10:13:20Z</time>
      </trkpt>
      <trkpt lat="46.55304" lon="0.17376">
        <ele>4.2</ele>
        <time>2023-12-03T10:13:21Z</time>
      </trkpt>
      <trkpt lat="46.5531" lon="0.1737">
        <ele>3.6</ele>
        <time>2023-12-03T10:13:23Z</time>
      </trkpt>
      <trkpt lat="46.55316" lon="0.17365">
        <ele>3.2</ele>
        <time>2023-12-03T10:13:25Z</time>
      </trkpt>
      <trkpt lat="46.55335" lon="0.17362">
        <ele>3</ele>
        <time>2023-12-03T10:13:27Z</time>
      </trkpt>
      <trkpt lat="46.55353" lon="0.17357">
        <ele>2</ele>
        <time>2023-12-03T10:13:30Z</time>
      </trkpt>
      <trkpt lat="46.55359" lon="0.17357">
        <ele>1.6</ele>
        <time>2023-12-03T10:13:31Z</time>
      </trkpt>
      <trkpt lat="46.55369" lon="0.17355">
        <ele>1.2</ele>
        <time>2023-12-03T10:13:32Z</time>
      </trkpt>
      <trkpt lat="46.55381" lon="0.17355">
        <ele>1</ele>
        <time>2023-12-03T10:13:34Z</time>
      </trkpt>
      <trkpt lat="46.55403" lon="0.17354">
        <ele>0.4</ele>
        <time>2023-12-03T10:13:37Z</time>
      </trkpt>
      <trkpt lat="46.5544" lon="0.1735">
        <ele>-0.4</ele>
        <time>2023-12-03T10:13:42Z</time>
      </trkpt>
      <trkpt lat="46.55451" lon="0.17346">
        <ele>-0.4</ele>
        <time>2023-12-03T10:13:44Z</time>
      </trkpt>
      <trkpt lat="46.55472" lon="0.1734">
        <ele>-0.8</ele>
        <time>2023-12-03T10:13:48Z</time>
      </trkpt>
      <trkpt lat="46.55483" lon="0.17335">
        <ele>-1</ele>
        <time>2023-12-03T10:13:50Z</time>
      </trkpt>
      <trkpt lat="46.55492" lon="0.17332">
        <ele>-1</ele>
        <time>2023-12-03T10:13:52Z</time>
      </trkpt>
      <trkpt lat="46.5552" lon="0.17328">
        <ele>-1.8</ele>
        <time>2023-12-03T10:13:57Z</time>
      </trkpt>
      <trkpt lat="46.55535" lon="0.17325">
        <ele>-2.8</ele>
        <time>2023-12-03T10:13:59Z</time>
      </trkpt>
      <trkpt lat="46.55543" lon="0.1732">
        <ele>-3.4</ele>
        <time>2023-12-03T10:14:01Z</time>
      </trkpt>
      <trkpt lat="46.55546" lon="0.17317">
        <ele>-3.6</ele>
        <time>2023-12-03T10:14:02Z</time>
      </trkpt>
      <trkpt lat="46.5555" lon="0.17313">
        <ele>-3.8</ele>
        <time>2023-12-03T10:14:03Z</time>
      </trkpt>
      <trkpt lat="46.55556" lon="0.17305">
        <ele>-4</ele>
        <time>2023-12-03T10:14:05Z</time>
      </trkpt>
      <trkpt lat="46.55558" lon="0.17301">
        <ele>-3.8</ele>
        <time>2023-12-03T10:14:06Z</time>
      </trkpt>
      <trkpt lat="46.5556" lon="0.17296">
        <ele>-3.6</ele>
        <time>2023-12-03T10:14:07Z</time>
      </trkpt>
      <trkpt lat="46.55566" lon="0.17277">
        <ele>-2.8</ele>
        <time>2023-12-03T10:14:11Z</time>
      </trkpt>
      <trkpt lat="46.55569" lon="0.17273">
        <ele>-2.6</ele>
        <time>2023-12-03T10:14:12Z</time>
      </trkpt>
      <trkpt lat="46.55572" lon="0.17269">
        <ele>-2.6</ele>
        <time>2023-12-03T10:14:13Z</time>
      </trkpt>
      <trkpt lat="46.5558" lon="0.17267">
        <ele>-2.6</ele>
        <time>2023-12-03T10:14:15Z</time>
      </trkpt>
      <trkpt lat="46.55583" lon="0.17268">
        <ele>-2.8</ele>
        <time>2023-12-03T10:14:16Z</time>
      </trkpt>
      <trkpt lat="46.55602" lon="0.17276">
        <ele>-3.2</ele>
        <time>2023-12-03T10:14:21Z</time>
      </trkpt>
      <trkpt lat="46.55605" lon="0.17279">
        <ele>-3.4</ele>
        <time>2023-12-03T10:14:22Z</time>
      </trkpt>
      <trkpt lat="46.55613" lon="0.17292">
        <ele>-3.6</ele>
        <time>2023-12-03T10:14:24Z</time>
      </trkpt>
      <trkpt lat="46.55626" lon="0.17305">
        <ele>-4</ele>
        <time>2023-12-03T10:14:27Z</time>
      </trkpt>
      <trkpt lat="46.55632" lon="0.17306">
        <ele>-4.6</ele>
        <time>2023-12-03T10:14:28Z</time>
      </trkpt>
      <trkpt lat="46.55638" lon="0.17306">
        <ele>-5.2</ele>
        <time>2023-12-03T10:14:29Z</time>
      </trkpt>
      <trkpt lat="46.55656" lon="0.17303">
        <ele>-5.6</ele>
        <time>2023-12-03T10:14:32Z</time>
      </trkpt>
      <trkpt lat="46.55689" lon="0.17306">
        <ele>-5.8</ele>
        <time>2023-12-03T10:14:37Z</time>
      </trkpt>
      <trkpt lat="46.55695" lon="0.17309">
        <ele>-5.8</ele>
        <time>2023-12-03T10:14:38Z</time>
      </trkpt>
      <trkpt lat="46.557" lon="0.17313">
        <ele>-6</ele>
        <time>2023-12-03T10:14:39Z</time>
      </trkpt>
      <trkpt lat="46.55711" lon="0.17321">
        <ele>-6</ele>
        <time>2023-12-03T10:14:41Z</time>
      </trkpt>
      <trkpt lat="46.55715" lon="0.17322">
        <ele>-6</ele>
        <time>2023-12-03T10:14:42Z</time>
      </trkpt>
      <trkpt lat="46.55719" lon="0.17321">
        <ele>-6</ele>
        <time>2023-12-03T10:14:43Z</time>
      </trkpt>
      <trkpt lat="46.55722" lon="0.17314">
        <ele>-5.8</ele>
        <time>2023-12-03T10:14:45Z</time>
      </trkpt>
      <trkpt lat="46.55728" lon="0.17289">
        <ele>-5.8</ele>
        <time>2023-12-03T10:14:50Z</time>
      </trkpt>
      <trkpt lat="46.55733" lon="0.17275">
        <ele>-6.4</ele>
        <time>2023-12-03T10:14:52Z</time>
      </trkpt>
      <trkpt lat="46.55735" lon="0.1726">
        <ele>-7.4</ele>
        <time>2023-12-03T10:14:54Z</time>
      </trkpt>
      <trkpt lat="46.55739" lon="0.17246">
        <ele>-8.6</ele>
        <time>2023-12-03T10:14:56Z</time>
      </trkpt>
      <trkpt lat="46.55746" lon="0.17218">
        <ele>-9</ele>
        <time>2023-12-03T10:15:00Z</time>
      </trkpt>
      <trkpt lat="46.55758" lon="0.17183">
        <ele>-9.2</ele>
        <time>2023-12-03T10:15:06Z</time>
      </trkpt>
      <trkpt lat="46.55768" lon="0.17162">
        <ele>-9.8</ele>
        <time>2023-12-03T10:15:09Z</time>
      </trkpt>
      <trkpt lat="46.5577" lon="0.17154">
        <ele>-10.8</ele>
        <time>2023-12-03T10:15:10Z</time>
      </trkpt>
      <trkpt lat="46.55774" lon="0.17146">
        <ele>-11.4</ele>
        <time>2023-12-03T10:15:11Z</time>
      </trkpt>
      <trkpt lat="46.55778" lon="0.17137">
        <ele>-12</ele>
        <time>2023-12-03T10:15:12Z</time>
      </trkpt>
      <trkpt lat="46.55783" lon="0.1713">
        <ele>-13</ele>
        <time>2023-12-03T10:15:13Z</time>
      </trkpt>
      <trkpt lat="46.55789" lon="0.17124">
        <ele>-13.6</ele>
        <time>2023-12-03T10:15:14Z</time>
      </trkpt>
      <trkpt lat="46.55794" lon="0.17118">
        <ele>-14.2</ele>
        <time>2023-12-03T10:15:15Z</time>
      </trkpt>
      <trkpt lat="46.55807" lon="0.17108">
        <ele>-14.6</ele>
        <time>2023-12-03T10:15:17Z</time>
      </trkpt>
      <trkpt lat="46.55842" lon="0.17083">
        <ele>-15.8</ele>
        <time>2023-12-03T10:15:22Z</time>
      </trkpt>
      <trkpt lat="46.55857" lon="0.17073">
        <ele>-16.8</ele>
        <time>2023-12-03T10:15:24Z</time>
      </trkpt>
      <trkpt lat="46.55886" lon="0.17052">
        <ele>-18</ele>
        <time>2023-12-03T10:15:28Z</time>
      </trkpt>
      <trkpt lat="46.55894" lon="0.17047">
        <ele>-18.2</ele>
        <time>2023-12-03T10:15:29Z</time>
      </trkpt>
      <trkpt lat="46.55908" lon="0.17037">
        <ele>-19.2</ele>
        <time>2023-12-03T10:15:31Z</time>
      </trkpt>
      <trkpt lat="46.55924" lon="0.17028">
        <ele>-20.2</ele>
        <time>2023-12-03T10:15:33Z</time>
      </trkpt>
      <trkpt lat="46.55933" lon="0.17024">
        <ele>-20.4</ele>
        <time>2023-12-03T10:15:34Z</time>
      </trkpt>
      <trkpt lat="46.55961" lon="0.17013">
        <ele>-21.2</ele>
        <time>2023-12-03T10:15:38Z</time>
      </trkpt>
      <trkpt lat="46.55968" lon="0.17011">
        <ele>-21.2</ele>
        <time>2023-12-03T10:15:39Z</time>
      </trkpt>
      <trkpt lat="46.55982" lon="0.17011">
        <ele>-21.4</ele>
        <time>2023-12-03T10:15:41Z</time>
      </trkpt>
      <trkpt lat="46.55994" lon="0.17017">
        <ele>-21.4</ele>
        <time>2023-12-03T10:15:43Z</time>
      </trkpt>
      <trkpt lat="46.55999" lon="0.1703">
        <ele>-22.6</ele>
        <time>2023-12-03T10:15:45Z</time>
      </trkpt>
      <trkpt lat="46.56" lon="0.17039">
        <ele>-23</ele>
        <time>2023-12-03T10:15:46Z</time>
      </trkpt>
      <trkpt lat="46.56003" lon="0.17056">
        <ele>-23.8</ele>
        <time>2023-12-03T10:15:48Z</time>
      </trkpt>
      <trkpt lat="46.56006" lon="0.17076">
        <ele>-24.2</ele>
        <time>2023-12-03T10:15:51Z</time>
      </trkpt>
      <trkpt lat="46.5601" lon="0.17105">
        <ele>-23.2</ele>
        <time>2023-12-03T10:15:57Z</time>
      </trkpt>
      <trkpt lat="46.56012" lon="0.17113">
        <ele>-22.8</ele>
        <time>2023-12-03T10:15:59Z</time>
      </trkpt>
      <trkpt lat="46.56016" lon="0.17128">
        <ele>-21.8</ele>
        <time>2023-12-03T10:16:03Z</time>
      </trkpt>
      <trkpt lat="46.56017" lon="0.17131">
        <ele>-21.4</ele>
        <time>2023-12-03T10:16:04Z</time>
      </trkpt>
      <trkpt lat="46.56022" lon="0.17147">
        <ele>-20.2</ele>
        <time>2023-12-03T10:16:08Z</time>
      </trkpt>
      <trkpt lat="46.56023" lon="0.17156">
        <ele>-19.8</ele>
        <time>2023-12-03T10:16:10Z</time>
      </trkpt>
      <trkpt lat="46.56021" lon="0.17176">
        <ele>-19</ele>
        <time>2023-12-03T10:16:15Z</time>
      </trkpt>
      <trkpt lat="46.56021" lon="0.1718">
        <ele>-18.6</ele>
        <time>2023-12-03T10:16:16Z</time>
      </trkpt>
      <trkpt lat="46.56017" lon="0.17198">
        <ele>-18</ele>
        <time>2023-12-03T10:16:21Z</time>
      </trkpt>
      <trkpt lat="46.56016" lon="0.17205">
        <ele>-17.6</ele>
        <time>2023-12-03T10:16:23Z</time>
      </trkpt>
      <trkpt lat="46.56013" lon="0.17219">
        <ele>-16.8</ele>
        <time>2023-12-03T10:16:27Z</time>
      </trkpt>
      <trkpt lat="46.56013" lon="0.17228">
        <ele>-16.6</ele>
        <time>2023-12-03T10:16:30Z</time>
      </trkpt>
      <trkpt lat="46.56012" lon="0.17238">
        <ele>-15.6</ele>
        <time>2023-12-03T10:16:33Z</time>
      </trkpt>
      <trkpt lat="46.56009" lon="0.17253">
        <ele>-14.6</ele>
        <time>2023-12-03T10:16:37Z</time>
      </trkpt>
      <trkpt lat="46.56008" lon="0.17257">
        <ele>-14.6</ele>
        <time>2023-12-03T10:16:38Z</time>
      </trkpt>
      <trkpt lat="46.56005" lon="0.17281">
        <ele>-13.6</ele>
        <time>2023-12-03T10:16:44Z</time>
      </trkpt>
      <trkpt lat="46.56004" lon="0.17285">
        <ele>-13.6</ele>
        <time>2023-12-03T10:16:45Z</time>
      </trkpt>
      <trkpt lat="46.56" lon="0.1731">
        <ele>-12.6</ele>
        <time>2023-12-03T10:16:51Z</time>
      </trkpt>
      <trkpt lat="46.55998" lon="0.17339">
        <ele>-12.4</ele>
        <time>2023-12-03T10:16:58Z</time>
      </trkpt>
      <trkpt lat="46.55997" lon="0.17343">
        <ele>-12.2</ele>
        <time>2023-12-03T10:16:59Z</time>
      </trkpt>
      <trkpt lat="46.55995" lon="0.17359">
        <ele>-11.4</ele>
        <time>2023-12-03T10:17:03Z</time>
      </trkpt>
      <trkpt lat="46.55993" lon="0.1737">
        <ele>-10.8</ele>
        <time>2023-12-03T10:17:06Z</time>
      </trkpt>
      <trkpt lat="46.5599" lon="0.17401">
        <ele>-10.6</ele>
        <time>2023-12-03T10:17:12Z</time>
      </trkpt>
      <trkpt lat="46.55989" lon="0.17411">
        <ele>-10.2</ele>
        <time>2023-12-03T10:17:14Z</time>
      </trkpt>
      <trkpt lat="46.5599" lon="0.17427">
        <ele>-10</ele>
        <time>2023-12-03T10:17:18Z</time>
      </trkpt>
      <trkpt lat="46.55988" lon="0.17447">
        <ele>-9.2</ele>
        <time>2023-12-03T10:17:24Z</time>
      </trkpt>
      <trkpt lat="46.5599" lon="0.17466">
        <ele>-8.4</ele>
        <time>2023-12-03T10:17:31Z</time>
      </trkpt>
      <trkpt lat="46.55998" lon="0.17488">
        <ele>-8.6</ele>
        <time>2023-12-03T10:17:36Z</time>
      </trkpt>
      <trkpt lat="46.56004" lon="0.17511">
        <ele>-8.6</ele>
        <time>2023-12-03T10:17:40Z</time>
      </trkpt>
      <trkpt lat="46.56009" lon="0.17529">
        <ele>-8.4</ele>
        <time>2023-12-03T10:17:43Z</time>
      </trkpt>
      <trkpt lat="46.56015" lon="0.17555">
        <ele>-8.2</ele>
        <time>2023-12-03T10:17:48Z</time>
      </trkpt>
      <trkpt lat="46.56021" lon="0.17573">
        <ele>-8.2</ele>
        <time>2023-12-03T10:17:52Z</time>
      </trkpt>
      <trkpt lat="46.56028" lon="0.17589">
        <ele>-8.4</ele>
        <time>2023-12-03T10:17:55Z</time>
      </trkpt>
      <trkpt lat="46.56032" lon="0.17605">
        <ele>-8.2</ele>
        <time>2023-12-03T10:17:58Z</time>
      </trkpt>
      <trkpt lat="46.56033" lon="0.1761">
        <ele>-8.2</ele>
        <time>2023-12-03T10:17:59Z</time>
      </trkpt>
      <trkpt lat="46.56036" lon="0.17621">
        <ele>-8.2</ele>
        <time>2023-12-03T10:18:01Z</time>
      </trkpt>
      <trkpt lat="46.56039" lon="0.17629">
        <ele>-8</ele>
        <time>2023-12-03T10:18:03Z</time>
      </trkpt>
      <trkpt lat="46.56046" lon="0.17647">
        <ele>-7.4</ele>
        <time>2023-12-03T10:18:09Z</time>
      </trkpt>
      <trkpt lat="46.56049" lon="0.17656">
        <ele>-6.8</ele>
        <time>2023-12-03T10:18:12Z</time>
      </trkpt>
      <trkpt lat="46.56051" lon="0.17669">
        <ele>-5.8</ele>
        <time>2023-12-03T10:18:17Z</time>
      </trkpt>
      <trkpt lat="46.56055" lon="0.17683">
        <ele>-4.4</ele>
        <time>2023-12-03T10:18:22Z</time>
      </trkpt>
      <trkpt lat="46.56057" lon="0.17688">
        <ele>-3.8</ele>
        <time>2023-12-03T10:18:24Z</time>
      </trkpt>
      <trkpt lat="46.56057" lon="0.17693">
        <ele>-3.4</ele>
        <time>2023-12-03T10:18:26Z</time>
      </trkpt>
      <trkpt lat="46.56059" lon="0.1771">
        <ele>-2.6</ele>
        <time>2023-12-03T10:18:32Z</time>
      </trkpt>
      <trkpt lat="46.56061" lon="0.17713">
        <ele>-2.2</ele>
        <time>2023-12-03T10:18:33Z</time>
      </trkpt>
      <trkpt lat="46.56065" lon="0.17723">
        <ele>-1.8</ele>
        <time>2023-12-03T10:18:36Z</time>
      </trkpt>
      <trkpt lat="46.56068" lon="0.17732">
        <ele>-1.6</ele>
        <time>2023-12-03T10:18:39Z</time>
      </trkpt>
      <trkpt lat="46.56073" lon="0.17741">
        <ele>-1.2</ele>
        <time>2023-12-03T10:18:42Z</time>
      </trkpt>
      <trkpt lat="46.56079" lon="0.17751">
        <ele>-1.2</ele>
        <time>2023-12-03T10:18:45Z</time>
      </trkpt>
      <trkpt lat="46.56094" lon="0.17783">
        <ele>-1</ele>
        <time>2023-12-03T10:18:54Z</time>
      </trkpt>
      <trkpt lat="46.5611" lon="0.17813">
        <ele>-1.2</ele>
        <time>2023-12-03T10:19:01Z</time>
      </trkpt>
      <trkpt lat="46.56129" lon="0.1784">
        <ele>-1</ele>
        <time>2023-12-03T10:19:07Z</time>
      </trkpt>
      <trkpt lat="46.56149" lon="0.17861">
        <ele>-0.6</ele>
        <time>2023-12-03T10:19:13Z</time>
      </trkpt>
      <trkpt lat="46.56158" lon="0.17873">
        <ele>127.6</ele>
        <time>2023-12-03T10:19:17Z</time>
      </trkpt>
      <trkpt lat="46.56162" lon="0.1788">
        <ele>0.2</ele>
        <time>2023-12-03T10:19:19Z</time>
      </trkpt>
      <trkpt lat="46.56177" lon="0.17903">
        <ele>1</ele>
        <time>2023-12-03T10:19:25Z</time>
      </trkpt>
      <trkpt lat="46.5618" lon="0.17907">
        <ele>1.2</ele>
        <time>2023-12-03T10:19:26Z</time>
      </trkpt>
      <trkpt lat="46.56192" lon="0.1792">
        <ele>2.2</ele>
        <time>2023-12-03T10:19:30Z</time>
      </trkpt>
      <trkpt lat="46.56198" lon="0.17925">
        <ele>2.2</ele>
        <time>2023-12-03T10:19:32Z</time>
      </trkpt>
      <trkpt lat="46.56226" lon="0.17941">
        <ele>2.4</ele>
        <time>2023-12-03T10:19:39Z</time>
      </trkpt>
      <trkpt lat="46.56243" lon="0.1795">
        <ele>1.6</ele>
        <time>2023-12-03T10:19:43Z</time>
      </trkpt>
      <trkpt lat="46.56256" lon="0.17958">
        <ele>1.2</ele>
        <time>2023-12-03T10:19:46Z</time>
      </trkpt>
      <trkpt lat="46.56265" lon="0.17964">
        <ele>0.8</ele>
        <time>2023-12-03T10:19:48Z</time>
      </trkpt>
      <trkpt lat="46.56269" lon="0.17966">
        <ele>0.6</ele>
        <time>2023-12-03T10:19:49Z</time>
      </trkpt>
      <trkpt lat="46.56306" lon="0.17978">
        <ele>130.6</ele>
        <time>2023-12-03T10:19:56Z</time>
      </trkpt>
      <trkpt lat="46.56335" lon="0.17985">
        <ele>-1.2</ele>
        <time>2023-12-03T10:20:02Z</time>
      </trkpt>
      <trkpt lat="46.56346" lon="0.17986">
        <ele>-1.4</ele>
        <time>2023-12-03T10:20:03Z</time>
      </trkpt>
      <trkpt lat="46.56352" lon="0.17986">
        <ele>-1.6</ele>
        <time>2023-12-03T10:20:04Z</time>
      </trkpt>
      <trkpt lat="46.56365" lon="0.17986">
        <ele>-2.4</ele>
        <time>2023-12-03T10:20:06Z</time>
      </trkpt>
      <trkpt lat="46.56377" lon="0.17986">
        <ele>-3.4</ele>
        <time>2023-12-03T10:20:08Z</time>
      </trkpt>
      <trkpt lat="46.56383" lon="0.17986">
        <ele>-3.8</ele>
        <time>2023-12-03T10:20:09Z</time>
      </trkpt>
      <trkpt lat="46.564" lon="0.17986">
        <ele>-4.6</ele>
        <time>2023-12-03T10:20:12Z</time>
      </trkpt>
      <trkpt lat="46.56414" lon="0.17986">
        <ele>-4.8</ele>
        <time>2023-12-03T10:20:15Z</time>
      </trkpt>
      <trkpt lat="46.5643" lon="0.17989">
        <ele>-4.2</ele>
        <time>2023-12-03T10:20:18Z</time>
      </trkpt>
      <trkpt lat="46.56439" lon="0.1799">
        <ele>-3.6</ele>
        <time>2023-12-03T10:20:20Z</time>
      </trkpt>
      <trkpt lat="46.56444" lon="0.17991">
        <ele>-3.4</ele>
        <time>2023-12-03T10:20:21Z</time>
      </trkpt>
      <trkpt lat="46.56458" lon="0.17993">
        <ele>-3.2</ele>
        <time>2023-12-03T10:20:24Z</time>
      </trkpt>
      <trkpt lat="46.56468" lon="0.17992">
        <ele>-3.6</ele>
        <time>2023-12-03T10:20:26Z</time>
      </trkpt>
      <trkpt lat="46.56473" lon="0.17991">
        <ele>-3.6</ele>
        <time>2023-12-03T10:20:27Z</time>
      </trkpt>
      <trkpt lat="46.56487" lon="0.17986">
        <ele>-4</ele>
        <time>2023-12-03T10:20:30Z</time>
      </trkpt>
      <trkpt lat="46.56492" lon="0.17983">
        <ele>-4.6</ele>
        <time>2023-12-03T10:20:31Z</time>
      </trkpt>
      <trkpt lat="46.56497" lon="0.17981">
        <ele>-4.8</ele>
        <time>2023-12-03T10:20:32Z</time>
      </trkpt>
      <trkpt lat="46.56508" lon="0.17978">
        <ele>-5.8</ele>
        <time>2023-12-03T10:20:34Z</time>
      </trkpt>
      <trkpt lat="46.56519" lon="0.17976">
        <ele>-6.4</ele>
        <time>2023-12-03T10:20:36Z</time>
      </trkpt>
      <trkpt lat="46.56524" lon="0.17976">
        <ele>-7.2</ele>
        <time>2023-12-03T10:20:37Z</time>
      </trkpt>
      <trkpt lat="46.56532" lon="0.17976">
        <ele>-8</ele>
        <time>2023-12-03T10:20:38Z</time>
      </trkpt>
      <trkpt lat="46.56539" lon="0.17978">
        <ele>-8.4</ele>
        <time>2023-12-03T10:20:39Z</time>
      </trkpt>
      <trkpt lat="46.56556" lon="0.17984">
        <ele>-9</ele>
        <time>2023-12-03T10:20:41Z</time>
      </trkpt>
      <trkpt lat="46.56572" lon="0.1799">
        <ele>-9.4</ele>
        <time>2023-12-03T10:20:43Z</time>
      </trkpt>
      <trkpt lat="46.5658" lon="0.17992">
        <ele>-9.6</ele>
        <time>2023-12-03T10:20:44Z</time>
      </trkpt>
      <trkpt lat="46.56588" lon="0.17994">
        <ele>-10</ele>
        <time>2023-12-03T10:20:45Z</time>
      </trkpt>
      <trkpt lat="46.56603" lon="0.17995">
        <ele>-10.8</ele>
        <time>2023-12-03T10:20:47Z</time>
      </trkpt>
      <trkpt lat="46.5663" lon="0.17996">
        <ele>-12</ele>
        <time>2023-12-03T10:20:50Z</time>
      </trkpt>
      <trkpt lat="46.56637" lon="0.17994">
        <ele>-12.8</ele>
        <time>2023-12-03T10:20:51Z</time>
      </trkpt>
      <trkpt lat="46.56644" lon="0.17992">
        <ele>-13.6</ele>
        <time>2023-12-03T10:20:52Z</time>
      </trkpt>
      <trkpt lat="46.56649" lon="0.17992">
        <ele>-14</ele>
        <time>2023-12-03T10:20:53Z</time>
      </trkpt>
      <trkpt lat="46.56654" lon="0.17995">
        <ele>-14</ele>
        <time>2023-12-03T10:20:54Z</time>
      </trkpt>
      <trkpt lat="46.56659" lon="0.18">
        <ele>-14.4</ele>
        <time>2023-12-03T10:20:55Z</time>
      </trkpt>
      <trkpt lat="46.56663" lon="0.18005">
        <ele>-14.6</ele>
        <time>2023-12-03T10:20:56Z</time>
      </trkpt>
      <trkpt lat="46.56676" lon="0.1802">
        <ele>-15.2</ele>
        <time>2023-12-03T10:20:59Z</time>
      </trkpt>
      <trkpt lat="46.56687" lon="0.18024">
        <ele>-15.6</ele>
        <time>2023-12-03T10:21:01Z</time>
      </trkpt>
      <trkpt lat="46.56697" lon="0.18018">
        <ele>-16</ele>
        <time>2023-12-03T10:21:03Z</time>
      </trkpt>
      <trkpt lat="46.56718" lon="0.17994">
        <ele>-16.8</ele>
        <time>2023-12-03T10:21:07Z</time>
      </trkpt>
      <trkpt lat="46.56742" lon="0.17967">
        <ele>-18</ele>
        <time>2023-12-03T10:21:11Z</time>
      </trkpt>
      <trkpt lat="46.56747" lon="0.17958">
        <ele>-18.6</ele>
        <time>2023-12-03T10:21:12Z</time>
      </trkpt>
      <trkpt lat="46.56753" lon="0.17949">
        <ele>-19</ele>
        <time>2023-12-03T10:21:13Z</time>
      </trkpt>
      <trkpt lat="46.56769" lon="0.17918">
        <ele>-20.4</ele>
        <time>2023-12-03T10:21:16Z</time>
      </trkpt>
      <trkpt lat="46.56778" lon="0.17898">
        <ele>-21</ele>
        <time>2023-12-03T10:21:18Z</time>
      </trkpt>
      <trkpt lat="46.56782" lon="0.17888">
        <ele>-21.8</ele>
        <time>2023-12-03T10:21:19Z</time>
      </trkpt>
      <trkpt lat="46.56794" lon="0.17854">
        <ele>-23</ele>
        <time>2023-12-03T10:21:22Z</time>
      </trkpt>
      <trkpt lat="46.56798" lon="0.17842">
        <ele>-23.8</ele>
        <time>2023-12-03T10:21:23Z</time>
      </trkpt>
      <trkpt lat="46.56802" lon="0.1783">
        <ele>-24.8</ele>
        <time>2023-12-03T10:21:24Z</time>
      </trkpt>
      <trkpt lat="46.5681" lon="0.17804">
        <ele>-26</ele>
        <time>2023-12-03T10:21:26Z</time>
      </trkpt>
      <trkpt lat="46.56819" lon="0.17778">
        <ele>-27.2</ele>
        <time>2023-12-03T10:21:28Z</time>
      </trkpt>
      <trkpt lat="46.56822" lon="0.17764">
        <ele>-28</ele>
        <time>2023-12-03T10:21:29Z</time>
      </trkpt>
      <trkpt lat="46.56825" lon="0.17751">
        <ele>-28.4</ele>
        <time>2023-12-03T10:21:30Z</time>
      </trkpt>
      <trkpt lat="46.56824" lon="0.17738">
        <ele>-28.8</ele>
        <time>2023-12-03T10:21:31Z</time>
      </trkpt>
      <trkpt lat="46.56823" lon="0.17727">
        <ele>-29.2</ele>
        <time>2023-12-03T10:21:32Z</time>
      </trkpt>
      <trkpt lat="46.56819" lon="0.17716">
        <ele>-29.6</ele>
        <time>2023-12-03T10:21:33Z</time>
      </trkpt>
      <trkpt lat="46.56809" lon="0.17687">
        <ele>-30.8</ele>
        <time>2023-12-03T10:21:36Z</time>
      </trkpt>
      <trkpt lat="46.56793" lon="0.17653">
        <ele>-31.4</ele>
        <time>2023-12-03T10:21:40Z</time>
      </trkpt>
      <trkpt lat="46.56788" lon="0.17646">
        <ele>-31.4</ele>
        <time>2023-12-03T10:21:41Z</time>
      </trkpt>
      <trkpt lat="46.56782" lon="0.1764">
        <ele>-31.4</ele>
        <time>2023-12-03T10:21:42Z</time>
      </trkpt>
      <trkpt lat="46.56771" lon="0.17631">
        <ele>-31.2</ele>
        <time>2023-12-03T10:21:44Z</time>
      </trkpt>
      <trkpt lat="46.56765" lon="0.17628">
        <ele>-31</ele>
        <time>2023-12-03T10:21:45Z</time>
      </trkpt>
      <trkpt lat="46.56745" lon="0.17621">
        <ele>-30.8</ele>
        <time>2023-12-03T10:21:49Z</time>
      </trkpt>
      <trkpt lat="46.5674" lon="0.1762">
        <ele>-30.8</ele>
        <time>2023-12-03T10:21:50Z</time>
      </trkpt>
      <trkpt lat="46.56708" lon="0.1761">
        <ele>-30.2</ele>
        <time>2023-12-03T10:21:58Z</time>
      </trkpt>
      <trkpt lat="46.56699" lon="0.17604">
        <ele>-29.8</ele>
        <time>2023-12-03T10:22:01Z</time>
      </trkpt>
      <trkpt lat="46.56691" lon="0.17596">
        <ele>-29.6</ele>
        <time>2023-12-03T10:22:04Z</time>
      </trkpt>
      <trkpt lat="46.56685" lon="0.17574">
        <ele>-29.2</ele>
        <time>2023-12-03T10:22:09Z</time>
      </trkpt>
      <trkpt lat="46.56686" lon="0.1756">
        <ele>-28.4</ele>
        <time>2023-12-03T10:22:12Z</time>
      </trkpt>
      <trkpt lat="46.56688" lon="0.17554">
        <ele>-28.2</ele>
        <time>2023-12-03T10:22:14Z</time>
      </trkpt>
      <trkpt lat="46.56691" lon="0.1755">
        <ele>-27.6</ele>
        <time>2023-12-03T10:22:16Z</time>
      </trkpt>
      <trkpt lat="46.56691" lon="0.17548">
        <ele>-27.4</ele>
        <time>2023-12-03T10:22:17Z</time>
      </trkpt>
      <trkpt lat="46.56693" lon="0.17543">
        <ele>-27</ele>
        <time>2023-12-03T10:22:19Z</time>
      </trkpt>
      <trkpt lat="46.56695" lon="0.17537">
        <ele>-26.4</ele>
        <time>2023-12-03T10:22:22Z</time>
      </trkpt>
      <trkpt lat="46.56697" lon="0.17533">
        <ele>-25.6</ele>
        <time>2023-12-03T10:22:25Z</time>
      </trkpt>
      <trkpt lat="46.56699" lon="0.1753">
        <ele>-25.4</ele>
        <time>2023-12-03T10:22:27Z</time>
      </trkpt>
      <trkpt lat="46.56702" lon="0.17525">
        <ele>-24.4</ele>
        <time>2023-12-03T10:22:30Z</time>
      </trkpt>
      <trkpt lat="46.56704" lon="0.1752">
        <ele>-23.6</ele>
        <time>2023-12-03T10:22:33Z</time>
      </trkpt>
      <trkpt lat="46.56705" lon="0.17512">
        <ele>-22.8</ele>
        <time>2023-12-03T10:22:38Z</time>
      </trkpt>
      <trkpt lat="46.56707" lon="0.17509">
        <ele>-22</ele>
        <time>2023-12-03T10:22:40Z</time>
      </trkpt>
      <trkpt lat="46.56707" lon="0.17505">
        <ele>-21.6</ele>
        <time>2023-12-03T10:22:42Z</time>
      </trkpt>
      <trkpt lat="46.56711" lon="0.17498">
        <ele>-20.6</ele>
        <time>2023-12-03T10:22:47Z</time>
      </trkpt>
      <trkpt lat="46.56713" lon="0.17494">
        <ele>-20</ele>
        <time>2023-12-03T10:22:50Z</time>
      </trkpt>
      <trkpt lat="46.56715" lon="0.17491">
        <ele>-19.6</ele>
        <time>2023-12-03T10:22:52Z</time>
      </trkpt>
      <trkpt lat="46.56717" lon="0.17489">
        <ele>-19</ele>
        <time>2023-12-03T10:22:54Z</time>
      </trkpt>
      <trkpt lat="46.5672" lon="0.17486">
        <ele>-18.4</ele>
        <time>2023-12-03T10:22:57Z</time>
      </trkpt>
      <trkpt lat="46.56721" lon="0.17485">
        <ele>-18.4</ele>
        <time>2023-12-03T10:22:58Z</time>
      </trkpt>
      <trkpt lat="46.56725" lon="0.17481">
        <ele>-17.4</ele>
        <time>2023-12-03T10:23:02Z</time>
      </trkpt>
      <trkpt lat="46.56728" lon="0.17475">
        <ele>-16.8</ele>
        <time>2023-12-03T10:23:06Z</time>
      </trkpt>
      <trkpt lat="46.5673" lon="0.1747">
        <ele>-16.2</ele>
        <time>2023-12-03T10:23:09Z</time>
      </trkpt>
      <trkpt lat="46.56736" lon="0.17461">
        <ele>-15</ele>
        <time>2023-12-03T10:23:15Z</time>
      </trkpt>
      <trkpt lat="46.56738" lon="0.17458">
        <ele>-14.6</ele>
        <time>2023-12-03T10:23:17Z</time>
      </trkpt>
      <trkpt lat="46.56744" lon="0.17448">
        <ele>-13.8</ele>
        <time>2023-12-03T10:23:23Z</time>
      </trkpt>
      <trkpt lat="46.56747" lon="0.1744">
        <ele>-12.6</ele>
        <time>2023-12-03T10:23:29Z</time>
      </trkpt>
      <trkpt lat="46.56753" lon="0.17431">
        <ele>-11.8</ele>
        <time>2023-12-03T10:23:36Z</time>
      </trkpt>
      <trkpt lat="46.56754" lon="0.1743">
        <ele>-11.4</ele>
        <time>2023-12-03T10:23:37Z</time>
      </trkpt>
      <trkpt lat="46.56755" lon="0.17428">
        <ele>-11.2</ele>
        <time>2023-12-03T10:23:39Z</time>
      </trkpt>
      <trkpt lat="46.56756" lon="0.17426">
        <ele>-10.8</ele>
        <time>2023-12-03T10:23:41Z</time>
      </trkpt>
      <trkpt lat="46.56759" lon="0.17423">
        <ele>-10.4</ele>
        <time>2023-12-03T10:23:44Z</time>
      </trkpt>
      <trkpt lat="46.56759" lon="0.17422">
        <ele>-10.2</ele>
        <time>2023-12-03T10:23:45Z</time>
      </trkpt>
      <trkpt lat="46.56763" lon="0.17417">
        <ele>-9.2</ele>
        <time>2023-12-03T10:23:49Z</time>
      </trkpt>
      <trkpt lat="46.56764" lon="0.17416">
        <ele>-9</ele>
        <time>2023-12-03T10:23:50Z</time>
      </trkpt>
      <trkpt lat="46.56767" lon="0.17411">
        <ele>-8.2</ele>
        <time>2023-12-03T10:23:53Z</time>
      </trkpt>
      <trkpt lat="46.56768" lon="0.17409">
        <ele>-8</ele>
        <time>2023-12-03T10:23:54Z</time>
      </trkpt>
      <trkpt lat="46.56774" lon="0.17396">
        <ele>-7</ele>
        <time>2023-12-03T10:24:01Z</time>
      </trkpt>
      <trkpt lat="46.56777" lon="0.17387">
        <ele>-6</ele>
        <time>2023-12-03T10:24:07Z</time>
      </trkpt>
      <trkpt lat="46.56782" lon="0.17376">
        <ele>-4.6</ele>
        <time>2023-12-03T10:24:15Z</time>
      </trkpt>
      <trkpt lat="46.56782" lon="0.1737">
        <ele>-3.8</ele>
        <time>2023-12-03T10:24:18Z</time>
      </trkpt>
      <trkpt lat="46.56781" lon="0.17368">
        <ele>-3.6</ele>
        <time>2023-12-03T10:24:19Z</time>
      </trkpt>
      <trkpt lat="46.56782" lon="0.17366">
        <ele>-3.6</ele>
        <time>2023-12-03T10:24:20Z</time>
      </trkpt>
      <trkpt lat="46.56792" lon="0.17352">
        <ele>-3</ele>
        <time>2023-12-03T10:24:29Z</time>
      </trkpt>
      <trkpt lat="46.56799" lon="0.17351">
        <ele>-2.4</ele>
        <time>2023-12-03T10:24:33Z</time>
      </trkpt>
      <trkpt lat="46.56804" lon="0.1735">
        <ele>-2</ele>
        <time>2023-12-03T10:24:36Z</time>
      </trkpt>
      <trkpt lat="46.56807" lon="0.17348">
        <ele>-1.2</ele>
        <time>2023-12-03T10:24:39Z</time>
      </trkpt>
      <trkpt lat="46.56808" lon="0.17344">
        <ele>-1</ele>
        <time>2023-12-03T10:24:41Z</time>
      </trkpt>
      <trkpt lat="46.56808" lon="0.17342">
        <ele>-0.8</ele>
        <time>2023-12-03T10:24:42Z</time>
      </trkpt>
      <trkpt lat="46.5681" lon="0.17336">
        <ele>-0.2</ele>
        <time>2023-12-03T10:24:46Z</time>
      </trkpt>
      <trkpt lat="46.56814" lon="0.17331">
        <ele>0.2</ele>
        <time>2023-12-03T10:24:49Z</time>
      </trkpt>
      <trkpt lat="46.56822" lon="0.17317">
        <ele>0.8</ele>
        <time>2023-12-03T10:24:55Z</time>
      </trkpt>
      <trkpt lat="46.56823" lon="0.17305">
        <ele>1</ele>
        <time>2023-12-03T10:24:59Z</time>
      </trkpt>
      <trkpt lat="46.56823" lon="0.17299">
        <ele>1</ele>
        <time>2023-12-03T10:25:01Z</time>
      </trkpt>
      <trkpt lat="46.56825" lon="0.1729">
        <ele>1</ele>
        <time>2023-12-03T10:25:04Z</time>
      </trkpt>
      <trkpt lat="46.56827" lon="0.17279">
        <ele>1.2</ele>
        <time>2023-12-03T10:25:07Z</time>
      </trkpt>
      <trkpt lat="46.5683" lon="0.17274">
        <ele>1.4</ele>
        <time>2023-12-03T10:25:09Z</time>
      </trkpt>
      <trkpt lat="46.56838" lon="0.17256">
        <ele>1.4</ele>
        <time>2023-12-03T10:25:16Z</time>
      </trkpt>
      <trkpt lat="46.56841" lon="0.17247">
        <ele>1.8</ele>
        <time>2023-12-03T10:25:19Z</time>
      </trkpt>
      <trkpt lat="46.56844" lon="0.17239">
        <ele>2.2</ele>
        <time>2023-12-03T10:25:22Z</time>
      </trkpt>
      <trkpt lat="46.56848" lon="0.17236">
        <ele>2.4</ele>
        <time>2023-12-03T10:25:24Z</time>
      </trkpt>
      <trkpt lat="46.56854" lon="0.17231">
        <ele>2.4</ele>
        <time>2023-12-03T10:25:27Z</time>
      </trkpt>
      <trkpt lat="46.56861" lon="0.17224">
        <ele>2.8</ele>
        <time>2023-12-03T10:25:30Z</time>
      </trkpt>
      <trkpt lat="46.56866" lon="0.1722">
        <ele>2.8</ele>
        <time>2023-12-03T10:25:32Z</time>
      </trkpt>
      <trkpt lat="46.56868" lon="0.17218">
        <ele>3</ele>
        <time>2023-12-03T10:25:33Z</time>
      </trkpt>
      <trkpt lat="46.56871" lon="0.17217">
        <ele>3</ele>
        <time>2023-12-03T10:25:34Z</time>
      </trkpt>
      <trkpt lat="46.5688" lon="0.17214">
        <ele>3.2</ele>
        <time>2023-12-03T10:25:37Z</time>
      </trkpt>
      <trkpt lat="46.56895" lon="0.17212">
        <ele>3.8</ele>
        <time>2023-12-03T10:25:42Z</time>
      </trkpt>
      <trkpt lat="46.56898" lon="0.1721">
        <ele>4</ele>
        <time>2023-12-03T10:25:44Z</time>
      </trkpt>
      <trkpt lat="46.56911" lon="0.17202">
        <ele>4.8</ele>
        <time>2023-12-03T10:25:51Z</time>
      </trkpt>
      <trkpt lat="46.56914" lon="0.17199">
        <ele>4.8</ele>
        <time>2023-12-03T10:25:52Z</time>
      </trkpt>
      <trkpt lat="46.56922" lon="0.17192">
        <ele>5.2</ele>
        <time>2023-12-03T10:25:55Z</time>
      </trkpt>
      <trkpt lat="46.56932" lon="0.17185">
        <ele>5.2</ele>
        <time>2023-12-03T10:25:58Z</time>
      </trkpt>
      <trkpt lat="46.56951" lon="0.17167">
        <ele>5.6</ele>
        <time>2023-12-03T10:26:04Z</time>
      </trkpt>
      <trkpt lat="46.56968" lon="0.17146">
        <ele>6</ele>
        <time>2023-12-03T10:26:11Z</time>
      </trkpt>
      <trkpt lat="46.56981" lon="0.17129">
        <ele>6.2</ele>
        <time>2023-12-03T10:26:17Z</time>
      </trkpt>
      <trkpt lat="46.56995" lon="0.17119">
        <ele>7</ele>
        <time>2023-12-03T10:26:23Z</time>
      </trkpt>
      <trkpt lat="46.56996" lon="0.17117">
        <ele>7.2</ele>
        <time>2023-12-03T10:26:24Z</time>
      </trkpt>
      <trkpt lat="46.57009" lon="0.171">
        <ele>7.4</ele>
        <time>2023-12-03T10:26:30Z</time>
      </trkpt>
      <trkpt lat="46.57022" lon="0.17079">
        <ele>7.6</ele>
        <time>2023-12-03T10:26:35Z</time>
      </trkpt>
      <trkpt lat="46.57035" lon="0.17062">
        <ele>8</ele>
        <time>2023-12-03T10:26:40Z</time>
      </trkpt>
      <trkpt lat="46.57041" lon="0.17057">
        <ele>8</ele>
        <time>2023-12-03T10:26:42Z</time>
      </trkpt>
      <trkpt lat="46.57046" lon="0.17056">
        <ele>8.2</ele>
        <time>2023-12-03T10:26:43Z</time>
      </trkpt>
      <trkpt lat="46.5705" lon="0.17053">
        <ele>8.2</ele>
        <time>2023-12-03T10:26:44Z</time>
      </trkpt>
      <trkpt lat="46.57056" lon="0.17048">
        <ele>8.2</ele>
        <time>2023-12-03T10:26:46Z</time>
      </trkpt>
      <trkpt lat="46.57066" lon="0.1704">
        <ele>8.6</ele>
        <time>2023-12-03T10:26:50Z</time>
      </trkpt>
      <trkpt lat="46.57082" lon="0.17022">
        <ele>8.8</ele>
        <time>2023-12-03T10:26:57Z</time>
      </trkpt>
      <trkpt lat="46.57087" lon="0.17014">
        <ele>8.8</ele>
        <time>2023-12-03T10:26:59Z</time>
      </trkpt>
      <trkpt lat="46.57092" lon="0.17007">
        <ele>9</ele>
        <time>2023-12-03T10:27:01Z</time>
      </trkpt>
      <trkpt lat="46.57096" lon="0.16999">
        <ele>9</ele>
        <time>2023-12-03T10:27:03Z</time>
      </trkpt>
      <trkpt lat="46.57102" lon="0.1699">
        <ele>9</ele>
        <time>2023-12-03T10:27:05Z</time>
      </trkpt>
      <trkpt lat="46.57109" lon="0.1698">
        <ele>9</ele>
        <time>2023-12-03T10:27:07Z</time>
      </trkpt>
      <trkpt lat="46.57116" lon="0.1697">
        <ele>8.8</ele>
        <time>2023-12-03T10:27:09Z</time>
      </trkpt>
      <trkpt lat="46.57124" lon="0.16961">
        <ele>8.2</ele>
        <time>2023-12-03T10:27:11Z</time>
      </trkpt>
      <trkpt lat="46.57144" lon="0.16944">
        <ele>7.8</ele>
        <time>2023-12-03T10:27:15Z</time>
      </trkpt>
      <trkpt lat="46.57148" lon="0.1694">
        <ele>7.6</ele>
        <time>2023-12-03T10:27:16Z</time>
      </trkpt>
      <trkpt lat="46.57155" lon="0.1693">
        <ele>7.4</ele>
        <time>2023-12-03T10:27:18Z</time>
      </trkpt>
      <trkpt lat="46.5716" lon="0.1692">
        <ele>7.2</ele>
        <time>2023-12-03T10:27:20Z</time>
      </trkpt>
      <trkpt lat="46.57176" lon="0.16904">
        <ele>7.2</ele>
        <time>2023-12-03T10:27:24Z</time>
      </trkpt>
      <trkpt lat="46.57184" lon="0.16895">
        <ele>7.2</ele>
        <time>2023-12-03T10:27:26Z</time>
      </trkpt>
      <trkpt lat="46.57198" lon="0.16882">
        <ele>7.2</ele>
        <time>2023-12-03T10:27:29Z</time>
      </trkpt>
      <trkpt lat="46.57214" lon="0.16866">
        <ele>7</ele>
        <time>2023-12-03T10:27:33Z</time>
      </trkpt>
      <trkpt lat="46.57241" lon="0.16835">
        <ele>7.8</ele>
        <time>2023-12-03T10:27:39Z</time>
      </trkpt>
      <trkpt lat="46.57259" lon="0.16812">
        <ele>8.2</ele>
        <time>2023-12-03T10:27:44Z</time>
      </trkpt>
      <trkpt lat="46.57262" lon="0.16808">
        <ele>8.2</ele>
        <time>2023-12-03T10:27:45Z</time>
      </trkpt>
      <trkpt lat="46.57265" lon="0.16804">
        <ele>8.2</ele>
        <time>2023-12-03T10:27:46Z</time>
      </trkpt>
      <trkpt lat="46.57268" lon="0.16799">
        <ele>8.4</ele>
        <time>2023-12-03T10:27:47Z</time>
      </trkpt>
      <trkpt lat="46.57283" lon="0.16781">
        <ele>8.8</ele>
        <time>2023-12-03T10:27:51Z</time>
      </trkpt>
      <trkpt lat="46.57292" lon="0.16772">
        <ele>9</ele>
        <time>2023-12-03T10:27:53Z</time>
      </trkpt>
      <trkpt lat="46.57306" lon="0.16759">
        <ele>9</ele>
        <time>2023-12-03T10:27:56Z</time>
      </trkpt>
      <trkpt lat="46.57311" lon="0.16755">
        <ele>9</ele>
        <time>2023-12-03T10:27:57Z</time>
      </trkpt>
      <trkpt lat="46.57319" lon="0.16746">
        <ele>9.2</ele>
        <time>2023-12-03T10:27:59Z</time>
      </trkpt>
      <trkpt lat="46.57322" lon="0.16741">
        <ele>9.2</ele>
        <time>2023-12-03T10:28:00Z</time>
      </trkpt>
      <trkpt lat="46.57329" lon="0.16735">
        <ele>9.4</ele>
        <time>2023-12-03T10:28:02Z</time>
      </trkpt>
      <trkpt lat="46.57357" lon="0.1671">
        <ele>9.8</ele>
        <time>2023-12-03T10:28:08Z</time>
      </trkpt>
      <trkpt lat="46.57374" lon="0.16694">
        <ele>10</ele>
        <time>2023-12-03T10:28:13Z</time>
      </trkpt>
      <trkpt lat="46.57395" lon="0.16667">
        <ele>9.4</ele>
        <time>2023-12-03T10:28:20Z</time>
      </trkpt>
      <trkpt lat="46.57417" lon="0.16637">
        <ele>8.4</ele>
        <time>2023-12-03T10:28:27Z</time>
      </trkpt>
      <trkpt lat="46.57421" lon="0.16633">
        <ele>8.4</ele>
        <time>2023-12-03T10:28:28Z</time>
      </trkpt>
      <trkpt lat="46.57424" lon="0.16628">
        <ele>8.2</ele>
        <time>2023-12-03T10:28:29Z</time>
      </trkpt>
      <trkpt lat="46.57437" lon="0.16611">
        <ele>7.6</ele>
        <time>2023-12-03T10:28:33Z</time>
      </trkpt>
      <trkpt lat="46.5745" lon="0.16592">
        <ele>7</ele>
        <time>2023-12-03T10:28:37Z</time>
      </trkpt>
      <trkpt lat="46.57458" lon="0.16576">
        <ele>6</ele>
        <time>2023-12-03T10:28:40Z</time>
      </trkpt>
      <trkpt lat="46.57462" lon="0.16572">
        <ele>5.8</ele>
        <time>2023-12-03T10:28:41Z</time>
      </trkpt>
      <trkpt lat="46.57474" lon="0.16562">
        <ele>5</ele>
        <time>2023-12-03T10:28:43Z</time>
      </trkpt>
      <trkpt lat="46.5748" lon="0.16557">
        <ele>4.6</ele>
        <time>2023-12-03T10:28:44Z</time>
      </trkpt>
      <trkpt lat="46.57494" lon="0.16537">
        <ele>3.6</ele>
        <time>2023-12-03T10:28:48Z</time>
      </trkpt>
      <trkpt lat="46.57499" lon="0.16533">
        <ele>3.4</ele>
        <time>2023-12-03T10:28:49Z</time>
      </trkpt>
      <trkpt lat="46.57506" lon="0.16529">
        <ele>3.4</ele>
        <time>2023-12-03T10:28:50Z</time>
      </trkpt>
      <trkpt lat="46.57516" lon="0.16516">
        <ele>3.4</ele>
        <time>2023-12-03T10:28:53Z</time>
      </trkpt>
      <trkpt lat="46.57519" lon="0.16512">
        <ele>3.4</ele>
        <time>2023-12-03T10:28:54Z</time>
      </trkpt>
      <trkpt lat="46.57535" lon="0.16492">
        <ele>4</ele>
        <time>2023-12-03T10:28:58Z</time>
      </trkpt>
      <trkpt lat="46.57544" lon="0.16482">
        <ele>4</ele>
        <time>2023-12-03T10:29:00Z</time>
      </trkpt>
      <trkpt lat="46.5756" lon="0.16459">
        <ele>4.6</ele>
        <time>2023-12-03T10:29:05Z</time>
      </trkpt>
      <trkpt lat="46.57565" lon="0.16455">
        <ele>4.8</ele>
        <time>2023-12-03T10:29:06Z</time>
      </trkpt>
      <trkpt lat="46.57579" lon="0.16424">
        <ele>5.2</ele>
        <time>2023-12-03T10:29:12Z</time>
      </trkpt>
      <trkpt lat="46.57588" lon="0.16397">
        <ele>5.2</ele>
        <time>2023-12-03T10:29:17Z</time>
      </trkpt>
      <trkpt lat="46.57597" lon="0.1638">
        <ele>5.4</ele>
        <time>2023-12-03T10:29:20Z</time>
      </trkpt>
      <trkpt lat="46.57599" lon="0.16367">
        <ele>5.4</ele>
        <time>2023-12-03T10:29:22Z</time>
      </trkpt>
      <trkpt lat="46.57605" lon="0.16348">
        <ele>4.8</ele>
        <time>2023-12-03T10:29:25Z</time>
      </trkpt>
      <trkpt lat="46.5761" lon="0.16336">
        <ele>4.4</ele>
        <time>2023-12-03T10:29:27Z</time>
      </trkpt>
      <trkpt lat="46.57622" lon="0.16305">
        <ele>3.4</ele>
        <time>2023-12-03T10:29:32Z</time>
      </trkpt>
      <trkpt lat="46.57624" lon="0.163">
        <ele>3</ele>
        <time>2023-12-03T10:29:33Z</time>
      </trkpt>
      <trkpt lat="46.57627" lon="0.16294">
        <ele>2.8</ele>
        <time>2023-12-03T10:29:35Z</time>
      </trkpt>
      <trkpt lat="46.57628" lon="0.1629">
        <ele>2.6</ele>
        <time>2023-12-03T10:29:37Z</time>
      </trkpt>
      <trkpt lat="46.57624" lon="0.1627">
        <ele>3.2</ele>
        <time>2023-12-03T10:29:42Z</time>
      </trkpt>
      <trkpt lat="46.57614" lon="0.16247">
        <ele>3.6</ele>
        <time>2023-12-03T10:29:49Z</time>
      </trkpt>
      <trkpt lat="46.5761" lon="0.16234">
        <ele>3.8</ele>
        <time>2023-12-03T10:29:55Z</time>
      </trkpt>
      <trkpt lat="46.5761" lon="0.16233">
        <ele>3.8</ele>
        <time>2023-12-03T10:29:56Z</time>
      </trkpt>
      <trkpt lat="46.57609" lon="0.16228">
        <ele>4.4</ele>
        <time>2023-12-03T10:30:04Z</time>
      </trkpt>
      <trkpt lat="46.57608" lon="0.16225">
        <ele>4.4</ele>
        <time>2023-12-03T10:30:06Z</time>
      </trkpt>
      <trkpt lat="46.57606" lon="0.16223">
        <ele>4.6</ele>
        <time>2023-12-03T10:30:07Z</time>
      </trkpt>
      <trkpt lat="46.576" lon="0.16211">
        <ele>5</ele>
        <time>2023-12-03T10:30:12Z</time>
      </trkpt>
      <trkpt lat="46.57591" lon="0.16193">
        <ele>5.6</ele>
        <time>2023-12-03T10:30:19Z</time>
      </trkpt>
      <trkpt lat="46.5758" lon="0.1618">
        <ele>6</ele>
        <time>2023-12-03T10:30:25Z</time>
      </trkpt>
      <trkpt lat="46.57574" lon="0.16172">
        <ele>6.8</ele>
        <time>2023-12-03T10:30:28Z</time>
      </trkpt>
      <trkpt lat="46.57568" lon="0.16161">
        <ele>6.8</ele>
        <time>2023-12-03T10:30:31Z</time>
      </trkpt>
      <trkpt lat="46.57559" lon="0.16142">
        <ele>7</ele>
        <time>2023-12-03T10:30:37Z</time>
      </trkpt>
      <trkpt lat="46.57555" lon="0.1613">
        <ele>7.2</ele>
        <time>2023-12-03T10:30:41Z</time>
      </trkpt>
      <trkpt lat="46.57555" lon="0.16128">
        <ele>7.2</ele>
        <time>2023-12-03T10:30:42Z</time>
      </trkpt>
      <trkpt lat="46.57549" lon="0.16109">
        <ele>7.6</ele>
        <time>2023-12-03T10:30:48Z</time>
      </trkpt>
      <trkpt lat="46.57543" lon="0.16089">
        <ele>7.6</ele>
        <time>2023-12-03T10:30:54Z</time>
      </trkpt>
      <trkpt lat="46.57541" lon="0.16083">
        <ele>8</ele>
        <time>2023-12-03T10:30:56Z</time>
      </trkpt>
      <trkpt lat="46.57538" lon="0.16076">
        <ele>8.2</ele>
        <time>2023-12-03T10:30:59Z</time>
      </trkpt>
      <trkpt lat="46.57526" lon="0.16056">
        <ele>8.2</ele>
        <time>2023-12-03T10:31:06Z</time>
      </trkpt>
      <trkpt lat="46.57518" lon="0.16037">
        <ele>8.2</ele>
        <time>2023-12-03T10:31:12Z</time>
      </trkpt>
      <trkpt lat="46.5751" lon="0.16019">
        <ele>8.8</ele>
        <time>2023-12-03T10:31:19Z</time>
      </trkpt>
      <trkpt lat="46.57507" lon="0.16013">
        <ele>9</ele>
        <time>2023-12-03T10:31:22Z</time>
      </trkpt>
      <trkpt lat="46.57503" lon="0.16004">
        <ele>8.8</ele>
        <time>2023-12-03T10:31:24Z</time>
      </trkpt>
      <trkpt lat="46.57498" lon="0.15978">
        <ele>9.2</ele>
        <time>2023-12-03T10:31:30Z</time>
      </trkpt>
      <trkpt lat="46.57503" lon="0.15966">
        <ele>9.6</ele>
        <time>2023-12-03T10:31:36Z</time>
      </trkpt>
      <trkpt lat="46.57507" lon="0.15959">
        <ele>10</ele>
        <time>2023-12-03T10:31:40Z</time>
      </trkpt>
      <trkpt lat="46.57515" lon="0.15951">
        <ele>10.4</ele>
        <time>2023-12-03T10:31:44Z</time>
      </trkpt>
      <trkpt lat="46.57528" lon="0.1594">
        <ele>11</ele>
        <time>2023-12-03T10:31:51Z</time>
      </trkpt>
      <trkpt lat="46.5753" lon="0.15938">
        <ele>11</ele>
        <time>2023-12-03T10:31:52Z</time>
      </trkpt>
      <trkpt lat="46.57543" lon="0.15927">
        <ele>11.6</ele>
        <time>2023-12-03T10:31:58Z</time>
      </trkpt>
      <trkpt lat="46.57557" lon="0.15915">
        <ele>11.8</ele>
        <time>2023-12-03T10:32:04Z</time>
      </trkpt>
      <trkpt lat="46.57565" lon="0.15905">
        <ele>12.2</ele>
        <time>2023-12-03T10:32:08Z</time>
      </trkpt>
      <trkpt lat="46.57572" lon="0.159">
        <ele>12.2</ele>
        <time>2023-12-03T10:32:10Z</time>
      </trkpt>
      <trkpt lat="46.57589" lon="0.15881">
        <ele>12.2</ele>
        <time>2023-12-03T10:32:17Z</time>
      </trkpt>
      <trkpt lat="46.57605" lon="0.15879">
        <ele>12.4</ele>
        <time>2023-12-03T10:32:21Z</time>
      </trkpt>
      <trkpt lat="46.57635" lon="0.15886">
        <ele>11.6</ele>
        <time>2023-12-03T10:32:27Z</time>
      </trkpt>
      <trkpt lat="46.57659" lon="0.1589">
        <ele>11.6</ele>
        <time>2023-12-03T10:32:33Z</time>
      </trkpt>
      <trkpt lat="46.57683" lon="0.15897">
        <ele>11.2</ele>
        <time>2023-12-03T10:32:40Z</time>
      </trkpt>
      <trkpt lat="46.57693" lon="0.15899">
        <ele>11</ele>
        <time>2023-12-03T10:32:42Z</time>
      </trkpt>
      <trkpt lat="46.57698" lon="0.15901">
        <ele>11</ele>
        <time>2023-12-03T10:32:43Z</time>
      </trkpt>
      <trkpt lat="46.57708" lon="0.15903">
        <ele>11</ele>
        <time>2023-12-03T10:32:45Z</time>
      </trkpt>
      <trkpt lat="46.57712" lon="0.15904">
        <ele>11</ele>
        <time>2023-12-03T10:32:46Z</time>
      </trkpt>
      <trkpt lat="46.57748" lon="0.15916">
        <ele>10.8</ele>
        <time>2023-12-03T10:32:53Z</time>
      </trkpt>
      <trkpt lat="46.57764" lon="0.15923">
        <ele>10.2</ele>
        <time>2023-12-03T10:32:57Z</time>
      </trkpt>
      <trkpt lat="46.57768" lon="0.15924">
        <ele>10.2</ele>
        <time>2023-12-03T10:32:58Z</time>
      </trkpt>
      <trkpt lat="46.57776" lon="0.15926">
        <ele>10.2</ele>
        <time>2023-12-03T10:33:00Z</time>
      </trkpt>
      <trkpt lat="46.57784" lon="0.15929">
        <ele>10.4</ele>
        <time>2023-12-03T10:33:02Z</time>
      </trkpt>
      <trkpt lat="46.57789" lon="0.1593">
        <ele>10.4</ele>
        <time>2023-12-03T10:33:03Z</time>
      </trkpt>
      <trkpt lat="46.57803" lon="0.15938">
        <ele>10.2</ele>
        <time>2023-12-03T10:33:07Z</time>
      </trkpt>
      <trkpt lat="46.57806" lon="0.15941">
        <ele>10.2</ele>
        <time>2023-12-03T10:33:08Z</time>
      </trkpt>
      <trkpt lat="46.57807" lon="0.15945">
        <ele>10</ele>
        <time>2023-12-03T10:33:09Z</time>
      </trkpt>
      <trkpt lat="46.57807" lon="0.15953">
        <ele>9.8</ele>
        <time>2023-12-03T10:33:11Z</time>
      </trkpt>
      <trkpt lat="46.57807" lon="0.15957">
        <ele>9.8</ele>
        <time>2023-12-03T10:33:12Z</time>
      </trkpt>
      <trkpt lat="46.57807" lon="0.1598">
        <ele>9.8</ele>
        <time>2023-12-03T10:33:17Z</time>
      </trkpt>
      <trkpt lat="46.57806" lon="0.15984">
        <ele>9.8</ele>
        <time>2023-12-03T10:33:18Z</time>
      </trkpt>
      <trkpt lat="46.57802" lon="0.16017">
        <ele>9.8</ele>
        <time>2023-12-03T10:33:25Z</time>
      </trkpt>
      <trkpt lat="46.57802" lon="0.16031">
        <ele>9.6</ele>
        <time>2023-12-03T10:33:30Z</time>
      </trkpt>
      <trkpt lat="46.57798" lon="0.16041">
        <ele>9.8</ele>
        <time>2023-12-03T10:33:33Z</time>
      </trkpt>
      <trkpt lat="46.57799" lon="0.16046">
        <ele>9.8</ele>
        <time>2023-12-03T10:33:34Z</time>
      </trkpt>
      <trkpt lat="46.57805" lon="0.16063">
        <ele>9.8</ele>
        <time>2023-12-03T10:33:38Z</time>
      </trkpt>
      <trkpt lat="46.57818" lon="0.1607">
        <ele>9.4</ele>
        <time>2023-12-03T10:33:42Z</time>
      </trkpt>
      <trkpt lat="46.57845" lon="0.16082">
        <ele>9.4</ele>
        <time>2023-12-03T10:33:48Z</time>
      </trkpt>
      <trkpt lat="46.57865" lon="0.16091">
        <ele>9</ele>
        <time>2023-12-03T10:33:52Z</time>
      </trkpt>
      <trkpt lat="46.5787" lon="0.16093">
        <ele>9</ele>
        <time>2023-12-03T10:33:53Z</time>
      </trkpt>
      <trkpt lat="46.5788" lon="0.16098">
        <ele>8.6</ele>
        <time>2023-12-03T10:33:55Z</time>
      </trkpt>
      <trkpt lat="46.5791" lon="0.16111">
        <ele>7.8</ele>
        <time>2023-12-03T10:34:00Z</time>
      </trkpt>
      <trkpt lat="46.57928" lon="0.16118">
        <ele>7.2</ele>
        <time>2023-12-03T10:34:03Z</time>
      </trkpt>
      <trkpt lat="46.57939" lon="0.16121">
        <ele>6.6</ele>
        <time>2023-12-03T10:34:05Z</time>
      </trkpt>
      <trkpt lat="46.57946" lon="0.16121">
        <ele>6</ele>
        <time>2023-12-03T10:34:07Z</time>
      </trkpt>
      <trkpt lat="46.57948" lon="0.16119">
        <ele>5.6</ele>
        <time>2023-12-03T10:34:09Z</time>
      </trkpt>
      <trkpt lat="46.57948" lon="0.16116">
        <ele>5.2</ele>
        <time>2023-12-03T10:34:11Z</time>
      </trkpt>
      <trkpt lat="46.57945" lon="0.16101">
        <ele>5.2</ele>
        <time>2023-12-03T10:34:18Z</time>
      </trkpt>
      <trkpt lat="46.57941" lon="0.16077">
        <ele>5.6</ele>
        <time>2023-12-03T10:34:24Z</time>
      </trkpt>
      <trkpt lat="46.57938" lon="0.16071">
        <ele>5.8</ele>
        <time>2023-12-03T10:34:26Z</time>
      </trkpt>
      <trkpt lat="46.57932" lon="0.16064">
        <ele>6.2</ele>
        <time>2023-12-03T10:34:29Z</time>
      </trkpt>
      <trkpt lat="46.57928" lon="0.16053">
        <ele>6.6</ele>
        <time>2023-12-03T10:34:33Z</time>
      </trkpt>
      <trkpt lat="46.57928" lon="0.1605">
        <ele>6.6</ele>
        <time>2023-12-03T10:34:34Z</time>
      </trkpt>
      <trkpt lat="46.57924" lon="0.16032">
        <ele>6.8</ele>
        <time>2023-12-03T10:34:39Z</time>
      </trkpt>
      <trkpt lat="46.57917" lon="0.16011">
        <ele>7.4</ele>
        <time>2023-12-03T10:34:45Z</time>
      </trkpt>
      <trkpt lat="46.57913" lon="0.16003">
        <ele>7.6</ele>
        <time>2023-12-03T10:34:47Z</time>
      </trkpt>
      <trkpt lat="46.57909" lon="0.15994">
        <ele>7.6</ele>
        <time>2023-12-03T10:34:50Z</time>
      </trkpt>
      <trkpt lat="46.57904" lon="0.1597">
        <ele>7.6</ele>
        <time>2023-12-03T10:34:55Z</time>
      </trkpt>
      <trkpt lat="46.57905" lon="0.15948">
        <ele>6.6</ele>
        <time>2023-12-03T10:35:01Z</time>
      </trkpt>
      <trkpt lat="46.5791" lon="0.15929">
        <ele>6.6</ele>
        <time>2023-12-03T10:35:06Z</time>
      </trkpt>
      <trkpt lat="46.57913" lon="0.15922">
        <ele>6.2</ele>
        <time>2023-12-03T10:35:08Z</time>
      </trkpt>
      <trkpt lat="46.5792" lon="0.15905">
        <ele>5.4</ele>
        <time>2023-12-03T10:35:13Z</time>
      </trkpt>
      <trkpt lat="46.57921" lon="0.15902">
        <ele>5.4</ele>
        <time>2023-12-03T10:35:14Z</time>
      </trkpt>
      <trkpt lat="46.57927" lon="0.15895">
        <ele>5</ele>
        <time>2023-12-03T10:35:16Z</time>
      </trkpt>
      <trkpt lat="46.57934" lon="0.15884">
        <ele>4.8</ele>
        <time>2023-12-03T10:35:19Z</time>
      </trkpt>
      <trkpt lat="46.57942" lon="0.1586">
        <ele>4.8</ele>
        <time>2023-12-03T10:35:25Z</time>
      </trkpt>
      <trkpt lat="46.57946" lon="0.15851">
        <ele>4.8</ele>
        <time>2023-12-03T10:35:27Z</time>
      </trkpt>
      <trkpt lat="46.57949" lon="0.15842">
        <ele>4.4</ele>
        <time>2023-12-03T10:35:29Z</time>
      </trkpt>
      <trkpt lat="46.57951" lon="0.15838">
        <ele>4.4</ele>
        <time>2023-12-03T10:35:30Z</time>
      </trkpt>
      <trkpt lat="46.57958" lon="0.15814">
        <ele>4.2</ele>
        <time>2023-12-03T10:35:35Z</time>
      </trkpt>
      <trkpt lat="46.57961" lon="0.15787">
        <ele>4.4</ele>
        <time>2023-12-03T10:35:40Z</time>
      </trkpt>
      <trkpt lat="46.5797" lon="0.15764">
        <ele>4.6</ele>
        <time>2023-12-03T10:35:46Z</time>
      </trkpt>
      <trkpt lat="46.57974" lon="0.15752">
        <ele>4.6</ele>
        <time>2023-12-03T10:35:49Z</time>
      </trkpt>
      <trkpt lat="46.57981" lon="0.15747">
        <ele>4.4</ele>
        <time>2023-12-03T10:35:51Z</time>
      </trkpt>
      <trkpt lat="46.57998" lon="0.15746">
        <ele>3.6</ele>
        <time>2023-12-03T10:35:55Z</time>
      </trkpt>
      <trkpt lat="46.58003" lon="0.15746">
        <ele>3.4</ele>
        <time>2023-12-03T10:35:56Z</time>
      </trkpt>
      <trkpt lat="46.58022" lon="0.15749">
        <ele>2</ele>
        <time>2023-12-03T10:36:00Z</time>
      </trkpt>
      <trkpt lat="46.58033" lon="0.15752">
        <ele>0.8</ele>
        <time>2023-12-03T10:36:02Z</time>
      </trkpt>
      <trkpt lat="46.58047" lon="0.15754">
        <ele>-0.2</ele>
        <time>2023-12-03T10:36:05Z</time>
      </trkpt>
      <trkpt lat="46.5805" lon="0.15753">
        <ele>-0.4</ele>
        <time>2023-12-03T10:36:06Z</time>
      </trkpt>
      <trkpt lat="46.58061" lon="0.15754">
        <ele>-0.4</ele>
        <time>2023-12-03T10:36:10Z</time>
      </trkpt>
      <trkpt lat="46.58071" lon="0.15758">
        <ele>1.2</ele>
        <time>2023-12-03T10:36:14Z</time>
      </trkpt>
      <trkpt lat="46.58075" lon="0.15759">
        <ele>1.6</ele>
        <time>2023-12-03T10:36:16Z</time>
      </trkpt>
      <trkpt lat="46.58078" lon="0.15761">
        <ele>2.4</ele>
        <time>2023-12-03T10:36:18Z</time>
      </trkpt>
      <trkpt lat="46.58085" lon="0.15764">
        <ele>3.4</ele>
        <time>2023-12-03T10:36:22Z</time>
      </trkpt>
      <trkpt lat="46.58095" lon="0.15768">
        <ele>4.6</ele>
        <time>2023-12-03T10:36:28Z</time>
      </trkpt>
      <trkpt lat="46.58096" lon="0.15768">
        <ele>4.8</ele>
        <time>2023-12-03T10:36:29Z</time>
      </trkpt>
      <trkpt lat="46.58103" lon="0.1577">
        <ele>5.8</ele>
        <time>2023-12-03T10:36:34Z</time>
      </trkpt>
      <trkpt lat="46.58106" lon="0.15768">
        <ele>6.2</ele>
        <time>2023-12-03T10:36:37Z</time>
      </trkpt>
      <trkpt lat="46.58113" lon="0.15756">
        <ele>6.8</ele>
        <time>2023-12-03T10:36:44Z</time>
      </trkpt>
      <trkpt lat="46.58116" lon="0.15752">
        <ele>7.2</ele>
        <time>2023-12-03T10:36:47Z</time>
      </trkpt>
      <trkpt lat="46.58123" lon="0.1574">
        <ele>8</ele>
        <time>2023-12-03T10:36:53Z</time>
      </trkpt>
      <trkpt lat="46.58127" lon="0.15734">
        <ele>8.2</ele>
        <time>2023-12-03T10:36:56Z</time>
      </trkpt>
      <trkpt lat="46.58133" lon="0.15729">
        <ele>8.8</ele>
        <time>2023-12-03T10:37:01Z</time>
      </trkpt>
      <trkpt lat="46.58134" lon="0.15727">
        <ele>8.8</ele>
        <time>2023-12-03T10:37:04Z</time>
      </trkpt>
      <trkpt lat="46.58134" lon="0.15727">
        <ele>9</ele>
        <time>2023-12-03T10:37:12Z</time>
      </trkpt>
      <trkpt lat="46.58133" lon="0.15722">
        <ele>9</ele>
        <time>2023-12-03T10:37:19Z</time>
      </trkpt>
      <trkpt lat="46.5813" lon="0.1572">
        <ele>8.8</ele>
        <time>2023-12-03T10:37:21Z</time>
      </trkpt>
      <trkpt lat="46.58123" lon="0.15712">
        <ele>8</ele>
        <time>2023-12-03T10:37:26Z</time>
      </trkpt>
      <trkpt lat="46.58121" lon="0.1571">
        <ele>7.8</ele>
        <time>2023-12-03T10:37:27Z</time>
      </trkpt>
      <trkpt lat="46.58114" lon="0.15698">
        <ele>7.2</ele>
        <time>2023-12-03T10:37:30Z</time>
      </trkpt>
      <trkpt lat="46.58109" lon="0.1569">
        <ele>6.8</ele>
        <time>2023-12-03T10:37:32Z</time>
      </trkpt>
      <trkpt lat="46.58102" lon="0.15678">
        <ele>6</ele>
        <time>2023-12-03T10:37:35Z</time>
      </trkpt>
      <trkpt lat="46.58099" lon="0.15672">
        <ele>5.6</ele>
        <time>2023-12-03T10:37:36Z</time>
      </trkpt>
      <trkpt lat="46.58093" lon="0.15659">
        <ele>3.8</ele>
        <time>2023-12-03T10:37:38Z</time>
      </trkpt>
      <trkpt lat="46.58088" lon="0.15649">
        <ele>2.4</ele>
        <time>2023-12-03T10:37:40Z</time>
      </trkpt>
      <trkpt lat="46.58086" lon="0.15645">
        <ele>2</ele>
        <time>2023-12-03T10:37:41Z</time>
      </trkpt>
      <trkpt lat="46.58084" lon="0.15636">
        <ele>1.4</ele>
        <time>2023-12-03T10:37:43Z</time>
      </trkpt>
      <trkpt lat="46.58083" lon="0.15632">
        <ele>1.4</ele>
        <time>2023-12-03T10:37:44Z</time>
      </trkpt>
      <trkpt lat="46.58077" lon="0.156">
        <ele>1</ele>
        <time>2023-12-03T10:37:50Z</time>
      </trkpt>
      <trkpt lat="46.58069" lon="0.15562">
        <ele>0.4</ele>
        <time>2023-12-03T10:37:56Z</time>
      </trkpt>
      <trkpt lat="46.58068" lon="0.15554">
        <ele>0.2</ele>
        <time>2023-12-03T10:37:57Z</time>
      </trkpt>
      <trkpt lat="46.58066" lon="0.15526">
        <ele>134.4</ele>
        <time>2023-12-03T10:38:02Z</time>
      </trkpt>
      <trkpt lat="46.58072" lon="0.15504">
        <ele>0.6</ele>
        <time>2023-12-03T10:38:07Z</time>
      </trkpt>
      <trkpt lat="46.58076" lon="0.15492">
        <ele>0.6</ele>
        <time>2023-12-03T10:38:10Z</time>
      </trkpt>
      <trkpt lat="46.58079" lon="0.15471">
        <ele>0.2</ele>
        <time>2023-12-03T10:38:14Z</time>
      </trkpt>
      <trkpt lat="46.58083" lon="0.15458">
        <ele>0.2</ele>
        <time>2023-12-03T10:38:17Z</time>
      </trkpt>
      <trkpt lat="46.58087" lon="0.15449">
        <ele>0.2</ele>
        <time>2023-12-03T10:38:19Z</time>
      </trkpt>
      <trkpt lat="46.58088" lon="0.15445">
        <ele>0.4</ele>
        <time>2023-12-03T10:38:20Z</time>
      </trkpt>
      <trkpt lat="46.58092" lon="0.15437">
        <ele>0.4</ele>
        <time>2023-12-03T10:38:22Z</time>
      </trkpt>
      <trkpt lat="46.58096" lon="0.15426">
        <ele>0.2</ele>
        <time>2023-12-03T10:38:25Z</time>
      </trkpt>
      <trkpt lat="46.58098" lon="0.15422">
        <ele>0.2</ele>
        <time>2023-12-03T10:38:26Z</time>
      </trkpt>
      <trkpt lat="46.58106" lon="0.15405">
        <ele>0.2</ele>
        <time>2023-12-03T10:38:31Z</time>
      </trkpt>
      <trkpt lat="46.5811" lon="0.1538">
        <ele>0.6</ele>
        <time>2023-12-03T10:38:37Z</time>
      </trkpt>
      <trkpt lat="46.5812" lon="0.15348">
        <ele>0.6</ele>
        <time>2023-12-03T10:38:44Z</time>
      </trkpt>
      <trkpt lat="46.58127" lon="0.15323">
        <ele>0.2</ele>
        <time>2023-12-03T10:38:50Z</time>
      </trkpt>
      <trkpt lat="46.58135" lon="0.15304">
        <ele>1.2</ele>
        <time>2023-12-03T10:38:55Z</time>
      </trkpt>
      <trkpt lat="46.58141" lon="0.15286">
        <ele>2.2</ele>
        <time>2023-12-03T10:39:01Z</time>
      </trkpt>
      <trkpt lat="46.58141" lon="0.15282">
        <ele>2.4</ele>
        <time>2023-12-03T10:39:02Z</time>
      </trkpt>
      <trkpt lat="46.58145" lon="0.15258">
        <ele>3.4</ele>
        <time>2023-12-03T10:39:08Z</time>
      </trkpt>
      <trkpt lat="46.58146" lon="0.15254">
        <ele>3.6</ele>
        <time>2023-12-03T10:39:09Z</time>
      </trkpt>
      <trkpt lat="46.58153" lon="0.15231">
        <ele>4.4</ele>
        <time>2023-12-03T10:39:15Z</time>
      </trkpt>
      <trkpt lat="46.58154" lon="0.15228">
        <ele>4.6</ele>
        <time>2023-12-03T10:39:16Z</time>
      </trkpt>
      <trkpt lat="46.58157" lon="0.1521">
        <ele>5.2</ele>
        <time>2023-12-03T10:39:21Z</time>
      </trkpt>
      <trkpt lat="46.58158" lon="0.15203">
        <ele>5.6</ele>
        <time>2023-12-03T10:39:23Z</time>
      </trkpt>
      <trkpt lat="46.58162" lon="0.15191">
        <ele>6</ele>
        <time>2023-12-03T10:39:27Z</time>
      </trkpt>
      <trkpt lat="46.58166" lon="0.15175">
        <ele>6.6</ele>
        <time>2023-12-03T10:39:32Z</time>
      </trkpt>
      <trkpt lat="46.58167" lon="0.15171">
        <ele>6.8</ele>
        <time>2023-12-03T10:39:33Z</time>
      </trkpt>
      <trkpt lat="46.58169" lon="0.15161">
        <ele>7.2</ele>
        <time>2023-12-03T10:39:36Z</time>
      </trkpt>
      <trkpt lat="46.58172" lon="0.15146">
        <ele>7.4</ele>
        <time>2023-12-03T10:39:40Z</time>
      </trkpt>
      <trkpt lat="46.58173" lon="0.1514">
        <ele>7.6</ele>
        <time>2023-12-03T10:39:42Z</time>
      </trkpt>
      <trkpt lat="46.58175" lon="0.15123">
        <ele>8.2</ele>
        <time>2023-12-03T10:39:47Z</time>
      </trkpt>
      <trkpt lat="46.58176" lon="0.15099">
        <ele>8.2</ele>
        <time>2023-12-03T10:39:53Z</time>
      </trkpt>
      <trkpt lat="46.58177" lon="0.15078">
        <ele>8.4</ele>
        <time>2023-12-03T10:39:58Z</time>
      </trkpt>
      <trkpt lat="46.58179" lon="0.15061">
        <ele>8.8</ele>
        <time>2023-12-03T10:40:02Z</time>
      </trkpt>
      <trkpt lat="46.58179" lon="0.15057">
        <ele>8.8</ele>
        <time>2023-12-03T10:40:03Z</time>
      </trkpt>
      <trkpt lat="46.58184" lon="0.15028">
        <ele>9.6</ele>
        <time>2023-12-03T10:40:10Z</time>
      </trkpt>
      <trkpt lat="46.58189" lon="0.15012">
        <ele>9.8</ele>
        <time>2023-12-03T10:40:14Z</time>
      </trkpt>
      <trkpt lat="46.58191" lon="0.15003">
        <ele>10</ele>
        <time>2023-12-03T10:40:16Z</time>
      </trkpt>
      <trkpt lat="46.58202" lon="0.14982">
        <ele>10.2</ele>
        <time>2023-12-03T10:40:22Z</time>
      </trkpt>
      <trkpt lat="46.58209" lon="0.14959">
        <ele>10.6</ele>
        <time>2023-12-03T10:40:28Z</time>
      </trkpt>
      <trkpt lat="46.5821" lon="0.14951">
        <ele>10.8</ele>
        <time>2023-12-03T10:40:30Z</time>
      </trkpt>
      <trkpt lat="46.58213" lon="0.14941">
        <ele>11.2</ele>
        <time>2023-12-03T10:40:33Z</time>
      </trkpt>
      <trkpt lat="46.58222" lon="0.14917">
        <ele>11.4</ele>
        <time>2023-12-03T10:40:40Z</time>
      </trkpt>
      <trkpt lat="46.58223" lon="0.14912">
        <ele>11.4</ele>
        <time>2023-12-03T10:40:43Z</time>
      </trkpt>
      <trkpt lat="46.58223" lon="0.1491">
        <ele>11.4</ele>
        <time>2023-12-03T10:40:44Z</time>
      </trkpt>
      <trkpt lat="46.58216" lon="0.14905">
        <ele>9.8</ele>
        <time>2023-12-03T10:40:52Z</time>
      </trkpt>
      <trkpt lat="46.58212" lon="0.14912">
        <ele>9</ele>
        <time>2023-12-03T10:40:57Z</time>
      </trkpt>
      <trkpt lat="46.5821" lon="0.14912">
        <ele>8.8</ele>
        <time>2023-12-03T10:40:58Z</time>
      </trkpt>
      <trkpt lat="46.58205" lon="0.14911">
        <ele>8.4</ele>
        <time>2023-12-03T10:41:01Z</time>
      </trkpt>
      <trkpt lat="46.58199" lon="0.14913">
        <ele>7</ele>
        <time>2023-12-03T10:41:05Z</time>
      </trkpt>
      <trkpt lat="46.58198" lon="0.14915">
        <ele>6.6</ele>
        <time>2023-12-03T10:41:06Z</time>
      </trkpt>
      <trkpt lat="46.58197" lon="0.14918">
        <ele>6</ele>
        <time>2023-12-03T10:41:08Z</time>
      </trkpt>
      <trkpt lat="46.58195" lon="0.14922">
        <ele>6</ele>
        <time>2023-12-03T10:41:10Z</time>
      </trkpt>
      <trkpt lat="46.58196" lon="0.14925">
        <ele>6.2</ele>
        <time>2023-12-03T10:41:12Z</time>
      </trkpt>
      <trkpt lat="46.58195" lon="0.14927">
        <ele>6.4</ele>
        <time>2023-12-03T10:41:14Z</time>
      </trkpt>
      <trkpt lat="46.58193" lon="0.14929">
        <ele>6.8</ele>
        <time>2023-12-03T10:41:16Z</time>
      </trkpt>
      <trkpt lat="46.58192" lon="0.14932">
        <ele>7</ele>
        <time>2023-12-03T10:41:18Z</time>
      </trkpt>
      <trkpt lat="46.58191" lon="0.14936">
        <ele>7</ele>
        <time>2023-12-03T10:41:20Z</time>
      </trkpt>
      <trkpt lat="46.58191" lon="0.14939">
        <ele>7.2</ele>
        <time>2023-12-03T10:41:21Z</time>
      </trkpt>
      <trkpt lat="46.58189" lon="0.14954">
        <ele>7.6</ele>
        <time>2023-12-03T10:41:28Z</time>
      </trkpt>
      <trkpt lat="46.58181" lon="0.14962">
        <ele>6</ele>
        <time>2023-12-03T10:41:34Z</time>
      </trkpt>
      <trkpt lat="46.58178" lon="0.14963">
        <ele>5.4</ele>
        <time>2023-12-03T10:41:36Z</time>
      </trkpt>
      <trkpt lat="46.58176" lon="0.14963">
        <ele>5</ele>
        <time>2023-12-03T10:41:37Z</time>
      </trkpt>
      <trkpt lat="46.58167" lon="0.14961">
        <ele>4.2</ele>
        <time>2023-12-03T10:41:42Z</time>
      </trkpt>
      <trkpt lat="46.58163" lon="0.14962">
        <ele>4</ele>
        <time>2023-12-03T10:41:43Z</time>
      </trkpt>
      <trkpt lat="46.58161" lon="0.14958">
        <ele>3.6</ele>
        <time>2023-12-03T10:41:44Z</time>
      </trkpt>
      <trkpt lat="46.58155" lon="0.1494">
        <ele>3.2</ele>
        <time>2023-12-03T10:41:49Z</time>
      </trkpt>
      <trkpt lat="46.58158" lon="0.14917">
        <ele>3.4</ele>
        <time>2023-12-03T10:41:56Z</time>
      </trkpt>
      <trkpt lat="46.58162" lon="0.14897">
        <ele>3.6</ele>
        <time>2023-12-03T10:42:02Z</time>
      </trkpt>
      <trkpt lat="46.58166" lon="0.14879">
        <ele>4</ele>
        <time>2023-12-03T10:42:07Z</time>
      </trkpt>
      <trkpt lat="46.58171" lon="0.14866">
        <ele>3.8</ele>
        <time>2023-12-03T10:42:12Z</time>
      </trkpt>
      <trkpt lat="46.58172" lon="0.14862">
        <ele>4.2</ele>
        <time>2023-12-03T10:42:14Z</time>
      </trkpt>
      <trkpt lat="46.58174" lon="0.14855">
        <ele>4.4</ele>
        <time>2023-12-03T10:42:17Z</time>
      </trkpt>
      <trkpt lat="46.58176" lon="0.14846">
        <ele>4.8</ele>
        <time>2023-12-03T10:42:20Z</time>
      </trkpt>
      <trkpt lat="46.58178" lon="0.14833">
        <ele>5</ele>
        <time>2023-12-03T10:42:23Z</time>
      </trkpt>
      <trkpt lat="46.58184" lon="0.14808">
        <ele>4.6</ele>
        <time>2023-12-03T10:42:29Z</time>
      </trkpt>
      <trkpt lat="46.58192" lon="0.14786">
        <ele>4.8</ele>
        <time>2023-12-03T10:42:35Z</time>
      </trkpt>
      <trkpt lat="46.58201" lon="0.14759">
        <ele>5.2</ele>
        <time>2023-12-03T10:42:42Z</time>
      </trkpt>
      <trkpt lat="46.58207" lon="0.14741">
        <ele>5.4</ele>
        <time>2023-12-03T10:42:47Z</time>
      </trkpt>
      <trkpt lat="46.58217" lon="0.14714">
        <ele>5.6</ele>
        <time>2023-12-03T10:42:53Z</time>
      </trkpt>
      <trkpt lat="46.58223" lon="0.14689">
        <ele>5.6</ele>
        <time>2023-12-03T10:42:59Z</time>
      </trkpt>
      <trkpt lat="46.5823" lon="0.14664">
        <ele>5.4</ele>
        <time>2023-12-03T10:43:05Z</time>
      </trkpt>
      <trkpt lat="46.58236" lon="0.14644">
        <ele>5.8</ele>
        <time>2023-12-03T10:43:10Z</time>
      </trkpt>
      <trkpt lat="46.58242" lon="0.14628">
        <ele>6</ele>
        <time>2023-12-03T10:43:16Z</time>
      </trkpt>
      <trkpt lat="46.58247" lon="0.14608">
        <ele>5.8</ele>
        <time>2023-12-03T10:43:22Z</time>
      </trkpt>
      <trkpt lat="46.58253" lon="0.14589">
        <ele>5.8</ele>
        <time>2023-12-03T10:43:28Z</time>
      </trkpt>
      <trkpt lat="46.58259" lon="0.1458">
        <ele>6.2</ele>
        <time>2023-12-03T10:43:32Z</time>
      </trkpt>
      <trkpt lat="46.58261" lon="0.14579">
        <ele>6.4</ele>
        <time>2023-12-03T10:43:33Z</time>
      </trkpt>
      <trkpt lat="46.58264" lon="0.14566">
        <ele>6.8</ele>
        <time>2023-12-03T10:43:38Z</time>
      </trkpt>
      <trkpt lat="46.58265" lon="0.14563">
        <ele>6.8</ele>
        <time>2023-12-03T10:43:39Z</time>
      </trkpt>
      <trkpt lat="46.58266" lon="0.14542">
        <ele>6.8</ele>
        <time>2023-12-03T10:43:45Z</time>
      </trkpt>
      <trkpt lat="46.58268" lon="0.14519">
        <ele>7</ele>
        <time>2023-12-03T10:43:51Z</time>
      </trkpt>
      <trkpt lat="46.58274" lon="0.14496">
        <ele>7</ele>
        <time>2023-12-03T10:43:57Z</time>
      </trkpt>
      <trkpt lat="46.58278" lon="0.1447">
        <ele>7</ele>
        <time>2023-12-03T10:44:04Z</time>
      </trkpt>
      <trkpt lat="46.58282" lon="0.14438">
        <ele>7.6</ele>
        <time>2023-12-03T10:44:11Z</time>
      </trkpt>
      <trkpt lat="46.58281" lon="0.14417">
        <ele>7.4</ele>
        <time>2023-12-03T10:44:17Z</time>
      </trkpt>
      <trkpt lat="46.58277" lon="0.1439">
        <ele>7.8</ele>
        <time>2023-12-03T10:44:24Z</time>
      </trkpt>
      <trkpt lat="46.58276" lon="0.14365">
        <ele>7.8</ele>
        <time>2023-12-03T10:44:30Z</time>
      </trkpt>
      <trkpt lat="46.58276" lon="0.14351">
        <ele>7.8</ele>
        <time>2023-12-03T10:44:34Z</time>
      </trkpt>
      <trkpt lat="46.58277" lon="0.14348">
        <ele>7.8</ele>
        <time>2023-12-03T10:44:36Z</time>
      </trkpt>
      <trkpt lat="46.58281" lon="0.14346">
        <ele>7.6</ele>
        <time>2023-12-03T10:44:40Z</time>
      </trkpt>
      <trkpt lat="46.58282" lon="0.14344">
        <ele>7.6</ele>
        <time>2023-12-03T10:44:41Z</time>
      </trkpt>
      <trkpt lat="46.58286" lon="0.14343">
        <ele>7.6</ele>
        <time>2023-12-03T10:44:43Z</time>
      </trkpt>
      <trkpt lat="46.5829" lon="0.14345">
        <ele>7.8</ele>
        <time>2023-12-03T10:44:46Z</time>
      </trkpt>
      <trkpt lat="46.58292" lon="0.14347">
        <ele>7.8</ele>
        <time>2023-12-03T10:44:47Z</time>
      </trkpt>
      <trkpt lat="46.58299" lon="0.14357">
        <ele>7.6</ele>
        <time>2023-12-03T10:44:51Z</time>
      </trkpt>
      <trkpt lat="46.5831" lon="0.14375">
        <ele>8</ele>
        <time>2023-12-03T10:44:57Z</time>
      </trkpt>
      <trkpt lat="46.58318" lon="0.14392">
        <ele>8</ele>
        <time>2023-12-03T10:45:04Z</time>
      </trkpt>
      <trkpt lat="46.5832" lon="0.14396">
        <ele>8.6</ele>
        <time>2023-12-03T10:45:06Z</time>
      </trkpt>
      <trkpt lat="46.58322" lon="0.14398">
        <ele>9</ele>
        <time>2023-12-03T10:45:07Z</time>
      </trkpt>
      <trkpt lat="46.58325" lon="0.14402">
        <ele>9.8</ele>
        <time>2023-12-03T10:45:10Z</time>
      </trkpt>
      <trkpt lat="46.58326" lon="0.14404">
        <ele>10.2</ele>
        <time>2023-12-03T10:45:11Z</time>
      </trkpt>
      <trkpt lat="46.58332" lon="0.14413">
        <ele>11</ele>
        <time>2023-12-03T10:45:16Z</time>
      </trkpt>
      <trkpt lat="46.58333" lon="0.14415">
        <ele>11.4</ele>
        <time>2023-12-03T10:45:17Z</time>
      </trkpt>
      <trkpt lat="46.58336" lon="0.14424">
        <ele>12.4</ele>
        <time>2023-12-03T10:45:22Z</time>
      </trkpt>
      <trkpt lat="46.58338" lon="0.14427">
        <ele>12.6</ele>
        <time>2023-12-03T10:45:24Z</time>
      </trkpt>
      <trkpt lat="46.58343" lon="0.14436">
        <ele>13.6</ele>
        <time>2023-12-03T10:45:29Z</time>
      </trkpt>
      <trkpt lat="46.58348" lon="0.14446">
        <ele>14.2</ele>
        <time>2023-12-03T10:45:34Z</time>
      </trkpt>
      <trkpt lat="46.58351" lon="0.1445">
        <ele>14.8</ele>
        <time>2023-12-03T10:45:36Z</time>
      </trkpt>
      <trkpt lat="46.58359" lon="0.14463">
        <ele>15.4</ele>
        <time>2023-12-03T10:45:43Z</time>
      </trkpt>
      <trkpt lat="46.58366" lon="0.14474">
        <ele>15.8</ele>
        <time>2023-12-03T10:45:49Z</time>
      </trkpt>
      <trkpt lat="46.5837" lon="0.14479">
        <ele>16.2</ele>
        <time>2023-12-03T10:45:52Z</time>
      </trkpt>
      <trkpt lat="46.58374" lon="0.14485">
        <ele>16.6</ele>
        <time>2023-12-03T10:45:55Z</time>
      </trkpt>
      <trkpt lat="46.58386" lon="0.14496">
        <ele>16.8</ele>
        <time>2023-12-03T10:46:02Z</time>
      </trkpt>
      <trkpt lat="46.58389" lon="0.145">
        <ele>16.8</ele>
        <time>2023-12-03T10:46:04Z</time>
      </trkpt>
      <trkpt lat="46.58399" lon="0.14511">
        <ele>17</ele>
        <time>2023-12-03T10:46:10Z</time>
      </trkpt>
      <trkpt lat="46.58413" lon="0.14525">
        <ele>17.6</ele>
        <time>2023-12-03T10:46:17Z</time>
      </trkpt>
      <trkpt lat="46.58419" lon="0.14532">
        <ele>17.8</ele>
        <time>2023-12-03T10:46:20Z</time>
      </trkpt>
      <trkpt lat="46.58429" lon="0.14542">
        <ele>18.2</ele>
        <time>2023-12-03T10:46:24Z</time>
      </trkpt>
      <trkpt lat="46.58442" lon="0.14557">
        <ele>18.6</ele>
        <time>2023-12-03T10:46:31Z</time>
      </trkpt>
      <trkpt lat="46.58452" lon="0.14569">
        <ele>19</ele>
        <time>2023-12-03T10:46:36Z</time>
      </trkpt>
      <trkpt lat="46.58456" lon="0.14574">
        <ele>19.2</ele>
        <time>2023-12-03T10:46:38Z</time>
      </trkpt>
      <trkpt lat="46.58457" lon="0.14578">
        <ele>19.2</ele>
        <time>2023-12-03T10:46:39Z</time>
      </trkpt>
      <trkpt lat="46.5846" lon="0.14588">
        <ele>19.2</ele>
        <time>2023-12-03T10:46:41Z</time>
      </trkpt>
      <trkpt lat="46.5846" lon="0.14592">
        <ele>19.2</ele>
        <time>2023-12-03T10:46:42Z</time>
      </trkpt>
      <trkpt lat="46.58455" lon="0.14616">
        <ele>19</ele>
        <time>2023-12-03T10:46:48Z</time>
      </trkpt>
      <trkpt lat="46.58449" lon="0.14645">
        <ele>18.8</ele>
        <time>2023-12-03T10:46:54Z</time>
      </trkpt>
      <trkpt lat="46.58446" lon="0.14678">
        <ele>18.6</ele>
        <time>2023-12-03T10:47:00Z</time>
      </trkpt>
      <trkpt lat="46.58443" lon="0.14703">
        <ele>18.4</ele>
        <time>2023-12-03T10:47:05Z</time>
      </trkpt>
      <trkpt lat="46.5844" lon="0.14736">
        <ele>18.4</ele>
        <time>2023-12-03T10:47:11Z</time>
      </trkpt>
      <trkpt lat="46.58433" lon="0.14781">
        <ele>18.4</ele>
        <time>2023-12-03T10:47:19Z</time>
      </trkpt>
      <trkpt lat="46.58426" lon="0.14826">
        <ele>18.4</ele>
        <time>2023-12-03T10:47:27Z</time>
      </trkpt>
      <trkpt lat="46.58423" lon="0.14843">
        <ele>18.8</ele>
        <time>2023-12-03T10:47:31Z</time>
      </trkpt>
      <trkpt lat="46.58425" lon="0.14845">
        <ele>18.8</ele>
        <time>2023-12-03T10:47:32Z</time>
      </trkpt>
      <trkpt lat="46.58433" lon="0.14848">
        <ele>18.8</ele>
        <time>2023-12-03T10:47:36Z</time>
      </trkpt>
      <trkpt lat="46.58455" lon="0.14847">
        <ele>18.8</ele>
        <time>2023-12-03T10:47:43Z</time>
      </trkpt>
      <trkpt lat="46.58474" lon="0.14845">
        <ele>18.6</ele>
        <time>2023-12-03T10:47:49Z</time>
      </trkpt>
      <trkpt lat="46.58497" lon="0.14845">
        <ele>18.6</ele>
        <time>2023-12-03T10:47:56Z</time>
      </trkpt>
      <trkpt lat="46.58519" lon="0.14848">
        <ele>18.4</ele>
        <time>2023-12-03T10:48:02Z</time>
      </trkpt>
      <trkpt lat="46.58544" lon="0.14854">
        <ele>18.6</ele>
        <time>2023-12-03T10:48:08Z</time>
      </trkpt>
      <trkpt lat="46.58575" lon="0.14863">
        <ele>18.2</ele>
        <time>2023-12-03T10:48:15Z</time>
      </trkpt>
      <trkpt lat="46.58599" lon="0.1487">
        <ele>18.4</ele>
        <time>2023-12-03T10:48:22Z</time>
      </trkpt>
      <trkpt lat="46.58621" lon="0.14878">
        <ele>18.4</ele>
        <time>2023-12-03T10:48:29Z</time>
      </trkpt>
      <trkpt lat="46.58642" lon="0.14888">
        <ele>18.4</ele>
        <time>2023-12-03T10:48:36Z</time>
      </trkpt>
      <trkpt lat="46.58659" lon="0.14895">
        <ele>18.2</ele>
        <time>2023-12-03T10:48:42Z</time>
      </trkpt>
      <trkpt lat="46.58676" lon="0.14906">
        <ele>18.4</ele>
        <time>2023-12-03T10:48:47Z</time>
      </trkpt>
      <trkpt lat="46.58703" lon="0.14921">
        <ele>18.4</ele>
        <time>2023-12-03T10:48:53Z</time>
      </trkpt>
      <trkpt lat="46.58707" lon="0.14925">
        <ele>18.4</ele>
        <time>2023-12-03T10:48:54Z</time>
      </trkpt>
      <trkpt lat="46.58719" lon="0.14932">
        <ele>18</ele>
        <time>2023-12-03T10:48:57Z</time>
      </trkpt>
      <trkpt lat="46.58723" lon="0.14935">
        <ele>17.8</ele>
        <time>2023-12-03T10:48:58Z</time>
      </trkpt>
      <trkpt lat="46.58745" lon="0.14945">
        <ele>17.8</ele>
        <time>2023-12-03T10:49:04Z</time>
      </trkpt>
      <trkpt lat="46.5877" lon="0.14954">
        <ele>17.8</ele>
        <time>2023-12-03T10:49:11Z</time>
      </trkpt>
      <trkpt lat="46.58793" lon="0.1496">
        <ele>17.6</ele>
        <time>2023-12-03T10:49:16Z</time>
      </trkpt>
      <trkpt lat="46.58802" lon="0.14962">
        <ele>17.4</ele>
        <time>2023-12-03T10:49:18Z</time>
      </trkpt>
      <trkpt lat="46.58821" lon="0.14966">
        <ele>17.6</ele>
        <time>2023-12-03T10:49:22Z</time>
      </trkpt>
      <trkpt lat="46.58852" lon="0.14975">
        <ele>17.2</ele>
        <time>2023-12-03T10:49:29Z</time>
      </trkpt>
      <trkpt lat="46.58863" lon="0.14978">
        <ele>17.2</ele>
        <time>2023-12-03T10:49:32Z</time>
      </trkpt>
      <trkpt lat="46.58871" lon="0.1498">
        <ele>17</ele>
        <time>2023-12-03T10:49:34Z</time>
      </trkpt>
      <trkpt lat="46.58879" lon="0.14982">
        <ele>16.8</ele>
        <time>2023-12-03T10:49:36Z</time>
      </trkpt>
      <trkpt lat="46.58895" lon="0.14988">
        <ele>16.4</ele>
        <time>2023-12-03T10:49:40Z</time>
      </trkpt>
      <trkpt lat="46.58909" lon="0.14995">
        <ele>16.4</ele>
        <time>2023-12-03T10:49:44Z</time>
      </trkpt>
      <trkpt lat="46.58917" lon="0.15">
        <ele>16.4</ele>
        <time>2023-12-03T10:49:46Z</time>
      </trkpt>
      <trkpt lat="46.58938" lon="0.15009">
        <ele>16.4</ele>
        <time>2023-12-03T10:49:52Z</time>
      </trkpt>
      <trkpt lat="46.58962" lon="0.15019">
        <ele>16.4</ele>
        <time>2023-12-03T10:49:58Z</time>
      </trkpt>
      <trkpt lat="46.58976" lon="0.15033">
        <ele>17.2</ele>
        <time>2023-12-03T10:50:04Z</time>
      </trkpt>
      <trkpt lat="46.5898" lon="0.15049">
        <ele>17.8</ele>
        <time>2023-12-03T10:50:09Z</time>
      </trkpt>
      <trkpt lat="46.58979" lon="0.15075">
        <ele>18</ele>
        <time>2023-12-03T10:50:15Z</time>
      </trkpt>
      <trkpt lat="46.58975" lon="0.15093">
        <ele>18.2</ele>
        <time>2023-12-03T10:50:19Z</time>
      </trkpt>
      <trkpt lat="46.58974" lon="0.15104">
        <ele>18.2</ele>
        <time>2023-12-03T10:50:21Z</time>
      </trkpt>
      <trkpt lat="46.58973" lon="0.15131">
        <ele>17.8</ele>
        <time>2023-12-03T10:50:26Z</time>
      </trkpt>
      <trkpt lat="46.58972" lon="0.15136">
        <ele>17.8</ele>
        <time>2023-12-03T10:50:27Z</time>
      </trkpt>
      <trkpt lat="46.58971" lon="0.15141">
        <ele>17.8</ele>
        <time>2023-12-03T10:50:28Z</time>
      </trkpt>
      <trkpt lat="46.58964" lon="0.15176">
        <ele>18.2</ele>
        <time>2023-12-03T10:50:34Z</time>
      </trkpt>
      <trkpt lat="46.58961" lon="0.15195">
        <ele>17.8</ele>
        <time>2023-12-03T10:50:37Z</time>
      </trkpt>
      <trkpt lat="46.58957" lon="0.1522">
        <ele>17.4</ele>
        <time>2023-12-03T10:50:41Z</time>
      </trkpt>
      <trkpt lat="46.58949" lon="0.15263">
        <ele>17</ele>
        <time>2023-12-03T10:50:48Z</time>
      </trkpt>
      <trkpt lat="46.58944" lon="0.15288">
        <ele>17</ele>
        <time>2023-12-03T10:50:52Z</time>
      </trkpt>
      <trkpt lat="46.58941" lon="0.15306">
        <ele>17.2</ele>
        <time>2023-12-03T10:50:55Z</time>
      </trkpt>
      <trkpt lat="46.58933" lon="0.15339">
        <ele>16.8</ele>
        <time>2023-12-03T10:51:01Z</time>
      </trkpt>
      <trkpt lat="46.58931" lon="0.15342">
        <ele>16.8</ele>
        <time>2023-12-03T10:51:02Z</time>
      </trkpt>
      <trkpt lat="46.5892" lon="0.1535">
        <ele>17</ele>
        <time>2023-12-03T10:51:05Z</time>
      </trkpt>
      <trkpt lat="46.58912" lon="0.15351">
        <ele>17.2</ele>
        <time>2023-12-03T10:51:07Z</time>
      </trkpt>
      <trkpt lat="46.58903" lon="0.15349">
        <ele>17</ele>
        <time>2023-12-03T10:51:09Z</time>
      </trkpt>
      <trkpt lat="46.58872" lon="0.15342">
        <ele>16.6</ele>
        <time>2023-12-03T10:51:15Z</time>
      </trkpt>
      <trkpt lat="46.58836" lon="0.1533">
        <ele>16.4</ele>
        <time>2023-12-03T10:51:22Z</time>
      </trkpt>
      <trkpt lat="46.58802" lon="0.15319">
        <ele>15.8</ele>
        <time>2023-12-03T10:51:29Z</time>
      </trkpt>
      <trkpt lat="46.58794" lon="0.15316">
        <ele>15.6</ele>
        <time>2023-12-03T10:51:31Z</time>
      </trkpt>
      <trkpt lat="46.58777" lon="0.15311">
        <ele>15.6</ele>
        <time>2023-12-03T10:51:36Z</time>
      </trkpt>
      <trkpt lat="46.58744" lon="0.153">
        <ele>16</ele>
        <time>2023-12-03T10:51:46Z</time>
      </trkpt>
      <trkpt lat="46.58723" lon="0.15292">
        <ele>16.2</ele>
        <time>2023-12-03T10:51:53Z</time>
      </trkpt>
      <trkpt lat="46.58696" lon="0.15282">
        <ele>16.6</ele>
        <time>2023-12-03T10:52:01Z</time>
      </trkpt>
      <trkpt lat="46.58696" lon="0.15282">
        <ele>16.8</ele>
        <time>2023-12-03T10:52:02Z</time>
      </trkpt>
      <trkpt lat="46.58673" lon="0.15275">
        <ele>16.8</ele>
        <time>2023-12-03T10:52:08Z</time>
      </trkpt>
      <trkpt lat="46.58649" lon="0.15266">
        <ele>17.2</ele>
        <time>2023-12-03T10:52:14Z</time>
      </trkpt>
      <trkpt lat="46.58641" lon="0.15263">
        <ele>17.4</ele>
        <time>2023-12-03T10:52:16Z</time>
      </trkpt>
      <trkpt lat="46.58626" lon="0.15257">
        <ele>17.4</ele>
        <time>2023-12-03T10:52:20Z</time>
      </trkpt>
      <trkpt lat="46.58606" lon="0.15249">
        <ele>17.2</ele>
        <time>2023-12-03T10:52:25Z</time>
      </trkpt>
      <trkpt lat="46.58598" lon="0.15246">
        <ele>17.4</ele>
        <time>2023-12-03T10:52:27Z</time>
      </trkpt>
      <trkpt lat="46.5859" lon="0.15242">
        <ele>17.8</ele>
        <time>2023-12-03T10:52:29Z</time>
      </trkpt>
      <trkpt lat="46.5857" lon="0.15238">
        <ele>17.6</ele>
        <time>2023-12-03T10:52:34Z</time>
      </trkpt>
      <trkpt lat="46.58567" lon="0.15238">
        <ele>17.4</ele>
        <time>2023-12-03T10:52:35Z</time>
      </trkpt>
      <trkpt lat="46.58553" lon="0.15235">
        <ele>17</ele>
        <time>2023-12-03T10:52:39Z</time>
      </trkpt>
      <trkpt lat="46.58522" lon="0.15222">
        <ele>17</ele>
        <time>2023-12-03T10:52:46Z</time>
      </trkpt>
      <trkpt lat="46.58491" lon="0.15211">
        <ele>17</ele>
        <time>2023-12-03T10:52:53Z</time>
      </trkpt>
      <trkpt lat="46.58472" lon="0.15205">
        <ele>17</ele>
        <time>2023-12-03T10:52:58Z</time>
      </trkpt>
      <trkpt lat="46.58469" lon="0.15205">
        <ele>16.8</ele>
        <time>2023-12-03T10:52:59Z</time>
      </trkpt>
      <trkpt lat="46.58467" lon="0.15206">
        <ele>16.8</ele>
        <time>2023-12-03T10:53:00Z</time>
      </trkpt>
      <trkpt lat="46.58465" lon="0.15211">
        <ele>16.4</ele>
        <time>2023-12-03T10:53:02Z</time>
      </trkpt>
      <trkpt lat="46.58466" lon="0.15215">
        <ele>16.4</ele>
        <time>2023-12-03T10:53:03Z</time>
      </trkpt>
      <trkpt lat="46.58466" lon="0.1522">
        <ele>16.2</ele>
        <time>2023-12-03T10:53:04Z</time>
      </trkpt>
      <trkpt lat="46.58467" lon="0.15232">
        <ele>15.8</ele>
        <time>2023-12-03T10:53:07Z</time>
      </trkpt>
      <trkpt lat="46.58468" lon="0.15236">
        <ele>15.8</ele>
        <time>2023-12-03T10:53:08Z</time>
      </trkpt>
      <trkpt lat="46.58471" lon="0.15262">
        <ele>16</ele>
        <time>2023-12-03T10:53:14Z</time>
      </trkpt>
      <trkpt lat="46.58472" lon="0.15266">
        <ele>16</ele>
        <time>2023-12-03T10:53:15Z</time>
      </trkpt>
      <trkpt lat="46.58473" lon="0.15276">
        <ele>16</ele>
        <time>2023-12-03T10:53:17Z</time>
      </trkpt>
      <trkpt lat="46.58474" lon="0.15285">
        <ele>16</ele>
        <time>2023-12-03T10:53:19Z</time>
      </trkpt>
      <trkpt lat="46.58475" lon="0.15295">
        <ele>16</ele>
        <time>2023-12-03T10:53:21Z</time>
      </trkpt>
      <trkpt lat="46.58477" lon="0.15326">
        <ele>15.8</ele>
        <time>2023-12-03T10:53:26Z</time>
      </trkpt>
      <trkpt lat="46.58477" lon="0.15365">
        <ele>15.2</ele>
        <time>2023-12-03T10:53:31Z</time>
      </trkpt>
      <trkpt lat="46.58478" lon="0.15371">
        <ele>15.2</ele>
        <time>2023-12-03T10:53:32Z</time>
      </trkpt>
      <trkpt lat="46.58478" lon="0.15389">
        <ele>15</ele>
        <time>2023-12-03T10:53:34Z</time>
      </trkpt>
      <trkpt lat="46.58477" lon="0.15413">
        <ele>14.8</ele>
        <time>2023-12-03T10:53:37Z</time>
      </trkpt>
      <trkpt lat="46.58482" lon="0.15458">
        <ele>15</ele>
        <time>2023-12-03T10:53:43Z</time>
      </trkpt>
      <trkpt lat="46.58486" lon="0.15485">
        <ele>14.6</ele>
        <time>2023-12-03T10:53:47Z</time>
      </trkpt>
      <trkpt lat="46.58489" lon="0.15508">
        <ele>14.4</ele>
        <time>2023-12-03T10:53:50Z</time>
      </trkpt>
      <trkpt lat="46.58497" lon="0.1554">
        <ele>14.2</ele>
        <time>2023-12-03T10:53:55Z</time>
      </trkpt>
      <trkpt lat="46.58501" lon="0.15553">
        <ele>14.2</ele>
        <time>2023-12-03T10:53:57Z</time>
      </trkpt>
      <trkpt lat="46.58512" lon="0.15594">
        <ele>13.8</ele>
        <time>2023-12-03T10:54:03Z</time>
      </trkpt>
      <trkpt lat="46.58514" lon="0.156">
        <ele>13.6</ele>
        <time>2023-12-03T10:54:04Z</time>
      </trkpt>
      <trkpt lat="46.58517" lon="0.15615">
        <ele>13.4</ele>
        <time>2023-12-03T10:54:06Z</time>
      </trkpt>
      <trkpt lat="46.58519" lon="0.15632">
        <ele>13.2</ele>
        <time>2023-12-03T10:54:09Z</time>
      </trkpt>
      <trkpt lat="46.58519" lon="0.15641">
        <ele>12.8</ele>
        <time>2023-12-03T10:54:11Z</time>
      </trkpt>
      <trkpt lat="46.58518" lon="0.15656">
        <ele>12.6</ele>
        <time>2023-12-03T10:54:14Z</time>
      </trkpt>
      <trkpt lat="46.58517" lon="0.15662">
        <ele>12.6</ele>
        <time>2023-12-03T10:54:15Z</time>
      </trkpt>
      <trkpt lat="46.58514" lon="0.15677">
        <ele>12.2</ele>
        <time>2023-12-03T10:54:18Z</time>
      </trkpt>
      <trkpt lat="46.58512" lon="0.15691">
        <ele>12</ele>
        <time>2023-12-03T10:54:21Z</time>
      </trkpt>
      <trkpt lat="46.58513" lon="0.15702">
        <ele>12</ele>
        <time>2023-12-03T10:54:23Z</time>
      </trkpt>
      <trkpt lat="46.58511" lon="0.15723">
        <ele>12.2</ele>
        <time>2023-12-03T10:54:27Z</time>
      </trkpt>
      <trkpt lat="46.58509" lon="0.15732">
        <ele>12</ele>
        <time>2023-12-03T10:54:28Z</time>
      </trkpt>
      <trkpt lat="46.58512" lon="0.15748">
        <ele>11.8</ele>
        <time>2023-12-03T10:54:31Z</time>
      </trkpt>
      <trkpt lat="46.58518" lon="0.15767">
        <ele>11.6</ele>
        <time>2023-12-03T10:54:34Z</time>
      </trkpt>
      <trkpt lat="46.5852" lon="0.15773">
        <ele>11.6</ele>
        <time>2023-12-03T10:54:35Z</time>
      </trkpt>
      <trkpt lat="46.58521" lon="0.15779">
        <ele>11.6</ele>
        <time>2023-12-03T10:54:36Z</time>
      </trkpt>
      <trkpt lat="46.58531" lon="0.15789">
        <ele>11.6</ele>
        <time>2023-12-03T10:54:40Z</time>
      </trkpt>
      <trkpt lat="46.58548" lon="0.15801">
        <ele>11.8</ele>
        <time>2023-12-03T10:54:45Z</time>
      </trkpt>
      <trkpt lat="46.58552" lon="0.15803">
        <ele>12</ele>
        <time>2023-12-03T10:54:46Z</time>
      </trkpt>
      <trkpt lat="46.58555" lon="0.15804">
        <ele>12</ele>
        <time>2023-12-03T10:54:47Z</time>
      </trkpt>
      <trkpt lat="46.58561" lon="0.15809">
        <ele>12</ele>
        <time>2023-12-03T10:54:49Z</time>
      </trkpt>
      <trkpt lat="46.58562" lon="0.15813">
        <ele>12</ele>
        <time>2023-12-03T10:54:50Z</time>
      </trkpt>
      <trkpt lat="46.58566" lon="0.15837">
        <ele>11.6</ele>
        <time>2023-12-03T10:54:55Z</time>
      </trkpt>
      <trkpt lat="46.58563" lon="0.15857">
        <ele>11.4</ele>
        <time>2023-12-03T10:54:59Z</time>
      </trkpt>
      <trkpt lat="46.58562" lon="0.15862">
        <ele>11.4</ele>
        <time>2023-12-03T10:55:00Z</time>
      </trkpt>
      <trkpt lat="46.58561" lon="0.15868">
        <ele>11.2</ele>
        <time>2023-12-03T10:55:01Z</time>
      </trkpt>
      <trkpt lat="46.5856" lon="0.15881">
        <ele>11.2</ele>
        <time>2023-12-03T10:55:03Z</time>
      </trkpt>
      <trkpt lat="46.58559" lon="0.15894">
        <ele>11</ele>
        <time>2023-12-03T10:55:05Z</time>
      </trkpt>
      <trkpt lat="46.58552" lon="0.15926">
        <ele>10.6</ele>
        <time>2023-12-03T10:55:10Z</time>
      </trkpt>
      <trkpt lat="46.58552" lon="0.15931">
        <ele>10.4</ele>
        <time>2023-12-03T10:55:11Z</time>
      </trkpt>
      <trkpt lat="46.5855" lon="0.15936">
        <ele>10.2</ele>
        <time>2023-12-03T10:55:12Z</time>
      </trkpt>
      <trkpt lat="46.58547" lon="0.15955">
        <ele>9.6</ele>
        <time>2023-12-03T10:55:16Z</time>
      </trkpt>
      <trkpt lat="46.58545" lon="0.15965">
        <ele>9.6</ele>
        <time>2023-12-03T10:55:18Z</time>
      </trkpt>
      <trkpt lat="46.58545" lon="0.1597">
        <ele>9.6</ele>
        <time>2023-12-03T10:55:19Z</time>
      </trkpt>
      <trkpt lat="46.58542" lon="0.15991">
        <ele>10</ele>
        <time>2023-12-03T10:55:24Z</time>
      </trkpt>
      <trkpt lat="46.58534" lon="0.16021">
        <ele>10.6</ele>
        <time>2023-12-03T10:55:31Z</time>
      </trkpt>
      <trkpt lat="46.58528" lon="0.16048">
        <ele>11</ele>
        <time>2023-12-03T10:55:36Z</time>
      </trkpt>
      <trkpt lat="46.58519" lon="0.16082">
        <ele>11.6</ele>
        <time>2023-12-03T10:55:43Z</time>
      </trkpt>
      <trkpt lat="46.58511" lon="0.16119">
        <ele>12</ele>
        <time>2023-12-03T10:55:50Z</time>
      </trkpt>
      <trkpt lat="46.58508" lon="0.16144">
        <ele>12</ele>
        <time>2023-12-03T10:55:55Z</time>
      </trkpt>
      <trkpt lat="46.58502" lon="0.16175">
        <ele>11.8</ele>
        <time>2023-12-03T10:56:00Z</time>
      </trkpt>
      <trkpt lat="46.58495" lon="0.16209">
        <ele>12.2</ele>
        <time>2023-12-03T10:56:06Z</time>
      </trkpt>
      <trkpt lat="46.58489" lon="0.16243">
        <ele>11.8</ele>
        <time>2023-12-03T10:56:13Z</time>
      </trkpt>
      <trkpt lat="46.58481" lon="0.16282">
        <ele>11.6</ele>
        <time>2023-12-03T10:56:20Z</time>
      </trkpt>
      <trkpt lat="46.58475" lon="0.16313">
        <ele>11.2</ele>
        <time>2023-12-03T10:56:26Z</time>
      </trkpt>
      <trkpt lat="46.58472" lon="0.1633">
        <ele>11.2</ele>
        <time>2023-12-03T10:56:29Z</time>
      </trkpt>
      <trkpt lat="46.58468" lon="0.16352">
        <ele>11.2</ele>
        <time>2023-12-03T10:56:33Z</time>
      </trkpt>
      <trkpt lat="46.58461" lon="0.16389">
        <ele>10.8</ele>
        <time>2023-12-03T10:56:39Z</time>
      </trkpt>
      <trkpt lat="46.5846" lon="0.16395">
        <ele>10.8</ele>
        <time>2023-12-03T10:56:40Z</time>
      </trkpt>
      <trkpt lat="46.58458" lon="0.16405">
        <ele>10.6</ele>
        <time>2023-12-03T10:56:42Z</time>
      </trkpt>
      <trkpt lat="46.58452" lon="0.16433">
        <ele>10.4</ele>
        <time>2023-12-03T10:56:47Z</time>
      </trkpt>
      <trkpt lat="46.58447" lon="0.16446">
        <ele>10.4</ele>
        <time>2023-12-03T10:56:49Z</time>
      </trkpt>
      <trkpt lat="46.58445" lon="0.16457">
        <ele>10.4</ele>
        <time>2023-12-03T10:56:51Z</time>
      </trkpt>
      <trkpt lat="46.58445" lon="0.16462">
        <ele>10.2</ele>
        <time>2023-12-03T10:56:52Z</time>
      </trkpt>
      <trkpt lat="46.58444" lon="0.16468">
        <ele>10</ele>
        <time>2023-12-03T10:56:53Z</time>
      </trkpt>
      <trkpt lat="46.58443" lon="0.16479">
        <ele>10</ele>
        <time>2023-12-03T10:56:55Z</time>
      </trkpt>
      <trkpt lat="46.5844" lon="0.16492">
        <ele>10</ele>
        <time>2023-12-03T10:56:57Z</time>
      </trkpt>
      <trkpt lat="46.58435" lon="0.16522">
        <ele>9.6</ele>
        <time>2023-12-03T10:57:01Z</time>
      </trkpt>
      <trkpt lat="46.58432" lon="0.16535">
        <ele>9.4</ele>
        <time>2023-12-03T10:57:03Z</time>
      </trkpt>
      <trkpt lat="46.5842" lon="0.16595">
        <ele>9</ele>
        <time>2023-12-03T10:57:11Z</time>
      </trkpt>
      <trkpt lat="46.58411" lon="0.1664">
        <ele>8.8</ele>
        <time>2023-12-03T10:57:17Z</time>
      </trkpt>
      <trkpt lat="46.58409" lon="0.16656">
        <ele>8.4</ele>
        <time>2023-12-03T10:57:19Z</time>
      </trkpt>
      <trkpt lat="46.58399" lon="0.167">
        <ele>7.6</ele>
        <time>2023-12-03T10:57:24Z</time>
      </trkpt>
      <trkpt lat="46.58395" lon="0.16725">
        <ele>7.2</ele>
        <time>2023-12-03T10:57:27Z</time>
      </trkpt>
      <trkpt lat="46.58389" lon="0.1676">
        <ele>6.6</ele>
        <time>2023-12-03T10:57:31Z</time>
      </trkpt>
      <trkpt lat="46.58386" lon="0.1677">
        <ele>6</ele>
        <time>2023-12-03T10:57:32Z</time>
      </trkpt>
      <trkpt lat="46.5838" lon="0.16805">
        <ele>4.8</ele>
        <time>2023-12-03T10:57:36Z</time>
      </trkpt>
      <trkpt lat="46.58377" lon="0.16822">
        <ele>3.8</ele>
        <time>2023-12-03T10:57:38Z</time>
      </trkpt>
      <trkpt lat="46.58376" lon="0.16831">
        <ele>3</ele>
        <time>2023-12-03T10:57:39Z</time>
      </trkpt>
      <trkpt lat="46.58373" lon="0.16847">
        <ele>2</ele>
        <time>2023-12-03T10:57:41Z</time>
      </trkpt>
      <trkpt lat="46.58371" lon="0.16855">
        <ele>1.8</ele>
        <time>2023-12-03T10:57:42Z</time>
      </trkpt>
      <trkpt lat="46.58369" lon="0.16863">
        <ele>1.6</ele>
        <time>2023-12-03T10:57:43Z</time>
      </trkpt>
      <trkpt lat="46.58367" lon="0.16871">
        <ele>1.4</ele>
        <time>2023-12-03T10:57:44Z</time>
      </trkpt>
      <trkpt lat="46.58358" lon="0.16911">
        <ele>1.2</ele>
        <time>2023-12-03T10:57:49Z</time>
      </trkpt>
      <trkpt lat="46.58356" lon="0.16925">
        <ele>1.4</ele>
        <time>2023-12-03T10:57:51Z</time>
      </trkpt>
      <trkpt lat="46.5835" lon="0.16946">
        <ele>2.2</ele>
        <time>2023-12-03T10:57:55Z</time>
      </trkpt>
      <trkpt lat="46.58348" lon="0.16951">
        <ele>2.2</ele>
        <time>2023-12-03T10:57:56Z</time>
      </trkpt>
      <trkpt lat="46.58343" lon="0.16962">
        <ele>2.4</ele>
        <time>2023-12-03T10:57:59Z</time>
      </trkpt>
      <trkpt lat="46.58338" lon="0.16968">
        <ele>3</ele>
        <time>2023-12-03T10:58:01Z</time>
      </trkpt>
      <trkpt lat="46.58338" lon="0.16968">
        <ele>3.2</ele>
        <time>2023-12-03T10:58:02Z</time>
      </trkpt>
      <trkpt lat="46.58326" lon="0.16979">
        <ele>3.4</ele>
        <time>2023-12-03T10:58:05Z</time>
      </trkpt>
      <trkpt lat="46.58316" lon="0.16985">
        <ele>4.6</ele>
        <time>2023-12-03T10:58:09Z</time>
      </trkpt>
      <trkpt lat="46.5831" lon="0.16988">
        <ele>5</ele>
        <time>2023-12-03T10:58:12Z</time>
      </trkpt>
      <trkpt lat="46.583" lon="0.16993">
        <ele>5.8</ele>
        <time>2023-12-03T10:58:17Z</time>
      </trkpt>
      <trkpt lat="46.58291" lon="0.16996">
        <ele>6.2</ele>
        <time>2023-12-03T10:58:20Z</time>
      </trkpt>
      <trkpt lat="46.58279" lon="0.17001">
        <ele>6.8</ele>
        <time>2023-12-03T10:58:25Z</time>
      </trkpt>
      <trkpt lat="46.58259" lon="0.17005">
        <ele>7.8</ele>
        <time>2023-12-03T10:58:33Z</time>
      </trkpt>
      <trkpt lat="46.58255" lon="0.17005">
        <ele>7.8</ele>
        <time>2023-12-03T10:58:35Z</time>
      </trkpt>
      <trkpt lat="46.58253" lon="0.17001">
        <ele>7.6</ele>
        <time>2023-12-03T10:58:37Z</time>
      </trkpt>
      <trkpt lat="46.5826" lon="0.16986">
        <ele>7.4</ele>
        <time>2023-12-03T10:58:43Z</time>
      </trkpt>
      <trkpt lat="46.58264" lon="0.16979">
        <ele>7.4</ele>
        <time>2023-12-03T10:58:45Z</time>
      </trkpt>
      <trkpt lat="46.58267" lon="0.16972">
        <ele>7.2</ele>
        <time>2023-12-03T10:58:47Z</time>
      </trkpt>
      <trkpt lat="46.58273" lon="0.16963">
        <ele>6.8</ele>
        <time>2023-12-03T10:58:50Z</time>
      </trkpt>
      <trkpt lat="46.58278" lon="0.16952">
        <ele>6.2</ele>
        <time>2023-12-03T10:58:53Z</time>
      </trkpt>
      <trkpt lat="46.58283" lon="0.16944">
        <ele>5.8</ele>
        <time>2023-12-03T10:58:55Z</time>
      </trkpt>
      <trkpt lat="46.58287" lon="0.16933">
        <ele>5.6</ele>
        <time>2023-12-03T10:58:57Z</time>
      </trkpt>
      <trkpt lat="46.58289" lon="0.16927">
        <ele>5.6</ele>
        <time>2023-12-03T10:58:58Z</time>
      </trkpt>
      <trkpt lat="46.58295" lon="0.16903">
        <ele>4.8</ele>
        <time>2023-12-03T10:59:02Z</time>
      </trkpt>
      <trkpt lat="46.58296" lon="0.16896">
        <ele>4.6</ele>
        <time>2023-12-03T10:59:03Z</time>
      </trkpt>
      <trkpt lat="46.58297" lon="0.16888">
        <ele>4.4</ele>
        <time>2023-12-03T10:59:04Z</time>
      </trkpt>
      <trkpt lat="46.58302" lon="0.16853">
        <ele>3.8</ele>
        <time>2023-12-03T10:59:09Z</time>
      </trkpt>
      <trkpt lat="46.58311" lon="0.16814">
        <ele>3.6</ele>
        <time>2023-12-03T10:59:15Z</time>
      </trkpt>
      <trkpt lat="46.58312" lon="0.16808">
        <ele>3.6</ele>
        <time>2023-12-03T10:59:16Z</time>
      </trkpt>
      <trkpt lat="46.58316" lon="0.16785">
        <ele>3.2</ele>
        <time>2023-12-03T10:59:20Z</time>
      </trkpt>
      <trkpt lat="46.58319" lon="0.16771">
        <ele>3.2</ele>
        <time>2023-12-03T10:59:22Z</time>
      </trkpt>
      <trkpt lat="46.5832" lon="0.16765">
        <ele>3.2</ele>
        <time>2023-12-03T10:59:23Z</time>
      </trkpt>
      <trkpt lat="46.58324" lon="0.1674">
        <ele>3.4</ele>
        <time>2023-12-03T10:59:27Z</time>
      </trkpt>
      <trkpt lat="46.58326" lon="0.16724">
        <ele>3.6</ele>
        <time>2023-12-03T10:59:29Z</time>
      </trkpt>
      <trkpt lat="46.58323" lon="0.16696">
        <ele>3.6</ele>
        <time>2023-12-03T10:59:33Z</time>
      </trkpt>
      <trkpt lat="46.58322" lon="0.16691">
        <ele>3.8</ele>
        <time>2023-12-03T10:59:34Z</time>
      </trkpt>
      <trkpt lat="46.58322" lon="0.16686">
        <ele>3.8</ele>
        <time>2023-12-03T10:59:35Z</time>
      </trkpt>
      <trkpt lat="46.58321" lon="0.16677">
        <ele>3.8</ele>
        <time>2023-12-03T10:59:37Z</time>
      </trkpt>
      <trkpt lat="46.5832" lon="0.16675">
        <ele>3.4</ele>
        <time>2023-12-03T10:59:38Z</time>
      </trkpt>
      <trkpt lat="46.58312" lon="0.16661">
        <ele>3.4</ele>
        <time>2023-12-03T10:59:43Z</time>
      </trkpt>
      <trkpt lat="46.58296" lon="0.16645">
        <ele>4.6</ele>
        <time>2023-12-03T10:59:50Z</time>
      </trkpt>
      <trkpt lat="46.5829" lon="0.16628">
        <ele>5.6</ele>
        <time>2023-12-03T10:59:54Z</time>
      </trkpt>
      <trkpt lat="46.58289" lon="0.16625">
        <ele>5.6</ele>
        <time>2023-12-03T10:59:55Z</time>
      </trkpt>
      <trkpt lat="46.58286" lon="0.16618">
        <ele>6</ele>
        <time>2023-12-03T10:59:58Z</time>
      </trkpt>
      <trkpt lat="46.58283" lon="0.16615">
        <ele>6</ele>
        <time>2023-12-03T11:00:00Z</time>
      </trkpt>
      <trkpt lat="46.58273" lon="0.16608">
        <ele>6.8</ele>
        <time>2023-12-03T11:00:05Z</time>
      </trkpt>
      <trkpt lat="46.58269" lon="0.16608">
        <ele>7.2</ele>
        <time>2023-12-03T11:00:07Z</time>
      </trkpt>
      <trkpt lat="46.58265" lon="0.16606">
        <ele>7.2</ele>
        <time>2023-12-03T11:00:09Z</time>
      </trkpt>
      <trkpt lat="46.58259" lon="0.16603">
        <ele>7.4</ele>
        <time>2023-12-03T11:00:12Z</time>
      </trkpt>
      <trkpt lat="46.5824" lon="0.16595">
        <ele>7.8</ele>
        <time>2023-12-03T11:00:20Z</time>
      </trkpt>
      <trkpt lat="46.58224" lon="0.16588">
        <ele>8.6</ele>
        <time>2023-12-03T11:00:27Z</time>
      </trkpt>
      <trkpt lat="46.58216" lon="0.16585">
        <ele>9</ele>
        <time>2023-12-03T11:00:30Z</time>
      </trkpt>
      <trkpt lat="46.58208" lon="0.1658">
        <ele>9</ele>
        <time>2023-12-03T11:00:33Z</time>
      </trkpt>
      <trkpt lat="46.58185" lon="0.16569">
        <ele>9.4</ele>
        <time>2023-12-03T11:00:41Z</time>
      </trkpt>
      <trkpt lat="46.5817" lon="0.16562">
        <ele>9.8</ele>
        <time>2023-12-03T11:00:46Z</time>
      </trkpt>
      <trkpt lat="46.58152" lon="0.16555">
        <ele>9.8</ele>
        <time>2023-12-03T11:00:52Z</time>
      </trkpt>
      <trkpt lat="46.58149" lon="0.16554">
        <ele>10</ele>
        <time>2023-12-03T11:00:53Z</time>
      </trkpt>
      <trkpt lat="46.58132" lon="0.1655">
        <ele>10.4</ele>
        <time>2023-12-03T11:00:58Z</time>
      </trkpt>
      <trkpt lat="46.58129" lon="0.1655">
        <ele>10.4</ele>
        <time>2023-12-03T11:00:59Z</time>
      </trkpt>
      <trkpt lat="46.58125" lon="0.16555">
        <ele>10.6</ele>
        <time>2023-12-03T11:01:01Z</time>
      </trkpt>
      <trkpt lat="46.58114" lon="0.16571">
        <ele>10.8</ele>
        <time>2023-12-03T11:01:06Z</time>
      </trkpt>
      <trkpt lat="46.58108" lon="0.16575">
        <ele>10.8</ele>
        <time>2023-12-03T11:01:08Z</time>
      </trkpt>
      <trkpt lat="46.58104" lon="0.16574">
        <ele>10.8</ele>
        <time>2023-12-03T11:01:09Z</time>
      </trkpt>
      <trkpt lat="46.5808" lon="0.16566">
        <ele>10.6</ele>
        <time>2023-12-03T11:01:15Z</time>
      </trkpt>
      <trkpt lat="46.58052" lon="0.16555">
        <ele>10.6</ele>
        <time>2023-12-03T11:01:22Z</time>
      </trkpt>
      <trkpt lat="46.58029" lon="0.16545">
        <ele>10.2</ele>
        <time>2023-12-03T11:01:28Z</time>
      </trkpt>
      <trkpt lat="46.58025" lon="0.16543">
        <ele>10</ele>
        <time>2023-12-03T11:01:29Z</time>
      </trkpt>
      <trkpt lat="46.58004" lon="0.16537">
        <ele>9.2</ele>
        <time>2023-12-03T11:01:34Z</time>
      </trkpt>
      <trkpt lat="46.58" lon="0.16536">
        <ele>8.8</ele>
        <time>2023-12-03T11:01:35Z</time>
      </trkpt>
      <trkpt lat="46.57992" lon="0.16533">
        <ele>8.4</ele>
        <time>2023-12-03T11:01:37Z</time>
      </trkpt>
      <trkpt lat="46.57978" lon="0.16528">
        <ele>8</ele>
        <time>2023-12-03T11:01:40Z</time>
      </trkpt>
      <trkpt lat="46.57967" lon="0.16524">
        <ele>7.8</ele>
        <time>2023-12-03T11:01:42Z</time>
      </trkpt>
      <trkpt lat="46.5795" lon="0.16517">
        <ele>6.8</ele>
        <time>2023-12-03T11:01:45Z</time>
      </trkpt>
      <trkpt lat="46.57944" lon="0.16514">
        <ele>6.6</ele>
        <time>2023-12-03T11:01:46Z</time>
      </trkpt>
      <trkpt lat="46.57934" lon="0.1651">
        <ele>5.4</ele>
        <time>2023-12-03T11:01:48Z</time>
      </trkpt>
      <trkpt lat="46.5793" lon="0.16509">
        <ele>4</ele>
        <time>2023-12-03T11:01:49Z</time>
      </trkpt>
      <trkpt lat="46.57927" lon="0.16508">
        <ele>2.6</ele>
        <time>2023-12-03T11:01:50Z</time>
      </trkpt>
      <trkpt lat="46.57924" lon="0.16507">
        <ele>1.4</ele>
        <time>2023-12-03T11:01:51Z</time>
      </trkpt>
      <trkpt lat="46.57919" lon="0.16503">
        <ele>132.6</ele>
        <time>2023-12-03T11:01:53Z</time>
      </trkpt>
      <trkpt lat="46.57912" lon="0.16504">
        <ele>-1.6</ele>
        <time>2023-12-03T11:01:55Z</time>
      </trkpt>
      <trkpt lat="46.57908" lon="0.16505">
        <ele>-2</ele>
        <time>2023-12-03T11:01:56Z</time>
      </trkpt>
      <trkpt lat="46.57902" lon="0.16508">
        <ele>-2.6</ele>
        <time>2023-12-03T11:01:58Z</time>
      </trkpt>
      <trkpt lat="46.57882" lon="0.1652">
        <ele>-2.8</ele>
        <time>2023-12-03T11:02:03Z</time>
      </trkpt>
      <trkpt lat="46.57853" lon="0.16536">
        <ele>-2.6</ele>
        <time>2023-12-03T11:02:10Z</time>
      </trkpt>
      <trkpt lat="46.57849" lon="0.1654">
        <ele>-2.6</ele>
        <time>2023-12-03T11:02:11Z</time>
      </trkpt>
      <trkpt lat="46.57828" lon="0.16555">
        <ele>-2.4</ele>
        <time>2023-12-03T11:02:16Z</time>
      </trkpt>
      <trkpt lat="46.57799" lon="0.16583">
        <ele>-2.8</ele>
        <time>2023-12-03T11:02:23Z</time>
      </trkpt>
      <trkpt lat="46.57793" lon="0.1659">
        <ele>-3</ele>
        <time>2023-12-03T11:02:25Z</time>
      </trkpt>
      <trkpt lat="46.57785" lon="0.16601">
        <ele>-3</ele>
        <time>2023-12-03T11:02:28Z</time>
      </trkpt>
      <trkpt lat="46.5777" lon="0.16636">
        <ele>-3.2</ele>
        <time>2023-12-03T11:02:35Z</time>
      </trkpt>
      <trkpt lat="46.57763" lon="0.16652">
        <ele>-3.2</ele>
        <time>2023-12-03T11:02:38Z</time>
      </trkpt>
      <trkpt lat="46.57754" lon="0.16678">
        <ele>-3.4</ele>
        <time>2023-12-03T11:02:42Z</time>
      </trkpt>
      <trkpt lat="46.57746" lon="0.16704">
        <ele>-3.6</ele>
        <time>2023-12-03T11:02:46Z</time>
      </trkpt>
      <trkpt lat="46.57744" lon="0.16711">
        <ele>-3.8</ele>
        <time>2023-12-03T11:02:47Z</time>
      </trkpt>
      <trkpt lat="46.57743" lon="0.16717">
        <ele>-3.8</ele>
        <time>2023-12-03T11:02:48Z</time>
      </trkpt>
      <trkpt lat="46.57742" lon="0.16725">
        <ele>-3.8</ele>
        <time>2023-12-03T11:02:49Z</time>
      </trkpt>
      <trkpt lat="46.57742" lon="0.16731">
        <ele>-4</ele>
        <time>2023-12-03T11:02:50Z</time>
      </trkpt>
      <trkpt lat="46.57744" lon="0.16739">
        <ele>-3.6</ele>
        <time>2023-12-03T11:02:52Z</time>
      </trkpt>
      <trkpt lat="46.57746" lon="0.16747">
        <ele>-2.4</ele>
        <time>2023-12-03T11:02:56Z</time>
      </trkpt>
      <trkpt lat="46.57747" lon="0.16749">
        <ele>-2.2</ele>
        <time>2023-12-03T11:02:57Z</time>
      </trkpt>
      <trkpt lat="46.57749" lon="0.16752">
        <ele>-1</ele>
        <time>2023-12-03T11:03:00Z</time>
      </trkpt>
      <trkpt lat="46.57752" lon="0.16756">
        <ele>132.2</ele>
        <time>2023-12-03T11:03:04Z</time>
      </trkpt>
      <trkpt lat="46.57754" lon="0.16758">
        <ele>1.2</ele>
        <time>2023-12-03T11:03:07Z</time>
      </trkpt>
      <trkpt lat="46.57755" lon="0.16759">
        <ele>1.8</ele>
        <time>2023-12-03T11:03:10Z</time>
      </trkpt>
      <trkpt lat="46.57756" lon="0.1676">
        <ele>2.4</ele>
        <time>2023-12-03T11:03:11Z</time>
      </trkpt>
      <trkpt lat="46.57757" lon="0.1676">
        <ele>2.6</ele>
        <time>2023-12-03T11:03:12Z</time>
      </trkpt>
      <trkpt lat="46.57758" lon="0.16761">
        <ele>2.8</ele>
        <time>2023-12-03T11:03:13Z</time>
      </trkpt>
      <trkpt lat="46.57758" lon="0.16762">
        <ele>3.2</ele>
        <time>2023-12-03T11:03:14Z</time>
      </trkpt>
      <trkpt lat="46.5776" lon="0.16762">
        <ele>3.4</ele>
        <time>2023-12-03T11:03:15Z</time>
      </trkpt>
      <trkpt lat="46.57762" lon="0.16764">
        <ele>3.8</ele>
        <time>2023-12-03T11:03:17Z</time>
      </trkpt>
      <trkpt lat="46.57768" lon="0.16768">
        <ele>4.6</ele>
        <time>2023-12-03T11:03:22Z</time>
      </trkpt>
      <trkpt lat="46.57774" lon="0.16771">
        <ele>4.8</ele>
        <time>2023-12-03T11:03:26Z</time>
      </trkpt>
      <trkpt lat="46.57785" lon="0.16776">
        <ele>5.6</ele>
        <time>2023-12-03T11:03:34Z</time>
      </trkpt>
      <trkpt lat="46.57793" lon="0.16781">
        <ele>6.6</ele>
        <time>2023-12-03T11:03:38Z</time>
      </trkpt>
      <trkpt lat="46.57805" lon="0.16784">
        <ele>6.8</ele>
        <time>2023-12-03T11:03:44Z</time>
      </trkpt>
      <trkpt lat="46.57807" lon="0.16785">
        <ele>7</ele>
        <time>2023-12-03T11:03:45Z</time>
      </trkpt>
      <trkpt lat="46.57821" lon="0.1679">
        <ele>7.6</ele>
        <time>2023-12-03T11:03:51Z</time>
      </trkpt>
      <trkpt lat="46.5783" lon="0.16793">
        <ele>7.8</ele>
        <time>2023-12-03T11:03:55Z</time>
      </trkpt>
      <trkpt lat="46.57842" lon="0.16798">
        <ele>8</ele>
        <time>2023-12-03T11:03:59Z</time>
      </trkpt>
      <trkpt lat="46.57857" lon="0.16804">
        <ele>8.6</ele>
        <time>2023-12-03T11:04:04Z</time>
      </trkpt>
      <trkpt lat="46.57871" lon="0.16809">
        <ele>9</ele>
        <time>2023-12-03T11:04:08Z</time>
      </trkpt>
      <trkpt lat="46.57881" lon="0.16813">
        <ele>9</ele>
        <time>2023-12-03T11:04:11Z</time>
      </trkpt>
      <trkpt lat="46.5791" lon="0.16826">
        <ele>9.4</ele>
        <time>2023-12-03T11:04:19Z</time>
      </trkpt>
      <trkpt lat="46.57918" lon="0.16828">
        <ele>9.4</ele>
        <time>2023-12-03T11:04:21Z</time>
      </trkpt>
      <trkpt lat="46.57934" lon="0.16835">
        <ele>9.6</ele>
        <time>2023-12-03T11:04:25Z</time>
      </trkpt>
      <trkpt lat="46.5795" lon="0.16841">
        <ele>9.4</ele>
        <time>2023-12-03T11:04:29Z</time>
      </trkpt>
      <trkpt lat="46.57953" lon="0.16842">
        <ele>9.6</ele>
        <time>2023-12-03T11:04:30Z</time>
      </trkpt>
      <trkpt lat="46.57959" lon="0.16844">
        <ele>9.6</ele>
        <time>2023-12-03T11:04:32Z</time>
      </trkpt>
      <trkpt lat="46.5797" lon="0.16849">
        <ele>9.6</ele>
        <time>2023-12-03T11:04:35Z</time>
      </trkpt>
      <trkpt lat="46.57974" lon="0.1685">
        <ele>9.6</ele>
        <time>2023-12-03T11:04:36Z</time>
      </trkpt>
      <trkpt lat="46.57997" lon="0.16858">
        <ele>9.6</ele>
        <time>2023-12-03T11:04:43Z</time>
      </trkpt>
      <trkpt lat="46.58002" lon="0.16861">
        <ele>9.6</ele>
        <time>2023-12-03T11:04:44Z</time>
      </trkpt>
      <trkpt lat="46.58009" lon="0.16866">
        <ele>9.8</ele>
        <time>2023-12-03T11:04:46Z</time>
      </trkpt>
      <trkpt lat="46.58017" lon="0.16874">
        <ele>9.8</ele>
        <time>2023-12-03T11:04:48Z</time>
      </trkpt>
      <trkpt lat="46.5802" lon="0.16879">
        <ele>9.8</ele>
        <time>2023-12-03T11:04:49Z</time>
      </trkpt>
      <trkpt lat="46.58021" lon="0.16883">
        <ele>9.8</ele>
        <time>2023-12-03T11:04:50Z</time>
      </trkpt>
      <trkpt lat="46.58022" lon="0.16896">
        <ele>10</ele>
        <time>2023-12-03T11:04:53Z</time>
      </trkpt>
      <trkpt lat="46.5802" lon="0.16913">
        <ele>10</ele>
        <time>2023-12-03T11:04:56Z</time>
      </trkpt>
      <trkpt lat="46.58019" lon="0.16928">
        <ele>10</ele>
        <time>2023-12-03T11:04:58Z</time>
      </trkpt>
      <trkpt lat="46.58016" lon="0.16953">
        <ele>10</ele>
        <time>2023-12-03T11:05:01Z</time>
      </trkpt>
      <trkpt lat="46.58012" lon="0.16982">
        <ele>10.2</ele>
        <time>2023-12-03T11:05:05Z</time>
      </trkpt>
      <trkpt lat="46.58008" lon="0.17023">
        <ele>10.4</ele>
        <time>2023-12-03T11:05:11Z</time>
      </trkpt>
      <trkpt lat="46.58" lon="0.17075">
        <ele>10.8</ele>
        <time>2023-12-03T11:05:18Z</time>
      </trkpt>
      <trkpt lat="46.57999" lon="0.17083">
        <ele>10.8</ele>
        <time>2023-12-03T11:05:19Z</time>
      </trkpt>
      <trkpt lat="46.57996" lon="0.17105">
        <ele>11.2</ele>
        <time>2023-12-03T11:05:22Z</time>
      </trkpt>
      <trkpt lat="46.57994" lon="0.17112">
        <ele>11.2</ele>
        <time>2023-12-03T11:05:23Z</time>
      </trkpt>
      <trkpt lat="46.57991" lon="0.17128">
        <ele>11.2</ele>
        <time>2023-12-03T11:05:25Z</time>
      </trkpt>
      <trkpt lat="46.57984" lon="0.17138">
        <ele>11.2</ele>
        <time>2023-12-03T11:05:27Z</time>
      </trkpt>
      <trkpt lat="46.5798" lon="0.17141">
        <ele>11.2</ele>
        <time>2023-12-03T11:05:28Z</time>
      </trkpt>
      <trkpt lat="46.57975" lon="0.17143">
        <ele>11.2</ele>
        <time>2023-12-03T11:05:29Z</time>
      </trkpt>
      <trkpt lat="46.57963" lon="0.17144">
        <ele>11.2</ele>
        <time>2023-12-03T11:05:32Z</time>
      </trkpt>
      <trkpt lat="46.57955" lon="0.17145">
        <ele>11.2</ele>
        <time>2023-12-03T11:05:34Z</time>
      </trkpt>
      <trkpt lat="46.5794" lon="0.17142">
        <ele>10.4</ele>
        <time>2023-12-03T11:05:38Z</time>
      </trkpt>
      <trkpt lat="46.57936" lon="0.17142">
        <ele>10.2</ele>
        <time>2023-12-03T11:05:39Z</time>
      </trkpt>
      <trkpt lat="46.57932" lon="0.17141">
        <ele>9.8</ele>
        <time>2023-12-03T11:05:40Z</time>
      </trkpt>
      <trkpt lat="46.57921" lon="0.17139">
        <ele>8.8</ele>
        <time>2023-12-03T11:05:43Z</time>
      </trkpt>
      <trkpt lat="46.57913" lon="0.17139">
        <ele>8.4</ele>
        <time>2023-12-03T11:05:45Z</time>
      </trkpt>
      <trkpt lat="46.57908" lon="0.17138">
        <ele>8.2</ele>
        <time>2023-12-03T11:05:46Z</time>
      </trkpt>
      <trkpt lat="46.579" lon="0.17136">
        <ele>7.8</ele>
        <time>2023-12-03T11:05:48Z</time>
      </trkpt>
      <trkpt lat="46.5789" lon="0.17132">
        <ele>6.6</ele>
        <time>2023-12-03T11:05:50Z</time>
      </trkpt>
      <trkpt lat="46.57884" lon="0.17131">
        <ele>6.4</ele>
        <time>2023-12-03T11:05:51Z</time>
      </trkpt>
      <trkpt lat="46.57879" lon="0.1713">
        <ele>5.8</ele>
        <time>2023-12-03T11:05:52Z</time>
      </trkpt>
      <trkpt lat="46.57873" lon="0.17128">
        <ele>5.6</ele>
        <time>2023-12-03T11:05:53Z</time>
      </trkpt>
      <trkpt lat="46.57864" lon="0.17126">
        <ele>5</ele>
        <time>2023-12-03T11:05:55Z</time>
      </trkpt>
      <trkpt lat="46.57858" lon="0.17125">
        <ele>3.8</ele>
        <time>2023-12-03T11:05:56Z</time>
      </trkpt>
      <trkpt lat="46.57852" lon="0.17123">
        <ele>3</ele>
        <time>2023-12-03T11:05:57Z</time>
      </trkpt>
      <trkpt lat="46.57848" lon="0.17123">
        <ele>2.2</ele>
        <time>2023-12-03T11:05:58Z</time>
      </trkpt>
      <trkpt lat="46.57839" lon="0.17119">
        <ele>1</ele>
        <time>2023-12-03T11:06:00Z</time>
      </trkpt>
      <trkpt lat="46.57833" lon="0.17117">
        <ele>134.2</ele>
        <time>2023-12-03T11:06:01Z</time>
      </trkpt>
      <trkpt lat="46.57827" lon="0.17117">
        <ele>-0.6</ele>
        <time>2023-12-03T11:06:02Z</time>
      </trkpt>
      <trkpt lat="46.57821" lon="0.17119">
        <ele>-1</ele>
        <time>2023-12-03T11:06:03Z</time>
      </trkpt>
      <trkpt lat="46.5781" lon="0.17122">
        <ele>-2.2</ele>
        <time>2023-12-03T11:06:05Z</time>
      </trkpt>
      <trkpt lat="46.57799" lon="0.17123">
        <ele>-4.2</ele>
        <time>2023-12-03T11:06:07Z</time>
      </trkpt>
      <trkpt lat="46.57789" lon="0.17122">
        <ele>-5.8</ele>
        <time>2023-12-03T11:06:09Z</time>
      </trkpt>
      <trkpt lat="46.57784" lon="0.1712">
        <ele>-6.4</ele>
        <time>2023-12-03T11:06:10Z</time>
      </trkpt>
      <trkpt lat="46.57779" lon="0.17114">
        <ele>-7</ele>
        <time>2023-12-03T11:06:12Z</time>
      </trkpt>
      <trkpt lat="46.57777" lon="0.1711">
        <ele>-7.2</ele>
        <time>2023-12-03T11:06:13Z</time>
      </trkpt>
      <trkpt lat="46.57769" lon="0.17095">
        <ele>-7</ele>
        <time>2023-12-03T11:06:18Z</time>
      </trkpt>
      <trkpt lat="46.57759" lon="0.17073">
        <ele>-6</ele>
        <time>2023-12-03T11:06:23Z</time>
      </trkpt>
      <trkpt lat="46.57757" lon="0.17068">
        <ele>-6</ele>
        <time>2023-12-03T11:06:24Z</time>
      </trkpt>
      <trkpt lat="46.57747" lon="0.17042">
        <ele>-6</ele>
        <time>2023-12-03T11:06:29Z</time>
      </trkpt>
      <trkpt lat="46.57746" lon="0.17036">
        <ele>-6</ele>
        <time>2023-12-03T11:06:30Z</time>
      </trkpt>
      <trkpt lat="46.57738" lon="0.17009">
        <ele>-5.2</ele>
        <time>2023-12-03T11:06:35Z</time>
      </trkpt>
      <trkpt lat="46.57737" lon="0.17003">
        <ele>-5.2</ele>
        <time>2023-12-03T11:06:36Z</time>
      </trkpt>
      <trkpt lat="46.57736" lon="0.16997">
        <ele>-5.2</ele>
        <time>2023-12-03T11:06:37Z</time>
      </trkpt>
      <trkpt lat="46.57733" lon="0.1698">
        <ele>-4.8</ele>
        <time>2023-12-03T11:06:40Z</time>
      </trkpt>
      <trkpt lat="46.57732" lon="0.16969">
        <ele>-4.6</ele>
        <time>2023-12-03T11:06:42Z</time>
      </trkpt>
      <trkpt lat="46.57732" lon="0.16963">
        <ele>-4.4</ele>
        <time>2023-12-03T11:06:43Z</time>
      </trkpt>
      <trkpt lat="46.5773" lon="0.16937">
        <ele>-4.2</ele>
        <time>2023-12-03T11:06:48Z</time>
      </trkpt>
      <trkpt lat="46.57732" lon="0.16927">
        <ele>-4</ele>
        <time>2023-12-03T11:06:50Z</time>
      </trkpt>
      <trkpt lat="46.57734" lon="0.16904">
        <ele>-4</ele>
        <time>2023-12-03T11:06:53Z</time>
      </trkpt>
      <trkpt lat="46.57734" lon="0.16897">
        <ele>-4</ele>
        <time>2023-12-03T11:06:54Z</time>
      </trkpt>
      <trkpt lat="46.57734" lon="0.1688">
        <ele>-3.8</ele>
        <time>2023-12-03T11:06:57Z</time>
      </trkpt>
      <trkpt lat="46.5773" lon="0.1684">
        <ele>-3.4</ele>
        <time>2023-12-03T11:07:04Z</time>
      </trkpt>
      <trkpt lat="46.57722" lon="0.16819">
        <ele>-5</ele>
        <time>2023-12-03T11:07:09Z</time>
      </trkpt>
      <trkpt lat="46.5772" lon="0.16808">
        <ele>-6.2</ele>
        <time>2023-12-03T11:07:12Z</time>
      </trkpt>
      <trkpt lat="46.5772" lon="0.16806">
        <ele>-6.2</ele>
        <time>2023-12-03T11:07:13Z</time>
      </trkpt>
      <trkpt lat="46.57718" lon="0.16803">
        <ele>-6.4</ele>
        <time>2023-12-03T11:07:14Z</time>
      </trkpt>
      <trkpt lat="46.57714" lon="0.16785">
        <ele>-6</ele>
        <time>2023-12-03T11:07:23Z</time>
      </trkpt>
      <trkpt lat="46.57708" lon="0.16776">
        <ele>-5.2</ele>
        <time>2023-12-03T11:07:30Z</time>
      </trkpt>
      <trkpt lat="46.57705" lon="0.16774">
        <ele>-5</ele>
        <time>2023-12-03T11:07:32Z</time>
      </trkpt>
      <trkpt lat="46.57695" lon="0.16762">
        <ele>-3.8</ele>
        <time>2023-12-03T11:07:40Z</time>
      </trkpt>
      <trkpt lat="46.57694" lon="0.16763">
        <ele>-3.6</ele>
        <time>2023-12-03T11:07:41Z</time>
      </trkpt>
      <trkpt lat="46.57686" lon="0.16762">
        <ele>-2.6</ele>
        <time>2023-12-03T11:07:46Z</time>
      </trkpt>
      <trkpt lat="46.57684" lon="0.16761">
        <ele>-2.2</ele>
        <time>2023-12-03T11:07:48Z</time>
      </trkpt>
      <trkpt lat="46.5768" lon="0.1676">
        <ele>-1.6</ele>
        <time>2023-12-03T11:07:51Z</time>
      </trkpt>
      <trkpt lat="46.57678" lon="0.1676">
        <ele>-1.2</ele>
        <time>2023-12-03T11:07:52Z</time>
      </trkpt>
      <trkpt lat="46.57673" lon="0.16757">
        <ele>-0.6</ele>
        <time>2023-12-03T11:07:56Z</time>
      </trkpt>
      <trkpt lat="46.5767" lon="0.16755">
        <ele>129.9</ele>
        <time>2023-12-03T11:07:58Z</time>
      </trkpt>
      <trkpt lat="46.57665" lon="0.16753">
        <ele>0.8</ele>
        <time>2023-12-03T11:08:01Z</time>
      </trkpt>
      <trkpt lat="46.57664" lon="0.16752">
        <ele>1</ele>
        <time>2023-12-03T11:08:02Z</time>
      </trkpt>
      <trkpt lat="46.57662" lon="0.16749">
        <ele>1.4</ele>
        <time>2023-12-03T11:08:04Z</time>
      </trkpt>
      <trkpt lat="46.57658" lon="0.16744">
        <ele>1.4</ele>
        <time>2023-12-03T11:08:07Z</time>
      </trkpt>
      <trkpt lat="46.57648" lon="0.16735">
        <ele>2</ele>
        <time>2023-12-03T11:08:14Z</time>
      </trkpt>
      <trkpt lat="46.57643" lon="0.16725">
        <ele>2.4</ele>
        <time>2023-12-03T11:08:19Z</time>
      </trkpt>
      <trkpt lat="46.5763" lon="0.16712">
        <ele>3.2</ele>
        <time>2023-12-03T11:08:26Z</time>
      </trkpt>
      <trkpt lat="46.57628" lon="0.16711">
        <ele>3.2</ele>
        <time>2023-12-03T11:08:27Z</time>
      </trkpt>
      <trkpt lat="46.57616" lon="0.16697">
        <ele>4.2</ele>
        <time>2023-12-03T11:08:34Z</time>
      </trkpt>
      <trkpt lat="46.57608" lon="0.1669">
        <ele>4.6</ele>
        <time>2023-12-03T11:08:39Z</time>
      </trkpt>
      <trkpt lat="46.57606" lon="0.16691">
        <ele>4.6</ele>
        <time>2023-12-03T11:08:41Z</time>
      </trkpt>
      <trkpt lat="46.57604" lon="0.16699">
        <ele>5</ele>
        <time>2023-12-03T11:08:45Z</time>
      </trkpt>
      <trkpt lat="46.57603" lon="0.16703">
        <ele>5.2</ele>
        <time>2023-12-03T11:08:47Z</time>
      </trkpt>
      <trkpt lat="46.57603" lon="0.16705">
        <ele>5.4</ele>
        <time>2023-12-03T11:08:48Z</time>
      </trkpt>
      <trkpt lat="46.57603" lon="0.16712">
        <ele>5.4</ele>
        <time>2023-12-03T11:08:51Z</time>
      </trkpt>
      <trkpt lat="46.57602" lon="0.1673">
        <ele>5.6</ele>
        <time>2023-12-03T11:08:57Z</time>
      </trkpt>
      <trkpt lat="46.57596" lon="0.16745">
        <ele>5.8</ele>
        <time>2023-12-03T11:09:02Z</time>
      </trkpt>
      <trkpt lat="46.57593" lon="0.1675">
        <ele>5.8</ele>
        <time>2023-12-03T11:09:04Z</time>
      </trkpt>
      <trkpt lat="46.57587" lon="0.16762">
        <ele>6</ele>
        <time>2023-12-03T11:09:08Z</time>
      </trkpt>
      <trkpt lat="46.57581" lon="0.16776">
        <ele>6.2</ele>
        <time>2023-12-03T11:09:12Z</time>
      </trkpt>
      <trkpt lat="46.57578" lon="0.16788">
        <ele>6.6</ele>
        <time>2023-12-03T11:09:16Z</time>
      </trkpt>
      <trkpt lat="46.57573" lon="0.1681">
        <ele>6.8</ele>
        <time>2023-12-03T11:09:23Z</time>
      </trkpt>
      <trkpt lat="46.57567" lon="0.16838">
        <ele>7.2</ele>
        <time>2023-12-03T11:09:31Z</time>
      </trkpt>
      <trkpt lat="46.57566" lon="0.16842">
        <ele>7.2</ele>
        <time>2023-12-03T11:09:32Z</time>
      </trkpt>
      <trkpt lat="46.57565" lon="0.16845">
        <ele>7.4</ele>
        <time>2023-12-03T11:09:33Z</time>
      </trkpt>
      <trkpt lat="46.57559" lon="0.16862">
        <ele>7.2</ele>
        <time>2023-12-03T11:09:38Z</time>
      </trkpt>
      <trkpt lat="46.57555" lon="0.16881">
        <ele>6.8</ele>
        <time>2023-12-03T11:09:43Z</time>
      </trkpt>
      <trkpt lat="46.57548" lon="0.16906">
        <ele>6.6</ele>
        <time>2023-12-03T11:09:49Z</time>
      </trkpt>
      <trkpt lat="46.57534" lon="0.16942">
        <ele>6.8</ele>
        <time>2023-12-03T11:09:57Z</time>
      </trkpt>
      <trkpt lat="46.57531" lon="0.16951">
        <ele>6.4</ele>
        <time>2023-12-03T11:09:59Z</time>
      </trkpt>
      <trkpt lat="46.57523" lon="0.16977">
        <ele>5.8</ele>
        <time>2023-12-03T11:10:05Z</time>
      </trkpt>
      <trkpt lat="46.5752" lon="0.16992">
        <ele>5.2</ele>
        <time>2023-12-03T11:10:08Z</time>
      </trkpt>
      <trkpt lat="46.57519" lon="0.17003">
        <ele>4.4</ele>
        <time>2023-12-03T11:10:10Z</time>
      </trkpt>
      <trkpt lat="46.57518" lon="0.17008">
        <ele>4</ele>
        <time>2023-12-03T11:10:11Z</time>
      </trkpt>
      <trkpt lat="46.57516" lon="0.17037">
        <ele>3.8</ele>
        <time>2023-12-03T11:10:17Z</time>
      </trkpt>
      <trkpt lat="46.57514" lon="0.17068">
        <ele>3.8</ele>
        <time>2023-12-03T11:10:24Z</time>
      </trkpt>
      <trkpt lat="46.57513" lon="0.17085">
        <ele>4.8</ele>
        <time>2023-12-03T11:10:28Z</time>
      </trkpt>
      <trkpt lat="46.57513" lon="0.17099">
        <ele>5</ele>
        <time>2023-12-03T11:10:31Z</time>
      </trkpt>
      <trkpt lat="46.57513" lon="0.17106">
        <ele>5.4</ele>
        <time>2023-12-03T11:10:33Z</time>
      </trkpt>
      <trkpt lat="46.57513" lon="0.17121">
        <ele>6</ele>
        <time>2023-12-03T11:10:37Z</time>
      </trkpt>
      <trkpt lat="46.57512" lon="0.17133">
        <ele>6.2</ele>
        <time>2023-12-03T11:10:40Z</time>
      </trkpt>
      <trkpt lat="46.57509" lon="0.17167">
        <ele>6.2</ele>
        <time>2023-12-03T11:10:48Z</time>
      </trkpt>
      <trkpt lat="46.57504" lon="0.172">
        <ele>6.6</ele>
        <time>2023-12-03T11:10:56Z</time>
      </trkpt>
      <trkpt lat="46.57502" lon="0.17229">
        <ele>7</ele>
        <time>2023-12-03T11:11:03Z</time>
      </trkpt>
      <trkpt lat="46.57501" lon="0.17238">
        <ele>7.2</ele>
        <time>2023-12-03T11:11:05Z</time>
      </trkpt>
      <trkpt lat="46.57501" lon="0.17263">
        <ele>7.4</ele>
        <time>2023-12-03T11:11:11Z</time>
      </trkpt>
      <trkpt lat="46.57501" lon="0.17282">
        <ele>7.6</ele>
        <time>2023-12-03T11:11:15Z</time>
      </trkpt>
      <trkpt lat="46.57501" lon="0.173">
        <ele>8.2</ele>
        <time>2023-12-03T11:11:19Z</time>
      </trkpt>
      <trkpt lat="46.57502" lon="0.17333">
        <ele>7.4</ele>
        <time>2023-12-03T11:11:26Z</time>
      </trkpt>
      <trkpt lat="46.57504" lon="0.17354">
        <ele>7.2</ele>
        <time>2023-12-03T11:11:31Z</time>
      </trkpt>
      <trkpt lat="46.57506" lon="0.17389">
        <ele>7.2</ele>
        <time>2023-12-03T11:11:39Z</time>
      </trkpt>
      <trkpt lat="46.57503" lon="0.17421">
        <ele>7.6</ele>
        <time>2023-12-03T11:11:46Z</time>
      </trkpt>
      <trkpt lat="46.57499" lon="0.17433">
        <ele>8.4</ele>
        <time>2023-12-03T11:11:49Z</time>
      </trkpt>
      <trkpt lat="46.57495" lon="0.17444">
        <ele>8.6</ele>
        <time>2023-12-03T11:11:52Z</time>
      </trkpt>
      <trkpt lat="46.57484" lon="0.1748">
        <ele>8.8</ele>
        <time>2023-12-03T11:12:01Z</time>
      </trkpt>
      <trkpt lat="46.57471" lon="0.17523">
        <ele>8.8</ele>
        <time>2023-12-03T11:12:10Z</time>
      </trkpt>
      <trkpt lat="46.57459" lon="0.1756">
        <ele>8.8</ele>
        <time>2023-12-03T11:12:17Z</time>
      </trkpt>
      <trkpt lat="46.57448" lon="0.17589">
        <ele>8</ele>
        <time>2023-12-03T11:12:24Z</time>
      </trkpt>
      <trkpt lat="46.5744" lon="0.17617">
        <ele>8.4</ele>
        <time>2023-12-03T11:12:30Z</time>
      </trkpt>
      <trkpt lat="46.57433" lon="0.17641">
        <ele>8</ele>
        <time>2023-12-03T11:12:35Z</time>
      </trkpt>
      <trkpt lat="46.57425" lon="0.17668">
        <ele>8.6</ele>
        <time>2023-12-03T11:12:41Z</time>
      </trkpt>
      <trkpt lat="46.5742" lon="0.17687">
        <ele>8.6</ele>
        <time>2023-12-03T11:12:45Z</time>
      </trkpt>
      <trkpt lat="46.57417" lon="0.17702">
        <ele>8.4</ele>
        <time>2023-12-03T11:12:48Z</time>
      </trkpt>
      <trkpt lat="46.57415" lon="0.17707">
        <ele>8.4</ele>
        <time>2023-12-03T11:12:49Z</time>
      </trkpt>
      <trkpt lat="46.57413" lon="0.17711">
        <ele>8.4</ele>
        <time>2023-12-03T11:12:50Z</time>
      </trkpt>
      <trkpt lat="46.57406" lon="0.1773">
        <ele>8</ele>
        <time>2023-12-03T11:12:54Z</time>
      </trkpt>
      <trkpt lat="46.57403" lon="0.17739">
        <ele>7.6</ele>
        <time>2023-12-03T11:12:56Z</time>
      </trkpt>
      <trkpt lat="46.57401" lon="0.17745">
        <ele>7.6</ele>
        <time>2023-12-03T11:12:57Z</time>
      </trkpt>
      <trkpt lat="46.57398" lon="0.17756">
        <ele>7.4</ele>
        <time>2023-12-03T11:12:59Z</time>
      </trkpt>
      <trkpt lat="46.57397" lon="0.1776">
        <ele>7.4</ele>
        <time>2023-12-03T11:13:00Z</time>
      </trkpt>
      <trkpt lat="46.57395" lon="0.17768">
        <ele>7.4</ele>
        <time>2023-12-03T11:13:02Z</time>
      </trkpt>
      <trkpt lat="46.57392" lon="0.17776">
        <ele>7.4</ele>
        <time>2023-12-03T11:13:04Z</time>
      </trkpt>
      <trkpt lat="46.57385" lon="0.17795">
        <ele>7</ele>
        <time>2023-12-03T11:13:08Z</time>
      </trkpt>
      <trkpt lat="46.57383" lon="0.178">
        <ele>6.8</ele>
        <time>2023-12-03T11:13:09Z</time>
      </trkpt>
      <trkpt lat="46.57371" lon="0.17831">
        <ele>6.4</ele>
        <time>2023-12-03T11:13:15Z</time>
      </trkpt>
      <trkpt lat="46.57367" lon="0.17841">
        <ele>6.2</ele>
        <time>2023-12-03T11:13:17Z</time>
      </trkpt>
      <trkpt lat="46.57365" lon="0.17847">
        <ele>6</ele>
        <time>2023-12-03T11:13:18Z</time>
      </trkpt>
      <trkpt lat="46.57362" lon="0.17861">
        <ele>5.6</ele>
        <time>2023-12-03T11:13:20Z</time>
      </trkpt>
      <trkpt lat="46.5736" lon="0.17879">
        <ele>5.2</ele>
        <time>2023-12-03T11:13:22Z</time>
      </trkpt>
      <trkpt lat="46.57358" lon="0.17897">
        <ele>4.8</ele>
        <time>2023-12-03T11:13:24Z</time>
      </trkpt>
      <trkpt lat="46.57356" lon="0.17905">
        <ele>4.6</ele>
        <time>2023-12-03T11:13:25Z</time>
      </trkpt>
      <trkpt lat="46.57354" lon="0.17913">
        <ele>4.6</ele>
        <time>2023-12-03T11:13:26Z</time>
      </trkpt>
      <trkpt lat="46.57347" lon="0.17936">
        <ele>3.8</ele>
        <time>2023-12-03T11:13:29Z</time>
      </trkpt>
      <trkpt lat="46.57345" lon="0.17943">
        <ele>4</ele>
        <time>2023-12-03T11:13:30Z</time>
      </trkpt>
      <trkpt lat="46.5734" lon="0.17954">
        <ele>4</ele>
        <time>2023-12-03T11:13:32Z</time>
      </trkpt>
      <trkpt lat="46.57333" lon="0.17967">
        <ele>4</ele>
        <time>2023-12-03T11:13:35Z</time>
      </trkpt>
      <trkpt lat="46.57319" lon="0.17993">
        <ele>4.6</ele>
        <time>2023-12-03T11:13:42Z</time>
      </trkpt>
      <trkpt lat="46.57316" lon="0.17998">
        <ele>5</ele>
        <time>2023-12-03T11:13:44Z</time>
      </trkpt>
      <trkpt lat="46.57303" lon="0.18012">
        <ele>5.6</ele>
        <time>2023-12-03T11:13:48Z</time>
      </trkpt>
      <trkpt lat="46.57301" lon="0.18015">
        <ele>5.6</ele>
        <time>2023-12-03T11:13:49Z</time>
      </trkpt>
      <trkpt lat="46.57294" lon="0.18026">
        <ele>5.2</ele>
        <time>2023-12-03T11:13:52Z</time>
      </trkpt>
      <trkpt lat="46.57273" lon="0.18052">
        <ele>5.6</ele>
        <time>2023-12-03T11:13:59Z</time>
      </trkpt>
      <trkpt lat="46.57255" lon="0.18074">
        <ele>5.8</ele>
        <time>2023-12-03T11:14:06Z</time>
      </trkpt>
      <trkpt lat="46.5724" lon="0.18094">
        <ele>6</ele>
        <time>2023-12-03T11:14:13Z</time>
      </trkpt>
      <trkpt lat="46.57225" lon="0.18115">
        <ele>6</ele>
        <time>2023-12-03T11:14:19Z</time>
      </trkpt>
      <trkpt lat="46.57221" lon="0.18123">
        <ele>6.2</ele>
        <time>2023-12-03T11:14:21Z</time>
      </trkpt>
      <trkpt lat="46.57212" lon="0.18132">
        <ele>6</ele>
        <time>2023-12-03T11:14:24Z</time>
      </trkpt>
      <trkpt lat="46.57198" lon="0.18145">
        <ele>6</ele>
        <time>2023-12-03T11:14:29Z</time>
      </trkpt>
      <trkpt lat="46.57179" lon="0.18148">
        <ele>6.4</ele>
        <time>2023-12-03T11:14:35Z</time>
      </trkpt>
      <trkpt lat="46.57145" lon="0.18148">
        <ele>6.2</ele>
        <time>2023-12-03T11:14:45Z</time>
      </trkpt>
      <trkpt lat="46.5711" lon="0.18146">
        <ele>6.6</ele>
        <time>2023-12-03T11:14:56Z</time>
      </trkpt>
      <trkpt lat="46.57078" lon="0.18144">
        <ele>6.8</ele>
        <time>2023-12-03T11:15:05Z</time>
      </trkpt>
      <trkpt lat="46.57066" lon="0.18145">
        <ele>7.2</ele>
        <time>2023-12-03T11:15:10Z</time>
      </trkpt>
      <trkpt lat="46.57063" lon="0.18146">
        <ele>7.2</ele>
        <time>2023-12-03T11:15:11Z</time>
      </trkpt>
      <trkpt lat="46.57061" lon="0.18149">
        <ele>7.2</ele>
        <time>2023-12-03T11:15:12Z</time>
      </trkpt>
      <trkpt lat="46.5706" lon="0.18156">
        <ele>7</ele>
        <time>2023-12-03T11:15:14Z</time>
      </trkpt>
      <trkpt lat="46.57059" lon="0.1818">
        <ele>7</ele>
        <time>2023-12-03T11:15:19Z</time>
      </trkpt>
      <trkpt lat="46.57058" lon="0.1823">
        <ele>7</ele>
        <time>2023-12-03T11:15:27Z</time>
      </trkpt>
      <trkpt lat="46.57057" lon="0.18293">
        <ele>7</ele>
        <time>2023-12-03T11:15:36Z</time>
      </trkpt>
      <trkpt lat="46.57057" lon="0.18337">
        <ele>7</ele>
        <time>2023-12-03T11:15:43Z</time>
      </trkpt>
      <trkpt lat="46.57054" lon="0.18392">
        <ele>6.6</ele>
        <time>2023-12-03T11:15:51Z</time>
      </trkpt>
      <trkpt lat="46.57052" lon="0.18435">
        <ele>6.2</ele>
        <time>2023-12-03T11:15:57Z</time>
      </trkpt>
      <trkpt lat="46.57051" lon="0.18443">
        <ele>6</ele>
        <time>2023-12-03T11:15:58Z</time>
      </trkpt>
      <trkpt lat="46.57047" lon="0.18484">
        <ele>6</ele>
        <time>2023-12-03T11:16:03Z</time>
      </trkpt>
      <trkpt lat="46.57038" lon="0.18555">
        <ele>6.4</ele>
        <time>2023-12-03T11:16:12Z</time>
      </trkpt>
      <trkpt lat="46.57029" lon="0.18614">
        <ele>6.6</ele>
        <time>2023-12-03T11:16:20Z</time>
      </trkpt>
      <trkpt lat="46.57018" lon="0.18694">
        <ele>7</ele>
        <time>2023-12-03T11:16:31Z</time>
      </trkpt>
      <trkpt lat="46.5701" lon="0.18765">
        <ele>6.6</ele>
        <time>2023-12-03T11:16:41Z</time>
      </trkpt>
      <trkpt lat="46.57003" lon="0.18838">
        <ele>6.2</ele>
        <time>2023-12-03T11:16:51Z</time>
      </trkpt>
      <trkpt lat="46.56997" lon="0.18903">
        <ele>6.8</ele>
        <time>2023-12-03T11:17:00Z</time>
      </trkpt>
      <trkpt lat="46.56993" lon="0.18937">
        <ele>6.6</ele>
        <time>2023-12-03T11:17:05Z</time>
      </trkpt>
      <trkpt lat="46.56989" lon="0.18984">
        <ele>6.8</ele>
        <time>2023-12-03T11:17:12Z</time>
      </trkpt>
      <trkpt lat="46.56987" lon="0.18998">
        <ele>7.2</ele>
        <time>2023-12-03T11:17:14Z</time>
      </trkpt>
      <trkpt lat="46.56983" lon="0.19039">
        <ele>7.2</ele>
        <time>2023-12-03T11:17:20Z</time>
      </trkpt>
      <trkpt lat="46.56976" lon="0.19103">
        <ele>7</ele>
        <time>2023-12-03T11:17:29Z</time>
      </trkpt>
      <trkpt lat="46.56968" lon="0.19175">
        <ele>7</ele>
        <time>2023-12-03T11:17:39Z</time>
      </trkpt>
      <trkpt lat="46.56964" lon="0.19216">
        <ele>7</ele>
        <time>2023-12-03T11:17:45Z</time>
      </trkpt>
      <trkpt lat="46.56962" lon="0.19256">
        <ele>7.2</ele>
        <time>2023-12-03T11:17:51Z</time>
      </trkpt>
      <trkpt lat="46.5696" lon="0.19297">
        <ele>7.2</ele>
        <time>2023-12-03T11:17:58Z</time>
      </trkpt>
      <trkpt lat="46.56955" lon="0.19345">
        <ele>6.8</ele>
        <time>2023-12-03T11:18:05Z</time>
      </trkpt>
      <trkpt lat="46.56944" lon="0.19411">
        <ele>6.4</ele>
        <time>2023-12-03T11:18:14Z</time>
      </trkpt>
      <trkpt lat="46.56939" lon="0.19441">
        <ele>6</ele>
        <time>2023-12-03T11:18:18Z</time>
      </trkpt>
      <trkpt lat="46.56937" lon="0.19462">
        <ele>5.8</ele>
        <time>2023-12-03T11:18:21Z</time>
      </trkpt>
      <trkpt lat="46.56938" lon="0.19469">
        <ele>5.6</ele>
        <time>2023-12-03T11:18:22Z</time>
      </trkpt>
      <trkpt lat="46.56941" lon="0.19484">
        <ele>5</ele>
        <time>2023-12-03T11:18:25Z</time>
      </trkpt>
      <trkpt lat="46.56942" lon="0.19486">
        <ele>4.8</ele>
        <time>2023-12-03T11:18:26Z</time>
      </trkpt>
      <trkpt lat="46.56942" lon="0.1949">
        <ele>4.6</ele>
        <time>2023-12-03T11:18:28Z</time>
      </trkpt>
      <trkpt lat="46.56938" lon="0.19495">
        <ele>4.4</ele>
        <time>2023-12-03T11:18:30Z</time>
      </trkpt>
      <trkpt lat="46.56922" lon="0.19521">
        <ele>5</ele>
        <time>2023-12-03T11:18:36Z</time>
      </trkpt>
      <trkpt lat="46.56918" lon="0.19532">
        <ele>5.2</ele>
        <time>2023-12-03T11:18:38Z</time>
      </trkpt>
      <trkpt lat="46.56914" lon="0.19546">
        <ele>5.2</ele>
        <time>2023-12-03T11:18:41Z</time>
      </trkpt>
      <trkpt lat="46.56912" lon="0.19572">
        <ele>5.4</ele>
        <time>2023-12-03T11:18:46Z</time>
      </trkpt>
      <trkpt lat="46.56911" lon="0.19599">
        <ele>5.4</ele>
        <time>2023-12-03T11:18:52Z</time>
      </trkpt>
      <trkpt lat="46.56911" lon="0.19603">
        <ele>5.4</ele>
        <time>2023-12-03T11:18:53Z</time>
      </trkpt>
      <trkpt lat="46.56908" lon="0.1961">
        <ele>5.6</ele>
        <time>2023-12-03T11:18:55Z</time>
      </trkpt>
      <trkpt lat="46.56908" lon="0.19618">
        <ele>6</ele>
        <time>2023-12-03T11:18:57Z</time>
      </trkpt>
      <trkpt lat="46.56909" lon="0.19628">
        <ele>6.4</ele>
        <time>2023-12-03T11:18:59Z</time>
      </trkpt>
      <trkpt lat="46.56911" lon="0.19641">
        <ele>6.8</ele>
        <time>2023-12-03T11:19:01Z</time>
      </trkpt>
      <trkpt lat="46.56914" lon="0.19666">
        <ele>7</ele>
        <time>2023-12-03T11:19:05Z</time>
      </trkpt>
      <trkpt lat="46.56916" lon="0.19712">
        <ele>7.2</ele>
        <time>2023-12-03T11:19:12Z</time>
      </trkpt>
      <trkpt lat="46.56921" lon="0.19746">
        <ele>7.8</ele>
        <time>2023-12-03T11:19:18Z</time>
      </trkpt>
      <trkpt lat="46.56921" lon="0.19767">
        <ele>8.2</ele>
        <time>2023-12-03T11:19:22Z</time>
      </trkpt>
      <trkpt lat="46.56918" lon="0.1977">
        <ele>8.4</ele>
        <time>2023-12-03T11:19:23Z</time>
      </trkpt>
      <trkpt lat="46.56906" lon="0.19776">
        <ele>8.4</ele>
        <time>2023-12-03T11:19:27Z</time>
      </trkpt>
      <trkpt lat="46.56898" lon="0.19779">
        <ele>7.8</ele>
        <time>2023-12-03T11:19:30Z</time>
      </trkpt>
      <trkpt lat="46.56897" lon="0.19783">
        <ele>7.2</ele>
        <time>2023-12-03T11:19:32Z</time>
      </trkpt>
      <trkpt lat="46.56898" lon="0.19784">
        <ele>7.2</ele>
        <time>2023-12-03T11:19:33Z</time>
      </trkpt>
      <trkpt lat="46.56899" lon="0.19784">
        <ele>7</ele>
        <time>2023-12-03T11:19:34Z</time>
      </trkpt>
      <trkpt lat="46.56903" lon="0.19785">
        <ele>7</ele>
        <time>2023-12-03T11:19:37Z</time>
      </trkpt>
      <trkpt lat="46.56914" lon="0.19789">
        <ele>7.6</ele>
        <time>2023-12-03T11:19:42Z</time>
      </trkpt>
      <trkpt lat="46.56919" lon="0.19791">
        <ele>7.6</ele>
        <time>2023-12-03T11:19:44Z</time>
      </trkpt>
      <trkpt lat="46.56921" lon="0.19798">
        <ele>7.6</ele>
        <time>2023-12-03T11:19:46Z</time>
      </trkpt>
      <trkpt lat="46.56924" lon="0.19825">
        <ele>8.2</ele>
        <time>2023-12-03T11:19:51Z</time>
      </trkpt>
      <trkpt lat="46.56932" lon="0.19883">
        <ele>8.6</ele>
        <time>2023-12-03T11:19:59Z</time>
      </trkpt>
      <trkpt lat="46.56938" lon="0.1994">
        <ele>8.2</ele>
        <time>2023-12-03T11:20:06Z</time>
      </trkpt>
      <trkpt lat="46.56941" lon="0.1999">
        <ele>8.4</ele>
        <time>2023-12-03T11:20:12Z</time>
      </trkpt>
      <trkpt lat="46.5694" lon="0.20048">
        <ele>7.8</ele>
        <time>2023-12-03T11:20:19Z</time>
      </trkpt>
      <trkpt lat="46.56943" lon="0.2006">
        <ele>7.4</ele>
        <time>2023-12-03T11:20:21Z</time>
      </trkpt>
      <trkpt lat="46.56945" lon="0.20062">
        <ele>7.4</ele>
        <time>2023-12-03T11:20:22Z</time>
      </trkpt>
      <trkpt lat="46.56948" lon="0.20066">
        <ele>7</ele>
        <time>2023-12-03T11:20:24Z</time>
      </trkpt>
      <trkpt lat="46.56949" lon="0.20067">
        <ele>6.8</ele>
        <time>2023-12-03T11:20:25Z</time>
      </trkpt>
      <trkpt lat="46.5695" lon="0.20069">
        <ele>6.6</ele>
        <time>2023-12-03T11:20:26Z</time>
      </trkpt>
      <trkpt lat="46.56951" lon="0.20071">
        <ele>6.4</ele>
        <time>2023-12-03T11:20:27Z</time>
      </trkpt>
      <trkpt lat="46.56951" lon="0.20081">
        <ele>6</ele>
        <time>2023-12-03T11:20:30Z</time>
      </trkpt>
      <trkpt lat="46.56951" lon="0.20086">
        <ele>5.8</ele>
        <time>2023-12-03T11:20:31Z</time>
      </trkpt>
      <trkpt lat="46.56952" lon="0.2011">
        <ele>5.6</ele>
        <time>2023-12-03T11:20:35Z</time>
      </trkpt>
      <trkpt lat="46.56953" lon="0.20127">
        <ele>5.2</ele>
        <time>2023-12-03T11:20:38Z</time>
      </trkpt>
      <trkpt lat="46.56955" lon="0.20149">
        <ele>5</ele>
        <time>2023-12-03T11:20:41Z</time>
      </trkpt>
      <trkpt lat="46.56955" lon="0.20166">
        <ele>4.8</ele>
        <time>2023-12-03T11:20:43Z</time>
      </trkpt>
      <trkpt lat="46.56954" lon="0.20204">
        <ele>4</ele>
        <time>2023-12-03T11:20:47Z</time>
      </trkpt>
      <trkpt lat="46.56952" lon="0.20224">
        <ele>3.6</ele>
        <time>2023-12-03T11:20:49Z</time>
      </trkpt>
      <trkpt lat="46.56947" lon="0.20271">
        <ele>2.6</ele>
        <time>2023-12-03T11:20:53Z</time>
      </trkpt>
      <trkpt lat="46.56945" lon="0.20297">
        <ele>1.4</ele>
        <time>2023-12-03T11:20:55Z</time>
      </trkpt>
      <trkpt lat="46.56943" lon="0.20322">
        <ele>0.2</ele>
        <time>2023-12-03T11:20:57Z</time>
      </trkpt>
      <trkpt lat="46.5694" lon="0.20347">
        <ele>-0.6</ele>
        <time>2023-12-03T11:20:59Z</time>
      </trkpt>
      <trkpt lat="46.56939" lon="0.20359">
        <ele>-1</ele>
        <time>2023-12-03T11:21:00Z</time>
      </trkpt>
      <trkpt lat="46.56937" lon="0.20371">
        <ele>-2</ele>
        <time>2023-12-03T11:21:01Z</time>
      </trkpt>
      <trkpt lat="46.5693" lon="0.20393">
        <ele>-3.6</ele>
        <time>2023-12-03T11:21:03Z</time>
      </trkpt>
      <trkpt lat="46.56926" lon="0.20404">
        <ele>-4.2</ele>
        <time>2023-12-03T11:21:04Z</time>
      </trkpt>
      <trkpt lat="46.56918" lon="0.20425">
        <ele>-5</ele>
        <time>2023-12-03T11:21:06Z</time>
      </trkpt>
      <trkpt lat="46.56902" lon="0.20462">
        <ele>-6</ele>
        <time>2023-12-03T11:21:10Z</time>
      </trkpt>
      <trkpt lat="46.56884" lon="0.205">
        <ele>-6</ele>
        <time>2023-12-03T11:21:15Z</time>
      </trkpt>
      <trkpt lat="46.56868" lon="0.20539">
        <ele>-5.8</ele>
        <time>2023-12-03T11:21:21Z</time>
      </trkpt>
      <trkpt lat="46.56855" lon="0.20575">
        <ele>-4.6</ele>
        <time>2023-12-03T11:21:28Z</time>
      </trkpt>
      <trkpt lat="46.5684" lon="0.20612">
        <ele>-4</ele>
        <time>2023-12-03T11:21:36Z</time>
      </trkpt>
      <trkpt lat="46.56827" lon="0.20627">
        <ele>-2.8</ele>
        <time>2023-12-03T11:21:41Z</time>
      </trkpt>
      <trkpt lat="46.56804" lon="0.20639">
        <ele>-1.6</ele>
        <time>2023-12-03T11:21:48Z</time>
      </trkpt>
      <trkpt lat="46.56788" lon="0.20639">
        <ele>-0.6</ele>
        <time>2023-12-03T11:21:53Z</time>
      </trkpt>
      <trkpt lat="46.56784" lon="0.20639">
        <ele>-0.4</ele>
        <time>2023-12-03T11:21:54Z</time>
      </trkpt>
      <trkpt lat="46.56767" lon="0.20641">
        <ele>0.4</ele>
        <time>2023-12-03T11:21:59Z</time>
      </trkpt>
      <trkpt lat="46.56764" lon="0.2064">
        <ele>0.6</ele>
        <time>2023-12-03T11:22:00Z</time>
      </trkpt>
      <trkpt lat="46.56747" lon="0.20632">
        <ele>0.8</ele>
        <time>2023-12-03T11:22:05Z</time>
      </trkpt>
      <trkpt lat="46.56741" lon="0.20629">
        <ele>1.8</ele>
        <time>2023-12-03T11:22:07Z</time>
      </trkpt>
      <trkpt lat="46.56726" lon="0.20626">
        <ele>2.2</ele>
        <time>2023-12-03T11:22:12Z</time>
      </trkpt>
      <trkpt lat="46.56722" lon="0.20621">
        <ele>2.2</ele>
        <time>2023-12-03T11:22:14Z</time>
      </trkpt>
      <trkpt lat="46.56722" lon="0.20615">
        <ele>1.8</ele>
        <time>2023-12-03T11:22:16Z</time>
      </trkpt>
      <trkpt lat="46.56722" lon="0.20611">
        <ele>1.2</ele>
        <time>2023-12-03T11:22:18Z</time>
      </trkpt>
    </trkseg>
  </trk>
</gpx>